<?xml version='1.0' encoding='UTF-8'?><gpx version="1.1" creator="JPX - https://github.com/jenetics/jpx" xmlns="http://www.topografix.com/GPX/1/1"><trk><trkseg><trkpt lat="44.6353459" lon="10.0332086"><ele>194.2</ele><time>2026-05-03T11:33:18.558Z</time></trkpt><trkpt lat="44.6352434" lon="10.033211"><ele>195.4</ele><time>2026-05-03T11:33:20.558Z</time></trkpt><trkpt lat="44.6351325" lon="10.0333192"><ele>196.6</ele><time>2026-05-03T11:33:22.558Z</time></trkpt><trkpt lat="44.6350808" lon="10.0333784"><ele>197.79999999999998</ele><time>2026-05-03T11:33:23.558Z</time></trkpt><trkpt lat="44.6349963" lon="10.0334716"><ele>199.0</ele><time>2026-05-03T11:33:25.559Z</time></trkpt><trkpt lat="44.6349507" lon="10.0335479"><ele>199.33333333333331</ele><time>2026-05-03T11:33:30.558Z</time></trkpt><trkpt lat="44.6349664" lon="10.0336786"><ele>199.66666666666666</ele><time>2026-05-03T11:33:32.558Z</time></trkpt><trkpt lat="44.6350002" lon="10.0337606"><ele>200.0</ele><time>2026-05-03T11:33:33.558Z</time></trkpt><trkpt lat="44.6350405" lon="10.0338338"><ele>200.33333333333331</ele><time>2026-05-03T11:33:34.558Z</time></trkpt><trkpt lat="44.6350911" lon="10.0339636"><ele>200.66666666666666</ele><time>2026-05-03T11:33:36.559Z</time></trkpt><trkpt lat="44.6350278" lon="10.0340153"><ele>201.0</ele><time>2026-05-03T11:33:39.558Z</time></trkpt><trkpt lat="44.6349352" lon="10.0340388"><ele>201.0</ele><time>2026-05-03T11:33:41.558Z</time></trkpt><trkpt lat="44.6348685" lon="10.0340486"><ele>201.0</ele><time>2026-05-03T11:33:42.558Z</time></trkpt><trkpt lat="44.6347955" lon="10.0340592"><ele>201.0</ele><time>2026-05-03T11:33:44.559Z</time></trkpt><trkpt lat="44.6347109" lon="10.0340472"><ele>201.0</ele><time>2026-05-03T11:33:46.559Z</time></trkpt><trkpt lat="44.6346271" lon="10.0340432"><ele>201.0</ele><time>2026-05-03T11:33:48.559Z</time></trkpt><trkpt lat="44.6344701" lon="10.034003"><ele>204.66666666666666</ele><time>2026-05-03T11:33:51.558Z</time></trkpt><trkpt lat="44.6344034" lon="10.0340923"><ele>208.33333333333331</ele><time>2026-05-03T11:33:52.558Z</time></trkpt><trkpt lat="44.634342" lon="10.0341781"><ele>212.0</ele><time>2026-05-03T11:33:53.558Z</time></trkpt><trkpt lat="44.6343465" lon="10.0343439"><ele>215.66666666666666</ele><time>2026-05-03T11:33:55.559Z</time></trkpt><trkpt lat="44.6343661" lon="10.0344348"><ele>219.33333333333331</ele><time>2026-05-03T11:33:56.558Z</time></trkpt><trkpt lat="44.6343788" lon="10.0345235"><ele>223.0</ele><time>2026-05-03T11:33:57.558Z</time></trkpt><trkpt lat="44.6343784" lon="10.0346698"><ele>223.0</ele><time>2026-05-03T11:33:59.559Z</time></trkpt><trkpt lat="44.6342922" lon="10.034621"><ele>223.0</ele><time>2026-05-03T11:34:01.559Z</time></trkpt><trkpt lat="44.6342013" lon="10.0345839"><ele>223.0</ele><time>2026-05-03T11:34:03.558Z</time></trkpt><trkpt lat="44.6340941" lon="10.0345451"><ele>223.0</ele><time>2026-05-03T11:34:05.559Z</time></trkpt><trkpt lat="44.6340396" lon="10.0346372"><ele>223.0</ele><time>2026-05-03T11:34:08.558Z</time></trkpt><trkpt lat="44.6340347" lon="10.0347572"><ele>222.99999999999997</ele><time>2026-05-03T11:34:10.558Z</time></trkpt><trkpt lat="44.6340072" lon="10.0348876"><ele>223.0</ele><time>2026-05-03T11:34:12.558Z</time></trkpt><trkpt lat="44.6339756" lon="10.0350258"><ele>223.0</ele><time>2026-05-03T11:34:14.558Z</time></trkpt><trkpt lat="44.6339514" lon="10.0351454"><ele>223.0</ele><time>2026-05-03T11:34:16.558Z</time></trkpt><trkpt lat="44.6339195" lon="10.0352406"><ele>222.99999999999997</ele><time>2026-05-03T11:34:17.558Z</time></trkpt><trkpt lat="44.6338679" lon="10.0353128"><ele>223.0</ele><time>2026-05-03T11:34:20.559Z</time></trkpt><trkpt lat="44.6338022" lon="10.0353188"><ele>223.0</ele><time>2026-05-03T11:34:22.558Z</time></trkpt><trkpt lat="44.633722" lon="10.0353487"><ele>223.0</ele><time>2026-05-03T11:34:24.558Z</time></trkpt><trkpt lat="44.6336349" lon="10.0354277"><ele>223.0</ele><time>2026-05-03T11:34:28.558Z</time></trkpt><trkpt lat="44.6335748" lon="10.0355134"><ele>223.0</ele><time>2026-05-03T11:34:31.557Z</time></trkpt><trkpt lat="44.6335261" lon="10.0355943"><ele>223.0</ele><time>2026-05-03T11:34:33.557Z</time></trkpt><trkpt lat="44.6334553" lon="10.0357364"><ele>223.99999999999997</ele><time>2026-05-03T11:34:35.557Z</time></trkpt><trkpt lat="44.6334064" lon="10.0358344"><ele>225.0</ele><time>2026-05-03T11:34:37.557Z</time></trkpt><trkpt lat="44.6333689" lon="10.0359131"><ele>226.0</ele><time>2026-05-03T11:34:42.557Z</time></trkpt><trkpt lat="44.6334319" lon="10.0359549"><ele>227.0</ele><time>2026-05-03T11:34:45.557Z</time></trkpt><trkpt lat="44.6335327" lon="10.035988"><ele>227.99999999999997</ele><time>2026-05-03T11:34:49.558Z</time></trkpt><trkpt lat="44.6336385" lon="10.0360271"><ele>229.0</ele><time>2026-05-03T11:34:51.557Z</time></trkpt><trkpt lat="44.6337001" lon="10.0360512"><ele>229.0</ele><time>2026-05-03T11:34:52.557Z</time></trkpt><trkpt lat="44.6337948" lon="10.0360671"><ele>228.99999999999997</ele><time>2026-05-03T11:34:54.557Z</time></trkpt><trkpt lat="44.6339145" lon="10.0361178"><ele>228.99999999999997</ele><time>2026-05-03T11:34:56.557Z</time></trkpt><trkpt lat="44.6339853" lon="10.0361463"><ele>229.0</ele><time>2026-05-03T11:34:57.557Z</time></trkpt><trkpt lat="44.6340838" lon="10.036185"><ele>229.0</ele><time>2026-05-03T11:34:59.557Z</time></trkpt><trkpt lat="44.6341997" lon="10.03625"><ele>228.99999999999997</ele><time>2026-05-03T11:35:01.557Z</time></trkpt><trkpt lat="44.634262" lon="10.0362978"><ele>229.0</ele><time>2026-05-03T11:35:02.557Z</time></trkpt><trkpt lat="44.6343294" lon="10.0363506"><ele>229.0</ele><time>2026-05-03T11:35:03.557Z</time></trkpt><trkpt lat="44.6343915" lon="10.0364068"><ele>229.0</ele><time>2026-05-03T11:35:04.558Z</time></trkpt><trkpt lat="44.6344458" lon="10.0364547"><ele>228.99999999999997</ele><time>2026-05-03T11:35:05.557Z</time></trkpt><trkpt lat="44.634531" lon="10.0365505"><ele>229.0</ele><time>2026-05-03T11:35:07.557Z</time></trkpt><trkpt lat="44.6345784" lon="10.0366121"><ele>227.33333333333331</ele><time>2026-05-03T11:35:08.557Z</time></trkpt><trkpt lat="44.6346292" lon="10.0366746"><ele>225.66666666666666</ele><time>2026-05-03T11:35:09.557Z</time></trkpt><trkpt lat="44.6346775" lon="10.0367404"><ele>224.0</ele><time>2026-05-03T11:35:10.558Z</time></trkpt><trkpt lat="44.6347173" lon="10.0368205"><ele>222.33333333333331</ele><time>2026-05-03T11:35:11.557Z</time></trkpt><trkpt lat="44.6347595" lon="10.0368955"><ele>220.66666666666666</ele><time>2026-05-03T11:35:12.557Z</time></trkpt><trkpt lat="44.6348393" lon="10.0370101"><ele>219.0</ele><time>2026-05-03T11:35:14.557Z</time></trkpt><trkpt lat="44.6349145" lon="10.0371427"><ele>219.0</ele><time>2026-05-03T11:35:16.557Z</time></trkpt><trkpt lat="44.6349385" lon="10.0372302"><ele>219.0</ele><time>2026-05-03T11:35:17.557Z</time></trkpt><trkpt lat="44.6349628" lon="10.0373212"><ele>219.0</ele><time>2026-05-03T11:35:18.557Z</time></trkpt><trkpt lat="44.6349956" lon="10.037417"><ele>219.0</ele><time>2026-05-03T11:35:19.558Z</time></trkpt><trkpt lat="44.6350395" lon="10.0375084"><ele>219.0</ele><time>2026-05-03T11:35:20.557Z</time></trkpt><trkpt lat="44.6350924" lon="10.0375884"><ele>219.0</ele><time>2026-05-03T11:35:21.557Z</time></trkpt><trkpt lat="44.6351488" lon="10.0376588"><ele>219.0</ele><time>2026-05-03T11:35:22.557Z</time></trkpt><trkpt lat="44.6352015" lon="10.0377224"><ele>218.83333333333334</ele><time>2026-05-03T11:35:23.557Z</time></trkpt><trkpt lat="44.6352661" lon="10.0378636"><ele>218.66666666666669</ele><time>2026-05-03T11:35:25.557Z</time></trkpt><trkpt lat="44.6352798" lon="10.0379532"><ele>218.5</ele><time>2026-05-03T11:35:26.558Z</time></trkpt><trkpt lat="44.6352926" lon="10.0380414"><ele>218.33333333333334</ele><time>2026-05-03T11:35:27.557Z</time></trkpt><trkpt lat="44.6353411" lon="10.0382083"><ele>218.16666666666669</ele><time>2026-05-03T11:35:29.557Z</time></trkpt><trkpt lat="44.6353819" lon="10.03828"><ele>218.0</ele><time>2026-05-03T11:35:30.557Z</time></trkpt><trkpt lat="44.6354594" lon="10.0383777"><ele>219.66666666666669</ele><time>2026-05-03T11:35:32.557Z</time></trkpt><trkpt lat="44.6354787" lon="10.03851"><ele>221.33333333333334</ele><time>2026-05-03T11:35:35.557Z</time></trkpt><trkpt lat="44.6354179" lon="10.0386172"><ele>223.0</ele><time>2026-05-03T11:35:37.557Z</time></trkpt><trkpt lat="44.6353566" lon="10.0386727"><ele>224.66666666666669</ele><time>2026-05-03T11:35:38.557Z</time></trkpt><trkpt lat="44.6352917" lon="10.0387317"><ele>226.33333333333334</ele><time>2026-05-03T11:35:39.557Z</time></trkpt><trkpt lat="44.635224" lon="10.0388127"><ele>228.0</ele><time>2026-05-03T11:35:40.557Z</time></trkpt><trkpt lat="44.6351629" lon="10.0388932"><ele>228.83333333333334</ele><time>2026-05-03T11:35:41.557Z</time></trkpt><trkpt lat="44.6351079" lon="10.0389917"><ele>229.66666666666669</ele><time>2026-05-03T11:35:42.557Z</time></trkpt><trkpt lat="44.6350505" lon="10.0390827"><ele>230.5</ele><time>2026-05-03T11:35:43.557Z</time></trkpt><trkpt lat="44.6349831" lon="10.0391635"><ele>231.33333333333334</ele><time>2026-05-03T11:35:44.557Z</time></trkpt><trkpt lat="44.6349106" lon="10.0392471"><ele>232.16666666666669</ele><time>2026-05-03T11:35:45.557Z</time></trkpt><trkpt lat="44.6348462" lon="10.0393225"><ele>233.0</ele><time>2026-05-03T11:35:46.557Z</time></trkpt><trkpt lat="44.6347756" lon="10.0393881"><ele>233.83333333333334</ele><time>2026-05-03T11:35:47.557Z</time></trkpt><trkpt lat="44.634713" lon="10.039444"><ele>234.66666666666669</ele><time>2026-05-03T11:35:48.558Z</time></trkpt><trkpt lat="44.6346475" lon="10.039499"><ele>235.5</ele><time>2026-05-03T11:35:49.557Z</time></trkpt><trkpt lat="44.6345774" lon="10.0395571"><ele>236.33333333333331</ele><time>2026-05-03T11:35:50.557Z</time></trkpt><trkpt lat="44.6345034" lon="10.0396153"><ele>237.16666666666666</ele><time>2026-05-03T11:35:51.558Z</time></trkpt><trkpt lat="44.6344259" lon="10.0396699"><ele>238.0</ele><time>2026-05-03T11:35:52.557Z</time></trkpt><trkpt lat="44.6343466" lon="10.0397156"><ele>239.8</ele><time>2026-05-03T11:35:53.557Z</time></trkpt><trkpt lat="44.6342576" lon="10.0397543"><ele>241.60000000000002</ele><time>2026-05-03T11:35:54.557Z</time></trkpt><trkpt lat="44.634167" lon="10.0397899"><ele>243.39999999999998</ele><time>2026-05-03T11:35:55.557Z</time></trkpt><trkpt lat="44.6340744" lon="10.0398228"><ele>245.2</ele><time>2026-05-03T11:35:56.557Z</time></trkpt><trkpt lat="44.6339841" lon="10.0398549"><ele>247.0</ele><time>2026-05-03T11:35:57.557Z</time></trkpt><trkpt lat="44.6338973" lon="10.0398952"><ele>246.99999999999997</ele><time>2026-05-03T11:35:58.557Z</time></trkpt><trkpt lat="44.6338144" lon="10.0399293"><ele>247.0</ele><time>2026-05-03T11:35:59.557Z</time></trkpt><trkpt lat="44.6337372" lon="10.0399541"><ele>247.0</ele><time>2026-05-03T11:36:00.557Z</time></trkpt><trkpt lat="44.6336379" lon="10.0400137"><ele>247.0</ele><time>2026-05-03T11:36:02.557Z</time></trkpt><trkpt lat="44.6335944" lon="10.0400936"><ele>246.99999999999997</ele><time>2026-05-03T11:36:04.557Z</time></trkpt><trkpt lat="44.6335445" lon="10.0401754"><ele>247.0</ele><time>2026-05-03T11:36:07.557Z</time></trkpt><trkpt lat="44.6334783" lon="10.040272"><ele>249.49999999999997</ele><time>2026-05-03T11:36:09.557Z</time></trkpt><trkpt lat="44.6333794" lon="10.0403669"><ele>252.0</ele><time>2026-05-03T11:36:11.557Z</time></trkpt><trkpt lat="44.6332681" lon="10.0404498"><ele>254.5</ele><time>2026-05-03T11:36:13.557Z</time></trkpt><trkpt lat="44.6332073" lon="10.0404769"><ele>257.0</ele><time>2026-05-03T11:36:14.558Z</time></trkpt><trkpt lat="44.6331413" lon="10.0404877"><ele>259.5</ele><time>2026-05-03T11:36:15.557Z</time></trkpt><trkpt lat="44.633077" lon="10.0404864"><ele>262.0</ele><time>2026-05-03T11:36:16.557Z</time></trkpt><trkpt lat="44.6329882" lon="10.0404838"><ele>262.0</ele><time>2026-05-03T11:36:18.557Z</time></trkpt><trkpt lat="44.6328828" lon="10.0404667"><ele>262.0</ele><time>2026-05-03T11:36:20.557Z</time></trkpt><trkpt lat="44.6327846" lon="10.0404296"><ele>262.0</ele><time>2026-05-03T11:36:22.557Z</time></trkpt><trkpt lat="44.6327084" lon="10.0403818"><ele>262.0</ele><time>2026-05-03T11:36:24.557Z</time></trkpt><trkpt lat="44.6326498" lon="10.0403461"><ele>262.0</ele><time>2026-05-03T11:36:42.558Z</time></trkpt><trkpt lat="44.6327416" lon="10.0404263"><ele>262.0</ele><time>2026-05-03T11:36:45.557Z</time></trkpt><trkpt lat="44.6328089" lon="10.040451"><ele>262.0</ele><time>2026-05-03T11:36:46.557Z</time></trkpt><trkpt lat="44.6328866" lon="10.0404776"><ele>262.0</ele><time>2026-05-03T11:36:47.558Z</time></trkpt><trkpt lat="44.63297" lon="10.0404892"><ele>262.0</ele><time>2026-05-03T11:36:48.558Z</time></trkpt><trkpt lat="44.6330432" lon="10.0404992"><ele>262.0</ele><time>2026-05-03T11:36:49.557Z</time></trkpt><trkpt lat="44.6331512" lon="10.0404897"><ele>262.0</ele><time>2026-05-03T11:36:51.557Z</time></trkpt><trkpt lat="44.6332334" lon="10.0404682"><ele>262.0</ele><time>2026-05-03T11:36:53.557Z</time></trkpt><trkpt lat="44.6333458" lon="10.0403934"><ele>262.0</ele><time>2026-05-03T11:36:55.557Z</time></trkpt><trkpt lat="44.6334303" lon="10.0403094"><ele>262.0</ele><time>2026-05-03T11:36:57.557Z</time></trkpt><trkpt lat="44.633489" lon="10.0402543"><ele>262.0</ele><time>2026-05-03T11:36:59.557Z</time></trkpt><trkpt lat="44.6335454" lon="10.040189"><ele>262.0</ele><time>2026-05-03T11:37:02.557Z</time></trkpt><trkpt lat="44.633575" lon="10.0402938"><ele>262.0</ele><time>2026-05-03T11:37:07.557Z</time></trkpt><trkpt lat="44.6335555" lon="10.0403961"><ele>262.0</ele><time>2026-05-03T11:37:09.557Z</time></trkpt><trkpt lat="44.633572" lon="10.0405299"><ele>262.0</ele><time>2026-05-03T11:37:11.557Z</time></trkpt><trkpt lat="44.633626" lon="10.0406615"><ele>262.0</ele><time>2026-05-03T11:37:13.557Z</time></trkpt><trkpt lat="44.6336804" lon="10.0407778"><ele>262.0</ele><time>2026-05-03T11:37:15.557Z</time></trkpt><trkpt lat="44.6337113" lon="10.0409275"><ele>262.3333333333333</ele><time>2026-05-03T11:37:17.557Z</time></trkpt><trkpt lat="44.6337195" lon="10.0411071"><ele>262.66666666666663</ele><time>2026-05-03T11:37:19.557Z</time></trkpt><trkpt lat="44.6337386" lon="10.041195"><ele>263.0</ele><time>2026-05-03T11:37:20.557Z</time></trkpt><trkpt lat="44.6337648" lon="10.0412842"><ele>263.3333333333333</ele><time>2026-05-03T11:37:21.558Z</time></trkpt><trkpt lat="44.6337947" lon="10.0413778"><ele>263.6666666666667</ele><time>2026-05-03T11:37:22.557Z</time></trkpt><trkpt lat="44.633821" lon="10.0414724"><ele>264.0</ele><time>2026-05-03T11:37:23.557Z</time></trkpt><trkpt lat="44.6338514" lon="10.0415648"><ele>266.8</ele><time>2026-05-03T11:37:24.558Z</time></trkpt><trkpt lat="44.6338707" lon="10.0416552"><ele>269.59999999999997</ele><time>2026-05-03T11:37:25.558Z</time></trkpt><trkpt lat="44.6338712" lon="10.0418111"><ele>272.4</ele><time>2026-05-03T11:37:27.558Z</time></trkpt><trkpt lat="44.6338027" lon="10.0419191"><ele>275.2</ele><time>2026-05-03T11:37:29.557Z</time></trkpt><trkpt lat="44.6336999" lon="10.0419553"><ele>278.0</ele><time>2026-05-03T11:37:31.556Z</time></trkpt><trkpt lat="44.6336351" lon="10.0419458"><ele>278.0</ele><time>2026-05-03T11:37:34.556Z</time></trkpt><trkpt lat="44.6337007" lon="10.0419458"><ele>278.0</ele><time>2026-05-03T11:37:41.557Z</time></trkpt><trkpt lat="44.6337748" lon="10.0419291"><ele>278.0</ele><time>2026-05-03T11:37:43.557Z</time></trkpt><trkpt lat="44.6338392" lon="10.0418558"><ele>278.0</ele><time>2026-05-03T11:37:46.556Z</time></trkpt><trkpt lat="44.6338671" lon="10.0417352"><ele>278.0</ele><time>2026-05-03T11:37:49.556Z</time></trkpt><trkpt lat="44.6338444" lon="10.0415934"><ele>278.0</ele><time>2026-05-03T11:37:52.556Z</time></trkpt><trkpt lat="44.633801" lon="10.0414639"><ele>275.6666666666667</ele><time>2026-05-03T11:37:54.556Z</time></trkpt><trkpt lat="44.6337701" lon="10.0413635"><ele>273.33333333333337</ele><time>2026-05-03T11:37:56.556Z</time></trkpt><trkpt lat="44.6337374" lon="10.041248"><ele>271.0</ele><time>2026-05-03T11:37:58.556Z</time></trkpt><trkpt lat="44.6337145" lon="10.0411261"><ele>268.6666666666667</ele><time>2026-05-03T11:38:00.556Z</time></trkpt><trkpt lat="44.6337048" lon="10.0410167"><ele>266.3333333333333</ele><time>2026-05-03T11:38:02.556Z</time></trkpt><trkpt lat="44.6336966" lon="10.0408949"><ele>264.0</ele><time>2026-05-03T11:38:04.556Z</time></trkpt><trkpt lat="44.6336754" lon="10.0407774"><ele>263.6666666666667</ele><time>2026-05-03T11:38:06.556Z</time></trkpt><trkpt lat="44.6336219" lon="10.0406596"><ele>263.3333333333333</ele><time>2026-05-03T11:38:08.556Z</time></trkpt><trkpt lat="44.6335824" lon="10.040574"><ele>263.0</ele><time>2026-05-03T11:38:10.557Z</time></trkpt><trkpt lat="44.6335505" lon="10.0404859"><ele>262.66666666666663</ele><time>2026-05-03T11:38:12.556Z</time></trkpt><trkpt lat="44.6335525" lon="10.0403664"><ele>262.3333333333333</ele><time>2026-05-03T11:38:14.556Z</time></trkpt><trkpt lat="44.6335711" lon="10.0402517"><ele>262.0</ele><time>2026-05-03T11:38:17.556Z</time></trkpt><trkpt lat="44.6335101" lon="10.0402084"><ele>262.0</ele><time>2026-05-03T11:38:22.557Z</time></trkpt><trkpt lat="44.6334421" lon="10.0403009"><ele>262.0</ele><time>2026-05-03T11:38:24.556Z</time></trkpt><trkpt lat="44.6333609" lon="10.0403773"><ele>262.0</ele><time>2026-05-03T11:38:26.556Z</time></trkpt><trkpt lat="44.6332992" lon="10.0404423"><ele>262.0</ele><time>2026-05-03T11:38:28.556Z</time></trkpt><trkpt lat="44.6331984" lon="10.0404898"><ele>262.0</ele><time>2026-05-03T11:39:05.557Z</time></trkpt><trkpt lat="44.633075" lon="10.0404999"><ele>262.0</ele><time>2026-05-03T11:39:07.556Z</time></trkpt><trkpt lat="44.6330062" lon="10.0404996"><ele>262.0</ele><time>2026-05-03T11:39:08.556Z</time></trkpt><trkpt lat="44.6329335" lon="10.0404903"><ele>262.0</ele><time>2026-05-03T11:39:09.556Z</time></trkpt><trkpt lat="44.6328619" lon="10.0404684"><ele>262.0</ele><time>2026-05-03T11:39:10.556Z</time></trkpt><trkpt lat="44.6327917" lon="10.04044"><ele>262.0</ele><time>2026-05-03T11:39:11.556Z</time></trkpt><trkpt lat="44.6327002" lon="10.0404097"><ele>262.0</ele><time>2026-05-03T11:39:13.556Z</time></trkpt><trkpt lat="44.6326353" lon="10.0404531"><ele>264.66666666666663</ele><time>2026-05-03T11:39:16.556Z</time></trkpt><trkpt lat="44.6325883" lon="10.040529"><ele>267.3333333333333</ele><time>2026-05-03T11:39:18.556Z</time></trkpt><trkpt lat="44.6325009" lon="10.0405927"><ele>270.0</ele><time>2026-05-03T11:39:20.556Z</time></trkpt><trkpt lat="44.6324239" lon="10.0406094"><ele>272.6666666666667</ele><time>2026-05-03T11:39:22.556Z</time></trkpt><trkpt lat="44.632357" lon="10.0405969"><ele>275.33333333333337</ele><time>2026-05-03T11:39:24.556Z</time></trkpt><trkpt lat="44.6322823" lon="10.0405992"><ele>278.0</ele><time>2026-05-03T11:39:26.556Z</time></trkpt><trkpt lat="44.6322068" lon="10.040558"><ele>278.0</ele><time>2026-05-03T11:39:28.556Z</time></trkpt><trkpt lat="44.6321576" lon="10.0404637"><ele>278.0</ele><time>2026-05-03T11:39:30.556Z</time></trkpt><trkpt lat="44.6321048" lon="10.04039"><ele>278.0</ele><time>2026-05-03T11:39:32.557Z</time></trkpt><trkpt lat="44.6320534" lon="10.0403223"><ele>278.0</ele><time>2026-05-03T11:39:34.556Z</time></trkpt><trkpt lat="44.6320075" lon="10.0402341"><ele>278.0</ele><time>2026-05-03T11:39:36.556Z</time></trkpt><trkpt lat="44.6319566" lon="10.0401807"><ele>278.0</ele><time>2026-05-03T11:39:38.556Z</time></trkpt><trkpt lat="44.6318868" lon="10.0402189"><ele>278.0</ele><time>2026-05-03T11:39:41.556Z</time></trkpt><trkpt lat="44.631802" lon="10.0401822"><ele>280.42857142857144</ele><time>2026-05-03T11:39:44.556Z</time></trkpt><trkpt lat="44.6317627" lon="10.0401074"><ele>282.8571428571429</ele><time>2026-05-03T11:39:47.556Z</time></trkpt><trkpt lat="44.6317079" lon="10.0400415"><ele>285.28571428571433</ele><time>2026-05-03T11:39:49.556Z</time></trkpt><trkpt lat="44.6316621" lon="10.0399563"><ele>287.7142857142857</ele><time>2026-05-03T11:39:51.556Z</time></trkpt><trkpt lat="44.6316298" lon="10.0398707"><ele>290.14285714285717</ele><time>2026-05-03T11:39:53.556Z</time></trkpt><trkpt lat="44.6315954" lon="10.0397523"><ele>292.5714285714286</ele><time>2026-05-03T11:39:56.556Z</time></trkpt><trkpt lat="44.6315351" lon="10.039698"><ele>295.0</ele><time>2026-05-03T11:40:00.556Z</time></trkpt><trkpt lat="44.6314711" lon="10.0397447"><ele>295.0</ele><time>2026-05-03T11:40:02.557Z</time></trkpt><trkpt lat="44.6314109" lon="10.0397987"><ele>295.0</ele><time>2026-05-03T11:40:04.557Z</time></trkpt><trkpt lat="44.6313548" lon="10.0398713"><ele>295.0</ele><time>2026-05-03T11:40:07.556Z</time></trkpt><trkpt lat="44.6312952" lon="10.039942"><ele>295.0</ele><time>2026-05-03T11:40:10.556Z</time></trkpt><trkpt lat="44.6312279" lon="10.0400188"><ele>295.0</ele><time>2026-05-03T11:40:12.556Z</time></trkpt><trkpt lat="44.6311554" lon="10.0400926"><ele>295.0</ele><time>2026-05-03T11:40:14.556Z</time></trkpt><trkpt lat="44.6310783" lon="10.0401448"><ele>298.3333333333333</ele><time>2026-05-03T11:40:17.556Z</time></trkpt><trkpt lat="44.6310128" lon="10.0401822"><ele>301.66666666666663</ele><time>2026-05-03T11:40:20.556Z</time></trkpt><trkpt lat="44.63094" lon="10.0402237"><ele>305.0</ele><time>2026-05-03T11:40:22.556Z</time></trkpt><trkpt lat="44.6308353" lon="10.0402502"><ele>308.3333333333333</ele><time>2026-05-03T11:40:24.555Z</time></trkpt><trkpt lat="44.6307631" lon="10.0402597"><ele>311.6666666666667</ele><time>2026-05-03T11:40:26.555Z</time></trkpt><trkpt lat="44.6307002" lon="10.0402654"><ele>315.0</ele><time>2026-05-03T11:40:28.555Z</time></trkpt><trkpt lat="44.6306322" lon="10.0402665"><ele>315.0</ele><time>2026-05-03T11:40:30.555Z</time></trkpt><trkpt lat="44.6305464" lon="10.0402597"><ele>315.0</ele><time>2026-05-03T11:40:32.555Z</time></trkpt><trkpt lat="44.6304569" lon="10.0402653"><ele>315.0</ele><time>2026-05-03T11:40:34.555Z</time></trkpt><trkpt lat="44.6303726" lon="10.0402991"><ele>315.0</ele><time>2026-05-03T11:40:36.555Z</time></trkpt><trkpt lat="44.6302873" lon="10.040325"><ele>315.0</ele><time>2026-05-03T11:40:39.555Z</time></trkpt><trkpt lat="44.6302028" lon="10.0403173"><ele>315.0</ele><time>2026-05-03T11:40:41.555Z</time></trkpt><trkpt lat="44.6301152" lon="10.0402704"><ele>318.8333333333333</ele><time>2026-05-03T11:40:43.555Z</time></trkpt><trkpt lat="44.6300518" lon="10.0402137"><ele>322.6666666666667</ele><time>2026-05-03T11:40:45.556Z</time></trkpt><trkpt lat="44.6299922" lon="10.0401783"><ele>326.5</ele><time>2026-05-03T11:40:49.555Z</time></trkpt><trkpt lat="44.6299248" lon="10.0402049"><ele>330.33333333333337</ele><time>2026-05-03T11:40:54.555Z</time></trkpt><trkpt lat="44.6298503" lon="10.0402048"><ele>334.1666666666667</ele><time>2026-05-03T11:40:57.555Z</time></trkpt><trkpt lat="44.6297774" lon="10.040253"><ele>338.0</ele><time>2026-05-03T11:41:08.555Z</time></trkpt><trkpt lat="44.6296813" lon="10.0402864"><ele>338.0</ele><time>2026-05-03T11:41:11.555Z</time></trkpt><trkpt lat="44.6296036" lon="10.040266"><ele>338.0</ele><time>2026-05-03T11:41:13.555Z</time></trkpt><trkpt lat="44.6295374" lon="10.040219"><ele>338.0</ele><time>2026-05-03T11:41:15.555Z</time></trkpt><trkpt lat="44.6294814" lon="10.0401739"><ele>338.0</ele><time>2026-05-03T11:41:18.556Z</time></trkpt><trkpt lat="44.629414" lon="10.0401407"><ele>338.0</ele><time>2026-05-03T11:41:21.555Z</time></trkpt><trkpt lat="44.6293438" lon="10.0401446"><ele>338.0</ele><time>2026-05-03T11:41:24.555Z</time></trkpt><trkpt lat="44.629282" lon="10.0401776"><ele>338.0</ele><time>2026-05-03T11:41:28.555Z</time></trkpt><trkpt lat="44.6291948" lon="10.0401805"><ele>341.1666666666667</ele><time>2026-05-03T11:41:31.555Z</time></trkpt><trkpt lat="44.629105" lon="10.0401724"><ele>344.33333333333337</ele><time>2026-05-03T11:41:33.555Z</time></trkpt><trkpt lat="44.6290105" lon="10.0401536"><ele>347.5</ele><time>2026-05-03T11:41:35.555Z</time></trkpt><trkpt lat="44.6289444" lon="10.0401035"><ele>350.6666666666667</ele><time>2026-05-03T11:41:37.555Z</time></trkpt><trkpt lat="44.6289331" lon="10.0400029"><ele>353.8333333333333</ele><time>2026-05-03T11:41:39.555Z</time></trkpt><trkpt lat="44.6289278" lon="10.0399092"><ele>357.0</ele><time>2026-05-03T11:41:42.555Z</time></trkpt><trkpt lat="44.6289997" lon="10.0398387"><ele>359.5</ele><time>2026-05-03T11:42:02.555Z</time></trkpt><trkpt lat="44.629059" lon="10.0397813"><ele>362.0</ele><time>2026-05-03T11:42:06.555Z</time></trkpt><trkpt lat="44.6290842" lon="10.0396849"><ele>364.5</ele><time>2026-05-03T11:42:09.555Z</time></trkpt><trkpt lat="44.629026" lon="10.0396055"><ele>367.0</ele><time>2026-05-03T11:42:12.555Z</time></trkpt><trkpt lat="44.6289859" lon="10.0395187"><ele>369.5</ele><time>2026-05-03T11:42:22.555Z</time></trkpt><trkpt lat="44.628917" lon="10.0394554"><ele>372.0</ele><time>2026-05-03T11:42:25.555Z</time></trkpt><trkpt lat="44.6288482" lon="10.039449"><ele>372.00000000000006</ele><time>2026-05-03T11:42:27.555Z</time></trkpt><trkpt lat="44.6287693" lon="10.0394575"><ele>372.0</ele><time>2026-05-03T11:42:29.555Z</time></trkpt><trkpt lat="44.6287026" lon="10.0394711"><ele>372.0</ele><time>2026-05-03T11:42:35.555Z</time></trkpt><trkpt lat="44.6286377" lon="10.0394893"><ele>372.0</ele><time>2026-05-03T11:42:38.555Z</time></trkpt><trkpt lat="44.6285624" lon="10.0394783"><ele>372.0</ele><time>2026-05-03T11:42:40.555Z</time></trkpt><trkpt lat="44.6284858" lon="10.0394524"><ele>372.00000000000006</ele><time>2026-05-03T11:42:42.555Z</time></trkpt><trkpt lat="44.6284236" lon="10.0393997"><ele>372.0</ele><time>2026-05-03T11:45:06.554Z</time></trkpt><trkpt lat="44.6283509" lon="10.0393485"><ele>374.8333333333333</ele><time>2026-05-03T11:45:09.554Z</time></trkpt><trkpt lat="44.6282872" lon="10.0392988"><ele>377.66666666666663</ele><time>2026-05-03T11:45:12.554Z</time></trkpt><trkpt lat="44.6282283" lon="10.0392538"><ele>380.5</ele><time>2026-05-03T11:45:14.554Z</time></trkpt><trkpt lat="44.6281768" lon="10.0391811"><ele>383.3333333333333</ele><time>2026-05-03T11:45:16.554Z</time></trkpt><trkpt lat="44.6281282" lon="10.0391084"><ele>386.16666666666663</ele><time>2026-05-03T11:45:18.555Z</time></trkpt><trkpt lat="44.6280653" lon="10.0390313"><ele>389.0</ele><time>2026-05-03T11:45:20.554Z</time></trkpt><trkpt lat="44.6279921" lon="10.038942"><ele>392.6</ele><time>2026-05-03T11:45:22.554Z</time></trkpt><trkpt lat="44.6279205" lon="10.0388602"><ele>396.2</ele><time>2026-05-03T11:45:24.554Z</time></trkpt><trkpt lat="44.6278334" lon="10.0387856"><ele>399.8</ele><time>2026-05-03T11:45:26.554Z</time></trkpt><trkpt lat="44.6277568" lon="10.0387186"><ele>403.40000000000003</ele><time>2026-05-03T11:45:28.554Z</time></trkpt><trkpt lat="44.6276815" lon="10.0386414"><ele>407.0</ele><time>2026-05-03T11:45:30.554Z</time></trkpt><trkpt lat="44.6276092" lon="10.0385601"><ele>408.66666666666663</ele><time>2026-05-03T11:45:32.554Z</time></trkpt><trkpt lat="44.62754" lon="10.0384726"><ele>410.3333333333333</ele><time>2026-05-03T11:45:34.554Z</time></trkpt><trkpt lat="44.627495" lon="10.0383944"><ele>412.0</ele><time>2026-05-03T11:45:36.556Z</time></trkpt><trkpt lat="44.6274214" lon="10.038335"><ele>413.66666666666663</ele><time>2026-05-03T11:45:38.554Z</time></trkpt><trkpt lat="44.6273376" lon="10.0382909"><ele>415.3333333333333</ele><time>2026-05-03T11:45:40.554Z</time></trkpt><trkpt lat="44.6272544" lon="10.0383072"><ele>417.0</ele><time>2026-05-03T11:45:42.554Z</time></trkpt><trkpt lat="44.6271685" lon="10.0383845"><ele>417.0</ele><time>2026-05-03T11:45:44.554Z</time></trkpt><trkpt lat="44.6271149" lon="10.038487"><ele>417.0</ele><time>2026-05-03T11:45:46.554Z</time></trkpt><trkpt lat="44.6270877" lon="10.0385856"><ele>417.0</ele><time>2026-05-03T11:45:48.554Z</time></trkpt><trkpt lat="44.6270371" lon="10.0386902"><ele>417.0</ele><time>2026-05-03T11:45:50.555Z</time></trkpt><trkpt lat="44.6269906" lon="10.0387972"><ele>417.0</ele><time>2026-05-03T11:45:52.554Z</time></trkpt><trkpt lat="44.626969" lon="10.0389029"><ele>417.0</ele><time>2026-05-03T11:45:54.555Z</time></trkpt><trkpt lat="44.6269651" lon="10.0390266"><ele>417.40000000000003</ele><time>2026-05-03T11:45:56.554Z</time></trkpt><trkpt lat="44.6269313" lon="10.0391726"><ele>417.8</ele><time>2026-05-03T11:45:58.554Z</time></trkpt><trkpt lat="44.626868" lon="10.0393008"><ele>418.2</ele><time>2026-05-03T11:46:00.554Z</time></trkpt><trkpt lat="44.6268119" lon="10.0394081"><ele>418.6</ele><time>2026-05-03T11:46:02.555Z</time></trkpt><trkpt lat="44.6268004" lon="10.0395109"><ele>419.0</ele><time>2026-05-03T11:46:09.554Z</time></trkpt><trkpt lat="44.6267867" lon="10.0396005"><ele>418.99999999999994</ele><time>2026-05-03T11:46:12.555Z</time></trkpt><trkpt lat="44.6267316" lon="10.0396766"><ele>419.0</ele><time>2026-05-03T11:46:15.553Z</time></trkpt><trkpt lat="44.6266619" lon="10.0397601"><ele>419.0</ele><time>2026-05-03T11:46:18.553Z</time></trkpt><trkpt lat="44.626616" lon="10.0398487"><ele>419.0</ele><time>2026-05-03T11:46:20.553Z</time></trkpt><trkpt lat="44.6265579" lon="10.0399179"><ele>418.99999999999994</ele><time>2026-05-03T11:46:22.553Z</time></trkpt><trkpt lat="44.6264808" lon="10.0399389"><ele>419.0</ele><time>2026-05-03T11:46:24.553Z</time></trkpt><trkpt lat="44.6263973" lon="10.0399119"><ele>418.99999999999994</ele><time>2026-05-03T11:46:26.553Z</time></trkpt><trkpt lat="44.6263735" lon="10.0397787"><ele>419.0</ele><time>2026-05-03T11:46:28.553Z</time></trkpt><trkpt lat="44.6263349" lon="10.03968"><ele>419.0</ele><time>2026-05-03T11:46:30.553Z</time></trkpt><trkpt lat="44.6262917" lon="10.039611"><ele>419.0</ele><time>2026-05-03T11:46:32.553Z</time></trkpt><trkpt lat="44.6262275" lon="10.0395854"><ele>418.99999999999994</ele><time>2026-05-03T11:46:34.554Z</time></trkpt><trkpt lat="44.6261516" lon="10.0395948"><ele>419.0</ele><time>2026-05-03T11:46:37.553Z</time></trkpt><trkpt lat="44.6260847" lon="10.0396421"><ele>422.4285714285714</ele><time>2026-05-03T11:46:40.553Z</time></trkpt><trkpt lat="44.6260006" lon="10.0396597"><ele>425.85714285714283</ele><time>2026-05-03T11:46:43.553Z</time></trkpt><trkpt lat="44.6259241" lon="10.0396558"><ele>429.2857142857143</ele><time>2026-05-03T11:46:45.553Z</time></trkpt><trkpt lat="44.6258479" lon="10.0396661"><ele>432.71428571428567</ele><time>2026-05-03T11:46:47.553Z</time></trkpt><trkpt lat="44.6257855" lon="10.0396788"><ele>436.14285714285717</ele><time>2026-05-03T11:46:49.553Z</time></trkpt><trkpt lat="44.6257215" lon="10.0396971"><ele>439.57142857142856</ele><time>2026-05-03T11:46:51.554Z</time></trkpt><trkpt lat="44.625646" lon="10.0397014"><ele>443.0</ele><time>2026-05-03T11:46:54.553Z</time></trkpt><trkpt lat="44.6255794" lon="10.0396924"><ele>442.99999999999994</ele><time>2026-05-03T11:46:56.553Z</time></trkpt><trkpt lat="44.6255061" lon="10.0396859"><ele>443.0</ele><time>2026-05-03T11:46:59.553Z</time></trkpt><trkpt lat="44.6254328" lon="10.0396733"><ele>443.0</ele><time>2026-05-03T11:47:02.514Z</time></trkpt><trkpt lat="44.6253484" lon="10.0396383"><ele>443.0</ele><time>2026-05-03T11:47:05.553Z</time></trkpt><trkpt lat="44.6252791" lon="10.0396347"><ele>442.99999999999994</ele><time>2026-05-03T11:47:08.554Z</time></trkpt><trkpt lat="44.6251991" lon="10.0396222"><ele>443.0</ele><time>2026-05-03T11:47:11.553Z</time></trkpt><trkpt lat="44.625136" lon="10.0396022"><ele>447.49999999999994</ele><time>2026-05-03T11:47:13.553Z</time></trkpt><trkpt lat="44.6250509" lon="10.0395541"><ele>452.0</ele><time>2026-05-03T11:47:16.553Z</time></trkpt><trkpt lat="44.6249897" lon="10.0395071"><ele>456.5</ele><time>2026-05-03T11:47:18.553Z</time></trkpt><trkpt lat="44.6249061" lon="10.0394156"><ele>461.0</ele><time>2026-05-03T11:47:20.554Z</time></trkpt><trkpt lat="44.6248314" lon="10.0393938"><ele>465.49999999999994</ele><time>2026-05-03T11:47:23.555Z</time></trkpt><trkpt lat="44.6247816" lon="10.0393069"><ele>470.0</ele><time>2026-05-03T11:47:26.553Z</time></trkpt><trkpt lat="44.6247291" lon="10.0392454"><ele>469.99999999999994</ele><time>2026-05-03T11:47:28.553Z</time></trkpt><trkpt lat="44.6246563" lon="10.0392289"><ele>470.0</ele><time>2026-05-03T11:47:32.138Z</time></trkpt><trkpt lat="44.6245753" lon="10.0392224"><ele>470.0</ele><time>2026-05-03T11:47:34.426Z</time></trkpt><trkpt lat="44.6244941" lon="10.0391967"><ele>470.0</ele><time>2026-05-03T11:47:35.554Z</time></trkpt><trkpt lat="44.6244224" lon="10.0392313"><ele>469.99999999999994</ele><time>2026-05-03T11:47:37.553Z</time></trkpt><trkpt lat="44.6243557" lon="10.0392858"><ele>470.0</ele><time>2026-05-03T11:47:39.553Z</time></trkpt><trkpt lat="44.6243021" lon="10.0393477"><ele>471.66666666666663</ele><time>2026-05-03T11:47:41.553Z</time></trkpt><trkpt lat="44.6242426" lon="10.0394191"><ele>473.3333333333333</ele><time>2026-05-03T11:47:43.553Z</time></trkpt><trkpt lat="44.6241732" lon="10.0394525"><ele>475.0</ele><time>2026-05-03T11:47:44.554Z</time></trkpt><trkpt lat="44.6240684" lon="10.0395138"><ele>476.66666666666663</ele><time>2026-05-03T11:47:46.553Z</time></trkpt><trkpt lat="44.6240014" lon="10.0395478"><ele>478.3333333333333</ele><time>2026-05-03T11:47:48.553Z</time></trkpt><trkpt lat="44.623952" lon="10.0396314"><ele>480.0</ele><time>2026-05-03T11:47:50.553Z</time></trkpt><trkpt lat="44.6238962" lon="10.0397104"><ele>480.0</ele><time>2026-05-03T11:47:52.553Z</time></trkpt><trkpt lat="44.6238268" lon="10.0398224"><ele>480.0</ele><time>2026-05-03T11:47:54.553Z</time></trkpt><trkpt lat="44.623766" lon="10.0399448"><ele>480.0</ele><time>2026-05-03T11:47:56.553Z</time></trkpt><trkpt lat="44.6236952" lon="10.0400617"><ele>480.0</ele><time>2026-05-03T11:47:58.553Z</time></trkpt><trkpt lat="44.623616" lon="10.0401611"><ele>480.0</ele><time>2026-05-03T11:48:00.553Z</time></trkpt><trkpt lat="44.6235318" lon="10.0402417"><ele>479.8</ele><time>2026-05-03T11:48:02.553Z</time></trkpt><trkpt lat="44.6234614" lon="10.0403096"><ele>479.6</ele><time>2026-05-03T11:48:04.553Z</time></trkpt><trkpt lat="44.623448" lon="10.0404607"><ele>479.4</ele><time>2026-05-03T11:48:06.553Z</time></trkpt><trkpt lat="44.6234166" lon="10.0406297"><ele>479.2</ele><time>2026-05-03T11:48:08.553Z</time></trkpt><trkpt lat="44.6234011" lon="10.0407159"><ele>479.0</ele><time>2026-05-03T11:48:09.553Z</time></trkpt><trkpt lat="44.6233564" lon="10.0408602"><ele>481.0</ele><time>2026-05-03T11:48:11.553Z</time></trkpt><trkpt lat="44.6232891" lon="10.0409818"><ele>483.0</ele><time>2026-05-03T11:48:13.553Z</time></trkpt><trkpt lat="44.6232294" lon="10.0410994"><ele>485.0</ele><time>2026-05-03T11:48:15.553Z</time></trkpt><trkpt lat="44.6231972" lon="10.0411775"><ele>487.0</ele><time>2026-05-03T11:48:16.553Z</time></trkpt><trkpt lat="44.6231375" lon="10.041249"><ele>489.0</ele><time>2026-05-03T11:48:17.553Z</time></trkpt><trkpt lat="44.6231233" lon="10.0414149"><ele>489.0</ele><time>2026-05-03T11:48:19.553Z</time></trkpt><trkpt lat="44.6231134" lon="10.0415788"><ele>489.0</ele><time>2026-05-03T11:48:21.553Z</time></trkpt><trkpt lat="44.62306" lon="10.0417189"><ele>489.0</ele><time>2026-05-03T11:48:23.553Z</time></trkpt><trkpt lat="44.6230258" lon="10.0418596"><ele>489.0</ele><time>2026-05-03T11:48:25.553Z</time></trkpt><trkpt lat="44.6229787" lon="10.0419368"><ele>489.0</ele><time>2026-05-03T11:48:26.554Z</time></trkpt><trkpt lat="44.622931" lon="10.0419985"><ele>490.3333333333333</ele><time>2026-05-03T11:48:27.553Z</time></trkpt><trkpt lat="44.6228926" lon="10.0420727"><ele>491.66666666666663</ele><time>2026-05-03T11:48:28.553Z</time></trkpt><trkpt lat="44.6228551" lon="10.0421753"><ele>493.0</ele><time>2026-05-03T11:48:29.553Z</time></trkpt><trkpt lat="44.6228332" lon="10.0422654"><ele>494.3333333333333</ele><time>2026-05-03T11:48:30.554Z</time></trkpt><trkpt lat="44.6227904" lon="10.042361"><ele>495.66666666666663</ele><time>2026-05-03T11:48:31.553Z</time></trkpt><trkpt lat="44.6227352" lon="10.0424579"><ele>497.0</ele><time>2026-05-03T11:48:32.553Z</time></trkpt><trkpt lat="44.6226825" lon="10.042541"><ele>500.16666666666663</ele><time>2026-05-03T11:48:33.553Z</time></trkpt><trkpt lat="44.622634" lon="10.0426296"><ele>503.3333333333333</ele><time>2026-05-03T11:48:34.553Z</time></trkpt><trkpt lat="44.6225841" lon="10.0427054"><ele>506.5</ele><time>2026-05-03T11:48:35.553Z</time></trkpt><trkpt lat="44.6225263" lon="10.0427879"><ele>509.66666666666663</ele><time>2026-05-03T11:48:36.553Z</time></trkpt><trkpt lat="44.6224809" lon="10.0428863"><ele>512.8333333333334</ele><time>2026-05-03T11:48:37.554Z</time></trkpt><trkpt lat="44.6224083" lon="10.042958"><ele>516.0</ele><time>2026-05-03T11:48:38.553Z</time></trkpt><trkpt lat="44.6223483" lon="10.0430903"><ele>516.0</ele><time>2026-05-03T11:48:40.553Z</time></trkpt><trkpt lat="44.622319" lon="10.0431934"><ele>516.0</ele><time>2026-05-03T11:48:41.554Z</time></trkpt><trkpt lat="44.622293" lon="10.0432911"><ele>516.0</ele><time>2026-05-03T11:48:42.553Z</time></trkpt><trkpt lat="44.6222563" lon="10.043379"><ele>516.0</ele><time>2026-05-03T11:48:43.553Z</time></trkpt><trkpt lat="44.6222026" lon="10.0435195"><ele>516.0</ele><time>2026-05-03T11:48:45.553Z</time></trkpt><trkpt lat="44.6221611" lon="10.0437132"><ele>517.6</ele><time>2026-05-03T11:48:47.553Z</time></trkpt><trkpt lat="44.6221318" lon="10.0438347"><ele>519.2</ele><time>2026-05-03T11:48:48.553Z</time></trkpt><trkpt lat="44.6220963" lon="10.0439549"><ele>520.8</ele><time>2026-05-03T11:48:49.553Z</time></trkpt><trkpt lat="44.6220669" lon="10.044078"><ele>522.4</ele><time>2026-05-03T11:48:50.553Z</time></trkpt><trkpt lat="44.6220371" lon="10.0442026"><ele>524.0</ele><time>2026-05-03T11:48:51.553Z</time></trkpt><trkpt lat="44.6220009" lon="10.0443293"><ele>523.5</ele><time>2026-05-03T11:48:52.554Z</time></trkpt><trkpt lat="44.6219745" lon="10.0444489"><ele>523.0</ele><time>2026-05-03T11:48:53.553Z</time></trkpt><trkpt lat="44.6219423" lon="10.0445563"><ele>522.5</ele><time>2026-05-03T11:48:54.553Z</time></trkpt><trkpt lat="44.6219143" lon="10.0446554"><ele>522.0</ele><time>2026-05-03T11:48:55.553Z</time></trkpt><trkpt lat="44.6218698" lon="10.0447531"><ele>521.5</ele><time>2026-05-03T11:48:56.553Z</time></trkpt><trkpt lat="44.6218272" lon="10.0448421"><ele>521.0</ele><time>2026-05-03T11:48:57.553Z</time></trkpt><trkpt lat="44.6217827" lon="10.0449157"><ele>523.0</ele><time>2026-05-03T11:48:58.554Z</time></trkpt><trkpt lat="44.6217276" lon="10.0450755"><ele>525.0</ele><time>2026-05-03T11:49:00.555Z</time></trkpt><trkpt lat="44.621676" lon="10.0451539"><ele>527.0</ele><time>2026-05-03T11:49:01.553Z</time></trkpt><trkpt lat="44.6216221" lon="10.0452344"><ele>529.0</ele><time>2026-05-03T11:49:02.554Z</time></trkpt><trkpt lat="44.6215534" lon="10.0452885"><ele>531.0</ele><time>2026-05-03T11:49:03.553Z</time></trkpt><trkpt lat="44.6214866" lon="10.0453468"><ele>533.0</ele><time>2026-05-03T11:49:04.554Z</time></trkpt><trkpt lat="44.6214248" lon="10.045401"><ele>533.0</ele><time>2026-05-03T11:49:05.553Z</time></trkpt><trkpt lat="44.6213525" lon="10.0454338"><ele>533.0</ele><time>2026-05-03T11:49:06.553Z</time></trkpt><trkpt lat="44.6212757" lon="10.0454695"><ele>533.0</ele><time>2026-05-03T11:49:07.553Z</time></trkpt><trkpt lat="44.621197" lon="10.0455132"><ele>533.0</ele><time>2026-05-03T11:49:08.554Z</time></trkpt><trkpt lat="44.6211195" lon="10.0455772"><ele>533.0</ele><time>2026-05-03T11:49:09.554Z</time></trkpt><trkpt lat="44.6210515" lon="10.045639"><ele>533.0</ele><time>2026-05-03T11:49:10.553Z</time></trkpt><trkpt lat="44.6209736" lon="10.0456926"><ele>532.0</ele><time>2026-05-03T11:49:11.553Z</time></trkpt><trkpt lat="44.6208946" lon="10.0457531"><ele>531.0</ele><time>2026-05-03T11:49:12.554Z</time></trkpt><trkpt lat="44.6208159" lon="10.0458127"><ele>530.0</ele><time>2026-05-03T11:49:13.553Z</time></trkpt><trkpt lat="44.6207387" lon="10.0458864"><ele>529.0</ele><time>2026-05-03T11:49:14.553Z</time></trkpt><trkpt lat="44.6206673" lon="10.0459684"><ele>528.0</ele><time>2026-05-03T11:49:15.553Z</time></trkpt><trkpt lat="44.6206116" lon="10.046047"><ele>527.0</ele><time>2026-05-03T11:49:16.553Z</time></trkpt><trkpt lat="44.6205563" lon="10.0461174"><ele>528.2</ele><time>2026-05-03T11:49:17.553Z</time></trkpt><trkpt lat="44.6204952" lon="10.0461542"><ele>529.4000000000001</ele><time>2026-05-03T11:49:18.553Z</time></trkpt><trkpt lat="44.6204111" lon="10.0462476"><ele>530.5999999999999</ele><time>2026-05-03T11:49:20.553Z</time></trkpt><trkpt lat="44.6203515" lon="10.0463504"><ele>531.8</ele><time>2026-05-03T11:49:22.554Z</time></trkpt><trkpt lat="44.620296" lon="10.0464571"><ele>533.0</ele><time>2026-05-03T11:49:24.552Z</time></trkpt><trkpt lat="44.6202193" lon="10.0465779"><ele>535.3333333333333</ele><time>2026-05-03T11:49:26.552Z</time></trkpt><trkpt lat="44.6201608" lon="10.0466505"><ele>537.6666666666666</ele><time>2026-05-03T11:49:27.552Z</time></trkpt><trkpt lat="44.6201361" lon="10.0467367"><ele>540.0</ele><time>2026-05-03T11:49:28.552Z</time></trkpt><trkpt lat="44.6200911" lon="10.0469157"><ele>542.3333333333334</ele><time>2026-05-03T11:49:30.553Z</time></trkpt><trkpt lat="44.6200782" lon="10.0470151"><ele>544.6666666666667</ele><time>2026-05-03T11:49:31.552Z</time></trkpt><trkpt lat="44.6200589" lon="10.0471131"><ele>547.0</ele><time>2026-05-03T11:49:32.552Z</time></trkpt><trkpt lat="44.6200589" lon="10.0472118"><ele>547.0</ele><time>2026-05-03T11:49:33.552Z</time></trkpt><trkpt lat="44.6200598" lon="10.0473069"><ele>547.0</ele><time>2026-05-03T11:49:34.552Z</time></trkpt><trkpt lat="44.6200645" lon="10.0473951"><ele>547.0</ele><time>2026-05-03T11:49:35.552Z</time></trkpt><trkpt lat="44.6200796" lon="10.0474958"><ele>547.0</ele><time>2026-05-03T11:49:36.552Z</time></trkpt><trkpt lat="44.6200835" lon="10.0475982"><ele>547.0</ele><time>2026-05-03T11:49:37.552Z</time></trkpt><trkpt lat="44.6200867" lon="10.0476948"><ele>547.0</ele><time>2026-05-03T11:49:38.552Z</time></trkpt><trkpt lat="44.6200729" lon="10.0477954"><ele>547.0</ele><time>2026-05-03T11:49:39.552Z</time></trkpt><trkpt lat="44.6200446" lon="10.0478864"><ele>548.5</ele><time>2026-05-03T11:49:40.552Z</time></trkpt><trkpt lat="44.62001" lon="10.0479756"><ele>550.0</ele><time>2026-05-03T11:49:41.552Z</time></trkpt><trkpt lat="44.61998" lon="10.048068"><ele>551.5</ele><time>2026-05-03T11:49:42.552Z</time></trkpt><trkpt lat="44.6199679" lon="10.0481639"><ele>553.0</ele><time>2026-05-03T11:49:43.552Z</time></trkpt><trkpt lat="44.6199593" lon="10.048263"><ele>554.5</ele><time>2026-05-03T11:49:44.552Z</time></trkpt><trkpt lat="44.6198915" lon="10.0483695"><ele>556.0</ele><time>2026-05-03T11:49:46.553Z</time></trkpt><trkpt lat="44.6197939" lon="10.0484899"><ele>557.5</ele><time>2026-05-03T11:49:48.552Z</time></trkpt><trkpt lat="44.6197396" lon="10.0486174"><ele>559.0</ele><time>2026-05-03T11:49:50.552Z</time></trkpt><trkpt lat="44.6197089" lon="10.0487746"><ele>560.5</ele><time>2026-05-03T11:49:52.552Z</time></trkpt><trkpt lat="44.6196812" lon="10.0488662"><ele>562.0</ele><time>2026-05-03T11:49:53.552Z</time></trkpt><trkpt lat="44.6196434" lon="10.048951"><ele>563.5</ele><time>2026-05-03T11:49:54.553Z</time></trkpt><trkpt lat="44.6196038" lon="10.049021"><ele>565.0</ele><time>2026-05-03T11:49:55.552Z</time></trkpt><trkpt lat="44.619508" lon="10.0490798"><ele>566.75</ele><time>2026-05-03T11:49:57.552Z</time></trkpt><trkpt lat="44.6193616" lon="10.0491448"><ele>568.5</ele><time>2026-05-03T11:49:59.553Z</time></trkpt><trkpt lat="44.6192528" lon="10.0492027"><ele>570.25</ele><time>2026-05-03T11:50:00.552Z</time></trkpt><trkpt lat="44.619145" lon="10.0492513"><ele>572.0</ele><time>2026-05-03T11:50:01.552Z</time></trkpt><trkpt lat="44.6190494" lon="10.0492966"><ele>572.0</ele><time>2026-05-03T11:50:02.553Z</time></trkpt><trkpt lat="44.61899" lon="10.0493629"><ele>572.0</ele><time>2026-05-03T11:50:03.552Z</time></trkpt><trkpt lat="44.6189468" lon="10.0494472"><ele>572.0</ele><time>2026-05-03T11:50:04.552Z</time></trkpt><trkpt lat="44.6189081" lon="10.0495887"><ele>572.0</ele><time>2026-05-03T11:50:05.552Z</time></trkpt><trkpt lat="44.6188692" lon="10.0497238"><ele>572.0</ele><time>2026-05-03T11:50:06.552Z</time></trkpt><trkpt lat="44.618843" lon="10.0498192"><ele>572.0</ele><time>2026-05-03T11:50:07.552Z</time></trkpt><trkpt lat="44.618781" lon="10.0498898"><ele>572.0</ele><time>2026-05-03T11:50:08.552Z</time></trkpt><trkpt lat="44.6187062" lon="10.0499528"><ele>572.0</ele><time>2026-05-03T11:50:09.552Z</time></trkpt><trkpt lat="44.6186217" lon="10.0499926"><ele>572.0</ele><time>2026-05-03T11:50:10.552Z</time></trkpt><trkpt lat="44.6185115" lon="10.0500208"><ele>572.0</ele><time>2026-05-03T11:50:12.552Z</time></trkpt><trkpt lat="44.6184029" lon="10.0500111"><ele>572.0</ele><time>2026-05-03T11:50:14.552Z</time></trkpt><trkpt lat="44.6183157" lon="10.05009"><ele>572.1666666666666</ele><time>2026-05-03T11:50:16.552Z</time></trkpt><trkpt lat="44.6182998" lon="10.0502754"><ele>572.3333333333333</ele><time>2026-05-03T11:50:18.552Z</time></trkpt><trkpt lat="44.6183046" lon="10.0503943"><ele>572.5</ele><time>2026-05-03T11:50:19.553Z</time></trkpt><trkpt lat="44.6183088" lon="10.0505044"><ele>572.6666666666666</ele><time>2026-05-03T11:50:20.553Z</time></trkpt><trkpt lat="44.6183246" lon="10.0505974"><ele>572.8333333333334</ele><time>2026-05-03T11:50:21.552Z</time></trkpt><trkpt lat="44.6182977" lon="10.0507103"><ele>573.0</ele><time>2026-05-03T11:50:23.553Z</time></trkpt><trkpt lat="44.6182486" lon="10.0507832"><ele>573.0</ele><time>2026-05-03T11:50:25.552Z</time></trkpt><trkpt lat="44.6181815" lon="10.0508119"><ele>573.0</ele><time>2026-05-03T11:51:12.553Z</time></trkpt><trkpt lat="44.6181092" lon="10.0507947"><ele>573.0</ele><time>2026-05-03T11:51:14.553Z</time></trkpt><trkpt lat="44.6180137" lon="10.0507643"><ele>573.0</ele><time>2026-05-03T11:51:16.553Z</time></trkpt><trkpt lat="44.6179207" lon="10.0507711"><ele>573.0</ele><time>2026-05-03T11:51:18.552Z</time></trkpt><trkpt lat="44.6178146" lon="10.0508442"><ele>572.0</ele><time>2026-05-03T11:51:20.552Z</time></trkpt><trkpt lat="44.6176943" lon="10.0509125"><ele>571.0</ele><time>2026-05-03T11:51:22.552Z</time></trkpt><trkpt lat="44.6176316" lon="10.0509417"><ele>570.0</ele><time>2026-05-03T11:51:23.553Z</time></trkpt><trkpt lat="44.61757" lon="10.0509997"><ele>569.0</ele><time>2026-05-03T11:51:24.552Z</time></trkpt><trkpt lat="44.6175059" lon="10.0510359"><ele>568.0</ele><time>2026-05-03T11:51:25.552Z</time></trkpt><trkpt lat="44.6174314" lon="10.0510401"><ele>567.0</ele><time>2026-05-03T11:51:26.553Z</time></trkpt><trkpt lat="44.6173544" lon="10.0510582"><ele>567.0</ele><time>2026-05-03T11:51:27.552Z</time></trkpt><trkpt lat="44.6172959" lon="10.0511004"><ele>567.0</ele><time>2026-05-03T11:51:28.552Z</time></trkpt><trkpt lat="44.6172132" lon="10.0511368"><ele>567.0</ele><time>2026-05-03T11:51:29.552Z</time></trkpt><trkpt lat="44.6171256" lon="10.0512429"><ele>567.0</ele><time>2026-05-03T11:51:30.553Z</time></trkpt><trkpt lat="44.6170561" lon="10.0512751"><ele>567.0</ele><time>2026-05-03T11:51:31.552Z</time></trkpt><trkpt lat="44.6169851" lon="10.051302"><ele>567.0</ele><time>2026-05-03T11:51:32.553Z</time></trkpt><trkpt lat="44.6169205" lon="10.0513039"><ele>565.8333333333334</ele><time>2026-05-03T11:51:33.552Z</time></trkpt><trkpt lat="44.6168625" lon="10.0512695"><ele>564.6666666666666</ele><time>2026-05-03T11:51:34.552Z</time></trkpt><trkpt lat="44.6168083" lon="10.0512072"><ele>563.5</ele><time>2026-05-03T11:51:35.552Z</time></trkpt><trkpt lat="44.6167583" lon="10.0511278"><ele>562.3333333333333</ele><time>2026-05-03T11:51:36.552Z</time></trkpt><trkpt lat="44.6167034" lon="10.0510501"><ele>561.1666666666666</ele><time>2026-05-03T11:51:37.552Z</time></trkpt><trkpt lat="44.6166341" lon="10.050963"><ele>560.0</ele><time>2026-05-03T11:51:38.552Z</time></trkpt><trkpt lat="44.6165668" lon="10.0508996"><ele>560.0</ele><time>2026-05-03T11:51:39.552Z</time></trkpt><trkpt lat="44.6164928" lon="10.0508573"><ele>560.0</ele><time>2026-05-03T11:51:40.552Z</time></trkpt><trkpt lat="44.6164164" lon="10.0508272"><ele>560.0</ele><time>2026-05-03T11:51:41.552Z</time></trkpt><trkpt lat="44.61629" lon="10.0507926"><ele>560.0</ele><time>2026-05-03T11:51:43.552Z</time></trkpt><trkpt lat="44.6162227" lon="10.0507915"><ele>560.0</ele><time>2026-05-03T11:51:44.552Z</time></trkpt><trkpt lat="44.6161539" lon="10.0508215"><ele>560.0</ele><time>2026-05-03T11:51:45.552Z</time></trkpt><trkpt lat="44.6160774" lon="10.0508755"><ele>560.3333333333333</ele><time>2026-05-03T11:51:46.552Z</time></trkpt><trkpt lat="44.6160115" lon="10.0509259"><ele>560.6666666666666</ele><time>2026-05-03T11:51:47.552Z</time></trkpt><trkpt lat="44.6159547" lon="10.0509702"><ele>561.0</ele><time>2026-05-03T11:51:48.552Z</time></trkpt><trkpt lat="44.6159045" lon="10.0510336"><ele>561.3333333333334</ele><time>2026-05-03T11:51:49.553Z</time></trkpt><trkpt lat="44.6158567" lon="10.0511183"><ele>561.6666666666667</ele><time>2026-05-03T11:51:50.552Z</time></trkpt><trkpt lat="44.6157955" lon="10.0512142"><ele>562.0</ele><time>2026-05-03T11:51:51.552Z</time></trkpt><trkpt lat="44.6157329" lon="10.0513059"><ele>562.0</ele><time>2026-05-03T11:51:52.553Z</time></trkpt><trkpt lat="44.615665" lon="10.0513748"><ele>562.0</ele><time>2026-05-03T11:51:53.552Z</time></trkpt><trkpt lat="44.6156016" lon="10.0514222"><ele>562.0</ele><time>2026-05-03T11:51:54.554Z</time></trkpt><trkpt lat="44.6154806" lon="10.0514361"><ele>562.0</ele><time>2026-05-03T11:51:56.552Z</time></trkpt><trkpt lat="44.6153829" lon="10.0513265"><ele>562.0</ele><time>2026-05-03T11:51:58.552Z</time></trkpt><trkpt lat="44.6153119" lon="10.051186"><ele>562.6</ele><time>2026-05-03T11:52:00.553Z</time></trkpt><trkpt lat="44.6152122" lon="10.0511301"><ele>563.2</ele><time>2026-05-03T11:52:02.552Z</time></trkpt><trkpt lat="44.615107" lon="10.0511136"><ele>563.8</ele><time>2026-05-03T11:52:04.552Z</time></trkpt><trkpt lat="44.6151047" lon="10.0509667"><ele>564.4</ele><time>2026-05-03T11:52:07.552Z</time></trkpt><trkpt lat="44.6151552" lon="10.0508823"><ele>565.0</ele><time>2026-05-03T11:52:08.553Z</time></trkpt><trkpt lat="44.6152238" lon="10.0507779"><ele>565.0</ele><time>2026-05-03T11:52:09.552Z</time></trkpt><trkpt lat="44.6152637" lon="10.0506571"><ele>565.0</ele><time>2026-05-03T11:52:10.553Z</time></trkpt><trkpt lat="44.6153051" lon="10.050524"><ele>565.0</ele><time>2026-05-03T11:52:11.552Z</time></trkpt><trkpt lat="44.6153475" lon="10.0503816"><ele>565.0</ele><time>2026-05-03T11:52:12.552Z</time></trkpt><trkpt lat="44.615354" lon="10.0502373"><ele>565.0</ele><time>2026-05-03T11:52:13.552Z</time></trkpt><trkpt lat="44.6153613" lon="10.0501058"><ele>561.8</ele><time>2026-05-03T11:52:14.552Z</time></trkpt><trkpt lat="44.6153502" lon="10.0499912"><ele>558.6</ele><time>2026-05-03T11:52:15.552Z</time></trkpt><trkpt lat="44.615314" lon="10.0498771"><ele>555.4</ele><time>2026-05-03T11:52:16.553Z</time></trkpt><trkpt lat="44.6152452" lon="10.0497861"><ele>552.2</ele><time>2026-05-03T11:52:17.553Z</time></trkpt><trkpt lat="44.6151512" lon="10.0497213"><ele>549.0</ele><time>2026-05-03T11:52:18.552Z</time></trkpt><trkpt lat="44.6150412" lon="10.0496672"><ele>548.25</ele><time>2026-05-03T11:52:19.552Z</time></trkpt><trkpt lat="44.6149323" lon="10.0495899"><ele>547.5</ele><time>2026-05-03T11:52:20.552Z</time></trkpt><trkpt lat="44.6148314" lon="10.0494986"><ele>546.75</ele><time>2026-05-03T11:52:21.553Z</time></trkpt><trkpt lat="44.6147548" lon="10.0493862"><ele>546.0</ele><time>2026-05-03T11:52:22.552Z</time></trkpt><trkpt lat="44.6146989" lon="10.0492548"><ele>544.3333333333334</ele><time>2026-05-03T11:52:23.552Z</time></trkpt><trkpt lat="44.614644" lon="10.0491067"><ele>542.6666666666666</ele><time>2026-05-03T11:52:24.552Z</time></trkpt><trkpt lat="44.6146025" lon="10.0489866"><ele>541.0</ele><time>2026-05-03T11:52:25.552Z</time></trkpt><trkpt lat="44.6145648" lon="10.0488865"><ele>539.3333333333333</ele><time>2026-05-03T11:52:26.553Z</time></trkpt><trkpt lat="44.61452" lon="10.0488067"><ele>537.6666666666666</ele><time>2026-05-03T11:52:27.552Z</time></trkpt><trkpt lat="44.6144624" lon="10.0487651"><ele>536.0</ele><time>2026-05-03T11:52:28.552Z</time></trkpt><trkpt lat="44.6143813" lon="10.0487738"><ele>536.0</ele><time>2026-05-03T11:52:29.552Z</time></trkpt><trkpt lat="44.614287" lon="10.0488059"><ele>536.0</ele><time>2026-05-03T11:52:30.552Z</time></trkpt><trkpt lat="44.6141903" lon="10.0488325"><ele>536.0</ele><time>2026-05-03T11:52:31.552Z</time></trkpt><trkpt lat="44.6140888" lon="10.0488643"><ele>536.0</ele><time>2026-05-03T11:52:32.553Z</time></trkpt><trkpt lat="44.6139875" lon="10.0488997"><ele>536.0</ele><time>2026-05-03T11:52:33.552Z</time></trkpt><trkpt lat="44.6138926" lon="10.0489605"><ele>536.0</ele><time>2026-05-03T11:52:34.552Z</time></trkpt><trkpt lat="44.613807" lon="10.0490367"><ele>536.0</ele><time>2026-05-03T11:52:35.553Z</time></trkpt><trkpt lat="44.6137372" lon="10.0491415"><ele>536.0</ele><time>2026-05-03T11:52:36.552Z</time></trkpt><trkpt lat="44.6136846" lon="10.0492798"><ele>536.0</ele><time>2026-05-03T11:52:37.552Z</time></trkpt><trkpt lat="44.6136523" lon="10.0494462"><ele>536.0</ele><time>2026-05-03T11:52:38.552Z</time></trkpt><trkpt lat="44.6136132" lon="10.0496165"><ele>535.0</ele><time>2026-05-03T11:52:39.552Z</time></trkpt><trkpt lat="44.6135663" lon="10.0497841"><ele>534.0</ele><time>2026-05-03T11:52:40.552Z</time></trkpt><trkpt lat="44.6135108" lon="10.0499359"><ele>533.0</ele><time>2026-05-03T11:52:41.552Z</time></trkpt><trkpt lat="44.6134405" lon="10.0500791"><ele>532.0</ele><time>2026-05-03T11:52:42.552Z</time></trkpt><trkpt lat="44.6133576" lon="10.0502167"><ele>532.0</ele><time>2026-05-03T11:52:43.552Z</time></trkpt><trkpt lat="44.6132457" lon="10.0503481"><ele>532.0</ele><time>2026-05-03T11:52:44.552Z</time></trkpt><trkpt lat="44.6131323" lon="10.0504793"><ele>532.0</ele><time>2026-05-03T11:52:45.552Z</time></trkpt><trkpt lat="44.6130191" lon="10.0506061"><ele>532.0</ele><time>2026-05-03T11:52:46.552Z</time></trkpt><trkpt lat="44.612923" lon="10.0507157"><ele>533.4</ele><time>2026-05-03T11:52:47.552Z</time></trkpt><trkpt lat="44.6128373" lon="10.0507977"><ele>534.8000000000001</ele><time>2026-05-03T11:52:48.552Z</time></trkpt><trkpt lat="44.612746" lon="10.0508612"><ele>536.2</ele><time>2026-05-03T11:52:49.552Z</time></trkpt><trkpt lat="44.612641" lon="10.0508855"><ele>537.6</ele><time>2026-05-03T11:52:50.552Z</time></trkpt><trkpt lat="44.6125272" lon="10.0508677"><ele>539.0</ele><time>2026-05-03T11:52:51.552Z</time></trkpt><trkpt lat="44.6124068" lon="10.0508151"><ele>532.25</ele><time>2026-05-03T11:52:52.552Z</time></trkpt><trkpt lat="44.6122872" lon="10.0507361"><ele>525.5</ele><time>2026-05-03T11:52:53.552Z</time></trkpt><trkpt lat="44.6121648" lon="10.0506487"><ele>518.75</ele><time>2026-05-03T11:52:54.552Z</time></trkpt><trkpt lat="44.6120409" lon="10.0505629"><ele>512.0</ele><time>2026-05-03T11:52:55.552Z</time></trkpt><trkpt lat="44.6119172" lon="10.0504779"><ele>511.0</ele><time>2026-05-03T11:52:56.553Z</time></trkpt><trkpt lat="44.6117946" lon="10.0504031"><ele>510.0</ele><time>2026-05-03T11:52:57.552Z</time></trkpt><trkpt lat="44.611667" lon="10.0503533"><ele>509.0</ele><time>2026-05-03T11:52:58.551Z</time></trkpt><trkpt lat="44.6115357" lon="10.0503152"><ele>508.0</ele><time>2026-05-03T11:52:59.551Z</time></trkpt><trkpt lat="44.6114058" lon="10.0502669"><ele>508.0</ele><time>2026-05-03T11:53:00.551Z</time></trkpt><trkpt lat="44.6112855" lon="10.0502019"><ele>508.0</ele><time>2026-05-03T11:53:01.551Z</time></trkpt><trkpt lat="44.6111808" lon="10.0500962"><ele>508.0</ele><time>2026-05-03T11:53:02.551Z</time></trkpt><trkpt lat="44.6110973" lon="10.0499549"><ele>508.0</ele><time>2026-05-03T11:53:03.551Z</time></trkpt><trkpt lat="44.6110215" lon="10.0498009"><ele>507.0</ele><time>2026-05-03T11:53:04.551Z</time></trkpt><trkpt lat="44.6109516" lon="10.0496472"><ele>505.99999999999994</ele><time>2026-05-03T11:53:05.551Z</time></trkpt><trkpt lat="44.6108929" lon="10.0495045"><ele>504.99999999999994</ele><time>2026-05-03T11:53:06.552Z</time></trkpt><trkpt lat="44.6108439" lon="10.0493771"><ele>504.0</ele><time>2026-05-03T11:53:07.551Z</time></trkpt><trkpt lat="44.6107977" lon="10.0492677"><ele>503.0</ele><time>2026-05-03T11:53:08.551Z</time></trkpt><trkpt lat="44.6107459" lon="10.049175"><ele>502.99999999999994</ele><time>2026-05-03T11:53:09.551Z</time></trkpt><trkpt lat="44.6106809" lon="10.0491052"><ele>503.0</ele><time>2026-05-03T11:53:10.551Z</time></trkpt><trkpt lat="44.610601" lon="10.0490726"><ele>503.0</ele><time>2026-05-03T11:53:11.552Z</time></trkpt><trkpt lat="44.610516" lon="10.049071"><ele>503.0</ele><time>2026-05-03T11:53:12.551Z</time></trkpt><trkpt lat="44.6104394" lon="10.049143"><ele>502.99999999999994</ele><time>2026-05-03T11:53:13.551Z</time></trkpt><trkpt lat="44.6103827" lon="10.0492252"><ele>503.0</ele><time>2026-05-03T11:53:14.551Z</time></trkpt><trkpt lat="44.6103541" lon="10.0493306"><ele>503.0</ele><time>2026-05-03T11:53:15.551Z</time></trkpt><trkpt lat="44.6103598" lon="10.0494514"><ele>502.99999999999994</ele><time>2026-05-03T11:53:16.551Z</time></trkpt><trkpt lat="44.6103948" lon="10.0495899"><ele>502.99999999999994</ele><time>2026-05-03T11:53:17.551Z</time></trkpt><trkpt lat="44.6104352" lon="10.0497106"><ele>503.0</ele><time>2026-05-03T11:53:18.551Z</time></trkpt><trkpt lat="44.6104567" lon="10.0498313"><ele>503.0</ele><time>2026-05-03T11:53:19.552Z</time></trkpt><trkpt lat="44.6104219" lon="10.0499466"><ele>502.4</ele><time>2026-05-03T11:53:20.551Z</time></trkpt><trkpt lat="44.6103658" lon="10.0500496"><ele>501.79999999999995</ele><time>2026-05-03T11:53:21.551Z</time></trkpt><trkpt lat="44.6102903" lon="10.0501107"><ele>501.2</ele><time>2026-05-03T11:53:22.551Z</time></trkpt><trkpt lat="44.6102033" lon="10.0501183"><ele>500.6</ele><time>2026-05-03T11:53:23.551Z</time></trkpt><trkpt lat="44.6101149" lon="10.0500663"><ele>500.0</ele><time>2026-05-03T11:53:24.551Z</time></trkpt><trkpt lat="44.6100199" lon="10.0500054"><ele>496.75</ele><time>2026-05-03T11:53:25.551Z</time></trkpt><trkpt lat="44.6099095" lon="10.0498608"><ele>493.5</ele><time>2026-05-03T11:53:26.552Z</time></trkpt><trkpt lat="44.6097972" lon="10.0497424"><ele>490.25</ele><time>2026-05-03T11:53:27.551Z</time></trkpt><trkpt lat="44.6096958" lon="10.0496145"><ele>487.0</ele><time>2026-05-03T11:53:28.551Z</time></trkpt><trkpt lat="44.6096111" lon="10.0494877"><ele>487.0</ele><time>2026-05-03T11:53:29.551Z</time></trkpt><trkpt lat="44.6095426" lon="10.0493772"><ele>487.00000000000006</ele><time>2026-05-03T11:53:30.551Z</time></trkpt><trkpt lat="44.6094845" lon="10.0492768"><ele>487.00000000000006</ele><time>2026-05-03T11:53:31.551Z</time></trkpt><trkpt lat="44.6094231" lon="10.0491939"><ele>487.0</ele><time>2026-05-03T11:53:32.551Z</time></trkpt><trkpt lat="44.6093408" lon="10.0491379"><ele>487.0</ele><time>2026-05-03T11:53:33.551Z</time></trkpt><trkpt lat="44.6092421" lon="10.0490869"><ele>486.0</ele><time>2026-05-03T11:53:34.551Z</time></trkpt><trkpt lat="44.6091313" lon="10.0490127"><ele>485.0</ele><time>2026-05-03T11:53:35.552Z</time></trkpt><trkpt lat="44.6090107" lon="10.0489162"><ele>484.0</ele><time>2026-05-03T11:53:36.552Z</time></trkpt><trkpt lat="44.6088918" lon="10.0488048"><ele>483.0</ele><time>2026-05-03T11:53:37.551Z</time></trkpt><trkpt lat="44.6087966" lon="10.0486997"><ele>483.0</ele><time>2026-05-03T11:53:38.551Z</time></trkpt><trkpt lat="44.6087393" lon="10.0485901"><ele>482.99999999999994</ele><time>2026-05-03T11:53:39.551Z</time></trkpt><trkpt lat="44.6086958" lon="10.0484758"><ele>482.99999999999994</ele><time>2026-05-03T11:53:40.551Z</time></trkpt><trkpt lat="44.6087296" lon="10.048363"><ele>483.0</ele><time>2026-05-03T11:53:41.551Z</time></trkpt><trkpt lat="44.6087602" lon="10.048247"><ele>483.0</ele><time>2026-05-03T11:53:42.551Z</time></trkpt><trkpt lat="44.608786" lon="10.0481212"><ele>484.5</ele><time>2026-05-03T11:53:43.551Z</time></trkpt><trkpt lat="44.6087909" lon="10.0479682"><ele>486.0</ele><time>2026-05-03T11:53:44.551Z</time></trkpt><trkpt lat="44.6088245" lon="10.0478166"><ele>487.5</ele><time>2026-05-03T11:53:45.552Z</time></trkpt><trkpt lat="44.6088738" lon="10.0476666"><ele>489.0</ele><time>2026-05-03T11:53:46.552Z</time></trkpt><trkpt lat="44.6089392" lon="10.0475168"><ele>492.5</ele><time>2026-05-03T11:53:47.552Z</time></trkpt><trkpt lat="44.6089935" lon="10.0473503"><ele>496.0</ele><time>2026-05-03T11:53:48.552Z</time></trkpt><trkpt lat="44.6090286" lon="10.0471722"><ele>499.5</ele><time>2026-05-03T11:53:49.551Z</time></trkpt><trkpt lat="44.6090554" lon="10.046977"><ele>503.0</ele><time>2026-05-03T11:53:50.553Z</time></trkpt><trkpt lat="44.6090813" lon="10.0467986"><ele>503.0</ele><time>2026-05-03T11:53:51.552Z</time></trkpt><trkpt lat="44.6091167" lon="10.0466396"><ele>502.99999999999994</ele><time>2026-05-03T11:53:52.552Z</time></trkpt><trkpt lat="44.6091749" lon="10.0465045"><ele>502.99999999999994</ele><time>2026-05-03T11:53:53.551Z</time></trkpt><trkpt lat="44.6092157" lon="10.0463846"><ele>503.0</ele><time>2026-05-03T11:53:54.552Z</time></trkpt><trkpt lat="44.609259" lon="10.0462802"><ele>503.0</ele><time>2026-05-03T11:53:55.552Z</time></trkpt><trkpt lat="44.6091507" lon="10.0461556"><ele>504.0</ele><time>2026-05-03T11:53:57.552Z</time></trkpt><trkpt lat="44.6090808" lon="10.0461528"><ele>504.99999999999994</ele><time>2026-05-03T11:53:59.551Z</time></trkpt><trkpt lat="44.608991" lon="10.046261"><ele>505.99999999999994</ele><time>2026-05-03T11:54:00.551Z</time></trkpt><trkpt lat="44.6088952" lon="10.0463303"><ele>507.0</ele><time>2026-05-03T11:54:01.551Z</time></trkpt><trkpt lat="44.6087909" lon="10.046382"><ele>508.0</ele><time>2026-05-03T11:54:02.551Z</time></trkpt><trkpt lat="44.6086777" lon="10.0464172"><ele>511.59999999999997</ele><time>2026-05-03T11:54:03.551Z</time></trkpt><trkpt lat="44.6085614" lon="10.0464424"><ele>515.1999999999999</ele><time>2026-05-03T11:54:04.551Z</time></trkpt><trkpt lat="44.6084575" lon="10.0464494"><ele>518.8</ele><time>2026-05-03T11:54:05.551Z</time></trkpt><trkpt lat="44.6083663" lon="10.0464232"><ele>522.4</ele><time>2026-05-03T11:54:06.551Z</time></trkpt><trkpt lat="44.6083019" lon="10.0463501"><ele>526.0</ele><time>2026-05-03T11:54:07.552Z</time></trkpt><trkpt lat="44.6082547" lon="10.0462393"><ele>526.0</ele><time>2026-05-03T11:54:08.551Z</time></trkpt><trkpt lat="44.6081996" lon="10.0461379"><ele>526.0</ele><time>2026-05-03T11:54:09.551Z</time></trkpt><trkpt lat="44.608142" lon="10.0460032"><ele>526.0</ele><time>2026-05-03T11:54:10.551Z</time></trkpt><trkpt lat="44.6080621" lon="10.0458813"><ele>526.0</ele><time>2026-05-03T11:54:11.552Z</time></trkpt><trkpt lat="44.6079799" lon="10.0457781"><ele>526.0</ele><time>2026-05-03T11:54:12.552Z</time></trkpt><trkpt lat="44.6079046" lon="10.0456675"><ele>525.4</ele><time>2026-05-03T11:54:13.551Z</time></trkpt><trkpt lat="44.6078532" lon="10.0455364"><ele>524.8</ele><time>2026-05-03T11:54:14.551Z</time></trkpt><trkpt lat="44.6078254" lon="10.0453812"><ele>524.1999999999999</ele><time>2026-05-03T11:54:15.551Z</time></trkpt><trkpt lat="44.6077865" lon="10.0452478"><ele>523.6</ele><time>2026-05-03T11:54:16.551Z</time></trkpt><trkpt lat="44.6077352" lon="10.0451384"><ele>523.0</ele><time>2026-05-03T11:54:17.551Z</time></trkpt><trkpt lat="44.6076679" lon="10.0450394"><ele>529.4</ele><time>2026-05-03T11:54:18.551Z</time></trkpt><trkpt lat="44.6075851" lon="10.0449578"><ele>535.8</ele><time>2026-05-03T11:54:19.551Z</time></trkpt><trkpt lat="44.6075017" lon="10.0448717"><ele>542.2</ele><time>2026-05-03T11:54:20.551Z</time></trkpt><trkpt lat="44.6074395" lon="10.0447641"><ele>548.6</ele><time>2026-05-03T11:54:21.551Z</time></trkpt><trkpt lat="44.6074004" lon="10.0446511"><ele>555.0</ele><time>2026-05-03T11:54:22.551Z</time></trkpt><trkpt lat="44.6074045" lon="10.0445427"><ele>555.0</ele><time>2026-05-03T11:54:23.552Z</time></trkpt><trkpt lat="44.6074444" lon="10.0444322"><ele>555.0</ele><time>2026-05-03T11:54:24.552Z</time></trkpt><trkpt lat="44.6075103" lon="10.0443275"><ele>555.0</ele><time>2026-05-03T11:54:25.551Z</time></trkpt><trkpt lat="44.6075843" lon="10.0442118"><ele>555.0</ele><time>2026-05-03T11:54:26.551Z</time></trkpt><trkpt lat="44.6076566" lon="10.0440818"><ele>555.0</ele><time>2026-05-03T11:54:27.551Z</time></trkpt><trkpt lat="44.6077187" lon="10.0439318"><ele>553.75</ele><time>2026-05-03T11:54:28.551Z</time></trkpt><trkpt lat="44.6077772" lon="10.0437722"><ele>552.5</ele><time>2026-05-03T11:54:29.551Z</time></trkpt><trkpt lat="44.607835" lon="10.0436132"><ele>551.25</ele><time>2026-05-03T11:54:30.552Z</time></trkpt><trkpt lat="44.6078882" lon="10.0434519"><ele>550.0</ele><time>2026-05-03T11:54:31.552Z</time></trkpt><trkpt lat="44.6079207" lon="10.0432736"><ele>553.25</ele><time>2026-05-03T11:54:32.551Z</time></trkpt><trkpt lat="44.6079307" lon="10.0430894"><ele>556.5</ele><time>2026-05-03T11:54:33.552Z</time></trkpt><trkpt lat="44.607927" lon="10.0429066"><ele>559.75</ele><time>2026-05-03T11:54:34.552Z</time></trkpt><trkpt lat="44.6079196" lon="10.0427313"><ele>563.0</ele><time>2026-05-03T11:54:35.551Z</time></trkpt><trkpt lat="44.6078987" lon="10.0425542"><ele>566.25</ele><time>2026-05-03T11:54:36.551Z</time></trkpt><trkpt lat="44.6078939" lon="10.0423845"><ele>569.5</ele><time>2026-05-03T11:54:37.551Z</time></trkpt><trkpt lat="44.6078767" lon="10.0422195"><ele>572.75</ele><time>2026-05-03T11:54:38.551Z</time></trkpt><trkpt lat="44.6078649" lon="10.0420579"><ele>576.0</ele><time>2026-05-03T11:54:39.551Z</time></trkpt><trkpt lat="44.6078595" lon="10.0419105"><ele>576.0</ele><time>2026-05-03T11:54:40.551Z</time></trkpt><trkpt lat="44.6078473" lon="10.0417902"><ele>576.0</ele><time>2026-05-03T11:54:41.551Z</time></trkpt><trkpt lat="44.6078414" lon="10.0416869"><ele>576.0</ele><time>2026-05-03T11:54:42.551Z</time></trkpt><trkpt lat="44.6078495" lon="10.0415865"><ele>576.0</ele><time>2026-05-03T11:54:43.551Z</time></trkpt><trkpt lat="44.6078768" lon="10.0414959"><ele>576.0</ele><time>2026-05-03T11:54:44.552Z</time></trkpt><trkpt lat="44.6079268" lon="10.0414191"><ele>576.0</ele><time>2026-05-03T11:54:45.551Z</time></trkpt><trkpt lat="44.6079785" lon="10.0413284"><ele>578.0</ele><time>2026-05-03T11:54:46.551Z</time></trkpt><trkpt lat="44.6080576" lon="10.0412552"><ele>580.0</ele><time>2026-05-03T11:54:47.551Z</time></trkpt><trkpt lat="44.6081362" lon="10.0411402"><ele>582.0</ele><time>2026-05-03T11:54:48.551Z</time></trkpt><trkpt lat="44.6081806" lon="10.0410315"><ele>584.0</ele><time>2026-05-03T11:54:49.551Z</time></trkpt><trkpt lat="44.6082106" lon="10.040936"><ele>586.0</ele><time>2026-05-03T11:54:50.551Z</time></trkpt><trkpt lat="44.6082325" lon="10.0408447"><ele>588.0</ele><time>2026-05-03T11:54:51.551Z</time></trkpt><trkpt lat="44.608258" lon="10.0407585"><ele>592.0</ele><time>2026-05-03T11:54:52.551Z</time></trkpt><trkpt lat="44.6083108" lon="10.0406046"><ele>596.0</ele><time>2026-05-03T11:54:54.551Z</time></trkpt><trkpt lat="44.6083425" lon="10.0405226"><ele>600.0</ele><time>2026-05-03T11:54:55.551Z</time></trkpt><trkpt lat="44.608416" lon="10.0403804"><ele>604.0</ele><time>2026-05-03T11:54:57.552Z</time></trkpt><trkpt lat="44.6084652" lon="10.0403063"><ele>608.0</ele><time>2026-05-03T11:54:58.552Z</time></trkpt><trkpt lat="44.6085301" lon="10.0402226"><ele>608.0</ele><time>2026-05-03T11:54:59.551Z</time></trkpt><trkpt lat="44.6086045" lon="10.0401376"><ele>608.0</ele><time>2026-05-03T11:55:00.551Z</time></trkpt><trkpt lat="44.608686" lon="10.0400412"><ele>608.0</ele><time>2026-05-03T11:55:01.551Z</time></trkpt><trkpt lat="44.6087704" lon="10.0399352"><ele>608.0</ele><time>2026-05-03T11:55:02.551Z</time></trkpt><trkpt lat="44.6088363" lon="10.0398217"><ele>608.0</ele><time>2026-05-03T11:55:03.551Z</time></trkpt><trkpt lat="44.60889" lon="10.0397048"><ele>602.4</ele><time>2026-05-03T11:55:04.551Z</time></trkpt><trkpt lat="44.608909" lon="10.0395844"><ele>596.8</ele><time>2026-05-03T11:55:05.551Z</time></trkpt><trkpt lat="44.6089042" lon="10.0394467"><ele>591.2</ele><time>2026-05-03T11:55:06.552Z</time></trkpt><trkpt lat="44.6088911" lon="10.0393015"><ele>585.6</ele><time>2026-05-03T11:55:07.551Z</time></trkpt><trkpt lat="44.6088814" lon="10.0391503"><ele>580.0</ele><time>2026-05-03T11:55:08.551Z</time></trkpt><trkpt lat="44.6088763" lon="10.0389943"><ele>580.0</ele><time>2026-05-03T11:55:09.551Z</time></trkpt><trkpt lat="44.6088802" lon="10.0388404"><ele>580.0</ele><time>2026-05-03T11:55:10.551Z</time></trkpt><trkpt lat="44.6089034" lon="10.0386999"><ele>580.0</ele><time>2026-05-03T11:55:11.551Z</time></trkpt><trkpt lat="44.6089291" lon="10.0385814"><ele>580.0</ele><time>2026-05-03T11:55:12.551Z</time></trkpt><trkpt lat="44.6089421" lon="10.0384785"><ele>580.0</ele><time>2026-05-03T11:55:13.551Z</time></trkpt><trkpt lat="44.6089326" lon="10.0383884"><ele>580.0</ele><time>2026-05-03T11:55:14.551Z</time></trkpt><trkpt lat="44.6088527" lon="10.0382548"><ele>580.0</ele><time>2026-05-03T11:55:16.551Z</time></trkpt><trkpt lat="44.6087961" lon="10.0381848"><ele>580.0</ele><time>2026-05-03T11:55:17.551Z</time></trkpt><trkpt lat="44.6087394" lon="10.0381111"><ele>580.0</ele><time>2026-05-03T11:55:18.551Z</time></trkpt><trkpt lat="44.6086962" lon="10.0380214"><ele>580.0</ele><time>2026-05-03T11:55:19.552Z</time></trkpt><trkpt lat="44.6086822" lon="10.0379247"><ele>580.0</ele><time>2026-05-03T11:55:20.552Z</time></trkpt><trkpt lat="44.6086767" lon="10.0378157"><ele>580.0</ele><time>2026-05-03T11:55:21.551Z</time></trkpt><trkpt lat="44.6086905" lon="10.037692"><ele>580.0</ele><time>2026-05-03T11:55:22.551Z</time></trkpt><trkpt lat="44.6087184" lon="10.0375624"><ele>580.0</ele><time>2026-05-03T11:55:23.551Z</time></trkpt><trkpt lat="44.6087556" lon="10.0374273"><ele>580.0</ele><time>2026-05-03T11:55:24.551Z</time></trkpt><trkpt lat="44.6088017" lon="10.0372916"><ele>580.0</ele><time>2026-05-03T11:55:25.552Z</time></trkpt><trkpt lat="44.6088452" lon="10.0371533"><ele>580.0</ele><time>2026-05-03T11:55:26.551Z</time></trkpt><trkpt lat="44.6088694" lon="10.0370035"><ele>579.6</ele><time>2026-05-03T11:55:27.551Z</time></trkpt><trkpt lat="44.6088788" lon="10.036846"><ele>579.2</ele><time>2026-05-03T11:55:28.551Z</time></trkpt><trkpt lat="44.6088671" lon="10.0366915"><ele>578.8</ele><time>2026-05-03T11:55:29.551Z</time></trkpt><trkpt lat="44.6088529" lon="10.0365446"><ele>578.4</ele><time>2026-05-03T11:55:30.551Z</time></trkpt><trkpt lat="44.6088398" lon="10.0364124"><ele>578.0</ele><time>2026-05-03T11:55:31.551Z</time></trkpt><trkpt lat="44.6088259" lon="10.03629"><ele>578.0</ele><time>2026-05-03T11:55:32.552Z</time></trkpt><trkpt lat="44.608812" lon="10.0361759"><ele>578.0</ele><time>2026-05-03T11:55:33.551Z</time></trkpt><trkpt lat="44.6088004" lon="10.0360724"><ele>578.0</ele><time>2026-05-03T11:55:34.551Z</time></trkpt><trkpt lat="44.6087948" lon="10.0359314"><ele>578.0</ele><time>2026-05-03T11:55:36.551Z</time></trkpt><trkpt lat="44.6087632" lon="10.0357997"><ele>578.0</ele><time>2026-05-03T11:55:38.552Z</time></trkpt><trkpt lat="44.6087408" lon="10.0357154"><ele>578.0</ele><time>2026-05-03T11:55:39.551Z</time></trkpt><trkpt lat="44.6087141" lon="10.0355658"><ele>579.1666666666666</ele><time>2026-05-03T11:55:41.551Z</time></trkpt><trkpt lat="44.6087449" lon="10.0354315"><ele>580.3333333333333</ele><time>2026-05-03T11:55:43.552Z</time></trkpt><trkpt lat="44.608796" lon="10.0352956"><ele>581.5</ele><time>2026-05-03T11:55:45.551Z</time></trkpt><trkpt lat="44.6088294" lon="10.0352177"><ele>582.6666666666666</ele><time>2026-05-03T11:55:47.551Z</time></trkpt><trkpt lat="44.6088308" lon="10.035117"><ele>583.8333333333334</ele><time>2026-05-03T11:55:49.551Z</time></trkpt><trkpt lat="44.6087631" lon="10.0350967"><ele>585.0</ele><time>2026-05-03T11:55:52.551Z</time></trkpt><trkpt lat="44.6086659" lon="10.0351666"><ele>591.0</ele><time>2026-05-03T11:55:53.551Z</time></trkpt><trkpt lat="44.608561" lon="10.0352039"><ele>597.0</ele><time>2026-05-03T11:55:55.551Z</time></trkpt><trkpt lat="44.6084918" lon="10.0352381"><ele>603.0</ele><time>2026-05-03T11:55:56.551Z</time></trkpt><trkpt lat="44.6084184" lon="10.0353159"><ele>609.0</ele><time>2026-05-03T11:55:59.551Z</time></trkpt><trkpt lat="44.6083338" lon="10.0354253"><ele>615.0</ele><time>2026-05-03T11:56:01.552Z</time></trkpt><trkpt lat="44.6082513" lon="10.0354885"><ele>615.0</ele><time>2026-05-03T11:56:03.551Z</time></trkpt><trkpt lat="44.6081662" lon="10.0355277"><ele>615.0</ele><time>2026-05-03T11:56:05.551Z</time></trkpt><trkpt lat="44.6080962" lon="10.0355326"><ele>615.0</ele><time>2026-05-03T11:56:06.551Z</time></trkpt><trkpt lat="44.6080333" lon="10.035579"><ele>615.0</ele><time>2026-05-03T11:56:08.551Z</time></trkpt><trkpt lat="44.6079774" lon="10.0355358"><ele>615.0</ele><time>2026-05-03T11:56:17.551Z</time></trkpt><trkpt lat="44.6079678" lon="10.0354358"><ele>615.0</ele><time>2026-05-03T11:56:19.551Z</time></trkpt><trkpt lat="44.6079432" lon="10.0353013"><ele>615.0</ele><time>2026-05-03T11:56:22.552Z</time></trkpt><trkpt lat="44.6078869" lon="10.0351771"><ele>615.0</ele><time>2026-05-03T11:56:24.551Z</time></trkpt><trkpt lat="44.6078489" lon="10.0350817"><ele>615.0</ele><time>2026-05-03T11:56:25.551Z</time></trkpt><trkpt lat="44.6078136" lon="10.0349284"><ele>615.0</ele><time>2026-05-03T11:56:27.551Z</time></trkpt><trkpt lat="44.6077611" lon="10.0348676"><ele>615.0</ele><time>2026-05-03T11:56:28.551Z</time></trkpt><trkpt lat="44.6076684" lon="10.0347836"><ele>615.3333333333334</ele><time>2026-05-03T11:56:30.551Z</time></trkpt><trkpt lat="44.6076101" lon="10.0347206"><ele>615.6666666666666</ele><time>2026-05-03T11:56:31.551Z</time></trkpt><trkpt lat="44.6075048" lon="10.0346564"><ele>616.0</ele><time>2026-05-03T11:56:33.551Z</time></trkpt><trkpt lat="44.6074464" lon="10.0347003"><ele>616.3333333333333</ele><time>2026-05-03T11:56:35.551Z</time></trkpt><trkpt lat="44.6073952" lon="10.0347819"><ele>616.6666666666666</ele><time>2026-05-03T11:56:37.552Z</time></trkpt><trkpt lat="44.6072909" lon="10.0348492"><ele>617.0</ele><time>2026-05-03T11:56:39.551Z</time></trkpt><trkpt lat="44.6072117" lon="10.0349308"><ele>620.6</ele><time>2026-05-03T11:56:41.552Z</time></trkpt><trkpt lat="44.6071492" lon="10.0350336"><ele>624.2</ele><time>2026-05-03T11:56:43.552Z</time></trkpt><trkpt lat="44.607037" lon="10.0351032"><ele>627.8</ele><time>2026-05-03T11:56:45.552Z</time></trkpt><trkpt lat="44.6069814" lon="10.0351479"><ele>631.4</ele><time>2026-05-03T11:56:46.55Z</time></trkpt><trkpt lat="44.6069212" lon="10.0351843"><ele>635.0</ele><time>2026-05-03T11:56:47.551Z</time></trkpt><trkpt lat="44.6068307" lon="10.0352988"><ele>635.0</ele><time>2026-05-03T11:56:49.551Z</time></trkpt><trkpt lat="44.6067502" lon="10.0354168"><ele>635.0</ele><time>2026-05-03T11:56:51.551Z</time></trkpt><trkpt lat="44.6066817" lon="10.0354576"><ele>635.0</ele><time>2026-05-03T11:56:52.55Z</time></trkpt><trkpt lat="44.6066267" lon="10.0355042"><ele>635.0</ele><time>2026-05-03T11:56:53.55Z</time></trkpt><trkpt lat="44.6065674" lon="10.0355462"><ele>635.0</ele><time>2026-05-03T11:56:54.55Z</time></trkpt><trkpt lat="44.6064878" lon="10.0356158"><ele>635.0</ele><time>2026-05-03T11:56:56.55Z</time></trkpt><trkpt lat="44.6063845" lon="10.0356813"><ele>635.0</ele><time>2026-05-03T11:56:58.55Z</time></trkpt><trkpt lat="44.6062947" lon="10.035756"><ele>635.0</ele><time>2026-05-03T11:56:59.551Z</time></trkpt><trkpt lat="44.6062354" lon="10.0357988"><ele>635.0</ele><time>2026-05-03T11:57:00.55Z</time></trkpt><trkpt lat="44.6061677" lon="10.0358384"><ele>635.0</ele><time>2026-05-03T11:57:01.55Z</time></trkpt><trkpt lat="44.6060713" lon="10.0359337"><ele>635.0</ele><time>2026-05-03T11:57:03.55Z</time></trkpt><trkpt lat="44.6060208" lon="10.0359889"><ele>635.0</ele><time>2026-05-03T11:57:04.55Z</time></trkpt><trkpt lat="44.6059699" lon="10.0360462"><ele>638.8333333333333</ele><time>2026-05-03T11:57:05.55Z</time></trkpt><trkpt lat="44.6059026" lon="10.0360958"><ele>642.6666666666666</ele><time>2026-05-03T11:57:06.55Z</time></trkpt><trkpt lat="44.6059079" lon="10.0362684"><ele>646.5</ele><time>2026-05-03T11:57:17.55Z</time></trkpt><trkpt lat="44.6058587" lon="10.0363483"><ele>650.3333333333334</ele><time>2026-05-03T11:57:19.55Z</time></trkpt><trkpt lat="44.6057936" lon="10.0363836"><ele>654.1666666666667</ele><time>2026-05-03T11:57:21.55Z</time></trkpt><trkpt lat="44.6057076" lon="10.0363986"><ele>658.0</ele><time>2026-05-03T11:57:24.55Z</time></trkpt><trkpt lat="44.6056388" lon="10.036393"><ele>658.0</ele><time>2026-05-03T11:57:27.55Z</time></trkpt><trkpt lat="44.6055177" lon="10.0363706"><ele>658.0</ele><time>2026-05-03T11:57:29.55Z</time></trkpt><trkpt lat="44.605445" lon="10.0363581"><ele>658.0</ele><time>2026-05-03T11:57:30.55Z</time></trkpt><trkpt lat="44.605354" lon="10.036319"><ele>658.0</ele><time>2026-05-03T11:57:32.551Z</time></trkpt><trkpt lat="44.6053052" lon="10.0362501"><ele>658.0</ele><time>2026-05-03T11:57:33.551Z</time></trkpt><trkpt lat="44.6052205" lon="10.036157"><ele>660.6666666666667</ele><time>2026-05-03T11:57:35.55Z</time></trkpt><trkpt lat="44.6051475" lon="10.0361143"><ele>663.3333333333334</ele><time>2026-05-03T11:57:36.55Z</time></trkpt><trkpt lat="44.6050518" lon="10.0360726"><ele>666.0</ele><time>2026-05-03T11:57:38.551Z</time></trkpt><trkpt lat="44.6049487" lon="10.0360383"><ele>668.6666666666666</ele><time>2026-05-03T11:57:40.551Z</time></trkpt><trkpt lat="44.6048756" lon="10.0360222"><ele>671.3333333333333</ele><time>2026-05-03T11:57:48.55Z</time></trkpt><trkpt lat="44.6048198" lon="10.0359593"><ele>674.0</ele><time>2026-05-03T11:57:51.55Z</time></trkpt><trkpt lat="44.6047807" lon="10.0358582"><ele>674.0</ele><time>2026-05-03T11:57:54.55Z</time></trkpt><trkpt lat="44.6046849" lon="10.0358286"><ele>674.0</ele><time>2026-05-03T11:58:08.55Z</time></trkpt><trkpt lat="44.6045461" lon="10.0357602"><ele>674.0</ele><time>2026-05-03T11:58:10.551Z</time></trkpt><trkpt lat="44.6044013" lon="10.0356876"><ele>674.0</ele><time>2026-05-03T11:58:12.55Z</time></trkpt><trkpt lat="44.6043391" lon="10.0356497"><ele>671.1666666666666</ele><time>2026-05-03T11:58:13.55Z</time></trkpt><trkpt lat="44.6042633" lon="10.0356219"><ele>668.3333333333333</ele><time>2026-05-03T11:58:14.55Z</time></trkpt><trkpt lat="44.6041834" lon="10.0356059"><ele>665.5</ele><time>2026-05-03T11:58:15.55Z</time></trkpt><trkpt lat="44.6041129" lon="10.0355694"><ele>662.6666666666666</ele><time>2026-05-03T11:58:16.55Z</time></trkpt><trkpt lat="44.6040438" lon="10.0355214"><ele>659.8333333333334</ele><time>2026-05-03T11:58:17.55Z</time></trkpt><trkpt lat="44.6039633" lon="10.0355019"><ele>657.0</ele><time>2026-05-03T11:58:18.55Z</time></trkpt><trkpt lat="44.6038614" lon="10.0354657"><ele>657.0</ele><time>2026-05-03T11:58:20.55Z</time></trkpt><trkpt lat="44.6037631" lon="10.0354555"><ele>657.0</ele><time>2026-05-03T11:58:22.551Z</time></trkpt><trkpt lat="44.6036687" lon="10.0354174"><ele>657.0</ele><time>2026-05-03T11:58:24.55Z</time></trkpt><trkpt lat="44.6035882" lon="10.0353416"><ele>657.0</ele><time>2026-05-03T11:58:26.55Z</time></trkpt><trkpt lat="44.603647" lon="10.0352341"><ele>657.0</ele><time>2026-05-03T11:58:27.551Z</time></trkpt><trkpt lat="44.6035877" lon="10.0351066"><ele>654.1666666666666</ele><time>2026-05-03T11:58:29.552Z</time></trkpt><trkpt lat="44.6035101" lon="10.0350343"><ele>651.3333333333334</ele><time>2026-05-03T11:58:30.551Z</time></trkpt><trkpt lat="44.6034528" lon="10.0349639"><ele>648.5</ele><time>2026-05-03T11:58:31.551Z</time></trkpt><trkpt lat="44.6033744" lon="10.0349061"><ele>645.6666666666667</ele><time>2026-05-03T11:58:32.551Z</time></trkpt><trkpt lat="44.6033093" lon="10.0348303"><ele>642.8333333333334</ele><time>2026-05-03T11:58:33.55Z</time></trkpt><trkpt lat="44.603281" lon="10.034736"><ele>640.0</ele><time>2026-05-03T11:58:34.55Z</time></trkpt><trkpt lat="44.6031914" lon="10.0346546"><ele>640.0</ele><time>2026-05-03T11:58:36.55Z</time></trkpt><trkpt lat="44.6031217" lon="10.0345945"><ele>640.0</ele><time>2026-05-03T11:58:38.55Z</time></trkpt><trkpt lat="44.6030688" lon="10.0345133"><ele>640.0</ele><time>2026-05-03T11:58:40.55Z</time></trkpt><trkpt lat="44.6029512" lon="10.0344621"><ele>640.0</ele><time>2026-05-03T11:58:42.55Z</time></trkpt><trkpt lat="44.6028714" lon="10.0344386"><ele>640.0</ele><time>2026-05-03T11:58:45.55Z</time></trkpt><trkpt lat="44.6027936" lon="10.034425"><ele>640.0</ele><time>2026-05-03T11:58:48.55Z</time></trkpt><trkpt lat="44.6027128" lon="10.0344395"><ele>641.4</ele><time>2026-05-03T11:58:51.552Z</time></trkpt><trkpt lat="44.6026481" lon="10.0344732"><ele>642.8</ele><time>2026-05-03T11:58:53.551Z</time></trkpt><trkpt lat="44.602551" lon="10.0345636"><ele>644.2</ele><time>2026-05-03T11:58:55.55Z</time></trkpt><trkpt lat="44.6024472" lon="10.0346231"><ele>645.6</ele><time>2026-05-03T11:58:57.55Z</time></trkpt><trkpt lat="44.6023289" lon="10.0346389"><ele>647.0</ele><time>2026-05-03T11:58:59.55Z</time></trkpt><trkpt lat="44.6022514" lon="10.0344993"><ele>647.0</ele><time>2026-05-03T11:59:01.55Z</time></trkpt><trkpt lat="44.6021845" lon="10.0343923"><ele>647.0</ele><time>2026-05-03T11:59:03.55Z</time></trkpt><trkpt lat="44.6020823" lon="10.0343843"><ele>647.0</ele><time>2026-05-03T11:59:04.551Z</time></trkpt><trkpt lat="44.6020226" lon="10.0343552"><ele>647.0</ele><time>2026-05-03T11:59:05.55Z</time></trkpt><trkpt lat="44.6019492" lon="10.0343212"><ele>647.0</ele><time>2026-05-03T11:59:06.55Z</time></trkpt><trkpt lat="44.6018452" lon="10.0343252"><ele>647.0</ele><time>2026-05-03T11:59:08.55Z</time></trkpt><trkpt lat="44.6017373" lon="10.0342999"><ele>647.5714285714286</ele><time>2026-05-03T11:59:10.55Z</time></trkpt><trkpt lat="44.6016649" lon="10.0342651"><ele>648.1428571428571</ele><time>2026-05-03T11:59:11.55Z</time></trkpt><trkpt lat="44.6015923" lon="10.0342374"><ele>648.7142857142858</ele><time>2026-05-03T11:59:12.55Z</time></trkpt><trkpt lat="44.6015209" lon="10.0342154"><ele>649.2857142857142</ele><time>2026-05-03T11:59:13.55Z</time></trkpt><trkpt lat="44.6014443" lon="10.0341898"><ele>649.8571428571429</ele><time>2026-05-03T11:59:14.551Z</time></trkpt><trkpt lat="44.6013736" lon="10.0341879"><ele>650.4285714285714</ele><time>2026-05-03T11:59:15.55Z</time></trkpt><trkpt lat="44.6013002" lon="10.0341723"><ele>651.0</ele><time>2026-05-03T11:59:16.55Z</time></trkpt><trkpt lat="44.6012355" lon="10.0341604"><ele>647.5714285714286</ele><time>2026-05-03T11:59:17.55Z</time></trkpt><trkpt lat="44.6011587" lon="10.0341357"><ele>644.1428571428571</ele><time>2026-05-03T11:59:18.55Z</time></trkpt><trkpt lat="44.6010952" lon="10.0340932"><ele>640.7142857142858</ele><time>2026-05-03T11:59:19.551Z</time></trkpt><trkpt lat="44.6010208" lon="10.0340644"><ele>637.2857142857142</ele><time>2026-05-03T11:59:20.55Z</time></trkpt><trkpt lat="44.6009491" lon="10.0340397"><ele>633.8571428571429</ele><time>2026-05-03T11:59:21.55Z</time></trkpt><trkpt lat="44.6008844" lon="10.0340361"><ele>630.4285714285714</ele><time>2026-05-03T11:59:22.55Z</time></trkpt><trkpt lat="44.6008182" lon="10.0340394"><ele>627.0</ele><time>2026-05-03T11:59:23.55Z</time></trkpt><trkpt lat="44.6007152" lon="10.0340639"><ele>627.0</ele><time>2026-05-03T11:59:25.55Z</time></trkpt><trkpt lat="44.6005963" lon="10.0340617"><ele>627.0</ele><time>2026-05-03T11:59:27.55Z</time></trkpt><trkpt lat="44.6005103" lon="10.0339791"><ele>627.0</ele><time>2026-05-03T11:59:29.55Z</time></trkpt><trkpt lat="44.6004706" lon="10.0338911"><ele>627.0</ele><time>2026-05-03T11:59:31.55Z</time></trkpt><trkpt lat="44.6003979" lon="10.0338778"><ele>627.0</ele><time>2026-05-03T11:59:32.55Z</time></trkpt><trkpt lat="44.6003294" lon="10.0338681"><ele>627.0</ele><time>2026-05-03T11:59:33.55Z</time></trkpt><trkpt lat="44.60021" lon="10.0338546"><ele>630.8</ele><time>2026-05-03T11:59:35.55Z</time></trkpt><trkpt lat="44.6000888" lon="10.0338454"><ele>634.6</ele><time>2026-05-03T11:59:37.55Z</time></trkpt><trkpt lat="44.6000537" lon="10.0337177"><ele>638.4</ele><time>2026-05-03T11:59:39.55Z</time></trkpt><trkpt lat="44.5999836" lon="10.0336349"><ele>642.1999999999999</ele><time>2026-05-03T11:59:41.55Z</time></trkpt><trkpt lat="44.5999068" lon="10.0335327"><ele>646.0</ele><time>2026-05-03T11:59:43.55Z</time></trkpt><trkpt lat="44.5998292" lon="10.0334741"><ele>646.0</ele><time>2026-05-03T11:59:44.55Z</time></trkpt><trkpt lat="44.5996739" lon="10.0333727"><ele>646.0</ele><time>2026-05-03T11:59:45.55Z</time></trkpt><trkpt lat="44.5996244" lon="10.0332762"><ele>646.0</ele><time>2026-05-03T11:59:46.55Z</time></trkpt><trkpt lat="44.5995602" lon="10.0332032"><ele>646.0</ele><time>2026-05-03T11:59:47.55Z</time></trkpt><trkpt lat="44.5995226" lon="10.0330628"><ele>646.0</ele><time>2026-05-03T11:59:49.55Z</time></trkpt><trkpt lat="44.5994974" lon="10.0328855"><ele>647.0</ele><time>2026-05-03T11:59:51.55Z</time></trkpt><trkpt lat="44.599438" lon="10.0328203"><ele>648.0</ele><time>2026-05-03T11:59:53.55Z</time></trkpt><trkpt lat="44.5993469" lon="10.0327964"><ele>649.0</ele><time>2026-05-03T11:59:55.55Z</time></trkpt><trkpt lat="44.5992396" lon="10.0328104"><ele>650.0</ele><time>2026-05-03T11:59:57.551Z</time></trkpt><trkpt lat="44.5991359" lon="10.0328025"><ele>651.0</ele><time>2026-05-03T11:59:59.55Z</time></trkpt><trkpt lat="44.59907" lon="10.0327814"><ele>652.0</ele><time>2026-05-03T12:00:00.55Z</time></trkpt><trkpt lat="44.5990062" lon="10.0327786"><ele>652.0</ele><time>2026-05-03T12:00:01.55Z</time></trkpt><trkpt lat="44.5988794" lon="10.0328042"><ele>652.0</ele><time>2026-05-03T12:00:03.55Z</time></trkpt><trkpt lat="44.5987611" lon="10.0328305"><ele>652.0</ele><time>2026-05-03T12:00:05.551Z</time></trkpt><trkpt lat="44.5986938" lon="10.0328497"><ele>652.0</ele><time>2026-05-03T12:00:06.55Z</time></trkpt><trkpt lat="44.5986224" lon="10.032878"><ele>652.0</ele><time>2026-05-03T12:00:07.551Z</time></trkpt><trkpt lat="44.5985292" lon="10.0329164"><ele>652.8333333333334</ele><time>2026-05-03T12:00:09.55Z</time></trkpt><trkpt lat="44.5984902" lon="10.0328309"><ele>653.6666666666667</ele><time>2026-05-03T12:00:10.55Z</time></trkpt><trkpt lat="44.5983996" lon="10.0327683"><ele>654.5</ele><time>2026-05-03T12:00:12.55Z</time></trkpt><trkpt lat="44.5983091" lon="10.0327438"><ele>655.3333333333334</ele><time>2026-05-03T12:00:14.551Z</time></trkpt><trkpt lat="44.5982007" lon="10.0327118"><ele>656.1666666666666</ele><time>2026-05-03T12:00:16.55Z</time></trkpt><trkpt lat="44.5981376" lon="10.0326796"><ele>657.0</ele><time>2026-05-03T12:00:17.55Z</time></trkpt><trkpt lat="44.5981263" lon="10.032538"><ele>657.2857142857142</ele><time>2026-05-03T12:00:19.55Z</time></trkpt><trkpt lat="44.5980932" lon="10.0324396"><ele>657.5714285714287</ele><time>2026-05-03T12:00:21.551Z</time></trkpt><trkpt lat="44.5981089" lon="10.0323504"><ele>657.8571428571429</ele><time>2026-05-03T12:00:24.55Z</time></trkpt><trkpt lat="44.5981229" lon="10.0322577"><ele>658.1428571428571</ele><time>2026-05-03T12:00:27.551Z</time></trkpt><trkpt lat="44.5981567" lon="10.0321609"><ele>658.4285714285713</ele><time>2026-05-03T12:00:35.55Z</time></trkpt><trkpt lat="44.5981839" lon="10.0320564"><ele>658.7142857142858</ele><time>2026-05-03T12:00:37.55Z</time></trkpt><trkpt lat="44.5982169" lon="10.0319686"><ele>659.0</ele><time>2026-05-03T12:00:40.55Z</time></trkpt><trkpt lat="44.5982609" lon="10.0318789"><ele>659.0</ele><time>2026-05-03T12:00:45.549Z</time></trkpt><trkpt lat="44.5983043" lon="10.0317967"><ele>659.0</ele><time>2026-05-03T12:00:48.55Z</time></trkpt><trkpt lat="44.5983062" lon="10.0317036"><ele>659.0</ele><time>2026-05-03T12:02:00.549Z</time></trkpt><trkpt lat="44.5983393" lon="10.0315834"><ele>659.0</ele><time>2026-05-03T12:02:03.549Z</time></trkpt><trkpt lat="44.5983847" lon="10.031474"><ele>659.0</ele><time>2026-05-03T12:02:05.55Z</time></trkpt><trkpt lat="44.5984738" lon="10.0313909"><ele>659.0</ele><time>2026-05-03T12:02:07.549Z</time></trkpt><trkpt lat="44.5985613" lon="10.0313046"><ele>658.3333333333333</ele><time>2026-05-03T12:02:09.55Z</time></trkpt><trkpt lat="44.5986068" lon="10.031163"><ele>657.6666666666666</ele><time>2026-05-03T12:02:11.55Z</time></trkpt><trkpt lat="44.5986439" lon="10.0310896"><ele>657.0</ele><time>2026-05-03T12:02:12.549Z</time></trkpt><trkpt lat="44.5986931" lon="10.0309803"><ele>656.3333333333334</ele><time>2026-05-03T12:02:14.549Z</time></trkpt><trkpt lat="44.5987102" lon="10.0308861"><ele>655.6666666666667</ele><time>2026-05-03T12:02:16.549Z</time></trkpt><trkpt lat="44.5986756" lon="10.030799"><ele>655.0</ele><time>2026-05-03T12:02:18.549Z</time></trkpt><trkpt lat="44.5986456" lon="10.0306712"><ele>656.6666666666667</ele><time>2026-05-03T12:02:20.549Z</time></trkpt><trkpt lat="44.5985923" lon="10.0305454"><ele>658.3333333333334</ele><time>2026-05-03T12:02:22.549Z</time></trkpt><trkpt lat="44.5985502" lon="10.0304722"><ele>660.0</ele><time>2026-05-03T12:02:23.549Z</time></trkpt><trkpt lat="44.5984543" lon="10.0304123"><ele>661.6666666666666</ele><time>2026-05-03T12:02:25.549Z</time></trkpt><trkpt lat="44.5983575" lon="10.0304129"><ele>663.3333333333333</ele><time>2026-05-03T12:02:27.55Z</time></trkpt><trkpt lat="44.598295" lon="10.0304275"><ele>665.0</ele><time>2026-05-03T12:02:28.549Z</time></trkpt><trkpt lat="44.5982042" lon="10.0305013"><ele>665.0</ele><time>2026-05-03T12:02:30.549Z</time></trkpt><trkpt lat="44.5981408" lon="10.0306037"><ele>665.0</ele><time>2026-05-03T12:02:31.549Z</time></trkpt><trkpt lat="44.5980769" lon="10.0306556"><ele>665.0</ele><time>2026-05-03T12:02:32.549Z</time></trkpt><trkpt lat="44.598019" lon="10.0306972"><ele>665.0</ele><time>2026-05-03T12:02:33.549Z</time></trkpt><trkpt lat="44.5979714" lon="10.0307616"><ele>665.0</ele><time>2026-05-03T12:02:34.549Z</time></trkpt><trkpt lat="44.5978898" lon="10.0309044"><ele>665.0</ele><time>2026-05-03T12:02:36.549Z</time></trkpt><trkpt lat="44.5978854" lon="10.0310122"><ele>665.1666666666666</ele><time>2026-05-03T12:02:37.549Z</time></trkpt><trkpt lat="44.5978485" lon="10.031089"><ele>665.3333333333333</ele><time>2026-05-03T12:02:39.55Z</time></trkpt><trkpt lat="44.5978437" lon="10.0311849"><ele>665.5</ele><time>2026-05-03T12:02:43.549Z</time></trkpt><trkpt lat="44.5977726" lon="10.0312613"><ele>665.6666666666666</ele><time>2026-05-03T12:02:46.549Z</time></trkpt><trkpt lat="44.5977021" lon="10.0312929"><ele>665.8333333333334</ele><time>2026-05-03T12:02:47.549Z</time></trkpt><trkpt lat="44.5976175" lon="10.031336"><ele>666.0</ele><time>2026-05-03T12:02:49.549Z</time></trkpt><trkpt lat="44.5974994" lon="10.0313446"><ele>668.0</ele><time>2026-05-03T12:02:51.55Z</time></trkpt><trkpt lat="44.5974202" lon="10.0313057"><ele>670.0</ele><time>2026-05-03T12:02:53.549Z</time></trkpt><trkpt lat="44.5973407" lon="10.0313578"><ele>672.0</ele><time>2026-05-03T12:02:55.549Z</time></trkpt><trkpt lat="44.5972686" lon="10.0314509"><ele>674.0</ele><time>2026-05-03T12:02:57.549Z</time></trkpt><trkpt lat="44.5971963" lon="10.0315159"><ele>676.0</ele><time>2026-05-03T12:02:59.549Z</time></trkpt><trkpt lat="44.5971022" lon="10.0315258"><ele>675.1666666666667</ele><time>2026-05-03T12:03:01.549Z</time></trkpt><trkpt lat="44.5970295" lon="10.031654"><ele>674.3333333333334</ele><time>2026-05-03T12:03:03.549Z</time></trkpt><trkpt lat="44.5969649" lon="10.0317007"><ele>673.5</ele><time>2026-05-03T12:03:05.549Z</time></trkpt><trkpt lat="44.5968691" lon="10.0317324"><ele>672.6666666666666</ele><time>2026-05-03T12:03:07.55Z</time></trkpt><trkpt lat="44.5967997" lon="10.0317158"><ele>671.8333333333333</ele><time>2026-05-03T12:03:15.549Z</time></trkpt><trkpt lat="44.5967424" lon="10.0317903"><ele>671.0</ele><time>2026-05-03T12:03:17.549Z</time></trkpt><trkpt lat="44.5966781" lon="10.0318929"><ele>675.25</ele><time>2026-05-03T12:03:19.549Z</time></trkpt><trkpt lat="44.5966186" lon="10.0320037"><ele>679.5</ele><time>2026-05-03T12:03:21.549Z</time></trkpt><trkpt lat="44.5965531" lon="10.0320743"><ele>683.75</ele><time>2026-05-03T12:03:23.549Z</time></trkpt><trkpt lat="44.5964494" lon="10.03223"><ele>688.0</ele><time>2026-05-03T12:03:25.549Z</time></trkpt><trkpt lat="44.5963462" lon="10.0323289"><ele>688.0</ele><time>2026-05-03T12:03:27.549Z</time></trkpt><trkpt lat="44.5962801" lon="10.0324022"><ele>688.0</ele><time>2026-05-03T12:03:29.549Z</time></trkpt><trkpt lat="44.59617" lon="10.0324027"><ele>688.0</ele><time>2026-05-03T12:03:31.549Z</time></trkpt><trkpt lat="44.5960516" lon="10.0324119"><ele>688.0</ele><time>2026-05-03T12:03:33.549Z</time></trkpt><trkpt lat="44.5959723" lon="10.0323328"><ele>688.0</ele><time>2026-05-03T12:03:35.55Z</time></trkpt><trkpt lat="44.5959079" lon="10.0322581"><ele>691.0</ele><time>2026-05-03T12:03:37.549Z</time></trkpt><trkpt lat="44.5958186" lon="10.0321778"><ele>694.0</ele><time>2026-05-03T12:03:39.549Z</time></trkpt><trkpt lat="44.5957482" lon="10.0321919"><ele>697.0</ele><time>2026-05-03T12:03:40.549Z</time></trkpt><trkpt lat="44.5956265" lon="10.0321857"><ele>700.0</ele><time>2026-05-03T12:03:42.55Z</time></trkpt><trkpt lat="44.5955632" lon="10.0321797"><ele>703.0</ele><time>2026-05-03T12:03:43.55Z</time></trkpt><trkpt lat="44.595495" lon="10.0321626"><ele>706.0</ele><time>2026-05-03T12:03:44.55Z</time></trkpt><trkpt lat="44.5954073" lon="10.0321276"><ele>707.3333333333334</ele><time>2026-05-03T12:03:45.549Z</time></trkpt><trkpt lat="44.5953264" lon="10.0321056"><ele>708.6666666666667</ele><time>2026-05-03T12:03:46.55Z</time></trkpt><trkpt lat="44.5952538" lon="10.0320941"><ele>710.0</ele><time>2026-05-03T12:03:47.549Z</time></trkpt><trkpt lat="44.5951614" lon="10.0320843"><ele>711.3333333333334</ele><time>2026-05-03T12:03:49.55Z</time></trkpt><trkpt lat="44.5950767" lon="10.0320969"><ele>712.6666666666666</ele><time>2026-05-03T12:03:51.549Z</time></trkpt><trkpt lat="44.594991" lon="10.0321339"><ele>714.0</ele><time>2026-05-03T12:03:53.549Z</time></trkpt><trkpt lat="44.5949054" lon="10.0322109"><ele>714.0</ele><time>2026-05-03T12:03:55.549Z</time></trkpt><trkpt lat="44.5948295" lon="10.0323228"><ele>714.0</ele><time>2026-05-03T12:03:57.55Z</time></trkpt><trkpt lat="44.5947841" lon="10.0324457"><ele>714.0</ele><time>2026-05-03T12:03:59.549Z</time></trkpt><trkpt lat="44.5947511" lon="10.0325678"><ele>714.0</ele><time>2026-05-03T12:04:01.549Z</time></trkpt><trkpt lat="44.5947456" lon="10.0326874"><ele>714.0</ele><time>2026-05-03T12:04:03.55Z</time></trkpt><trkpt lat="44.5947263" lon="10.0328082"><ele>714.6666666666666</ele><time>2026-05-03T12:04:05.549Z</time></trkpt><trkpt lat="44.5947103" lon="10.0329438"><ele>715.3333333333334</ele><time>2026-05-03T12:04:07.549Z</time></trkpt><trkpt lat="44.5946816" lon="10.0330473"><ele>716.0</ele><time>2026-05-03T12:04:09.549Z</time></trkpt><trkpt lat="44.5946293" lon="10.0331681"><ele>716.6666666666667</ele><time>2026-05-03T12:04:11.549Z</time></trkpt><trkpt lat="44.594545" lon="10.0332231"><ele>717.3333333333334</ele><time>2026-05-03T12:04:12.55Z</time></trkpt><trkpt lat="44.5944843" lon="10.0332737"><ele>718.0</ele><time>2026-05-03T12:04:13.549Z</time></trkpt><trkpt lat="44.5944275" lon="10.0333221"><ele>721.2</ele><time>2026-05-03T12:04:14.55Z</time></trkpt><trkpt lat="44.5943133" lon="10.033385"><ele>724.4</ele><time>2026-05-03T12:04:16.549Z</time></trkpt><trkpt lat="44.5942062" lon="10.0334389"><ele>727.6</ele><time>2026-05-03T12:04:18.548Z</time></trkpt><trkpt lat="44.5941429" lon="10.0334779"><ele>730.8000000000001</ele><time>2026-05-03T12:04:19.548Z</time></trkpt><trkpt lat="44.5940844" lon="10.0335242"><ele>734.0</ele><time>2026-05-03T12:04:20.549Z</time></trkpt><trkpt lat="44.5940057" lon="10.0335519"><ele>734.0</ele><time>2026-05-03T12:04:22.548Z</time></trkpt><trkpt lat="44.593959" lon="10.0334723"><ele>734.0</ele><time>2026-05-03T12:04:27.548Z</time></trkpt><trkpt lat="44.5939188" lon="10.0333849"><ele>734.0</ele><time>2026-05-03T12:04:28.549Z</time></trkpt><trkpt lat="44.5938789" lon="10.0333097"><ele>734.0</ele><time>2026-05-03T12:04:29.549Z</time></trkpt><trkpt lat="44.593833" lon="10.0331865"><ele>734.0</ele><time>2026-05-03T12:04:31.548Z</time></trkpt><trkpt lat="44.5938053" lon="10.033037"><ele>734.0</ele><time>2026-05-03T12:04:33.548Z</time></trkpt><trkpt lat="44.5937777" lon="10.0329091"><ele>733.2</ele><time>2026-05-03T12:04:35.548Z</time></trkpt><trkpt lat="44.5937249" lon="10.0327938"><ele>732.4000000000001</ele><time>2026-05-03T12:04:37.548Z</time></trkpt><trkpt lat="44.5936562" lon="10.0327773"><ele>731.6</ele><time>2026-05-03T12:04:38.548Z</time></trkpt><trkpt lat="44.5935254" lon="10.0327502"><ele>730.8</ele><time>2026-05-03T12:04:40.548Z</time></trkpt><trkpt lat="44.5934125" lon="10.0327257"><ele>730.0</ele><time>2026-05-03T12:04:42.548Z</time></trkpt><trkpt lat="44.5933308" lon="10.0326627"><ele>733.6666666666667</ele><time>2026-05-03T12:04:44.548Z</time></trkpt><trkpt lat="44.5933073" lon="10.032565"><ele>737.3333333333334</ele><time>2026-05-03T12:04:45.548Z</time></trkpt><trkpt lat="44.5932607" lon="10.0324717"><ele>741.0</ele><time>2026-05-03T12:04:46.548Z</time></trkpt><trkpt lat="44.5932127" lon="10.0323999"><ele>744.6666666666666</ele><time>2026-05-03T12:04:47.548Z</time></trkpt><trkpt lat="44.593168" lon="10.0323215"><ele>748.3333333333333</ele><time>2026-05-03T12:04:48.548Z</time></trkpt><trkpt lat="44.5931166" lon="10.0322505"><ele>752.0</ele><time>2026-05-03T12:04:49.548Z</time></trkpt><trkpt lat="44.5930145" lon="10.0322307"><ele>752.4000000000001</ele><time>2026-05-03T12:04:51.548Z</time></trkpt><trkpt lat="44.592915" lon="10.0321874"><ele>752.8000000000001</ele><time>2026-05-03T12:04:53.55Z</time></trkpt><trkpt lat="44.592819" lon="10.0321629"><ele>753.2</ele><time>2026-05-03T12:04:55.548Z</time></trkpt><trkpt lat="44.5927439" lon="10.0321879"><ele>753.6</ele><time>2026-05-03T12:04:56.548Z</time></trkpt><trkpt lat="44.5926368" lon="10.0321988"><ele>754.0</ele><time>2026-05-03T12:04:58.548Z</time></trkpt><trkpt lat="44.5925708" lon="10.0321735"><ele>757.8333333333334</ele><time>2026-05-03T12:04:59.548Z</time></trkpt><trkpt lat="44.59251" lon="10.0321483"><ele>761.6666666666667</ele><time>2026-05-03T12:05:00.55Z</time></trkpt><trkpt lat="44.5924327" lon="10.0320814"><ele>765.5</ele><time>2026-05-03T12:05:01.548Z</time></trkpt><trkpt lat="44.5923952" lon="10.0319649"><ele>769.3333333333334</ele><time>2026-05-03T12:05:02.548Z</time></trkpt><trkpt lat="44.5923496" lon="10.0318677"><ele>773.1666666666666</ele><time>2026-05-03T12:05:03.548Z</time></trkpt><trkpt lat="44.5923024" lon="10.0317623"><ele>777.0</ele><time>2026-05-03T12:05:04.548Z</time></trkpt><trkpt lat="44.5922788" lon="10.0316721"><ele>777.0</ele><time>2026-05-03T12:05:05.548Z</time></trkpt><trkpt lat="44.5922347" lon="10.0315898"><ele>777.0</ele><time>2026-05-03T12:05:06.548Z</time></trkpt><trkpt lat="44.5922242" lon="10.0314949"><ele>777.0</ele><time>2026-05-03T12:05:07.548Z</time></trkpt><trkpt lat="44.5922036" lon="10.031397"><ele>777.0</ele><time>2026-05-03T12:05:08.549Z</time></trkpt><trkpt lat="44.5921848" lon="10.0313072"><ele>777.0</ele><time>2026-05-03T12:05:09.548Z</time></trkpt><trkpt lat="44.5921448" lon="10.0311893"><ele>777.0</ele><time>2026-05-03T12:05:11.548Z</time></trkpt><trkpt lat="44.5921337" lon="10.0310971"><ele>777.0</ele><time>2026-05-03T12:05:13.549Z</time></trkpt><trkpt lat="44.5921177" lon="10.0310081"><ele>777.0</ele><time>2026-05-03T12:07:31.549Z</time></trkpt><trkpt lat="44.5920818" lon="10.0308607"><ele>777.0</ele><time>2026-05-03T12:07:33.548Z</time></trkpt><trkpt lat="44.592055" lon="10.0307658"><ele>777.0</ele><time>2026-05-03T12:07:34.549Z</time></trkpt><trkpt lat="44.5920227" lon="10.0306607"><ele>777.0</ele><time>2026-05-03T12:07:35.548Z</time></trkpt><trkpt lat="44.5919793" lon="10.0305524"><ele>777.0</ele><time>2026-05-03T12:07:36.548Z</time></trkpt><trkpt lat="44.5919274" lon="10.0304477"><ele>777.0</ele><time>2026-05-03T12:07:37.548Z</time></trkpt><trkpt lat="44.5918735" lon="10.0303373"><ele>776.6</ele><time>2026-05-03T12:07:38.548Z</time></trkpt><trkpt lat="44.5918245" lon="10.0302196"><ele>776.2</ele><time>2026-05-03T12:07:39.548Z</time></trkpt><trkpt lat="44.5917855" lon="10.0300848"><ele>775.8</ele><time>2026-05-03T12:07:40.548Z</time></trkpt><trkpt lat="44.5917574" lon="10.0299463"><ele>775.4</ele><time>2026-05-03T12:07:41.547Z</time></trkpt><trkpt lat="44.5917476" lon="10.0298112"><ele>775.0</ele><time>2026-05-03T12:07:42.547Z</time></trkpt><trkpt lat="44.5917636" lon="10.0296798"><ele>775.0</ele><time>2026-05-03T12:07:43.547Z</time></trkpt><trkpt lat="44.5918041" lon="10.0295485"><ele>775.0</ele><time>2026-05-03T12:07:44.547Z</time></trkpt><trkpt lat="44.5918558" lon="10.0294131"><ele>775.0</ele><time>2026-05-03T12:07:45.547Z</time></trkpt><trkpt lat="44.5919071" lon="10.029276"><ele>775.0</ele><time>2026-05-03T12:07:46.547Z</time></trkpt><trkpt lat="44.591959" lon="10.0291253"><ele>775.0</ele><time>2026-05-03T12:07:47.547Z</time></trkpt><trkpt lat="44.5920127" lon="10.0289738"><ele>773.75</ele><time>2026-05-03T12:07:48.549Z</time></trkpt><trkpt lat="44.5920733" lon="10.0288101"><ele>772.5</ele><time>2026-05-03T12:07:49.548Z</time></trkpt><trkpt lat="44.5921356" lon="10.0286502"><ele>771.25</ele><time>2026-05-03T12:07:50.547Z</time></trkpt><trkpt lat="44.5922016" lon="10.0284819"><ele>770.0</ele><time>2026-05-03T12:07:51.547Z</time></trkpt><trkpt lat="44.5922586" lon="10.0283075"><ele>770.0</ele><time>2026-05-03T12:07:52.547Z</time></trkpt><trkpt lat="44.5923159" lon="10.0281435"><ele>770.0</ele><time>2026-05-03T12:07:53.547Z</time></trkpt><trkpt lat="44.5923689" lon="10.0279944"><ele>770.0</ele><time>2026-05-03T12:07:54.547Z</time></trkpt><trkpt lat="44.5924187" lon="10.0278649"><ele>770.0</ele><time>2026-05-03T12:07:55.548Z</time></trkpt><trkpt lat="44.5924564" lon="10.0277509"><ele>770.0</ele><time>2026-05-03T12:07:56.547Z</time></trkpt><trkpt lat="44.592491" lon="10.0276436"><ele>770.0000000000001</ele><time>2026-05-03T12:07:57.547Z</time></trkpt><trkpt lat="44.5925308" lon="10.027537"><ele>770.0</ele><time>2026-05-03T12:07:58.548Z</time></trkpt><trkpt lat="44.5925665" lon="10.027437"><ele>770.0</ele><time>2026-05-03T12:07:59.548Z</time></trkpt><trkpt lat="44.5926057" lon="10.0273257"><ele>770.0</ele><time>2026-05-03T12:08:00.547Z</time></trkpt><trkpt lat="44.5926421" lon="10.027206"><ele>770.0000000000001</ele><time>2026-05-03T12:08:01.547Z</time></trkpt><trkpt lat="44.5926755" lon="10.0270889"><ele>770.0</ele><time>2026-05-03T12:08:02.547Z</time></trkpt><trkpt lat="44.5927033" lon="10.026967"><ele>768.8</ele><time>2026-05-03T12:08:03.548Z</time></trkpt><trkpt lat="44.5927224" lon="10.0268426"><ele>767.6</ele><time>2026-05-03T12:08:04.547Z</time></trkpt><trkpt lat="44.5927315" lon="10.026724"><ele>766.4000000000001</ele><time>2026-05-03T12:08:05.547Z</time></trkpt><trkpt lat="44.5927282" lon="10.0266081"><ele>765.2</ele><time>2026-05-03T12:08:06.547Z</time></trkpt><trkpt lat="44.5927021" lon="10.0264447"><ele>764.0</ele><time>2026-05-03T12:08:08.547Z</time></trkpt><trkpt lat="44.592652" lon="10.0262927"><ele>763.2857142857143</ele><time>2026-05-03T12:08:10.547Z</time></trkpt><trkpt lat="44.5926321" lon="10.0262082"><ele>762.5714285714286</ele><time>2026-05-03T12:08:11.547Z</time></trkpt><trkpt lat="44.5926047" lon="10.0261183"><ele>761.8571428571429</ele><time>2026-05-03T12:08:12.547Z</time></trkpt><trkpt lat="44.5925721" lon="10.0260209"><ele>761.1428571428571</ele><time>2026-05-03T12:08:13.547Z</time></trkpt><trkpt lat="44.5925438" lon="10.0259324"><ele>760.4285714285713</ele><time>2026-05-03T12:08:14.548Z</time></trkpt><trkpt lat="44.592516" lon="10.0258418"><ele>759.7142857142857</ele><time>2026-05-03T12:08:15.548Z</time></trkpt><trkpt lat="44.592472" lon="10.025756"><ele>759.0</ele><time>2026-05-03T12:08:16.547Z</time></trkpt><trkpt lat="44.592384" lon="10.0256333"><ele>757.8333333333334</ele><time>2026-05-03T12:08:18.548Z</time></trkpt><trkpt lat="44.5923455" lon="10.0255552"><ele>756.6666666666666</ele><time>2026-05-03T12:08:19.547Z</time></trkpt><trkpt lat="44.5923453" lon="10.0254474"><ele>755.5</ele><time>2026-05-03T12:08:20.547Z</time></trkpt><trkpt lat="44.5923428" lon="10.0253485"><ele>754.3333333333333</ele><time>2026-05-03T12:08:21.548Z</time></trkpt><trkpt lat="44.5923525" lon="10.0252569"><ele>753.1666666666666</ele><time>2026-05-03T12:08:22.547Z</time></trkpt><trkpt lat="44.5923343" lon="10.0250814"><ele>752.0</ele><time>2026-05-03T12:08:24.547Z</time></trkpt><trkpt lat="44.5923154" lon="10.0249745"><ele>750.5</ele><time>2026-05-03T12:08:25.547Z</time></trkpt><trkpt lat="44.5923088" lon="10.0248647"><ele>749.0</ele><time>2026-05-03T12:08:26.547Z</time></trkpt><trkpt lat="44.5923039" lon="10.0247665"><ele>747.5</ele><time>2026-05-03T12:08:27.547Z</time></trkpt><trkpt lat="44.5923125" lon="10.0246129"><ele>746.0</ele><time>2026-05-03T12:08:29.547Z</time></trkpt><trkpt lat="44.5923122" lon="10.0244964"><ele>744.5</ele><time>2026-05-03T12:08:31.547Z</time></trkpt><trkpt lat="44.5922894" lon="10.0243771"><ele>743.0</ele><time>2026-05-03T12:08:33.547Z</time></trkpt><trkpt lat="44.5922678" lon="10.0242451"><ele>741.1666666666666</ele><time>2026-05-03T12:08:35.547Z</time></trkpt><trkpt lat="44.5922332" lon="10.0241338"><ele>739.3333333333333</ele><time>2026-05-03T12:08:37.547Z</time></trkpt><trkpt lat="44.592197" lon="10.0240215"><ele>737.5</ele><time>2026-05-03T12:08:39.547Z</time></trkpt><trkpt lat="44.5921606" lon="10.0239465"><ele>735.6666666666666</ele><time>2026-05-03T12:08:41.547Z</time></trkpt><trkpt lat="44.5921198" lon="10.0238671"><ele>733.8333333333334</ele><time>2026-05-03T12:08:43.547Z</time></trkpt><trkpt lat="44.5920909" lon="10.0237376"><ele>732.0</ele><time>2026-05-03T12:08:45.547Z</time></trkpt><trkpt lat="44.5920458" lon="10.0235766"><ele>732.0</ele><time>2026-05-03T12:08:47.547Z</time></trkpt><trkpt lat="44.5920349" lon="10.0234839"><ele>732.0</ele><time>2026-05-03T12:08:48.547Z</time></trkpt><trkpt lat="44.592022" lon="10.0233797"><ele>732.0</ele><time>2026-05-03T12:08:49.547Z</time></trkpt><trkpt lat="44.5920045" lon="10.023264"><ele>732.0</ele><time>2026-05-03T12:08:50.547Z</time></trkpt><trkpt lat="44.5919882" lon="10.0231486"><ele>732.0</ele><time>2026-05-03T12:08:51.547Z</time></trkpt><trkpt lat="44.5919669" lon="10.0230266"><ele>732.0</ele><time>2026-05-03T12:08:52.547Z</time></trkpt><trkpt lat="44.5919414" lon="10.022899"><ele>729.2</ele><time>2026-05-03T12:08:53.547Z</time></trkpt><trkpt lat="44.5919168" lon="10.0227654"><ele>726.4000000000001</ele><time>2026-05-03T12:08:54.547Z</time></trkpt><trkpt lat="44.5919018" lon="10.0226334"><ele>723.5999999999999</ele><time>2026-05-03T12:08:55.547Z</time></trkpt><trkpt lat="44.5918827" lon="10.0225154"><ele>720.8</ele><time>2026-05-03T12:08:56.547Z</time></trkpt><trkpt lat="44.5918723" lon="10.022404"><ele>718.0</ele><time>2026-05-03T12:08:57.547Z</time></trkpt><trkpt lat="44.5918542" lon="10.0222751"><ele>717.6666666666667</ele><time>2026-05-03T12:08:58.548Z</time></trkpt><trkpt lat="44.5918372" lon="10.0221413"><ele>717.3333333333334</ele><time>2026-05-03T12:08:59.547Z</time></trkpt><trkpt lat="44.5918145" lon="10.0220012"><ele>717.0</ele><time>2026-05-03T12:09:00.547Z</time></trkpt><trkpt lat="44.5917859" lon="10.0218721"><ele>716.6666666666666</ele><time>2026-05-03T12:09:01.547Z</time></trkpt><trkpt lat="44.5917583" lon="10.0217633"><ele>716.3333333333333</ele><time>2026-05-03T12:09:02.547Z</time></trkpt><trkpt lat="44.5917346" lon="10.0216745"><ele>716.0</ele><time>2026-05-03T12:09:03.547Z</time></trkpt><trkpt lat="44.5917124" lon="10.0215767"><ele>716.0</ele><time>2026-05-03T12:09:04.548Z</time></trkpt><trkpt lat="44.5916898" lon="10.0214754"><ele>716.0</ele><time>2026-05-03T12:09:05.548Z</time></trkpt><trkpt lat="44.591632" lon="10.0213292"><ele>716.0</ele><time>2026-05-03T12:09:07.547Z</time></trkpt><trkpt lat="44.5915981" lon="10.0212219"><ele>716.0</ele><time>2026-05-03T12:09:09.547Z</time></trkpt><trkpt lat="44.5915716" lon="10.0211248"><ele>716.0</ele><time>2026-05-03T12:09:11.547Z</time></trkpt><trkpt lat="44.5915594" lon="10.0209721"><ele>716.0000000000001</ele><time>2026-05-03T12:09:13.547Z</time></trkpt><trkpt lat="44.5915688" lon="10.02087"><ele>716.0</ele><time>2026-05-03T12:09:14.547Z</time></trkpt><trkpt lat="44.5915962" lon="10.0207671"><ele>716.0</ele><time>2026-05-03T12:09:15.548Z</time></trkpt><trkpt lat="44.5916227" lon="10.020681"><ele>716.0</ele><time>2026-05-03T12:09:16.547Z</time></trkpt><trkpt lat="44.5916426" lon="10.0205922"><ele>716.0</ele><time>2026-05-03T12:09:17.547Z</time></trkpt><trkpt lat="44.5916317" lon="10.0204832"><ele>716.0000000000001</ele><time>2026-05-03T12:09:19.547Z</time></trkpt><trkpt lat="44.5915993" lon="10.0203846"><ele>716.0</ele><time>2026-05-03T12:09:21.547Z</time></trkpt><trkpt lat="44.5915404" lon="10.020234"><ele>714.6666666666666</ele><time>2026-05-03T12:09:23.547Z</time></trkpt><trkpt lat="44.5915087" lon="10.020156"><ele>713.3333333333333</ele><time>2026-05-03T12:09:24.547Z</time></trkpt><trkpt lat="44.5914711" lon="10.0200676"><ele>712.0</ele><time>2026-05-03T12:09:25.547Z</time></trkpt><trkpt lat="44.5914343" lon="10.0199744"><ele>710.6666666666666</ele><time>2026-05-03T12:09:26.548Z</time></trkpt><trkpt lat="44.591392" lon="10.0198751"><ele>709.3333333333334</ele><time>2026-05-03T12:09:27.547Z</time></trkpt><trkpt lat="44.5913513" lon="10.0197778"><ele>708.0</ele><time>2026-05-03T12:09:28.547Z</time></trkpt><trkpt lat="44.591307" lon="10.0196367"><ele>706.5999999999999</ele><time>2026-05-03T12:09:30.547Z</time></trkpt><trkpt lat="44.5912422" lon="10.0195028"><ele>705.1999999999999</ele><time>2026-05-03T12:09:32.547Z</time></trkpt><trkpt lat="44.5911974" lon="10.0193521"><ele>703.8</ele><time>2026-05-03T12:09:34.547Z</time></trkpt><trkpt lat="44.5911776" lon="10.0192678"><ele>702.4</ele><time>2026-05-03T12:09:35.547Z</time></trkpt><trkpt lat="44.5911467" lon="10.0191778"><ele>701.0</ele><time>2026-05-03T12:09:36.547Z</time></trkpt><trkpt lat="44.5910946" lon="10.0190747"><ele>701.0</ele><time>2026-05-03T12:09:37.547Z</time></trkpt><trkpt lat="44.5910596" lon="10.0189809"><ele>701.0</ele><time>2026-05-03T12:09:38.548Z</time></trkpt><trkpt lat="44.5910506" lon="10.0188899"><ele>701.0</ele><time>2026-05-03T12:09:39.548Z</time></trkpt><trkpt lat="44.5910438" lon="10.0187836"><ele>701.0</ele><time>2026-05-03T12:09:40.547Z</time></trkpt><trkpt lat="44.5910288" lon="10.0186618"><ele>701.0</ele><time>2026-05-03T12:09:41.547Z</time></trkpt><trkpt lat="44.5910109" lon="10.0185559"><ele>701.0</ele><time>2026-05-03T12:09:42.547Z</time></trkpt><trkpt lat="44.5909943" lon="10.0184008"><ele>700.1999999999999</ele><time>2026-05-03T12:09:44.547Z</time></trkpt><trkpt lat="44.5909696" lon="10.0182818"><ele>699.4</ele><time>2026-05-03T12:09:46.548Z</time></trkpt><trkpt lat="44.5909182" lon="10.0181696"><ele>698.6</ele><time>2026-05-03T12:09:48.547Z</time></trkpt><trkpt lat="44.5908158" lon="10.0180487"><ele>697.8</ele><time>2026-05-03T12:09:50.547Z</time></trkpt><trkpt lat="44.5907624" lon="10.0179465"><ele>697.0</ele><time>2026-05-03T12:09:51.548Z</time></trkpt><trkpt lat="44.5906982" lon="10.0178182"><ele>697.0</ele><time>2026-05-03T12:09:52.547Z</time></trkpt><trkpt lat="44.5906422" lon="10.0177073"><ele>697.0</ele><time>2026-05-03T12:09:53.547Z</time></trkpt><trkpt lat="44.5905881" lon="10.0176172"><ele>697.0</ele><time>2026-05-03T12:09:54.547Z</time></trkpt><trkpt lat="44.5905413" lon="10.0174832"><ele>697.0</ele><time>2026-05-03T12:09:58.547Z</time></trkpt><trkpt lat="44.5905097" lon="10.0173122"><ele>697.0</ele><time>2026-05-03T12:10:00.548Z</time></trkpt><trkpt lat="44.5904947" lon="10.0171875"><ele>695.6</ele><time>2026-05-03T12:10:02.547Z</time></trkpt><trkpt lat="44.5904674" lon="10.0170932"><ele>694.2</ele><time>2026-05-03T12:10:05.547Z</time></trkpt><trkpt lat="44.5904541" lon="10.0169898"><ele>692.8</ele><time>2026-05-03T12:10:08.547Z</time></trkpt><trkpt lat="44.5904274" lon="10.016894"><ele>691.4</ele><time>2026-05-03T12:10:10.547Z</time></trkpt><trkpt lat="44.590406" lon="10.0167442"><ele>690.0</ele><time>2026-05-03T12:10:12.547Z</time></trkpt><trkpt lat="44.5904004" lon="10.016565"><ele>688.6</ele><time>2026-05-03T12:10:14.548Z</time></trkpt><trkpt lat="44.5904113" lon="10.0164596"><ele>687.2</ele><time>2026-05-03T12:10:15.547Z</time></trkpt><trkpt lat="44.590437" lon="10.0163032"><ele>685.8</ele><time>2026-05-03T12:10:17.547Z</time></trkpt><trkpt lat="44.5904639" lon="10.0161628"><ele>684.4</ele><time>2026-05-03T12:10:19.547Z</time></trkpt><trkpt lat="44.5904679" lon="10.0159729"><ele>683.0</ele><time>2026-05-03T12:10:21.549Z</time></trkpt><trkpt lat="44.5904761" lon="10.0158833"><ele>681.2</ele><time>2026-05-03T12:10:22.547Z</time></trkpt><trkpt lat="44.5904649" lon="10.0157382"><ele>679.4</ele><time>2026-05-03T12:10:24.548Z</time></trkpt><trkpt lat="44.5904424" lon="10.0155585"><ele>677.6</ele><time>2026-05-03T12:10:26.547Z</time></trkpt><trkpt lat="44.5904269" lon="10.0154639"><ele>675.8000000000001</ele><time>2026-05-03T12:10:27.547Z</time></trkpt><trkpt lat="44.590376" lon="10.0153788"><ele>674.0</ele><time>2026-05-03T12:10:28.547Z</time></trkpt><trkpt lat="44.5903189" lon="10.0153223"><ele>674.0</ele><time>2026-05-03T12:10:29.547Z</time></trkpt><trkpt lat="44.5902413" lon="10.0151923"><ele>674.0</ele><time>2026-05-03T12:10:31.547Z</time></trkpt><trkpt lat="44.5901604" lon="10.0151443"><ele>674.0</ele><time>2026-05-03T12:10:32.547Z</time></trkpt><trkpt lat="44.5900992" lon="10.015115"><ele>674.0</ele><time>2026-05-03T12:10:33.547Z</time></trkpt><trkpt lat="44.5900479" lon="10.0150244"><ele>674.0</ele><time>2026-05-03T12:10:36.547Z</time></trkpt><trkpt lat="44.5900175" lon="10.014908"><ele>674.0</ele><time>2026-05-03T12:10:39.547Z</time></trkpt><trkpt lat="44.5900079" lon="10.0148152"><ele>671.8333333333333</ele><time>2026-05-03T12:10:40.547Z</time></trkpt><trkpt lat="44.589991" lon="10.0147247"><ele>669.6666666666666</ele><time>2026-05-03T12:10:41.548Z</time></trkpt><trkpt lat="44.5899744" lon="10.0146356"><ele>667.5</ele><time>2026-05-03T12:10:42.547Z</time></trkpt><trkpt lat="44.5899346" lon="10.0145227"><ele>665.3333333333334</ele><time>2026-05-03T12:10:43.547Z</time></trkpt><trkpt lat="44.5898949" lon="10.0144228"><ele>663.1666666666667</ele><time>2026-05-03T12:10:44.547Z</time></trkpt><trkpt lat="44.5898342" lon="10.0143391"><ele>661.0</ele><time>2026-05-03T12:10:46.547Z</time></trkpt><trkpt lat="44.5898192" lon="10.0142505"><ele>658.5</ele><time>2026-05-03T12:10:48.547Z</time></trkpt><trkpt lat="44.58982" lon="10.0141145"><ele>656.0</ele><time>2026-05-03T12:10:51.547Z</time></trkpt><trkpt lat="44.5897844" lon="10.013985"><ele>653.5</ele><time>2026-05-03T12:10:53.547Z</time></trkpt><trkpt lat="44.5897601" lon="10.0138502"><ele>651.0</ele><time>2026-05-03T12:10:55.548Z</time></trkpt><trkpt lat="44.5897498" lon="10.0137616"><ele>648.5</ele><time>2026-05-03T12:10:56.548Z</time></trkpt><trkpt lat="44.5897306" lon="10.0136662"><ele>646.0</ele><time>2026-05-03T12:10:57.548Z</time></trkpt><trkpt lat="44.5897222" lon="10.0135108"><ele>646.0</ele><time>2026-05-03T12:10:59.548Z</time></trkpt><trkpt lat="44.5896974" lon="10.0133674"><ele>646.0</ele><time>2026-05-03T12:11:01.547Z</time></trkpt><trkpt lat="44.5896378" lon="10.0132496"><ele>646.0</ele><time>2026-05-03T12:11:03.549Z</time></trkpt><trkpt lat="44.5895693" lon="10.0131262"><ele>646.0</ele><time>2026-05-03T12:11:05.548Z</time></trkpt><trkpt lat="44.5895455" lon="10.0130266"><ele>646.0</ele><time>2026-05-03T12:11:07.548Z</time></trkpt><trkpt lat="44.589553" lon="10.0129116"><ele>643.1666666666667</ele><time>2026-05-03T12:11:09.547Z</time></trkpt><trkpt lat="44.5895272" lon="10.0127953"><ele>640.3333333333334</ele><time>2026-05-03T12:11:11.547Z</time></trkpt><trkpt lat="44.5894762" lon="10.0126978"><ele>637.5</ele><time>2026-05-03T12:11:13.547Z</time></trkpt><trkpt lat="44.5894575" lon="10.0125852"><ele>634.6666666666666</ele><time>2026-05-03T12:11:15.547Z</time></trkpt><trkpt lat="44.5894453" lon="10.0124608"><ele>631.8333333333333</ele><time>2026-05-03T12:11:17.548Z</time></trkpt><trkpt lat="44.5894716" lon="10.0123305"><ele>629.0</ele><time>2026-05-03T12:11:19.547Z</time></trkpt><trkpt lat="44.5895083" lon="10.0121863"><ele>626.4</ele><time>2026-05-03T12:11:21.548Z</time></trkpt><trkpt lat="44.5894999" lon="10.0120345"><ele>623.8</ele><time>2026-05-03T12:11:23.547Z</time></trkpt><trkpt lat="44.5895081" lon="10.0118861"><ele>621.2</ele><time>2026-05-03T12:11:25.547Z</time></trkpt><trkpt lat="44.5895361" lon="10.0117463"><ele>618.6</ele><time>2026-05-03T12:11:27.549Z</time></trkpt><trkpt lat="44.5895586" lon="10.0115723"><ele>616.0</ele><time>2026-05-03T12:11:29.547Z</time></trkpt><trkpt lat="44.5895111" lon="10.0113954"><ele>614.6666666666667</ele><time>2026-05-03T12:11:31.547Z</time></trkpt><trkpt lat="44.5894658" lon="10.0113127"><ele>613.3333333333334</ele><time>2026-05-03T12:11:32.547Z</time></trkpt><trkpt lat="44.5894233" lon="10.0112389"><ele>612.0</ele><time>2026-05-03T12:11:33.547Z</time></trkpt><trkpt lat="44.5893748" lon="10.0111559"><ele>610.6666666666666</ele><time>2026-05-03T12:11:34.547Z</time></trkpt><trkpt lat="44.5893351" lon="10.0110784"><ele>609.3333333333333</ele><time>2026-05-03T12:11:35.546Z</time></trkpt><trkpt lat="44.5892606" lon="10.0109562"><ele>608.0</ele><time>2026-05-03T12:11:37.546Z</time></trkpt><trkpt lat="44.5891976" lon="10.0108696"><ele>605.5</ele><time>2026-05-03T12:11:39.546Z</time></trkpt><trkpt lat="44.5891482" lon="10.0107907"><ele>603.0</ele><time>2026-05-03T12:11:42.546Z</time></trkpt><trkpt lat="44.5891036" lon="10.0107233"><ele>600.5</ele><time>2026-05-03T12:11:44.546Z</time></trkpt><trkpt lat="44.5890247" lon="10.0106075"><ele>598.0</ele><time>2026-05-03T12:11:46.546Z</time></trkpt><trkpt lat="44.5889858" lon="10.0105325"><ele>595.5</ele><time>2026-05-03T12:11:47.547Z</time></trkpt><trkpt lat="44.5889436" lon="10.0104547"><ele>593.0</ele><time>2026-05-03T12:11:48.547Z</time></trkpt><trkpt lat="44.5889064" lon="10.0103731"><ele>593.0</ele><time>2026-05-03T12:11:49.547Z</time></trkpt><trkpt lat="44.588879" lon="10.0102866"><ele>593.0</ele><time>2026-05-03T12:11:50.546Z</time></trkpt><trkpt lat="44.5888491" lon="10.0102066"><ele>593.0</ele><time>2026-05-03T12:11:51.546Z</time></trkpt><trkpt lat="44.5888305" lon="10.010117"><ele>593.0</ele><time>2026-05-03T12:11:52.546Z</time></trkpt><trkpt lat="44.5888096" lon="10.0099707"><ele>593.0</ele><time>2026-05-03T12:11:54.546Z</time></trkpt><trkpt lat="44.5888131" lon="10.0098343"><ele>593.0</ele><time>2026-05-03T12:11:56.548Z</time></trkpt><trkpt lat="44.5888597" lon="10.0096897"><ele>589.6666666666666</ele><time>2026-05-03T12:11:58.546Z</time></trkpt><trkpt lat="44.5888775" lon="10.0095643"><ele>586.3333333333333</ele><time>2026-05-03T12:12:00.546Z</time></trkpt><trkpt lat="44.5888418" lon="10.0094653"><ele>583.0</ele><time>2026-05-03T12:12:02.546Z</time></trkpt><trkpt lat="44.5887823" lon="10.0093158"><ele>579.6666666666666</ele><time>2026-05-03T12:12:04.546Z</time></trkpt><trkpt lat="44.5887518" lon="10.0092207"><ele>576.3333333333334</ele><time>2026-05-03T12:12:05.547Z</time></trkpt><trkpt lat="44.5887278" lon="10.0091184"><ele>573.0</ele><time>2026-05-03T12:12:06.546Z</time></trkpt><trkpt lat="44.5887015" lon="10.0090267"><ele>569.4</ele><time>2026-05-03T12:12:07.546Z</time></trkpt><trkpt lat="44.588659" lon="10.0088701"><ele>565.8</ele><time>2026-05-03T12:12:09.546Z</time></trkpt><trkpt lat="44.588642" lon="10.0087786"><ele>562.2</ele><time>2026-05-03T12:12:10.546Z</time></trkpt><trkpt lat="44.5886216" lon="10.0086208"><ele>558.6</ele><time>2026-05-03T12:12:12.546Z</time></trkpt><trkpt lat="44.5885767" lon="10.008512"><ele>555.0</ele><time>2026-05-03T12:12:14.546Z</time></trkpt><trkpt lat="44.5884919" lon="10.0084054"><ele>552.8</ele><time>2026-05-03T12:12:16.546Z</time></trkpt><trkpt lat="44.5884195" lon="10.0082755"><ele>550.6</ele><time>2026-05-03T12:12:18.546Z</time></trkpt><trkpt lat="44.5883877" lon="10.008148"><ele>548.4</ele><time>2026-05-03T12:12:20.546Z</time></trkpt><trkpt lat="44.5883614" lon="10.0079976"><ele>546.2</ele><time>2026-05-03T12:12:22.546Z</time></trkpt><trkpt lat="44.5883305" lon="10.00792"><ele>544.0</ele><time>2026-05-03T12:12:23.548Z</time></trkpt><trkpt lat="44.5882889" lon="10.0078278"><ele>544.0</ele><time>2026-05-03T12:12:25.546Z</time></trkpt><trkpt lat="44.5882457" lon="10.0077257"><ele>544.0</ele><time>2026-05-03T12:12:29.547Z</time></trkpt><trkpt lat="44.5882093" lon="10.0076393"><ele>544.0</ele><time>2026-05-03T12:12:31.546Z</time></trkpt><trkpt lat="44.5881692" lon="10.0075334"><ele>544.0</ele><time>2026-05-03T12:12:33.547Z</time></trkpt><trkpt lat="44.5881359" lon="10.0074218"><ele>544.0</ele><time>2026-05-03T12:12:35.546Z</time></trkpt><trkpt lat="44.5881158" lon="10.007331"><ele>544.0</ele><time>2026-05-03T12:12:41.546Z</time></trkpt><trkpt lat="44.5880585" lon="10.0072786"><ele>543.0</ele><time>2026-05-03T12:14:15.546Z</time></trkpt><trkpt lat="44.5881073" lon="10.0072213"><ele>542.0</ele><time>2026-05-03T12:15:48.545Z</time></trkpt><trkpt lat="44.588115" lon="10.0070786"><ele>541.0</ele><time>2026-05-03T12:20:23.544Z</time></trkpt><trkpt lat="44.588103" lon="10.0069575"><ele>540.0</ele><time>2026-05-03T12:20:25.544Z</time></trkpt><trkpt lat="44.5880781" lon="10.0068662"><ele>539.0</ele><time>2026-05-03T12:20:26.544Z</time></trkpt><trkpt lat="44.5880579" lon="10.0067606"><ele>538.0</ele><time>2026-05-03T12:20:27.545Z</time></trkpt><trkpt lat="44.5880393" lon="10.0066756"><ele>536.1999999999999</ele><time>2026-05-03T12:20:28.544Z</time></trkpt><trkpt lat="44.5879977" lon="10.0065309"><ele>534.4</ele><time>2026-05-03T12:20:30.544Z</time></trkpt><trkpt lat="44.5879495" lon="10.0063803"><ele>532.5999999999999</ele><time>2026-05-03T12:20:32.544Z</time></trkpt><trkpt lat="44.5879313" lon="10.0062422"><ele>530.8</ele><time>2026-05-03T12:20:34.544Z</time></trkpt><trkpt lat="44.5879267" lon="10.0061124"><ele>529.0</ele><time>2026-05-03T12:20:36.544Z</time></trkpt><trkpt lat="44.5879343" lon="10.0059596"><ele>529.0</ele><time>2026-05-03T12:20:38.544Z</time></trkpt><trkpt lat="44.5879403" lon="10.0058664"><ele>529.0</ele><time>2026-05-03T12:20:39.544Z</time></trkpt><trkpt lat="44.5879049" lon="10.0057572"><ele>529.0</ele><time>2026-05-03T12:20:41.545Z</time></trkpt><trkpt lat="44.5878895" lon="10.0056711"><ele>529.0</ele><time>2026-05-03T12:20:43.544Z</time></trkpt><trkpt lat="44.5879069" lon="10.0055708"><ele>529.0</ele><time>2026-05-03T12:20:45.544Z</time></trkpt><trkpt lat="44.5879497" lon="10.005422"><ele>529.0</ele><time>2026-05-03T12:20:47.545Z</time></trkpt><trkpt lat="44.5879631" lon="10.005319"><ele>526.8</ele><time>2026-05-03T12:20:48.545Z</time></trkpt><trkpt lat="44.5879795" lon="10.0052016"><ele>524.5999999999999</ele><time>2026-05-03T12:20:49.545Z</time></trkpt><trkpt lat="44.588004" lon="10.0050788"><ele>522.4</ele><time>2026-05-03T12:20:50.544Z</time></trkpt><trkpt lat="44.5880289" lon="10.0049441"><ele>520.1999999999999</ele><time>2026-05-03T12:20:51.545Z</time></trkpt><trkpt lat="44.5880498" lon="10.0048087"><ele>518.0</ele><time>2026-05-03T12:20:52.544Z</time></trkpt><trkpt lat="44.5880728" lon="10.0046835"><ele>516.3333333333333</ele><time>2026-05-03T12:20:53.544Z</time></trkpt><trkpt lat="44.5881044" lon="10.004561"><ele>514.6666666666666</ele><time>2026-05-03T12:20:54.544Z</time></trkpt><trkpt lat="44.5881452" lon="10.0044434"><ele>513.0</ele><time>2026-05-03T12:20:55.544Z</time></trkpt><trkpt lat="44.5881952" lon="10.0043273"><ele>511.33333333333337</ele><time>2026-05-03T12:20:56.544Z</time></trkpt><trkpt lat="44.5882511" lon="10.0042208"><ele>509.6666666666667</ele><time>2026-05-03T12:20:57.544Z</time></trkpt><trkpt lat="44.5882923" lon="10.0041395"><ele>508.0</ele><time>2026-05-03T12:20:58.544Z</time></trkpt><trkpt lat="44.5883498" lon="10.0040468"><ele>506.59999999999997</ele><time>2026-05-03T12:21:00.545Z</time></trkpt><trkpt lat="44.5883418" lon="10.0039358"><ele>505.19999999999993</ele><time>2026-05-03T12:21:02.544Z</time></trkpt><trkpt lat="44.5882461" lon="10.0037749"><ele>503.8</ele><time>2026-05-03T12:21:04.544Z</time></trkpt><trkpt lat="44.5881859" lon="10.0036593"><ele>502.4</ele><time>2026-05-03T12:21:05.544Z</time></trkpt><trkpt lat="44.5881331" lon="10.0035251"><ele>501.0</ele><time>2026-05-03T12:21:06.544Z</time></trkpt><trkpt lat="44.5880791" lon="10.003402"><ele>498.0</ele><time>2026-05-03T12:21:07.544Z</time></trkpt><trkpt lat="44.5880184" lon="10.0032834"><ele>495.0</ele><time>2026-05-03T12:21:08.544Z</time></trkpt><trkpt lat="44.587942" lon="10.0031767"><ele>492.0</ele><time>2026-05-03T12:21:09.544Z</time></trkpt><trkpt lat="44.5878701" lon="10.0030864"><ele>489.0</ele><time>2026-05-03T12:21:10.544Z</time></trkpt><trkpt lat="44.5878184" lon="10.0029968"><ele>486.0</ele><time>2026-05-03T12:21:11.544Z</time></trkpt><trkpt lat="44.5877855" lon="10.0029055"><ele>485.20000000000005</ele><time>2026-05-03T12:21:12.544Z</time></trkpt><trkpt lat="44.5877482" lon="10.0027765"><ele>484.40000000000003</ele><time>2026-05-03T12:21:14.544Z</time></trkpt><trkpt lat="44.5876628" lon="10.0027664"><ele>483.6</ele><time>2026-05-03T12:21:17.544Z</time></trkpt><trkpt lat="44.5875734" lon="10.0028691"><ele>482.8</ele><time>2026-05-03T12:21:19.544Z</time></trkpt><trkpt lat="44.5875098" lon="10.002948"><ele>482.0</ele><time>2026-05-03T12:21:20.544Z</time></trkpt><trkpt lat="44.5874378" lon="10.0030203"><ele>482.0</ele><time>2026-05-03T12:21:21.544Z</time></trkpt><trkpt lat="44.5873581" lon="10.003103"><ele>482.00000000000006</ele><time>2026-05-03T12:21:22.544Z</time></trkpt><trkpt lat="44.5872674" lon="10.0031862"><ele>482.00000000000006</ele><time>2026-05-03T12:21:23.544Z</time></trkpt><trkpt lat="44.5871749" lon="10.0032759"><ele>482.0</ele><time>2026-05-03T12:21:24.544Z</time></trkpt><trkpt lat="44.5870933" lon="10.0033707"><ele>482.0</ele><time>2026-05-03T12:21:25.544Z</time></trkpt><trkpt lat="44.5870131" lon="10.0034706"><ele>480.8</ele><time>2026-05-03T12:21:26.544Z</time></trkpt><trkpt lat="44.5869349" lon="10.0035919"><ele>479.6</ele><time>2026-05-03T12:21:27.545Z</time></trkpt><trkpt lat="44.586861" lon="10.0037042"><ele>478.40000000000003</ele><time>2026-05-03T12:21:28.546Z</time></trkpt><trkpt lat="44.5867891" lon="10.0037979"><ele>477.20000000000005</ele><time>2026-05-03T12:21:29.544Z</time></trkpt><trkpt lat="44.5867133" lon="10.0038805"><ele>476.0</ele><time>2026-05-03T12:21:30.544Z</time></trkpt><trkpt lat="44.5866397" lon="10.0039108"><ele>476.0</ele><time>2026-05-03T12:21:31.545Z</time></trkpt><trkpt lat="44.5865727" lon="10.0039026"><ele>476.0</ele><time>2026-05-03T12:21:32.544Z</time></trkpt><trkpt lat="44.5864952" lon="10.0038899"><ele>476.0</ele><time>2026-05-03T12:21:33.544Z</time></trkpt><trkpt lat="44.5864214" lon="10.0038327"><ele>476.0</ele><time>2026-05-03T12:21:34.544Z</time></trkpt><trkpt lat="44.5863418" lon="10.003763"><ele>476.0</ele><time>2026-05-03T12:21:35.545Z</time></trkpt><trkpt lat="44.5862298" lon="10.0036803"><ele>476.4</ele><time>2026-05-03T12:21:36.544Z</time></trkpt><trkpt lat="44.5861279" lon="10.0036164"><ele>476.8</ele><time>2026-05-03T12:21:37.543Z</time></trkpt><trkpt lat="44.5860243" lon="10.003563"><ele>477.19999999999993</ele><time>2026-05-03T12:21:38.543Z</time></trkpt><trkpt lat="44.5859119" lon="10.0035361"><ele>477.59999999999997</ele><time>2026-05-03T12:21:39.543Z</time></trkpt><trkpt lat="44.5858019" lon="10.0035032"><ele>478.0</ele><time>2026-05-03T12:21:40.543Z</time></trkpt><trkpt lat="44.5856766" lon="10.0035139"><ele>478.0</ele><time>2026-05-03T12:21:41.543Z</time></trkpt><trkpt lat="44.5855692" lon="10.0034866"><ele>477.99999999999994</ele><time>2026-05-03T12:21:42.543Z</time></trkpt><trkpt lat="44.585462" lon="10.0034716"><ele>477.99999999999994</ele><time>2026-05-03T12:21:43.543Z</time></trkpt><trkpt lat="44.5853552" lon="10.0034548"><ele>478.0</ele><time>2026-05-03T12:21:44.543Z</time></trkpt><trkpt lat="44.5853423" lon="10.0033594"><ele>478.0</ele><time>2026-05-03T12:21:46.543Z</time></trkpt><trkpt lat="44.5852801" lon="10.0032927"><ele>475.4</ele><time>2026-05-03T12:21:48.544Z</time></trkpt><trkpt lat="44.5851966" lon="10.0032243"><ele>472.79999999999995</ele><time>2026-05-03T12:21:50.543Z</time></trkpt><trkpt lat="44.5851307" lon="10.0031405"><ele>470.2</ele><time>2026-05-03T12:21:52.543Z</time></trkpt><trkpt lat="44.5850481" lon="10.0030539"><ele>467.6</ele><time>2026-05-03T12:21:54.545Z</time></trkpt><trkpt lat="44.5849648" lon="10.0029854"><ele>465.0</ele><time>2026-05-03T12:21:56.543Z</time></trkpt><trkpt lat="44.5848822" lon="10.0029345"><ele>465.0</ele><time>2026-05-03T12:21:58.543Z</time></trkpt><trkpt lat="44.5847991" lon="10.0028829"><ele>465.0</ele><time>2026-05-03T12:22:00.544Z</time></trkpt><trkpt lat="44.5847146" lon="10.0028244"><ele>465.0</ele><time>2026-05-03T12:22:02.544Z</time></trkpt><trkpt lat="44.5846519" lon="10.0027487"><ele>465.0</ele><time>2026-05-03T12:22:04.543Z</time></trkpt><trkpt lat="44.5846247" lon="10.0026439"><ele>465.0</ele><time>2026-05-03T12:22:06.544Z</time></trkpt><trkpt lat="44.5846156" lon="10.0024827"><ele>462.25</ele><time>2026-05-03T12:22:08.544Z</time></trkpt><trkpt lat="44.5845638" lon="10.0023288"><ele>459.5</ele><time>2026-05-03T12:22:10.543Z</time></trkpt><trkpt lat="44.5844887" lon="10.0022062"><ele>456.75</ele><time>2026-05-03T12:22:12.543Z</time></trkpt><trkpt lat="44.5844191" lon="10.0020823"><ele>454.0</ele><time>2026-05-03T12:22:14.543Z</time></trkpt><trkpt lat="44.5844092" lon="10.0019151"><ele>454.0</ele><time>2026-05-03T12:22:16.544Z</time></trkpt><trkpt lat="44.5844057" lon="10.0017591"><ele>454.0</ele><time>2026-05-03T12:22:18.543Z</time></trkpt><trkpt lat="44.5843759" lon="10.0016602"><ele>454.0</ele><time>2026-05-03T12:22:20.543Z</time></trkpt><trkpt lat="44.5843612" lon="10.0015363"><ele>454.0</ele><time>2026-05-03T12:22:23.543Z</time></trkpt><trkpt lat="44.5843496" lon="10.0014194"><ele>454.0</ele><time>2026-05-03T12:22:25.543Z</time></trkpt><trkpt lat="44.5843482" lon="10.0012868"><ele>450.79999999999995</ele><time>2026-05-03T12:22:27.543Z</time></trkpt><trkpt lat="44.5843721" lon="10.0011351"><ele>447.59999999999997</ele><time>2026-05-03T12:22:29.543Z</time></trkpt><trkpt lat="44.5844015" lon="10.0009916"><ele>444.4</ele><time>2026-05-03T12:22:31.543Z</time></trkpt><trkpt lat="44.5844149" lon="10.0008526"><ele>441.2</ele><time>2026-05-03T12:22:33.543Z</time></trkpt><trkpt lat="44.5843555" lon="10.0007472"><ele>438.0</ele><time>2026-05-03T12:22:35.543Z</time></trkpt><trkpt lat="44.5843176" lon="10.0006192"><ele>435.8333333333333</ele><time>2026-05-03T12:22:37.544Z</time></trkpt><trkpt lat="44.5843007" lon="10.0004678"><ele>433.66666666666663</ele><time>2026-05-03T12:22:39.544Z</time></trkpt><trkpt lat="44.5842873" lon="10.0003694"><ele>431.5</ele><time>2026-05-03T12:22:40.544Z</time></trkpt><trkpt lat="44.5842759" lon="10.0002744"><ele>429.3333333333333</ele><time>2026-05-03T12:22:41.543Z</time></trkpt><trkpt lat="44.5842637" lon="10.000187"><ele>427.16666666666663</ele><time>2026-05-03T12:22:42.543Z</time></trkpt><trkpt lat="44.5842502" lon="10.0000191"><ele>425.0</ele><time>2026-05-03T12:22:44.543Z</time></trkpt><trkpt lat="44.5842271" lon="9.9998992"><ele>425.0</ele><time>2026-05-03T12:22:46.543Z</time></trkpt><trkpt lat="44.5841704" lon="9.9998114"><ele>425.0</ele><time>2026-05-03T12:22:48.543Z</time></trkpt><trkpt lat="44.5840716" lon="9.9997106"><ele>425.0</ele><time>2026-05-03T12:22:50.543Z</time></trkpt><trkpt lat="44.5839877" lon="9.999608"><ele>425.0</ele><time>2026-05-03T12:22:52.543Z</time></trkpt><trkpt lat="44.5839353" lon="9.9994408"><ele>425.0</ele><time>2026-05-03T12:22:54.544Z</time></trkpt><trkpt lat="44.5838943" lon="9.9992983"><ele>424.99999999999994</ele><time>2026-05-03T12:22:56.543Z</time></trkpt><trkpt lat="44.5838633" lon="9.9992049"><ele>425.0</ele><time>2026-05-03T12:22:58.543Z</time></trkpt><trkpt lat="44.5837847" lon="9.9991799"><ele>425.0</ele><time>2026-05-03T12:23:00.543Z</time></trkpt><trkpt lat="44.5837064" lon="9.9991645"><ele>425.0</ele><time>2026-05-03T12:23:01.544Z</time></trkpt><trkpt lat="44.5836076" lon="9.9991643"><ele>424.99999999999994</ele><time>2026-05-03T12:23:02.543Z</time></trkpt><trkpt lat="44.5834999" lon="9.9991372"><ele>425.0</ele><time>2026-05-03T12:23:03.543Z</time></trkpt><trkpt lat="44.5833937" lon="9.9991102"><ele>422.16666666666663</ele><time>2026-05-03T12:23:04.543Z</time></trkpt><trkpt lat="44.5832951" lon="9.9990869"><ele>419.3333333333333</ele><time>2026-05-03T12:23:05.543Z</time></trkpt><trkpt lat="44.5832139" lon="9.9990675"><ele>416.5</ele><time>2026-05-03T12:23:06.543Z</time></trkpt><trkpt lat="44.5831471" lon="9.9990509"><ele>413.66666666666663</ele><time>2026-05-03T12:23:07.543Z</time></trkpt><trkpt lat="44.5830787" lon="9.9990068"><ele>410.8333333333333</ele><time>2026-05-03T12:23:08.544Z</time></trkpt><trkpt lat="44.5830249" lon="9.998942"><ele>408.0</ele><time>2026-05-03T12:23:09.543Z</time></trkpt><trkpt lat="44.5829536" lon="9.9988608"><ele>408.0</ele><time>2026-05-03T12:23:10.543Z</time></trkpt><trkpt lat="44.5828918" lon="9.9987818"><ele>408.0</ele><time>2026-05-03T12:23:11.543Z</time></trkpt><trkpt lat="44.5828379" lon="9.9986399"><ele>408.0</ele><time>2026-05-03T12:23:13.543Z</time></trkpt><trkpt lat="44.5827997" lon="9.9985272"><ele>408.0</ele><time>2026-05-03T12:23:15.543Z</time></trkpt><trkpt lat="44.5827231" lon="9.9985194"><ele>408.0</ele><time>2026-05-03T12:23:17.543Z</time></trkpt><trkpt lat="44.5826469" lon="9.9986245"><ele>406.2</ele><time>2026-05-03T12:23:19.543Z</time></trkpt><trkpt lat="44.5826088" lon="9.9987114"><ele>404.4</ele><time>2026-05-03T12:23:20.543Z</time></trkpt><trkpt lat="44.5825824" lon="9.9987935"><ele>402.59999999999997</ele><time>2026-05-03T12:23:21.543Z</time></trkpt><trkpt lat="44.5824973" lon="9.9988903"><ele>400.79999999999995</ele><time>2026-05-03T12:23:23.544Z</time></trkpt><trkpt lat="44.5823913" lon="9.9988621"><ele>399.0</ele><time>2026-05-03T12:23:25.543Z</time></trkpt><trkpt lat="44.5822874" lon="9.9987722"><ele>399.0</ele><time>2026-05-03T12:23:27.543Z</time></trkpt><trkpt lat="44.5822414" lon="9.9987046"><ele>399.0</ele><time>2026-05-03T12:23:28.543Z</time></trkpt><trkpt lat="44.5821972" lon="9.9986383"><ele>399.0</ele><time>2026-05-03T12:23:29.544Z</time></trkpt><trkpt lat="44.5821488" lon="9.9985751"><ele>399.0</ele><time>2026-05-03T12:23:30.543Z</time></trkpt><trkpt lat="44.5820921" lon="9.998515"><ele>399.0</ele><time>2026-05-03T12:23:31.543Z</time></trkpt><trkpt lat="44.5820365" lon="9.9984623"><ele>399.0</ele><time>2026-05-03T12:23:32.543Z</time></trkpt><trkpt lat="44.5819738" lon="9.9984128"><ele>399.0</ele><time>2026-05-03T12:23:33.543Z</time></trkpt><trkpt lat="44.5819169" lon="9.9983663"><ele>394.6</ele><time>2026-05-03T12:23:34.543Z</time></trkpt><trkpt lat="44.5818475" lon="9.9982517"><ele>390.2</ele><time>2026-05-03T12:23:36.543Z</time></trkpt><trkpt lat="44.5818223" lon="9.9980711"><ele>385.8</ele><time>2026-05-03T12:23:38.544Z</time></trkpt><trkpt lat="44.581822" lon="9.9979678"><ele>381.40000000000003</ele><time>2026-05-03T12:23:39.544Z</time></trkpt><trkpt lat="44.5818128" lon="9.9978729"><ele>377.0</ele><time>2026-05-03T12:23:40.543Z</time></trkpt><trkpt lat="44.5818057" lon="9.9977559"><ele>377.0</ele><time>2026-05-03T12:23:41.543Z</time></trkpt><trkpt lat="44.5817949" lon="9.9976313"><ele>377.0</ele><time>2026-05-03T12:23:42.543Z</time></trkpt><trkpt lat="44.581806" lon="9.9975085"><ele>377.0</ele><time>2026-05-03T12:23:43.543Z</time></trkpt><trkpt lat="44.581833" lon="9.9974115"><ele>377.0</ele><time>2026-05-03T12:23:44.543Z</time></trkpt><trkpt lat="44.5818902" lon="9.9973104"><ele>377.0</ele><time>2026-05-03T12:23:46.543Z</time></trkpt><trkpt lat="44.5819886" lon="9.9972137"><ele>376.8</ele><time>2026-05-03T12:23:48.543Z</time></trkpt><trkpt lat="44.5820856" lon="9.9971147"><ele>376.6</ele><time>2026-05-03T12:23:50.543Z</time></trkpt><trkpt lat="44.5821238" lon="9.9969835"><ele>376.40000000000003</ele><time>2026-05-03T12:23:52.543Z</time></trkpt><trkpt lat="44.582093" lon="9.9968675"><ele>376.20000000000005</ele><time>2026-05-03T12:23:54.543Z</time></trkpt><trkpt lat="44.5819908" lon="9.9967612"><ele>376.0</ele><time>2026-05-03T12:23:56.543Z</time></trkpt><trkpt lat="44.5819376" lon="9.9966851"><ele>372.4</ele><time>2026-05-03T12:23:57.544Z</time></trkpt><trkpt lat="44.581885" lon="9.9966208"><ele>368.8</ele><time>2026-05-03T12:23:58.543Z</time></trkpt><trkpt lat="44.5817871" lon="9.9965204"><ele>365.2</ele><time>2026-05-03T12:24:00.543Z</time></trkpt><trkpt lat="44.5817033" lon="9.9964863"><ele>361.59999999999997</ele><time>2026-05-03T12:24:01.543Z</time></trkpt><trkpt lat="44.5816229" lon="9.9964614"><ele>358.0</ele><time>2026-05-03T12:24:02.543Z</time></trkpt><trkpt lat="44.5814979" lon="9.9964436"><ele>358.0</ele><time>2026-05-03T12:24:04.543Z</time></trkpt><trkpt lat="44.5814211" lon="9.9964545"><ele>358.0</ele><time>2026-05-03T12:24:05.543Z</time></trkpt><trkpt lat="44.5813064" lon="9.9964416"><ele>358.0</ele><time>2026-05-03T12:24:07.543Z</time></trkpt><trkpt lat="44.5812309" lon="9.9964448"><ele>358.0</ele><time>2026-05-03T12:24:08.543Z</time></trkpt><trkpt lat="44.5811605" lon="9.9964266"><ele>358.0</ele><time>2026-05-03T12:24:09.543Z</time></trkpt><trkpt lat="44.5810561" lon="9.9963679"><ele>356.5</ele><time>2026-05-03T12:24:11.544Z</time></trkpt><trkpt lat="44.5810133" lon="9.9962225"><ele>355.0</ele><time>2026-05-03T12:24:13.543Z</time></trkpt><trkpt lat="44.5810189" lon="9.9961285"><ele>353.5</ele><time>2026-05-03T12:24:14.543Z</time></trkpt><trkpt lat="44.5810178" lon="9.9960368"><ele>352.0</ele><time>2026-05-03T12:24:15.543Z</time></trkpt><trkpt lat="44.5810198" lon="9.9959142"><ele>350.5</ele><time>2026-05-03T12:24:16.543Z</time></trkpt><trkpt lat="44.5810177" lon="9.9958028"><ele>349.0</ele><time>2026-05-03T12:24:17.543Z</time></trkpt><trkpt lat="44.5810061" lon="9.9956892"><ele>348.0</ele><time>2026-05-03T12:24:18.543Z</time></trkpt><trkpt lat="44.5809929" lon="9.9955728"><ele>347.0</ele><time>2026-05-03T12:24:19.543Z</time></trkpt><trkpt lat="44.5809772" lon="9.9954727"><ele>346.0</ele><time>2026-05-03T12:24:20.544Z</time></trkpt><trkpt lat="44.5809774" lon="9.9953206"><ele>345.0</ele><time>2026-05-03T12:24:22.544Z</time></trkpt><trkpt lat="44.5810064" lon="9.9952215"><ele>344.0</ele><time>2026-05-03T12:24:24.543Z</time></trkpt><trkpt lat="44.5810513" lon="9.9951044"><ele>343.0</ele><time>2026-05-03T12:24:26.543Z</time></trkpt><trkpt lat="44.5811034" lon="9.9949988"><ele>341.8333333333333</ele><time>2026-05-03T12:24:28.543Z</time></trkpt><trkpt lat="44.5811396" lon="9.9949248"><ele>340.66666666666663</ele><time>2026-05-03T12:24:30.543Z</time></trkpt><trkpt lat="44.5811913" lon="9.9948477"><ele>339.5</ele><time>2026-05-03T12:24:34.543Z</time></trkpt><trkpt lat="44.5812189" lon="9.9947535"><ele>338.3333333333333</ele><time>2026-05-03T12:24:37.543Z</time></trkpt><trkpt lat="44.5811886" lon="9.9946378"><ele>337.1666666666667</ele><time>2026-05-03T12:24:41.543Z</time></trkpt><trkpt lat="44.5811803" lon="9.9945388"><ele>336.0</ele><time>2026-05-03T12:24:43.543Z</time></trkpt><trkpt lat="44.5811005" lon="9.9944685"><ele>336.0</ele><time>2026-05-03T12:24:46.543Z</time></trkpt><trkpt lat="44.5810334" lon="9.9944193"><ele>336.0</ele><time>2026-05-03T12:24:48.543Z</time></trkpt><trkpt lat="44.5810366" lon="9.9942987"><ele>336.0</ele><time>2026-05-03T12:24:51.543Z</time></trkpt><trkpt lat="44.5810911" lon="9.994233"><ele>336.0</ele><time>2026-05-03T12:24:53.543Z</time></trkpt><trkpt lat="44.5811937" lon="9.9941781"><ele>336.0</ele><time>2026-05-03T12:24:55.544Z</time></trkpt><trkpt lat="44.5812617" lon="9.994112"><ele>336.0</ele><time>2026-05-03T12:24:57.544Z</time></trkpt><trkpt lat="44.5812751" lon="9.9940012"><ele>336.1666666666667</ele><time>2026-05-03T12:24:59.543Z</time></trkpt><trkpt lat="44.5812226" lon="9.9938546"><ele>336.3333333333333</ele><time>2026-05-03T12:25:01.543Z</time></trkpt><trkpt lat="44.5811866" lon="9.9937154"><ele>336.5</ele><time>2026-05-03T12:25:03.543Z</time></trkpt><trkpt lat="44.5811652" lon="9.9936113"><ele>336.66666666666663</ele><time>2026-05-03T12:25:05.542Z</time></trkpt><trkpt lat="44.5811098" lon="9.993568"><ele>336.8333333333333</ele><time>2026-05-03T12:25:08.542Z</time></trkpt><trkpt lat="44.5810313" lon="9.9935336"><ele>337.0</ele><time>2026-05-03T12:25:11.542Z</time></trkpt><trkpt lat="44.5809595" lon="9.9934701"><ele>338.3333333333333</ele><time>2026-05-03T12:25:12.542Z</time></trkpt><trkpt lat="44.5809071" lon="9.9934203"><ele>339.66666666666663</ele><time>2026-05-03T12:25:13.542Z</time></trkpt><trkpt lat="44.5808402" lon="9.9933701"><ele>341.0</ele><time>2026-05-03T12:25:14.542Z</time></trkpt><trkpt lat="44.5807765" lon="9.9932319"><ele>342.3333333333333</ele><time>2026-05-03T12:25:16.542Z</time></trkpt><trkpt lat="44.5807447" lon="9.9931499"><ele>343.6666666666667</ele><time>2026-05-03T12:25:17.542Z</time></trkpt><trkpt lat="44.5807017" lon="9.9930813"><ele>345.0</ele><time>2026-05-03T12:25:18.542Z</time></trkpt><trkpt lat="44.5806383" lon="9.9930246"><ele>348.8</ele><time>2026-05-03T12:25:20.542Z</time></trkpt><trkpt lat="44.5805777" lon="9.9930633"><ele>352.6</ele><time>2026-05-03T12:25:21.542Z</time></trkpt><trkpt lat="44.5805218" lon="9.9930002"><ele>356.4</ele><time>2026-05-03T12:25:23.543Z</time></trkpt><trkpt lat="44.5804172" lon="9.9928805"><ele>360.2</ele><time>2026-05-03T12:25:25.543Z</time></trkpt><trkpt lat="44.5803331" lon="9.9928223"><ele>364.0</ele><time>2026-05-03T12:25:27.542Z</time></trkpt><trkpt lat="44.5802257" lon="9.9928215"><ele>365.8333333333333</ele><time>2026-05-03T12:25:29.543Z</time></trkpt><trkpt lat="44.5801419" lon="9.992762"><ele>367.66666666666663</ele><time>2026-05-03T12:25:31.542Z</time></trkpt><trkpt lat="44.5800849" lon="9.9926809"><ele>369.5</ele><time>2026-05-03T12:25:33.542Z</time></trkpt><trkpt lat="44.5800659" lon="9.992582"><ele>371.3333333333333</ele><time>2026-05-03T12:25:35.543Z</time></trkpt><trkpt lat="44.580064" lon="9.9924501"><ele>373.1666666666667</ele><time>2026-05-03T12:25:37.543Z</time></trkpt><trkpt lat="44.5800594" lon="9.9923366"><ele>375.0</ele><time>2026-05-03T12:25:39.543Z</time></trkpt><trkpt lat="44.5800181" lon="9.9922283"><ele>377.8333333333333</ele><time>2026-05-03T12:25:41.542Z</time></trkpt><trkpt lat="44.5799537" lon="9.9922236"><ele>380.66666666666663</ele><time>2026-05-03T12:25:43.542Z</time></trkpt><trkpt lat="44.5798715" lon="9.9922569"><ele>383.5</ele><time>2026-05-03T12:25:45.543Z</time></trkpt><trkpt lat="44.579769" lon="9.9922912"><ele>386.3333333333333</ele><time>2026-05-03T12:25:47.542Z</time></trkpt><trkpt lat="44.5797065" lon="9.9923214"><ele>389.16666666666663</ele><time>2026-05-03T12:25:48.542Z</time></trkpt><trkpt lat="44.5796188" lon="9.9923536"><ele>392.0</ele><time>2026-05-03T12:25:50.542Z</time></trkpt><trkpt lat="44.5795179" lon="9.9923269"><ele>394.3333333333333</ele><time>2026-05-03T12:25:52.542Z</time></trkpt><trkpt lat="44.5794291" lon="9.9922713"><ele>396.66666666666663</ele><time>2026-05-03T12:25:54.542Z</time></trkpt><trkpt lat="44.5793807" lon="9.9922096"><ele>399.0</ele><time>2026-05-03T12:25:55.542Z</time></trkpt><trkpt lat="44.5793492" lon="9.9921003"><ele>401.33333333333337</ele><time>2026-05-03T12:25:57.543Z</time></trkpt><trkpt lat="44.5793455" lon="9.9920054"><ele>403.6666666666667</ele><time>2026-05-03T12:25:58.542Z</time></trkpt><trkpt lat="44.579359" lon="9.9918831"><ele>406.0</ele><time>2026-05-03T12:25:59.542Z</time></trkpt><trkpt lat="44.5793605" lon="9.991783"><ele>408.6</ele><time>2026-05-03T12:26:00.543Z</time></trkpt><trkpt lat="44.5793672" lon="9.9916706"><ele>411.20000000000005</ele><time>2026-05-03T12:26:01.542Z</time></trkpt><trkpt lat="44.5793327" lon="9.9914992"><ele>413.79999999999995</ele><time>2026-05-03T12:26:03.542Z</time></trkpt><trkpt lat="44.5793122" lon="9.9914147"><ele>416.4</ele><time>2026-05-03T12:26:04.542Z</time></trkpt><trkpt lat="44.5792762" lon="9.9912557"><ele>419.0</ele><time>2026-05-03T12:26:06.542Z</time></trkpt><trkpt lat="44.5792401" lon="9.9911619"><ele>419.0</ele><time>2026-05-03T12:26:07.542Z</time></trkpt><trkpt lat="44.5791969" lon="9.9910295"><ele>419.0</ele><time>2026-05-03T12:26:08.543Z</time></trkpt><trkpt lat="44.5791671" lon="9.9908957"><ele>419.0</ele><time>2026-05-03T12:26:09.542Z</time></trkpt><trkpt lat="44.5791316" lon="9.9907931"><ele>419.0</ele><time>2026-05-03T12:26:10.542Z</time></trkpt><trkpt lat="44.5792013" lon="9.9906673"><ele>419.0</ele><time>2026-05-03T12:26:12.542Z</time></trkpt><trkpt lat="44.5792622" lon="9.9905117"><ele>420.99999999999994</ele><time>2026-05-03T12:26:14.542Z</time></trkpt><trkpt lat="44.5793009" lon="9.9904199"><ele>423.0</ele><time>2026-05-03T12:26:15.542Z</time></trkpt><trkpt lat="44.5793397" lon="9.9903423"><ele>425.0</ele><time>2026-05-03T12:26:16.542Z</time></trkpt><trkpt lat="44.5793835" lon="9.9902685"><ele>427.0</ele><time>2026-05-03T12:26:17.542Z</time></trkpt><trkpt lat="44.5794543" lon="9.9901948"><ele>428.99999999999994</ele><time>2026-05-03T12:26:18.543Z</time></trkpt><trkpt lat="44.5795364" lon="9.9901213"><ele>431.0</ele><time>2026-05-03T12:26:19.542Z</time></trkpt><trkpt lat="44.5795937" lon="9.9900678"><ele>431.8</ele><time>2026-05-03T12:26:20.543Z</time></trkpt><trkpt lat="44.5796467" lon="9.9900039"><ele>432.6</ele><time>2026-05-03T12:26:21.542Z</time></trkpt><trkpt lat="44.5797216" lon="9.9898434"><ele>433.4</ele><time>2026-05-03T12:26:23.542Z</time></trkpt><trkpt lat="44.5797609" lon="9.9896805"><ele>434.2</ele><time>2026-05-03T12:26:25.542Z</time></trkpt><trkpt lat="44.5797605" lon="9.9895395"><ele>435.0</ele><time>2026-05-03T12:26:27.542Z</time></trkpt><trkpt lat="44.579695" lon="9.9893677"><ele>435.0</ele><time>2026-05-03T12:26:29.542Z</time></trkpt><trkpt lat="44.5796656" lon="9.989276"><ele>435.0</ele><time>2026-05-03T12:26:30.542Z</time></trkpt><trkpt lat="44.5795947" lon="9.9891735"><ele>435.0</ele><time>2026-05-03T12:26:32.542Z</time></trkpt><trkpt lat="44.5794924" lon="9.989104"><ele>435.0</ele><time>2026-05-03T12:26:34.542Z</time></trkpt><trkpt lat="44.5794282" lon="9.9890813"><ele>435.0</ele><time>2026-05-03T12:26:35.542Z</time></trkpt><trkpt lat="44.579368" lon="9.9890533"><ele>435.0</ele><time>2026-05-03T12:26:36.542Z</time></trkpt><trkpt lat="44.5793012" lon="9.9890738"><ele>437.75</ele><time>2026-05-03T12:26:37.542Z</time></trkpt><trkpt lat="44.5791866" lon="9.9890898"><ele>440.5</ele><time>2026-05-03T12:26:39.542Z</time></trkpt><trkpt lat="44.5790767" lon="9.9890812"><ele>443.25</ele><time>2026-05-03T12:26:41.542Z</time></trkpt><trkpt lat="44.5789854" lon="9.9891261"><ele>446.0</ele><time>2026-05-03T12:26:43.542Z</time></trkpt><trkpt lat="44.5789393" lon="9.9892993"><ele>446.0</ele><time>2026-05-03T12:26:45.542Z</time></trkpt><trkpt lat="44.5789227" lon="9.9894195"><ele>446.0</ele><time>2026-05-03T12:26:46.542Z</time></trkpt><trkpt lat="44.5789107" lon="9.9895245"><ele>446.0</ele><time>2026-05-03T12:26:47.542Z</time></trkpt><trkpt lat="44.5788632" lon="9.9896812"><ele>446.0</ele><time>2026-05-03T12:26:49.542Z</time></trkpt><trkpt lat="44.5787637" lon="9.9897596"><ele>446.0</ele><time>2026-05-03T12:26:51.542Z</time></trkpt><trkpt lat="44.5786985" lon="9.9897943"><ele>447.8333333333333</ele><time>2026-05-03T12:26:52.542Z</time></trkpt><trkpt lat="44.5786261" lon="9.989854"><ele>449.66666666666663</ele><time>2026-05-03T12:26:53.542Z</time></trkpt><trkpt lat="44.5785436" lon="9.9899204"><ele>451.5</ele><time>2026-05-03T12:26:55.543Z</time></trkpt><trkpt lat="44.5784737" lon="9.9899489"><ele>453.33333333333337</ele><time>2026-05-03T12:26:57.542Z</time></trkpt><trkpt lat="44.5783885" lon="9.9899731"><ele>455.1666666666667</ele><time>2026-05-03T12:26:59.543Z</time></trkpt><trkpt lat="44.578321" lon="9.9899822"><ele>457.0</ele><time>2026-05-03T12:27:00.542Z</time></trkpt><trkpt lat="44.5782578" lon="9.9900051"><ele>456.00000000000006</ele><time>2026-05-03T12:27:01.542Z</time></trkpt><trkpt lat="44.5781981" lon="9.9900377"><ele>455.0</ele><time>2026-05-03T12:27:02.542Z</time></trkpt><trkpt lat="44.5781022" lon="9.9900827"><ele>454.0</ele><time>2026-05-03T12:27:04.542Z</time></trkpt><trkpt lat="44.5779928" lon="9.9900671"><ele>453.0</ele><time>2026-05-03T12:27:06.542Z</time></trkpt><trkpt lat="44.5779223" lon="9.9900633"><ele>452.00000000000006</ele><time>2026-05-03T12:27:07.542Z</time></trkpt><trkpt lat="44.5778404" lon="9.9900751"><ele>451.0</ele><time>2026-05-03T12:27:08.542Z</time></trkpt><trkpt lat="44.5777643" lon="9.9900783"><ele>451.00000000000006</ele><time>2026-05-03T12:27:09.542Z</time></trkpt><trkpt lat="44.577694" lon="9.9900804"><ele>451.0</ele><time>2026-05-03T12:27:10.542Z</time></trkpt><trkpt lat="44.577625" lon="9.9900666"><ele>451.0</ele><time>2026-05-03T12:27:11.542Z</time></trkpt><trkpt lat="44.5775549" lon="9.989972"><ele>451.0</ele><time>2026-05-03T12:27:13.542Z</time></trkpt><trkpt lat="44.5774499" lon="9.9898719"><ele>451.00000000000006</ele><time>2026-05-03T12:27:15.542Z</time></trkpt><trkpt lat="44.5774044" lon="9.9898082"><ele>451.0</ele><time>2026-05-03T12:27:16.542Z</time></trkpt><trkpt lat="44.5773789" lon="9.9896246"><ele>453.8</ele><time>2026-05-03T12:27:18.542Z</time></trkpt><trkpt lat="44.5773216" lon="9.9894959"><ele>456.6</ele><time>2026-05-03T12:27:20.542Z</time></trkpt><trkpt lat="44.5772261" lon="9.9893892"><ele>459.4</ele><time>2026-05-03T12:27:22.542Z</time></trkpt><trkpt lat="44.5771698" lon="9.9893175"><ele>462.2</ele><time>2026-05-03T12:27:23.542Z</time></trkpt><trkpt lat="44.5771295" lon="9.9892419"><ele>465.0</ele><time>2026-05-03T12:27:24.542Z</time></trkpt><trkpt lat="44.5770734" lon="9.9891404"><ele>466.2</ele><time>2026-05-03T12:27:26.542Z</time></trkpt><trkpt lat="44.5769934" lon="9.9891109"><ele>467.4</ele><time>2026-05-03T12:27:29.542Z</time></trkpt><trkpt lat="44.5769572" lon="9.9892569"><ele>468.6</ele><time>2026-05-03T12:27:31.543Z</time></trkpt><trkpt lat="44.5769081" lon="9.9894117"><ele>469.8</ele><time>2026-05-03T12:27:33.542Z</time></trkpt><trkpt lat="44.5768508" lon="9.9895279"><ele>471.0</ele><time>2026-05-03T12:27:35.542Z</time></trkpt><trkpt lat="44.5767997" lon="9.9895941"><ele>471.0</ele><time>2026-05-03T12:27:36.543Z</time></trkpt><trkpt lat="44.576746" lon="9.9896479"><ele>471.0</ele><time>2026-05-03T12:27:37.543Z</time></trkpt><trkpt lat="44.5766621" lon="9.989676"><ele>471.0</ele><time>2026-05-03T12:27:39.542Z</time></trkpt><trkpt lat="44.5765727" lon="9.9896224"><ele>471.0</ele><time>2026-05-03T12:27:41.543Z</time></trkpt><trkpt lat="44.5765271" lon="9.9895425"><ele>471.0</ele><time>2026-05-03T12:27:42.542Z</time></trkpt><trkpt lat="44.5764837" lon="9.9894702"><ele>471.0</ele><time>2026-05-03T12:27:43.542Z</time></trkpt><trkpt lat="44.5764152" lon="9.9894388"><ele>471.0</ele><time>2026-05-03T12:27:45.542Z</time></trkpt><trkpt lat="44.5763243" lon="9.9893694"><ele>471.0</ele><time>2026-05-03T12:27:47.542Z</time></trkpt><trkpt lat="44.5762546" lon="9.989342"><ele>471.0</ele><time>2026-05-03T12:27:48.542Z</time></trkpt><trkpt lat="44.5761753" lon="9.9893672"><ele>471.0</ele><time>2026-05-03T12:27:49.542Z</time></trkpt><trkpt lat="44.576067" lon="9.9894222"><ele>471.0</ele><time>2026-05-03T12:27:51.543Z</time></trkpt><trkpt lat="44.5759706" lon="9.989473"><ele>473.8</ele><time>2026-05-03T12:27:53.542Z</time></trkpt><trkpt lat="44.5758926" lon="9.9895164"><ele>476.6</ele><time>2026-05-03T12:27:54.542Z</time></trkpt><trkpt lat="44.5757961" lon="9.9895606"><ele>479.4</ele><time>2026-05-03T12:27:55.542Z</time></trkpt><trkpt lat="44.5757184" lon="9.9896088"><ele>482.2</ele><time>2026-05-03T12:27:56.542Z</time></trkpt><trkpt lat="44.5756336" lon="9.9896316"><ele>485.0</ele><time>2026-05-03T12:27:57.542Z</time></trkpt><trkpt lat="44.5755202" lon="9.9897238"><ele>484.99999999999994</ele><time>2026-05-03T12:27:59.542Z</time></trkpt><trkpt lat="44.5754815" lon="9.9897982"><ele>485.0</ele><time>2026-05-03T12:28:00.542Z</time></trkpt><trkpt lat="44.5754272" lon="9.9898655"><ele>485.0</ele><time>2026-05-03T12:28:01.542Z</time></trkpt><trkpt lat="44.5753333" lon="9.9899054"><ele>485.0</ele><time>2026-05-03T12:28:03.542Z</time></trkpt><trkpt lat="44.575248" lon="9.9898905"><ele>484.99999999999994</ele><time>2026-05-03T12:28:05.543Z</time></trkpt><trkpt lat="44.5751678" lon="9.9898991"><ele>485.0</ele><time>2026-05-03T12:28:07.542Z</time></trkpt><trkpt lat="44.5751367" lon="9.9899976"><ele>487.8333333333333</ele><time>2026-05-03T12:28:10.543Z</time></trkpt><trkpt lat="44.575066" lon="9.9900485"><ele>490.66666666666663</ele><time>2026-05-03T12:28:14.542Z</time></trkpt><trkpt lat="44.5749836" lon="9.9900779"><ele>493.5</ele><time>2026-05-03T12:28:16.542Z</time></trkpt><trkpt lat="44.5748973" lon="9.9901437"><ele>496.33333333333337</ele><time>2026-05-03T12:28:18.542Z</time></trkpt><trkpt lat="44.5748523" lon="9.9902383"><ele>499.1666666666667</ele><time>2026-05-03T12:28:20.542Z</time></trkpt><trkpt lat="44.5747838" lon="9.9903063"><ele>502.0</ele><time>2026-05-03T12:28:22.543Z</time></trkpt><trkpt lat="44.5746585" lon="9.9903698"><ele>502.00000000000006</ele><time>2026-05-03T12:28:24.543Z</time></trkpt><trkpt lat="44.5745965" lon="9.9903935"><ele>502.0</ele><time>2026-05-03T12:28:25.543Z</time></trkpt><trkpt lat="44.5744959" lon="9.9904189"><ele>502.0</ele><time>2026-05-03T12:28:27.542Z</time></trkpt><trkpt lat="44.5744309" lon="9.9903347"><ele>502.0</ele><time>2026-05-03T12:28:29.541Z</time></trkpt><trkpt lat="44.574343" lon="9.9902205"><ele>502.00000000000006</ele><time>2026-05-03T12:28:31.542Z</time></trkpt><trkpt lat="44.574289" lon="9.990155"><ele>502.0</ele><time>2026-05-03T12:28:32.541Z</time></trkpt><trkpt lat="44.5742471" lon="9.990086"><ele>506.0</ele><time>2026-05-03T12:28:33.541Z</time></trkpt><trkpt lat="44.574262" lon="9.9899671"><ele>510.00000000000006</ele><time>2026-05-03T12:28:35.542Z</time></trkpt><trkpt lat="44.5742943" lon="9.9898585"><ele>514.0</ele><time>2026-05-03T12:28:37.541Z</time></trkpt><trkpt lat="44.5743169" lon="9.9897109"><ele>518.0</ele><time>2026-05-03T12:28:39.541Z</time></trkpt><trkpt lat="44.5743281" lon="9.989539"><ele>522.0</ele><time>2026-05-03T12:28:41.541Z</time></trkpt><trkpt lat="44.5743459" lon="9.9894457"><ele>522.0</ele><time>2026-05-03T12:28:42.541Z</time></trkpt><trkpt lat="44.574349" lon="9.9892802"><ele>522.0</ele><time>2026-05-03T12:28:44.541Z</time></trkpt><trkpt lat="44.5743419" lon="9.9891252"><ele>522.0</ele><time>2026-05-03T12:28:46.541Z</time></trkpt><trkpt lat="44.5743696" lon="9.9889798"><ele>522.0</ele><time>2026-05-03T12:28:48.541Z</time></trkpt><trkpt lat="44.5744086" lon="9.9888614"><ele>522.0</ele><time>2026-05-03T12:28:50.541Z</time></trkpt><trkpt lat="44.5744392" lon="9.9887471"><ele>523.6666666666666</ele><time>2026-05-03T12:28:52.541Z</time></trkpt><trkpt lat="44.5744491" lon="9.988601"><ele>525.3333333333334</ele><time>2026-05-03T12:28:54.541Z</time></trkpt><trkpt lat="44.5744866" lon="9.9884713"><ele>527.0</ele><time>2026-05-03T12:28:56.541Z</time></trkpt><trkpt lat="44.5745304" lon="9.9883763"><ele>528.6666666666667</ele><time>2026-05-03T12:28:58.541Z</time></trkpt><trkpt lat="44.5745881" lon="9.9882972"><ele>530.3333333333334</ele><time>2026-05-03T12:29:00.541Z</time></trkpt><trkpt lat="44.5746257" lon="9.9882018"><ele>532.0</ele><time>2026-05-03T12:29:02.541Z</time></trkpt><trkpt lat="44.5746326" lon="9.9880841"><ele>535.6</ele><time>2026-05-03T12:29:04.541Z</time></trkpt><trkpt lat="44.5746416" lon="9.9879802"><ele>539.2</ele><time>2026-05-03T12:29:06.543Z</time></trkpt><trkpt lat="44.5746272" lon="9.9878007"><ele>542.8</ele><time>2026-05-03T12:29:08.541Z</time></trkpt><trkpt lat="44.574618" lon="9.9877096"><ele>546.4</ele><time>2026-05-03T12:29:09.541Z</time></trkpt><trkpt lat="44.5746154" lon="9.9875457"><ele>550.0</ele><time>2026-05-03T12:29:11.541Z</time></trkpt><trkpt lat="44.5746254" lon="9.9874556"><ele>552.0</ele><time>2026-05-03T12:29:12.541Z</time></trkpt><trkpt lat="44.5746391" lon="9.9873483"><ele>554.0</ele><time>2026-05-03T12:29:13.541Z</time></trkpt><trkpt lat="44.5746395" lon="9.9872473"><ele>556.0</ele><time>2026-05-03T12:29:14.541Z</time></trkpt><trkpt lat="44.5746495" lon="9.9871543"><ele>558.0</ele><time>2026-05-03T12:29:15.541Z</time></trkpt><trkpt lat="44.5746754" lon="9.987051"><ele>560.0</ele><time>2026-05-03T12:29:16.541Z</time></trkpt><trkpt lat="44.5747227" lon="9.9869428"><ele>562.0</ele><time>2026-05-03T12:29:17.541Z</time></trkpt><trkpt lat="44.5747648" lon="9.9868424"><ele>562.0</ele><time>2026-05-03T12:29:18.541Z</time></trkpt><trkpt lat="44.5747935" lon="9.9866922"><ele>562.0</ele><time>2026-05-03T12:29:20.541Z</time></trkpt><trkpt lat="44.5748212" lon="9.9865484"><ele>562.0</ele><time>2026-05-03T12:29:22.541Z</time></trkpt><trkpt lat="44.5748438" lon="9.9863863"><ele>562.0</ele><time>2026-05-03T12:29:24.541Z</time></trkpt><trkpt lat="44.5748598" lon="9.9862827"><ele>562.0</ele><time>2026-05-03T12:29:25.541Z</time></trkpt><trkpt lat="44.5748746" lon="9.9861653"><ele>562.5</ele><time>2026-05-03T12:29:26.541Z</time></trkpt><trkpt lat="44.5748897" lon="9.9860489"><ele>563.0</ele><time>2026-05-03T12:29:27.541Z</time></trkpt><trkpt lat="44.574905" lon="9.9859452"><ele>563.5</ele><time>2026-05-03T12:29:28.542Z</time></trkpt><trkpt lat="44.5749244" lon="9.9858454"><ele>564.0</ele><time>2026-05-03T12:29:29.541Z</time></trkpt><trkpt lat="44.5749649" lon="9.9856906"><ele>564.5</ele><time>2026-05-03T12:29:31.542Z</time></trkpt><trkpt lat="44.5749859" lon="9.985606"><ele>565.0</ele><time>2026-05-03T12:29:32.541Z</time></trkpt><trkpt lat="44.574988" lon="9.9854894"><ele>565.5</ele><time>2026-05-03T12:29:33.541Z</time></trkpt><trkpt lat="44.5750003" lon="9.9853704"><ele>566.0</ele><time>2026-05-03T12:29:34.541Z</time></trkpt><trkpt lat="44.5750229" lon="9.9852562"><ele>566.5</ele><time>2026-05-03T12:29:35.541Z</time></trkpt><trkpt lat="44.5750387" lon="9.9851474"><ele>567.0</ele><time>2026-05-03T12:29:36.541Z</time></trkpt><trkpt lat="44.5750498" lon="9.9850509"><ele>567.5</ele><time>2026-05-03T12:29:37.541Z</time></trkpt><trkpt lat="44.5750754" lon="9.984967"><ele>568.0</ele><time>2026-05-03T12:29:38.541Z</time></trkpt><trkpt lat="44.5751142" lon="9.9848838"><ele>569.1666666666667</ele><time>2026-05-03T12:29:39.542Z</time></trkpt><trkpt lat="44.575144" lon="9.9847768"><ele>570.3333333333334</ele><time>2026-05-03T12:29:40.541Z</time></trkpt><trkpt lat="44.5751715" lon="9.984666"><ele>571.5</ele><time>2026-05-03T12:29:41.541Z</time></trkpt><trkpt lat="44.575208" lon="9.9845762"><ele>572.6666666666666</ele><time>2026-05-03T12:29:42.541Z</time></trkpt><trkpt lat="44.5752442" lon="9.9844659"><ele>573.8333333333333</ele><time>2026-05-03T12:29:43.541Z</time></trkpt><trkpt lat="44.5752788" lon="9.9843657"><ele>575.0</ele><time>2026-05-03T12:29:44.542Z</time></trkpt><trkpt lat="44.5753268" lon="9.9842493"><ele>573.7142857142857</ele><time>2026-05-03T12:29:45.542Z</time></trkpt><trkpt lat="44.5753792" lon="9.9841866"><ele>572.4285714285713</ele><time>2026-05-03T12:29:46.541Z</time></trkpt><trkpt lat="44.5754117" lon="9.9841093"><ele>571.1428571428571</ele><time>2026-05-03T12:29:47.541Z</time></trkpt><trkpt lat="44.5754465" lon="9.9840096"><ele>569.8571428571429</ele><time>2026-05-03T12:29:48.541Z</time></trkpt><trkpt lat="44.5754661" lon="9.983895"><ele>568.5714285714287</ele><time>2026-05-03T12:29:49.541Z</time></trkpt><trkpt lat="44.5755001" lon="9.9838009"><ele>567.2857142857143</ele><time>2026-05-03T12:29:50.541Z</time></trkpt><trkpt lat="44.5755293" lon="9.9837134"><ele>566.0</ele><time>2026-05-03T12:29:51.541Z</time></trkpt><trkpt lat="44.5756105" lon="9.9835872"><ele>569.6</ele><time>2026-05-03T12:29:53.541Z</time></trkpt><trkpt lat="44.5756548" lon="9.9835214"><ele>573.2</ele><time>2026-05-03T12:29:54.541Z</time></trkpt><trkpt lat="44.5757014" lon="9.983454"><ele>576.8</ele><time>2026-05-03T12:29:55.541Z</time></trkpt><trkpt lat="44.5757708" lon="9.983347"><ele>580.4</ele><time>2026-05-03T12:29:57.541Z</time></trkpt><trkpt lat="44.5757288" lon="9.9832231"><ele>584.0</ele><time>2026-05-03T12:30:00.542Z</time></trkpt><trkpt lat="44.5756971" lon="9.9830566"><ele>585.8</ele><time>2026-05-03T12:30:02.541Z</time></trkpt><trkpt lat="44.5756733" lon="9.9829096"><ele>587.5999999999999</ele><time>2026-05-03T12:30:04.541Z</time></trkpt><trkpt lat="44.5756439" lon="9.9828263"><ele>589.4</ele><time>2026-05-03T12:30:05.541Z</time></trkpt><trkpt lat="44.5755525" lon="9.9826789"><ele>591.1999999999999</ele><time>2026-05-03T12:30:07.541Z</time></trkpt><trkpt lat="44.5754865" lon="9.9826063"><ele>593.0</ele><time>2026-05-03T12:30:08.541Z</time></trkpt><trkpt lat="44.5754316" lon="9.9825477"><ele>593.8333333333333</ele><time>2026-05-03T12:30:09.541Z</time></trkpt><trkpt lat="44.5753884" lon="9.9824801"><ele>594.6666666666666</ele><time>2026-05-03T12:30:10.541Z</time></trkpt><trkpt lat="44.5753402" lon="9.9824067"><ele>595.5</ele><time>2026-05-03T12:30:11.541Z</time></trkpt><trkpt lat="44.5753176" lon="9.9822933"><ele>596.3333333333334</ele><time>2026-05-03T12:30:12.541Z</time></trkpt><trkpt lat="44.575278" lon="9.9821817"><ele>597.1666666666667</ele><time>2026-05-03T12:30:13.541Z</time></trkpt><trkpt lat="44.5752302" lon="9.9820846"><ele>598.0</ele><time>2026-05-03T12:30:14.541Z</time></trkpt><trkpt lat="44.5751865" lon="9.9819944"><ele>599.0</ele><time>2026-05-03T12:30:15.541Z</time></trkpt><trkpt lat="44.5751428" lon="9.9818891"><ele>600.0</ele><time>2026-05-03T12:30:16.541Z</time></trkpt><trkpt lat="44.5750898" lon="9.9817828"><ele>601.0</ele><time>2026-05-03T12:30:17.542Z</time></trkpt><trkpt lat="44.5750451" lon="9.9816769"><ele>602.0</ele><time>2026-05-03T12:30:18.542Z</time></trkpt><trkpt lat="44.5750031" lon="9.981572"><ele>603.0</ele><time>2026-05-03T12:30:19.541Z</time></trkpt><trkpt lat="44.5749877" lon="9.981478"><ele>604.0</ele><time>2026-05-03T12:30:21.542Z</time></trkpt><trkpt lat="44.5749086" lon="9.9814307"><ele>604.0</ele><time>2026-05-03T12:30:25.541Z</time></trkpt><trkpt lat="44.5748262" lon="9.9814911"><ele>604.0</ele><time>2026-05-03T12:30:27.541Z</time></trkpt><trkpt lat="44.5747167" lon="9.9815873"><ele>604.0</ele><time>2026-05-03T12:30:29.541Z</time></trkpt><trkpt lat="44.5746651" lon="9.9816465"><ele>604.0</ele><time>2026-05-03T12:30:30.541Z</time></trkpt><trkpt lat="44.5746089" lon="9.9817218"><ele>604.0</ele><time>2026-05-03T12:30:31.541Z</time></trkpt><trkpt lat="44.5745667" lon="9.9818038"><ele>604.0</ele><time>2026-05-03T12:30:32.543Z</time></trkpt><trkpt lat="44.5745205" lon="9.9818829"><ele>604.7142857142858</ele><time>2026-05-03T12:30:33.541Z</time></trkpt><trkpt lat="44.5744655" lon="9.9819556"><ele>605.4285714285714</ele><time>2026-05-03T12:30:34.541Z</time></trkpt><trkpt lat="44.5744057" lon="9.9820171"><ele>606.1428571428571</ele><time>2026-05-03T12:30:35.541Z</time></trkpt><trkpt lat="44.5743433" lon="9.9820659"><ele>606.8571428571429</ele><time>2026-05-03T12:30:36.542Z</time></trkpt><trkpt lat="44.5742778" lon="9.9820825"><ele>607.5714285714286</ele><time>2026-05-03T12:30:37.541Z</time></trkpt><trkpt lat="44.5742095" lon="9.9820513"><ele>608.2857142857143</ele><time>2026-05-03T12:30:38.541Z</time></trkpt><trkpt lat="44.5741479" lon="9.9819783"><ele>609.0</ele><time>2026-05-03T12:30:39.541Z</time></trkpt><trkpt lat="44.5741003" lon="9.9818803"><ele>609.0</ele><time>2026-05-03T12:30:40.541Z</time></trkpt><trkpt lat="44.574071" lon="9.9817584"><ele>609.0</ele><time>2026-05-03T12:30:41.541Z</time></trkpt><trkpt lat="44.5740423" lon="9.9816337"><ele>609.0</ele><time>2026-05-03T12:30:42.541Z</time></trkpt><trkpt lat="44.5740268" lon="9.9814912"><ele>609.0</ele><time>2026-05-03T12:30:43.541Z</time></trkpt><trkpt lat="44.5740233" lon="9.9813476"><ele>609.0</ele><time>2026-05-03T12:30:44.541Z</time></trkpt><trkpt lat="44.5740267" lon="9.9812075"><ele>611.0</ele><time>2026-05-03T12:30:45.541Z</time></trkpt><trkpt lat="44.5740336" lon="9.9810578"><ele>613.0</ele><time>2026-05-03T12:30:46.541Z</time></trkpt><trkpt lat="44.5740313" lon="9.9809099"><ele>615.0</ele><time>2026-05-03T12:30:47.542Z</time></trkpt><trkpt lat="44.5740295" lon="9.9807607"><ele>617.0</ele><time>2026-05-03T12:30:48.542Z</time></trkpt><trkpt lat="44.5740312" lon="9.9806141"><ele>619.0</ele><time>2026-05-03T12:30:49.541Z</time></trkpt><trkpt lat="44.5740339" lon="9.9804691"><ele>620.0</ele><time>2026-05-03T12:30:50.541Z</time></trkpt><trkpt lat="44.5740305" lon="9.9803211"><ele>621.0</ele><time>2026-05-03T12:30:51.541Z</time></trkpt><trkpt lat="44.5740222" lon="9.9801857"><ele>622.0</ele><time>2026-05-03T12:30:52.541Z</time></trkpt><trkpt lat="44.5739974" lon="9.9800547"><ele>623.0</ele><time>2026-05-03T12:30:53.542Z</time></trkpt><trkpt lat="44.5739384" lon="9.9799368"><ele>624.0</ele><time>2026-05-03T12:30:54.541Z</time></trkpt><trkpt lat="44.5738577" lon="9.9798412"><ele>624.8</ele><time>2026-05-03T12:30:55.541Z</time></trkpt><trkpt lat="44.5737642" lon="9.9797609"><ele>625.5999999999999</ele><time>2026-05-03T12:30:56.541Z</time></trkpt><trkpt lat="44.5736663" lon="9.9796815"><ele>626.4</ele><time>2026-05-03T12:30:57.541Z</time></trkpt><trkpt lat="44.5735673" lon="9.9796037"><ele>627.1999999999999</ele><time>2026-05-03T12:30:58.541Z</time></trkpt><trkpt lat="44.5734682" lon="9.9795269"><ele>628.0</ele><time>2026-05-03T12:30:59.541Z</time></trkpt><trkpt lat="44.5733842" lon="9.9794367"><ele>628.75</ele><time>2026-05-03T12:31:00.541Z</time></trkpt><trkpt lat="44.5733076" lon="9.9793268"><ele>629.5</ele><time>2026-05-03T12:31:01.541Z</time></trkpt><trkpt lat="44.5732454" lon="9.979192"><ele>630.25</ele><time>2026-05-03T12:31:02.541Z</time></trkpt><trkpt lat="44.5731876" lon="9.9790536"><ele>631.0</ele><time>2026-05-03T12:31:03.542Z</time></trkpt><trkpt lat="44.573122" lon="9.9789198"><ele>631.0</ele><time>2026-05-03T12:31:04.541Z</time></trkpt><trkpt lat="44.5730488" lon="9.9788061"><ele>631.0</ele><time>2026-05-03T12:31:05.541Z</time></trkpt><trkpt lat="44.5729661" lon="9.9787316"><ele>631.0</ele><time>2026-05-03T12:31:06.541Z</time></trkpt><trkpt lat="44.5728738" lon="9.9787069"><ele>631.0</ele><time>2026-05-03T12:31:07.541Z</time></trkpt><trkpt lat="44.5727748" lon="9.9787256"><ele>631.0</ele><time>2026-05-03T12:31:08.541Z</time></trkpt><trkpt lat="44.5726755" lon="9.9787804"><ele>631.6</ele><time>2026-05-03T12:31:09.541Z</time></trkpt><trkpt lat="44.572572" lon="9.9788457"><ele>632.2</ele><time>2026-05-03T12:31:10.541Z</time></trkpt><trkpt lat="44.5724677" lon="9.9789144"><ele>632.8</ele><time>2026-05-03T12:31:11.541Z</time></trkpt><trkpt lat="44.5723639" lon="9.9789733"><ele>633.4</ele><time>2026-05-03T12:31:12.541Z</time></trkpt><trkpt lat="44.572265" lon="9.979013"><ele>634.0</ele><time>2026-05-03T12:31:13.542Z</time></trkpt><trkpt lat="44.5721661" lon="9.9790238"><ele>634.0</ele><time>2026-05-03T12:31:14.542Z</time></trkpt><trkpt lat="44.5720771" lon="9.9789939"><ele>634.0</ele><time>2026-05-03T12:31:15.541Z</time></trkpt><trkpt lat="44.5720024" lon="9.9789213"><ele>634.0</ele><time>2026-05-03T12:31:16.541Z</time></trkpt><trkpt lat="44.5719332" lon="9.9788216"><ele>634.0</ele><time>2026-05-03T12:31:17.541Z</time></trkpt><trkpt lat="44.5718852" lon="9.9786985"><ele>634.0</ele><time>2026-05-03T12:31:18.541Z</time></trkpt><trkpt lat="44.5718239" lon="9.9785725"><ele>634.8</ele><time>2026-05-03T12:31:19.541Z</time></trkpt><trkpt lat="44.5717653" lon="9.9784416"><ele>635.5999999999999</ele><time>2026-05-03T12:31:20.541Z</time></trkpt><trkpt lat="44.5717028" lon="9.9783104"><ele>636.4</ele><time>2026-05-03T12:31:21.541Z</time></trkpt><trkpt lat="44.5716327" lon="9.9781916"><ele>637.1999999999999</ele><time>2026-05-03T12:31:22.541Z</time></trkpt><trkpt lat="44.5715425" lon="9.9781085"><ele>638.0</ele><time>2026-05-03T12:31:23.541Z</time></trkpt><trkpt lat="44.571442" lon="9.9780652"><ele>642.25</ele><time>2026-05-03T12:31:24.542Z</time></trkpt><trkpt lat="44.5713286" lon="9.9780499"><ele>646.5</ele><time>2026-05-03T12:31:25.541Z</time></trkpt><trkpt lat="44.5712093" lon="9.9780524"><ele>650.75</ele><time>2026-05-03T12:31:26.541Z</time></trkpt><trkpt lat="44.5710845" lon="9.9780619"><ele>655.0</ele><time>2026-05-03T12:31:27.541Z</time></trkpt><trkpt lat="44.570957" lon="9.978077"><ele>655.0</ele><time>2026-05-03T12:31:28.541Z</time></trkpt><trkpt lat="44.570822" lon="9.9780921"><ele>655.0</ele><time>2026-05-03T12:31:29.541Z</time></trkpt><trkpt lat="44.5706786" lon="9.9781279"><ele>655.0</ele><time>2026-05-03T12:31:30.542Z</time></trkpt><trkpt lat="44.5705391" lon="9.9781576"><ele>655.0</ele><time>2026-05-03T12:31:31.541Z</time></trkpt><trkpt lat="44.5703955" lon="9.9781874"><ele>653.75</ele><time>2026-05-03T12:31:32.541Z</time></trkpt><trkpt lat="44.5702505" lon="9.9782227"><ele>652.5</ele><time>2026-05-03T12:31:33.541Z</time></trkpt><trkpt lat="44.5701069" lon="9.9782723"><ele>651.25</ele><time>2026-05-03T12:31:34.541Z</time></trkpt><trkpt lat="44.5699777" lon="9.9783334"><ele>650.0</ele><time>2026-05-03T12:31:35.541Z</time></trkpt><trkpt lat="44.5698555" lon="9.9783875"><ele>650.0</ele><time>2026-05-03T12:31:36.541Z</time></trkpt><trkpt lat="44.5697282" lon="9.978426"><ele>650.0</ele><time>2026-05-03T12:31:37.541Z</time></trkpt><trkpt lat="44.5696026" lon="9.9784299"><ele>650.0</ele><time>2026-05-03T12:31:38.541Z</time></trkpt><trkpt lat="44.5694761" lon="9.9784086"><ele>650.0</ele><time>2026-05-03T12:31:39.541Z</time></trkpt><trkpt lat="44.5693473" lon="9.9783793"><ele>656.5</ele><time>2026-05-03T12:31:40.541Z</time></trkpt><trkpt lat="44.5692139" lon="9.9783453"><ele>663.0</ele><time>2026-05-03T12:31:41.541Z</time></trkpt><trkpt lat="44.5690865" lon="9.9783019"><ele>669.5</ele><time>2026-05-03T12:31:42.541Z</time></trkpt><trkpt lat="44.5689604" lon="9.9782475"><ele>676.0</ele><time>2026-05-03T12:31:43.541Z</time></trkpt><trkpt lat="44.5688358" lon="9.9781734"><ele>676.0</ele><time>2026-05-03T12:31:44.541Z</time></trkpt><trkpt lat="44.568717" lon="9.9780662"><ele>676.0</ele><time>2026-05-03T12:31:45.541Z</time></trkpt><trkpt lat="44.5685968" lon="9.97794"><ele>676.0</ele><time>2026-05-03T12:31:46.542Z</time></trkpt><trkpt lat="44.5684778" lon="9.9778113"><ele>676.0</ele><time>2026-05-03T12:31:47.541Z</time></trkpt><trkpt lat="44.568367" lon="9.9776909"><ele>677.0</ele><time>2026-05-03T12:31:48.542Z</time></trkpt><trkpt lat="44.5682697" lon="9.9775687"><ele>678.0</ele><time>2026-05-03T12:31:49.541Z</time></trkpt><trkpt lat="44.5681825" lon="9.9774342"><ele>679.0</ele><time>2026-05-03T12:31:50.541Z</time></trkpt><trkpt lat="44.5681078" lon="9.9772974"><ele>680.0</ele><time>2026-05-03T12:31:51.542Z</time></trkpt><trkpt lat="44.5680484" lon="9.9771662"><ele>680.0</ele><time>2026-05-03T12:31:52.541Z</time></trkpt><trkpt lat="44.5679775" lon="9.9770572"><ele>680.0</ele><time>2026-05-03T12:31:53.541Z</time></trkpt><trkpt lat="44.5678768" lon="9.9769832"><ele>680.0</ele><time>2026-05-03T12:31:54.541Z</time></trkpt><trkpt lat="44.5677629" lon="9.9769252"><ele>680.0</ele><time>2026-05-03T12:31:55.541Z</time></trkpt><trkpt lat="44.56764" lon="9.9768876"><ele>681.0</ele><time>2026-05-03T12:31:56.541Z</time></trkpt><trkpt lat="44.5675212" lon="9.9768414"><ele>682.0</ele><time>2026-05-03T12:31:57.541Z</time></trkpt><trkpt lat="44.5674175" lon="9.9767725"><ele>683.0</ele><time>2026-05-03T12:31:58.541Z</time></trkpt><trkpt lat="44.5673166" lon="9.9766793"><ele>684.0</ele><time>2026-05-03T12:31:59.541Z</time></trkpt><trkpt lat="44.5672374" lon="9.9765611"><ele>684.0</ele><time>2026-05-03T12:32:00.541Z</time></trkpt><trkpt lat="44.567168" lon="9.9764188"><ele>684.0</ele><time>2026-05-03T12:32:01.541Z</time></trkpt><trkpt lat="44.567101" lon="9.9762475"><ele>684.0</ele><time>2026-05-03T12:32:02.541Z</time></trkpt><trkpt lat="44.5670352" lon="9.9760725"><ele>684.0</ele><time>2026-05-03T12:32:03.542Z</time></trkpt><trkpt lat="44.5669635" lon="9.9758913"><ele>682.75</ele><time>2026-05-03T12:32:04.542Z</time></trkpt><trkpt lat="44.5668946" lon="9.9757126"><ele>681.5</ele><time>2026-05-03T12:32:05.542Z</time></trkpt><trkpt lat="44.5668308" lon="9.975534"><ele>680.25</ele><time>2026-05-03T12:32:06.541Z</time></trkpt><trkpt lat="44.5667912" lon="9.9753417"><ele>679.0</ele><time>2026-05-03T12:32:07.541Z</time></trkpt><trkpt lat="44.566777" lon="9.9751496"><ele>680.5</ele><time>2026-05-03T12:32:08.541Z</time></trkpt><trkpt lat="44.5667819" lon="9.9749609"><ele>682.0</ele><time>2026-05-03T12:32:09.541Z</time></trkpt><trkpt lat="44.5667872" lon="9.9747663"><ele>683.5</ele><time>2026-05-03T12:32:10.541Z</time></trkpt><trkpt lat="44.5668055" lon="9.9745738"><ele>685.0</ele><time>2026-05-03T12:32:11.541Z</time></trkpt><trkpt lat="44.5668255" lon="9.9743958"><ele>685.0</ele><time>2026-05-03T12:32:12.54Z</time></trkpt><trkpt lat="44.5668247" lon="9.9742147"><ele>685.0</ele><time>2026-05-03T12:32:13.54Z</time></trkpt><trkpt lat="44.5668065" lon="9.9740446"><ele>685.0</ele><time>2026-05-03T12:32:14.54Z</time></trkpt><trkpt lat="44.5667696" lon="9.9739082"><ele>685.0</ele><time>2026-05-03T12:32:15.54Z</time></trkpt><trkpt lat="44.566723" lon="9.9737827"><ele>685.8333333333334</ele><time>2026-05-03T12:32:16.54Z</time></trkpt><trkpt lat="44.5666802" lon="9.9736723"><ele>686.6666666666667</ele><time>2026-05-03T12:32:17.54Z</time></trkpt><trkpt lat="44.5666438" lon="9.9735894"><ele>687.5</ele><time>2026-05-03T12:32:18.541Z</time></trkpt><trkpt lat="44.5666017" lon="9.9734933"><ele>688.3333333333334</ele><time>2026-05-03T12:32:20.54Z</time></trkpt><trkpt lat="44.5665602" lon="9.9734006"><ele>689.1666666666666</ele><time>2026-05-03T12:32:24.54Z</time></trkpt><trkpt lat="44.5664939" lon="9.9733516"><ele>690.0</ele><time>2026-05-03T12:45:04.536Z</time></trkpt><trkpt lat="44.5664174" lon="9.9733026"><ele>690.4</ele><time>2026-05-03T12:45:13.536Z</time></trkpt><trkpt lat="44.5663252" lon="9.9732155"><ele>690.8</ele><time>2026-05-03T12:45:15.536Z</time></trkpt><trkpt lat="44.5662269" lon="9.9731457"><ele>691.2</ele><time>2026-05-03T12:45:17.536Z</time></trkpt><trkpt lat="44.5661399" lon="9.9730267"><ele>691.6</ele><time>2026-05-03T12:45:19.537Z</time></trkpt><trkpt lat="44.5660904" lon="9.9729606"><ele>692.0</ele><time>2026-05-03T12:45:20.536Z</time></trkpt><trkpt lat="44.5660424" lon="9.9728842"><ele>691.3333333333333</ele><time>2026-05-03T12:45:21.536Z</time></trkpt><trkpt lat="44.5659902" lon="9.9728023"><ele>690.6666666666666</ele><time>2026-05-03T12:45:22.536Z</time></trkpt><trkpt lat="44.5659416" lon="9.9727156"><ele>690.0</ele><time>2026-05-03T12:45:23.538Z</time></trkpt><trkpt lat="44.5658838" lon="9.9726209"><ele>689.3333333333334</ele><time>2026-05-03T12:45:24.536Z</time></trkpt><trkpt lat="44.5658273" lon="9.9725189"><ele>688.6666666666667</ele><time>2026-05-03T12:45:25.536Z</time></trkpt><trkpt lat="44.5657661" lon="9.9724207"><ele>688.0</ele><time>2026-05-03T12:45:26.537Z</time></trkpt><trkpt lat="44.5657037" lon="9.9723426"><ele>688.0</ele><time>2026-05-03T12:45:27.536Z</time></trkpt><trkpt lat="44.5656294" lon="9.9722852"><ele>688.0</ele><time>2026-05-03T12:45:28.536Z</time></trkpt><trkpt lat="44.5655583" lon="9.9722258"><ele>688.0</ele><time>2026-05-03T12:45:29.537Z</time></trkpt><trkpt lat="44.5654667" lon="9.9722531"><ele>688.0</ele><time>2026-05-03T12:45:30.537Z</time></trkpt><trkpt lat="44.5653853" lon="9.9722821"><ele>688.0</ele><time>2026-05-03T12:45:31.537Z</time></trkpt><trkpt lat="44.5653018" lon="9.9723376"><ele>688.0</ele><time>2026-05-03T12:45:32.537Z</time></trkpt><trkpt lat="44.5652173" lon="9.9723978"><ele>687.8</ele><time>2026-05-03T12:45:33.537Z</time></trkpt><trkpt lat="44.5651321" lon="9.9724612"><ele>687.5999999999999</ele><time>2026-05-03T12:45:34.536Z</time></trkpt><trkpt lat="44.5650458" lon="9.9725174"><ele>687.4000000000001</ele><time>2026-05-03T12:45:35.537Z</time></trkpt><trkpt lat="44.5649604" lon="9.9725709"><ele>687.2</ele><time>2026-05-03T12:45:36.536Z</time></trkpt><trkpt lat="44.5648752" lon="9.972627"><ele>687.0</ele><time>2026-05-03T12:45:37.536Z</time></trkpt><trkpt lat="44.5647968" lon="9.9726954"><ele>686.4000000000001</ele><time>2026-05-03T12:45:38.536Z</time></trkpt><trkpt lat="44.5647199" lon="9.9727752"><ele>685.8000000000001</ele><time>2026-05-03T12:45:39.536Z</time></trkpt><trkpt lat="44.5646475" lon="9.9728633"><ele>685.2</ele><time>2026-05-03T12:45:40.536Z</time></trkpt><trkpt lat="44.5645857" lon="9.9729399"><ele>684.6</ele><time>2026-05-03T12:45:41.536Z</time></trkpt><trkpt lat="44.5645227" lon="9.9730323"><ele>684.0</ele><time>2026-05-03T12:45:42.536Z</time></trkpt><trkpt lat="44.5644842" lon="9.9731451"><ele>684.0</ele><time>2026-05-03T12:45:43.536Z</time></trkpt><trkpt lat="44.5644322" lon="9.9732613"><ele>684.0</ele><time>2026-05-03T12:45:44.536Z</time></trkpt><trkpt lat="44.5643797" lon="9.9733768"><ele>684.0</ele><time>2026-05-03T12:45:45.537Z</time></trkpt><trkpt lat="44.5643131" lon="9.9734782"><ele>684.0</ele><time>2026-05-03T12:45:46.536Z</time></trkpt><trkpt lat="44.5642381" lon="9.9735661"><ele>684.0</ele><time>2026-05-03T12:45:47.536Z</time></trkpt><trkpt lat="44.5641566" lon="9.9736385"><ele>684.6</ele><time>2026-05-03T12:45:48.536Z</time></trkpt><trkpt lat="44.5640687" lon="9.9737029"><ele>685.2</ele><time>2026-05-03T12:45:49.536Z</time></trkpt><trkpt lat="44.5639806" lon="9.9737658"><ele>685.8000000000001</ele><time>2026-05-03T12:45:50.536Z</time></trkpt><trkpt lat="44.5638979" lon="9.97382"><ele>686.4000000000001</ele><time>2026-05-03T12:45:51.536Z</time></trkpt><trkpt lat="44.563815" lon="9.9738949"><ele>687.0</ele><time>2026-05-03T12:45:52.536Z</time></trkpt><trkpt lat="44.5637343" lon="9.9739866"><ele>685.6</ele><time>2026-05-03T12:45:53.536Z</time></trkpt><trkpt lat="44.5636481" lon="9.9740694"><ele>684.2</ele><time>2026-05-03T12:45:54.536Z</time></trkpt><trkpt lat="44.5635621" lon="9.9741611"><ele>682.8</ele><time>2026-05-03T12:45:55.536Z</time></trkpt><trkpt lat="44.5634811" lon="9.9742438"><ele>681.4</ele><time>2026-05-03T12:45:56.536Z</time></trkpt><trkpt lat="44.5633978" lon="9.9743255"><ele>680.0</ele><time>2026-05-03T12:45:57.537Z</time></trkpt><trkpt lat="44.5633053" lon="9.9744193"><ele>679.25</ele><time>2026-05-03T12:45:58.537Z</time></trkpt><trkpt lat="44.5632051" lon="9.9745019"><ele>678.5</ele><time>2026-05-03T12:45:59.536Z</time></trkpt><trkpt lat="44.5630976" lon="9.9745658"><ele>677.75</ele><time>2026-05-03T12:46:00.536Z</time></trkpt><trkpt lat="44.5629837" lon="9.974605"><ele>677.0</ele><time>2026-05-03T12:46:01.536Z</time></trkpt><trkpt lat="44.562867" lon="9.9746114"><ele>678.75</ele><time>2026-05-03T12:46:02.536Z</time></trkpt><trkpt lat="44.5627525" lon="9.974595"><ele>680.5</ele><time>2026-05-03T12:46:03.536Z</time></trkpt><trkpt lat="44.5626495" lon="9.9745604"><ele>682.25</ele><time>2026-05-03T12:46:04.537Z</time></trkpt><trkpt lat="44.5625358" lon="9.9745285"><ele>684.0</ele><time>2026-05-03T12:46:05.536Z</time></trkpt><trkpt lat="44.5624207" lon="9.9745006"><ele>684.0</ele><time>2026-05-03T12:46:06.536Z</time></trkpt><trkpt lat="44.5623023" lon="9.9744842"><ele>684.0</ele><time>2026-05-03T12:46:07.536Z</time></trkpt><trkpt lat="44.5621863" lon="9.9744741"><ele>684.0</ele><time>2026-05-03T12:46:08.538Z</time></trkpt><trkpt lat="44.5620683" lon="9.9744743"><ele>684.0</ele><time>2026-05-03T12:46:09.536Z</time></trkpt><trkpt lat="44.5619472" lon="9.9744746"><ele>683.5</ele><time>2026-05-03T12:46:10.537Z</time></trkpt><trkpt lat="44.5618279" lon="9.9744841"><ele>683.0</ele><time>2026-05-03T12:46:11.536Z</time></trkpt><trkpt lat="44.5617097" lon="9.9744851"><ele>682.5</ele><time>2026-05-03T12:46:12.536Z</time></trkpt><trkpt lat="44.5615905" lon="9.9744809"><ele>682.0</ele><time>2026-05-03T12:46:13.536Z</time></trkpt><trkpt lat="44.5614724" lon="9.9744548"><ele>682.0</ele><time>2026-05-03T12:46:14.536Z</time></trkpt><trkpt lat="44.5613625" lon="9.9744055"><ele>682.0</ele><time>2026-05-03T12:46:15.537Z</time></trkpt><trkpt lat="44.5612476" lon="9.9743488"><ele>682.0</ele><time>2026-05-03T12:46:16.536Z</time></trkpt><trkpt lat="44.5611347" lon="9.9742832"><ele>682.0</ele><time>2026-05-03T12:46:17.536Z</time></trkpt><trkpt lat="44.5610215" lon="9.9742198"><ele>682.25</ele><time>2026-05-03T12:46:18.536Z</time></trkpt><trkpt lat="44.5609063" lon="9.9741569"><ele>682.5</ele><time>2026-05-03T12:46:19.536Z</time></trkpt><trkpt lat="44.5607925" lon="9.9740956"><ele>682.75</ele><time>2026-05-03T12:46:20.536Z</time></trkpt><trkpt lat="44.560678" lon="9.9740355"><ele>683.0</ele><time>2026-05-03T12:46:21.536Z</time></trkpt><trkpt lat="44.5605633" lon="9.9739793"><ele>683.0</ele><time>2026-05-03T12:46:22.536Z</time></trkpt><trkpt lat="44.5604549" lon="9.9739359"><ele>683.0</ele><time>2026-05-03T12:46:23.536Z</time></trkpt><trkpt lat="44.560341" lon="9.9738949"><ele>683.0</ele><time>2026-05-03T12:46:24.536Z</time></trkpt><trkpt lat="44.5602264" lon="9.9738597"><ele>683.0</ele><time>2026-05-03T12:46:25.536Z</time></trkpt><trkpt lat="44.5601115" lon="9.9738273"><ele>683.25</ele><time>2026-05-03T12:46:26.536Z</time></trkpt><trkpt lat="44.5599949" lon="9.9737993"><ele>683.5</ele><time>2026-05-03T12:46:27.536Z</time></trkpt><trkpt lat="44.5598803" lon="9.9737654"><ele>683.75</ele><time>2026-05-03T12:46:28.536Z</time></trkpt><trkpt lat="44.5597672" lon="9.9737231"><ele>684.0</ele><time>2026-05-03T12:46:29.537Z</time></trkpt><trkpt lat="44.5596547" lon="9.973668"><ele>684.0</ele><time>2026-05-03T12:46:30.536Z</time></trkpt><trkpt lat="44.5595498" lon="9.9735995"><ele>684.0</ele><time>2026-05-03T12:46:31.536Z</time></trkpt><trkpt lat="44.5594436" lon="9.9735307"><ele>684.0</ele><time>2026-05-03T12:46:32.537Z</time></trkpt><trkpt lat="44.5593345" lon="9.9734619"><ele>684.0</ele><time>2026-05-03T12:46:33.536Z</time></trkpt><trkpt lat="44.559232" lon="9.9734031"><ele>685.0</ele><time>2026-05-03T12:46:34.537Z</time></trkpt><trkpt lat="44.5591227" lon="9.9733324"><ele>686.0</ele><time>2026-05-03T12:46:35.536Z</time></trkpt><trkpt lat="44.55902" lon="9.9732525"><ele>687.0</ele><time>2026-05-03T12:46:36.536Z</time></trkpt><trkpt lat="44.5589173" lon="9.9731679"><ele>688.0</ele><time>2026-05-03T12:46:37.536Z</time></trkpt><trkpt lat="44.5588131" lon="9.9730771"><ele>688.0</ele><time>2026-05-03T12:46:38.536Z</time></trkpt><trkpt lat="44.5587081" lon="9.9729781"><ele>688.0</ele><time>2026-05-03T12:46:39.536Z</time></trkpt><trkpt lat="44.5586025" lon="9.972874"><ele>688.0</ele><time>2026-05-03T12:46:40.537Z</time></trkpt><trkpt lat="44.558499" lon="9.9727682"><ele>688.0</ele><time>2026-05-03T12:46:41.537Z</time></trkpt><trkpt lat="44.5583984" lon="9.9726617"><ele>689.75</ele><time>2026-05-03T12:46:42.537Z</time></trkpt><trkpt lat="44.5583" lon="9.9725513"><ele>691.5</ele><time>2026-05-03T12:46:43.536Z</time></trkpt><trkpt lat="44.5582024" lon="9.9724443"><ele>693.25</ele><time>2026-05-03T12:46:44.537Z</time></trkpt><trkpt lat="44.5581016" lon="9.9723457"><ele>695.0</ele><time>2026-05-03T12:46:45.537Z</time></trkpt><trkpt lat="44.558004" lon="9.9722513"><ele>695.0</ele><time>2026-05-03T12:46:46.536Z</time></trkpt><trkpt lat="44.5579136" lon="9.9721526"><ele>695.0</ele><time>2026-05-03T12:46:47.537Z</time></trkpt><trkpt lat="44.5578239" lon="9.9720616"><ele>695.0</ele><time>2026-05-03T12:46:48.537Z</time></trkpt><trkpt lat="44.5577434" lon="9.9719708"><ele>695.0</ele><time>2026-05-03T12:46:49.537Z</time></trkpt><trkpt lat="44.5576583" lon="9.971892"><ele>695.0</ele><time>2026-05-03T12:46:50.536Z</time></trkpt><trkpt lat="44.5575727" lon="9.971823"><ele>697.4</ele><time>2026-05-03T12:46:51.537Z</time></trkpt><trkpt lat="44.5574762" lon="9.9717963"><ele>699.8</ele><time>2026-05-03T12:46:52.537Z</time></trkpt><trkpt lat="44.5573904" lon="9.9717646"><ele>702.2</ele><time>2026-05-03T12:46:53.536Z</time></trkpt><trkpt lat="44.5572996" lon="9.9717347"><ele>704.6</ele><time>2026-05-03T12:46:54.536Z</time></trkpt><trkpt lat="44.557224" lon="9.9716785"><ele>707.0</ele><time>2026-05-03T12:46:55.536Z</time></trkpt><trkpt lat="44.5571267" lon="9.9716213"><ele>708.6</ele><time>2026-05-03T12:46:56.536Z</time></trkpt><trkpt lat="44.5570344" lon="9.9715594"><ele>710.2</ele><time>2026-05-03T12:46:57.536Z</time></trkpt><trkpt lat="44.5569578" lon="9.9714601"><ele>711.8</ele><time>2026-05-03T12:46:58.536Z</time></trkpt><trkpt lat="44.556868" lon="9.9713609"><ele>713.4</ele><time>2026-05-03T12:46:59.536Z</time></trkpt><trkpt lat="44.5567694" lon="9.9712674"><ele>715.0</ele><time>2026-05-03T12:47:00.536Z</time></trkpt><trkpt lat="44.5566824" lon="9.9711514"><ele>715.0</ele><time>2026-05-03T12:47:01.536Z</time></trkpt><trkpt lat="44.5565928" lon="9.971031"><ele>715.0</ele><time>2026-05-03T12:47:02.536Z</time></trkpt><trkpt lat="44.5565112" lon="9.9709022"><ele>715.0</ele><time>2026-05-03T12:47:03.536Z</time></trkpt><trkpt lat="44.5564377" lon="9.9707765"><ele>715.0</ele><time>2026-05-03T12:47:04.538Z</time></trkpt><trkpt lat="44.5563647" lon="9.9706451"><ele>713.5</ele><time>2026-05-03T12:47:05.537Z</time></trkpt><trkpt lat="44.5562726" lon="9.9705325"><ele>712.0</ele><time>2026-05-03T12:47:06.538Z</time></trkpt><trkpt lat="44.5561906" lon="9.9704005"><ele>710.5</ele><time>2026-05-03T12:47:07.537Z</time></trkpt><trkpt lat="44.5560993" lon="9.970283"><ele>709.0</ele><time>2026-05-03T12:47:08.536Z</time></trkpt><trkpt lat="44.5560105" lon="9.9701707"><ele>710.0</ele><time>2026-05-03T12:47:09.536Z</time></trkpt><trkpt lat="44.5559346" lon="9.9700629"><ele>711.0</ele><time>2026-05-03T12:47:10.536Z</time></trkpt><trkpt lat="44.5558552" lon="9.9699445"><ele>712.0</ele><time>2026-05-03T12:47:11.537Z</time></trkpt><trkpt lat="44.5557571" lon="9.9698451"><ele>713.0</ele><time>2026-05-03T12:47:12.536Z</time></trkpt><trkpt lat="44.5556359" lon="9.9697488"><ele>713.0</ele><time>2026-05-03T12:47:13.536Z</time></trkpt><trkpt lat="44.5555403" lon="9.9696532"><ele>713.0</ele><time>2026-05-03T12:47:14.536Z</time></trkpt><trkpt lat="44.5554365" lon="9.9695639"><ele>713.0</ele><time>2026-05-03T12:47:15.536Z</time></trkpt><trkpt lat="44.5553369" lon="9.96947"><ele>713.0</ele><time>2026-05-03T12:47:16.536Z</time></trkpt><trkpt lat="44.5552406" lon="9.9693733"><ele>713.0</ele><time>2026-05-03T12:47:17.536Z</time></trkpt><trkpt lat="44.5551389" lon="9.9692962"><ele>713.0</ele><time>2026-05-03T12:47:18.536Z</time></trkpt><trkpt lat="44.5550417" lon="9.9692249"><ele>713.0</ele><time>2026-05-03T12:47:19.536Z</time></trkpt><trkpt lat="44.5549603" lon="9.9691352"><ele>713.0</ele><time>2026-05-03T12:47:20.536Z</time></trkpt><trkpt lat="44.5548866" lon="9.9690341"><ele>713.0</ele><time>2026-05-03T12:47:21.536Z</time></trkpt><trkpt lat="44.5548146" lon="9.9689169"><ele>713.0</ele><time>2026-05-03T12:47:22.537Z</time></trkpt><trkpt lat="44.5547278" lon="9.9687971"><ele>713.0</ele><time>2026-05-03T12:47:23.536Z</time></trkpt><trkpt lat="44.5546365" lon="9.9686828"><ele>713.0</ele><time>2026-05-03T12:47:24.536Z</time></trkpt><trkpt lat="44.5545475" lon="9.9685599"><ele>713.0</ele><time>2026-05-03T12:47:25.536Z</time></trkpt><trkpt lat="44.554471" lon="9.9684307"><ele>714.0</ele><time>2026-05-03T12:47:26.536Z</time></trkpt><trkpt lat="44.5544005" lon="9.9682942"><ele>715.0</ele><time>2026-05-03T12:47:27.536Z</time></trkpt><trkpt lat="44.5543457" lon="9.9681616"><ele>716.0</ele><time>2026-05-03T12:47:28.537Z</time></trkpt><trkpt lat="44.5543096" lon="9.968065"><ele>717.0</ele><time>2026-05-03T12:47:29.536Z</time></trkpt><trkpt lat="44.5542599" lon="9.9679977"><ele>718.0</ele><time>2026-05-03T12:47:30.536Z</time></trkpt><trkpt lat="44.5541928" lon="9.967955"><ele>718.0</ele><time>2026-05-03T12:47:31.536Z</time></trkpt><trkpt lat="44.5541109" lon="9.9679091"><ele>718.0</ele><time>2026-05-03T12:47:32.536Z</time></trkpt><trkpt lat="44.5540577" lon="9.9678399"><ele>718.0</ele><time>2026-05-03T12:47:33.536Z</time></trkpt><trkpt lat="44.5540281" lon="9.9677559"><ele>718.0</ele><time>2026-05-03T12:47:34.536Z</time></trkpt><trkpt lat="44.5540098" lon="9.9676605"><ele>718.0</ele><time>2026-05-03T12:47:35.536Z</time></trkpt><trkpt lat="44.5540249" lon="9.9675498"><ele>718.0</ele><time>2026-05-03T12:47:36.536Z</time></trkpt><trkpt lat="44.554065" lon="9.9674528"><ele>717.1666666666667</ele><time>2026-05-03T12:47:37.536Z</time></trkpt><trkpt lat="44.5541229" lon="9.9673815"><ele>716.3333333333334</ele><time>2026-05-03T12:47:38.536Z</time></trkpt><trkpt lat="44.554174" lon="9.9673104"><ele>715.5</ele><time>2026-05-03T12:47:39.536Z</time></trkpt><trkpt lat="44.5542274" lon="9.96723"><ele>714.6666666666666</ele><time>2026-05-03T12:47:40.536Z</time></trkpt><trkpt lat="44.5542605" lon="9.9671225"><ele>713.8333333333333</ele><time>2026-05-03T12:47:41.536Z</time></trkpt><trkpt lat="44.5542821" lon="9.9670226"><ele>713.0</ele><time>2026-05-03T12:47:42.536Z</time></trkpt><trkpt lat="44.5542929" lon="9.9669198"><ele>713.0</ele><time>2026-05-03T12:47:43.536Z</time></trkpt><trkpt lat="44.5542902" lon="9.9668276"><ele>713.0</ele><time>2026-05-03T12:47:44.536Z</time></trkpt><trkpt lat="44.5542735" lon="9.9667365"><ele>713.0</ele><time>2026-05-03T12:47:45.536Z</time></trkpt><trkpt lat="44.5542472" lon="9.9666384"><ele>713.0</ele><time>2026-05-03T12:47:46.536Z</time></trkpt><trkpt lat="44.5542213" lon="9.9665451"><ele>713.0</ele><time>2026-05-03T12:47:47.536Z</time></trkpt><trkpt lat="44.5541943" lon="9.9664519"><ele>713.0</ele><time>2026-05-03T12:47:48.536Z</time></trkpt><trkpt lat="44.5541568" lon="9.966366"><ele>713.0</ele><time>2026-05-03T12:47:49.536Z</time></trkpt><trkpt lat="44.5541137" lon="9.9662794"><ele>713.5</ele><time>2026-05-03T12:47:50.536Z</time></trkpt><trkpt lat="44.5540802" lon="9.9661983"><ele>714.0</ele><time>2026-05-03T12:47:51.536Z</time></trkpt><trkpt lat="44.5540452" lon="9.9661241"><ele>714.5</ele><time>2026-05-03T12:47:52.537Z</time></trkpt><trkpt lat="44.55402" lon="9.9660202"><ele>715.0</ele><time>2026-05-03T12:47:54.536Z</time></trkpt><trkpt lat="44.5539986" lon="9.965867"><ele>715.5</ele><time>2026-05-03T12:47:56.537Z</time></trkpt><trkpt lat="44.5539696" lon="9.9657277"><ele>716.0</ele><time>2026-05-03T12:47:58.536Z</time></trkpt><trkpt lat="44.5539662" lon="9.9655848"><ele>714.8</ele><time>2026-05-03T12:48:00.535Z</time></trkpt><trkpt lat="44.5539201" lon="9.9654678"><ele>713.5999999999999</ele><time>2026-05-03T12:48:02.535Z</time></trkpt><trkpt lat="44.553855" lon="9.9653925"><ele>712.4</ele><time>2026-05-03T12:48:04.536Z</time></trkpt><trkpt lat="44.5537764" lon="9.9653356"><ele>711.2</ele><time>2026-05-03T12:48:06.536Z</time></trkpt><trkpt lat="44.5536832" lon="9.9652797"><ele>710.0</ele><time>2026-05-03T12:48:08.535Z</time></trkpt><trkpt lat="44.5535906" lon="9.9652342"><ele>712.8</ele><time>2026-05-03T12:48:10.535Z</time></trkpt><trkpt lat="44.5534947" lon="9.9651558"><ele>715.6</ele><time>2026-05-03T12:48:12.535Z</time></trkpt><trkpt lat="44.5534329" lon="9.9650558"><ele>718.4000000000001</ele><time>2026-05-03T12:48:14.535Z</time></trkpt><trkpt lat="44.553382" lon="9.9649852"><ele>721.2</ele><time>2026-05-03T12:48:15.535Z</time></trkpt><trkpt lat="44.5533399" lon="9.9648875"><ele>724.0</ele><time>2026-05-03T12:48:16.535Z</time></trkpt><trkpt lat="44.5532868" lon="9.9647781"><ele>724.0</ele><time>2026-05-03T12:48:17.535Z</time></trkpt><trkpt lat="44.5532553" lon="9.9646558"><ele>724.0</ele><time>2026-05-03T12:48:18.535Z</time></trkpt><trkpt lat="44.5532148" lon="9.964543"><ele>724.0</ele><time>2026-05-03T12:48:19.536Z</time></trkpt><trkpt lat="44.5531438" lon="9.9643952"><ele>724.0</ele><time>2026-05-03T12:48:21.535Z</time></trkpt><trkpt lat="44.5530979" lon="9.9643136"><ele>724.0</ele><time>2026-05-03T12:48:22.535Z</time></trkpt><trkpt lat="44.553035" lon="9.9642393"><ele>722.8000000000001</ele><time>2026-05-03T12:48:23.535Z</time></trkpt><trkpt lat="44.5529735" lon="9.9641853"><ele>721.6</ele><time>2026-05-03T12:48:24.536Z</time></trkpt><trkpt lat="44.5528899" lon="9.9640853"><ele>720.4</ele><time>2026-05-03T12:48:26.535Z</time></trkpt><trkpt lat="44.5528501" lon="9.963953"><ele>719.2</ele><time>2026-05-03T12:48:28.535Z</time></trkpt><trkpt lat="44.5528907" lon="9.963859"><ele>718.0</ele><time>2026-05-03T12:48:31.535Z</time></trkpt><trkpt lat="44.5529794" lon="9.9637143"><ele>718.0</ele><time>2026-05-03T12:48:33.535Z</time></trkpt><trkpt lat="44.5530328" lon="9.963544"><ele>718.0</ele><time>2026-05-03T12:48:35.535Z</time></trkpt><trkpt lat="44.5530288" lon="9.9634521"><ele>718.0</ele><time>2026-05-03T12:48:36.535Z</time></trkpt><trkpt lat="44.5530346" lon="9.963354"><ele>718.0</ele><time>2026-05-03T12:48:37.535Z</time></trkpt><trkpt lat="44.5530424" lon="9.9631942"><ele>718.0</ele><time>2026-05-03T12:48:39.535Z</time></trkpt><trkpt lat="44.5530391" lon="9.9630323"><ele>716.5999999999999</ele><time>2026-05-03T12:48:41.535Z</time></trkpt><trkpt lat="44.5530713" lon="9.9628581"><ele>715.1999999999999</ele><time>2026-05-03T12:48:43.535Z</time></trkpt><trkpt lat="44.5530544" lon="9.9626837"><ele>713.8</ele><time>2026-05-03T12:48:45.535Z</time></trkpt><trkpt lat="44.5530616" lon="9.9625672"><ele>712.4</ele><time>2026-05-03T12:48:46.535Z</time></trkpt><trkpt lat="44.5530636" lon="9.9624747"><ele>711.0</ele><time>2026-05-03T12:48:47.536Z</time></trkpt><trkpt lat="44.5530521" lon="9.9623764"><ele>709.0</ele><time>2026-05-03T12:48:48.535Z</time></trkpt><trkpt lat="44.5530293" lon="9.9622781"><ele>707.0</ele><time>2026-05-03T12:48:50.535Z</time></trkpt><trkpt lat="44.5530084" lon="9.9621834"><ele>705.0</ele><time>2026-05-03T12:48:51.535Z</time></trkpt><trkpt lat="44.5529859" lon="9.9620997"><ele>703.0</ele><time>2026-05-03T12:48:52.536Z</time></trkpt><trkpt lat="44.5529305" lon="9.9619028"><ele>701.0</ele><time>2026-05-03T12:48:54.535Z</time></trkpt><trkpt lat="44.5529099" lon="9.9617953"><ele>699.0</ele><time>2026-05-03T12:48:55.535Z</time></trkpt><trkpt lat="44.5528972" lon="9.9616679"><ele>697.8333333333334</ele><time>2026-05-03T12:48:56.535Z</time></trkpt><trkpt lat="44.5528796" lon="9.9614976"><ele>696.6666666666666</ele><time>2026-05-03T12:48:58.535Z</time></trkpt><trkpt lat="44.552836" lon="9.9613626"><ele>695.5</ele><time>2026-05-03T12:49:00.535Z</time></trkpt><trkpt lat="44.5528141" lon="9.9612695"><ele>694.3333333333333</ele><time>2026-05-03T12:49:01.535Z</time></trkpt><trkpt lat="44.5527996" lon="9.9611637"><ele>693.1666666666666</ele><time>2026-05-03T12:49:02.536Z</time></trkpt><trkpt lat="44.5528017" lon="9.9610662"><ele>692.0</ele><time>2026-05-03T12:49:03.535Z</time></trkpt><trkpt lat="44.5527958" lon="9.9609366"><ele>694.1666666666666</ele><time>2026-05-03T12:49:04.535Z</time></trkpt><trkpt lat="44.5528089" lon="9.9608235"><ele>696.3333333333333</ele><time>2026-05-03T12:49:05.535Z</time></trkpt><trkpt lat="44.5528393" lon="9.9607131"><ele>698.5</ele><time>2026-05-03T12:49:06.535Z</time></trkpt><trkpt lat="44.5528565" lon="9.9606176"><ele>700.6666666666666</ele><time>2026-05-03T12:49:08.535Z</time></trkpt><trkpt lat="44.5528555" lon="9.96043"><ele>702.8333333333334</ele><time>2026-05-03T12:49:10.535Z</time></trkpt><trkpt lat="44.5528492" lon="9.9603304"><ele>705.0</ele><time>2026-05-03T12:49:11.536Z</time></trkpt><trkpt lat="44.5528128" lon="9.9601875"><ele>705.0</ele><time>2026-05-03T12:49:12.535Z</time></trkpt><trkpt lat="44.5528017" lon="9.9600752"><ele>705.0</ele><time>2026-05-03T12:49:13.535Z</time></trkpt><trkpt lat="44.552763" lon="9.9599494"><ele>705.0</ele><time>2026-05-03T12:49:14.535Z</time></trkpt><trkpt lat="44.5527581" lon="9.9598465"><ele>705.0</ele><time>2026-05-03T12:49:15.536Z</time></trkpt><trkpt lat="44.5527527" lon="9.9596746"><ele>705.0</ele><time>2026-05-03T12:49:17.535Z</time></trkpt><trkpt lat="44.5527561" lon="9.9594818"><ele>702.8333333333334</ele><time>2026-05-03T12:49:19.536Z</time></trkpt><trkpt lat="44.5527369" lon="9.9593557"><ele>700.6666666666666</ele><time>2026-05-03T12:49:20.535Z</time></trkpt><trkpt lat="44.5527961" lon="9.9592217"><ele>698.5</ele><time>2026-05-03T12:49:22.535Z</time></trkpt><trkpt lat="44.5528367" lon="9.9591442"><ele>696.3333333333333</ele><time>2026-05-03T12:49:23.535Z</time></trkpt><trkpt lat="44.5528898" lon="9.9590632"><ele>694.1666666666666</ele><time>2026-05-03T12:49:24.535Z</time></trkpt><trkpt lat="44.5529381" lon="9.958979"><ele>692.0</ele><time>2026-05-03T12:49:25.535Z</time></trkpt><trkpt lat="44.552993" lon="9.9588339"><ele>688.0</ele><time>2026-05-03T12:49:27.535Z</time></trkpt><trkpt lat="44.5530101" lon="9.9587274"><ele>684.0</ele><time>2026-05-03T12:49:28.535Z</time></trkpt><trkpt lat="44.5530184" lon="9.958631"><ele>680.0</ele><time>2026-05-03T12:49:29.535Z</time></trkpt><trkpt lat="44.5530519" lon="9.9585042"><ele>676.0</ele><time>2026-05-03T12:49:31.535Z</time></trkpt><trkpt lat="44.5531138" lon="9.9584842"><ele>672.0</ele><time>2026-05-03T12:49:32.535Z</time></trkpt><trkpt lat="44.553177" lon="9.9583717"><ele>668.0</ele><time>2026-05-03T12:49:34.535Z</time></trkpt><trkpt lat="44.5532373" lon="9.9582042"><ele>667.0</ele><time>2026-05-03T12:49:36.535Z</time></trkpt><trkpt lat="44.5532599" lon="9.9580635"><ele>666.0</ele><time>2026-05-03T12:49:38.535Z</time></trkpt><trkpt lat="44.5533369" lon="9.9579108"><ele>665.0</ele><time>2026-05-03T12:49:40.535Z</time></trkpt><trkpt lat="44.5533778" lon="9.9578324"><ele>664.0</ele><time>2026-05-03T12:49:41.535Z</time></trkpt><trkpt lat="44.5534402" lon="9.9576719"><ele>663.0</ele><time>2026-05-03T12:49:43.535Z</time></trkpt><trkpt lat="44.5534981" lon="9.9574957"><ele>663.0</ele><time>2026-05-03T12:49:45.535Z</time></trkpt><trkpt lat="44.5535291" lon="9.957407"><ele>663.0</ele><time>2026-05-03T12:49:46.535Z</time></trkpt><trkpt lat="44.5535902" lon="9.957264"><ele>663.0</ele><time>2026-05-03T12:49:48.535Z</time></trkpt><trkpt lat="44.553655" lon="9.9571502"><ele>663.0</ele><time>2026-05-03T12:49:50.535Z</time></trkpt><trkpt lat="44.55371" lon="9.9570658"><ele>663.0</ele><time>2026-05-03T12:49:52.536Z</time></trkpt><trkpt lat="44.5537614" lon="9.9569849"><ele>663.0</ele><time>2026-05-03T12:49:54.535Z</time></trkpt><trkpt lat="44.5538461" lon="9.9568701"><ele>663.0</ele><time>2026-05-03T12:49:56.535Z</time></trkpt><trkpt lat="44.5539246" lon="9.9567464"><ele>663.0</ele><time>2026-05-03T12:49:58.535Z</time></trkpt><trkpt lat="44.553994" lon="9.9566079"><ele>663.0</ele><time>2026-05-03T12:50:00.536Z</time></trkpt><trkpt lat="44.5540399" lon="9.9564564"><ele>662.8333333333334</ele><time>2026-05-03T12:50:02.535Z</time></trkpt><trkpt lat="44.5540585" lon="9.9563631"><ele>662.6666666666666</ele><time>2026-05-03T12:50:03.535Z</time></trkpt><trkpt lat="44.5540747" lon="9.956272"><ele>662.5</ele><time>2026-05-03T12:50:04.535Z</time></trkpt><trkpt lat="44.5540884" lon="9.9561251"><ele>662.3333333333333</ele><time>2026-05-03T12:50:06.535Z</time></trkpt><trkpt lat="44.5540877" lon="9.9560258"><ele>662.1666666666666</ele><time>2026-05-03T12:50:07.535Z</time></trkpt><trkpt lat="44.55409" lon="9.9559222"><ele>662.0</ele><time>2026-05-03T12:50:08.535Z</time></trkpt><trkpt lat="44.5540874" lon="9.9558239"><ele>660.4000000000001</ele><time>2026-05-03T12:50:09.535Z</time></trkpt><trkpt lat="44.5540782" lon="9.9556637"><ele>658.8000000000001</ele><time>2026-05-03T12:50:11.535Z</time></trkpt><trkpt lat="44.5540617" lon="9.9554988"><ele>657.2</ele><time>2026-05-03T12:50:13.535Z</time></trkpt><trkpt lat="44.5540576" lon="9.955359"><ele>655.6</ele><time>2026-05-03T12:50:15.535Z</time></trkpt><trkpt lat="44.5540571" lon="9.9552344"><ele>654.0</ele><time>2026-05-03T12:50:17.536Z</time></trkpt><trkpt lat="44.5540298" lon="9.9551156"><ele>652.5</ele><time>2026-05-03T12:50:19.535Z</time></trkpt><trkpt lat="44.5540316" lon="9.9550134"><ele>651.0</ele><time>2026-05-03T12:50:21.535Z</time></trkpt><trkpt lat="44.5540809" lon="9.9549072"><ele>649.5</ele><time>2026-05-03T12:50:23.535Z</time></trkpt><trkpt lat="44.5541256" lon="9.9548386"><ele>648.0</ele><time>2026-05-03T12:50:24.535Z</time></trkpt><trkpt lat="44.5541579" lon="9.9546845"><ele>646.5</ele><time>2026-05-03T12:50:26.535Z</time></trkpt><trkpt lat="44.5541616" lon="9.9545818"><ele>645.0</ele><time>2026-05-03T12:50:27.535Z</time></trkpt><trkpt lat="44.5541593" lon="9.9544736"><ele>645.0</ele><time>2026-05-03T12:50:28.535Z</time></trkpt><trkpt lat="44.5541473" lon="9.9543798"><ele>645.0</ele><time>2026-05-03T12:50:29.535Z</time></trkpt><trkpt lat="44.5541343" lon="9.954287"><ele>645.0</ele><time>2026-05-03T12:50:30.535Z</time></trkpt><trkpt lat="44.5541591" lon="9.9541386"><ele>645.0</ele><time>2026-05-03T12:50:32.535Z</time></trkpt><trkpt lat="44.5542372" lon="9.9540499"><ele>645.0</ele><time>2026-05-03T12:50:34.535Z</time></trkpt><trkpt lat="44.5543207" lon="9.9539421"><ele>643.8333333333334</ele><time>2026-05-03T12:50:36.535Z</time></trkpt><trkpt lat="44.5543805" lon="9.9538131"><ele>642.6666666666666</ele><time>2026-05-03T12:50:38.535Z</time></trkpt><trkpt lat="44.5544125" lon="9.95373"><ele>641.5</ele><time>2026-05-03T12:50:39.535Z</time></trkpt><trkpt lat="44.5544307" lon="9.9536454"><ele>640.3333333333333</ele><time>2026-05-03T12:50:40.535Z</time></trkpt><trkpt lat="44.5544294" lon="9.9535544"><ele>639.1666666666666</ele><time>2026-05-03T12:50:41.535Z</time></trkpt><trkpt lat="44.5544356" lon="9.9534552"><ele>638.0</ele><time>2026-05-03T12:50:42.536Z</time></trkpt><trkpt lat="44.5544153" lon="9.9533336"><ele>637.1666666666666</ele><time>2026-05-03T12:50:43.535Z</time></trkpt><trkpt lat="44.5543911" lon="9.9532352"><ele>636.3333333333333</ele><time>2026-05-03T12:50:44.535Z</time></trkpt><trkpt lat="44.5543685" lon="9.9531432"><ele>635.5</ele><time>2026-05-03T12:50:45.536Z</time></trkpt><trkpt lat="44.5543449" lon="9.9530499"><ele>634.6666666666666</ele><time>2026-05-03T12:50:46.536Z</time></trkpt><trkpt lat="44.5543245" lon="9.9529572"><ele>633.8333333333334</ele><time>2026-05-03T12:50:47.535Z</time></trkpt><trkpt lat="44.5543045" lon="9.9528686"><ele>633.0</ele><time>2026-05-03T12:50:48.535Z</time></trkpt><trkpt lat="44.5542622" lon="9.9527038"><ele>633.0</ele><time>2026-05-03T12:50:50.536Z</time></trkpt><trkpt lat="44.5542263" lon="9.9526094"><ele>633.0</ele><time>2026-05-03T12:50:51.535Z</time></trkpt><trkpt lat="44.5541972" lon="9.9524953"><ele>633.0</ele><time>2026-05-03T12:50:52.535Z</time></trkpt><trkpt lat="44.5541609" lon="9.9523823"><ele>633.0</ele><time>2026-05-03T12:50:53.536Z</time></trkpt><trkpt lat="44.5541443" lon="9.9522799"><ele>633.0</ele><time>2026-05-03T12:50:54.535Z</time></trkpt><trkpt lat="44.5541356" lon="9.9521492"><ele>633.0</ele><time>2026-05-03T12:50:55.535Z</time></trkpt><trkpt lat="44.5541279" lon="9.9520195"><ele>632.8333333333334</ele><time>2026-05-03T12:50:56.536Z</time></trkpt><trkpt lat="44.5541085" lon="9.9519193"><ele>632.6666666666666</ele><time>2026-05-03T12:50:57.535Z</time></trkpt><trkpt lat="44.5540931" lon="9.9518125"><ele>632.5</ele><time>2026-05-03T12:50:58.535Z</time></trkpt><trkpt lat="44.5540715" lon="9.951721"><ele>632.3333333333333</ele><time>2026-05-03T12:50:59.535Z</time></trkpt><trkpt lat="44.5540411" lon="9.9515681"><ele>632.1666666666666</ele><time>2026-05-03T12:51:01.535Z</time></trkpt><trkpt lat="44.5540371" lon="9.9514111"><ele>632.0</ele><time>2026-05-03T12:51:03.535Z</time></trkpt><trkpt lat="44.5540455" lon="9.951316"><ele>631.6666666666666</ele><time>2026-05-03T12:51:05.536Z</time></trkpt><trkpt lat="44.5540114" lon="9.9512394"><ele>631.3333333333333</ele><time>2026-05-03T12:51:07.535Z</time></trkpt><trkpt lat="44.5539426" lon="9.9512277"><ele>631.0</ele><time>2026-05-03T12:51:09.535Z</time></trkpt><trkpt lat="44.5538545" lon="9.9512183"><ele>630.6666666666666</ele><time>2026-05-03T12:51:11.535Z</time></trkpt><trkpt lat="44.5537213" lon="9.9511456"><ele>630.3333333333334</ele><time>2026-05-03T12:51:13.536Z</time></trkpt><trkpt lat="44.5536576" lon="9.9511094"><ele>630.0</ele><time>2026-05-03T12:51:14.535Z</time></trkpt><trkpt lat="44.5535503" lon="9.9511247"><ele>627.6666666666666</ele><time>2026-05-03T12:51:16.535Z</time></trkpt><trkpt lat="44.5534764" lon="9.9511204"><ele>625.3333333333334</ele><time>2026-05-03T12:51:18.534Z</time></trkpt><trkpt lat="44.553362" lon="9.9510982"><ele>623.0</ele><time>2026-05-03T12:51:20.534Z</time></trkpt><trkpt lat="44.5532955" lon="9.9510892"><ele>620.6666666666667</ele><time>2026-05-03T12:51:21.535Z</time></trkpt><trkpt lat="44.5532285" lon="9.9510735"><ele>618.3333333333334</ele><time>2026-05-03T12:51:22.534Z</time></trkpt><trkpt lat="44.5531683" lon="9.9510344"><ele>616.0</ele><time>2026-05-03T12:51:23.534Z</time></trkpt><trkpt lat="44.5530575" lon="9.9509927"><ele>616.0</ele><time>2026-05-03T12:51:25.534Z</time></trkpt><trkpt lat="44.5529273" lon="9.9510632"><ele>616.0</ele><time>2026-05-03T12:51:27.534Z</time></trkpt><trkpt lat="44.5528383" lon="9.9511481"><ele>616.0</ele><time>2026-05-03T12:51:29.534Z</time></trkpt><trkpt lat="44.5527565" lon="9.9512237"><ele>616.0</ele><time>2026-05-03T12:51:31.534Z</time></trkpt><trkpt lat="44.5526697" lon="9.9512343"><ele>616.0</ele><time>2026-05-03T12:51:33.534Z</time></trkpt><trkpt lat="44.552563" lon="9.9512198"><ele>611.6</ele><time>2026-05-03T12:51:35.534Z</time></trkpt><trkpt lat="44.5524507" lon="9.9512415"><ele>607.2</ele><time>2026-05-03T12:51:37.534Z</time></trkpt><trkpt lat="44.5523455" lon="9.9512645"><ele>602.8</ele><time>2026-05-03T12:51:39.535Z</time></trkpt><trkpt lat="44.5522609" lon="9.951348"><ele>598.4</ele><time>2026-05-03T12:51:41.534Z</time></trkpt><trkpt lat="44.5521577" lon="9.9513984"><ele>594.0</ele><time>2026-05-03T12:51:43.534Z</time></trkpt><trkpt lat="44.552054" lon="9.9514177"><ele>590.3333333333334</ele><time>2026-05-03T12:51:45.534Z</time></trkpt><trkpt lat="44.5519618" lon="9.951436"><ele>586.6666666666666</ele><time>2026-05-03T12:51:46.534Z</time></trkpt><trkpt lat="44.5518726" lon="9.9514484"><ele>583.0</ele><time>2026-05-03T12:51:47.534Z</time></trkpt><trkpt lat="44.5517826" lon="9.951471"><ele>579.3333333333333</ele><time>2026-05-03T12:51:48.534Z</time></trkpt><trkpt lat="44.5516999" lon="9.9514665"><ele>575.6666666666666</ele><time>2026-05-03T12:51:49.534Z</time></trkpt><trkpt lat="44.5516277" lon="9.9514628"><ele>572.0</ele><time>2026-05-03T12:51:50.534Z</time></trkpt><trkpt lat="44.5515462" lon="9.951437"><ele>572.0</ele><time>2026-05-03T12:51:51.534Z</time></trkpt><trkpt lat="44.5514585" lon="9.9514398"><ele>572.0</ele><time>2026-05-03T12:51:53.534Z</time></trkpt><trkpt lat="44.5513454" lon="9.9515129"><ele>572.0</ele><time>2026-05-03T12:51:55.534Z</time></trkpt><trkpt lat="44.5512845" lon="9.9515515"><ele>572.0</ele><time>2026-05-03T12:51:56.534Z</time></trkpt><trkpt lat="44.5511755" lon="9.9516231"><ele>572.0</ele><time>2026-05-03T12:51:58.535Z</time></trkpt><trkpt lat="44.5511119" lon="9.9516371"><ele>569.8571428571428</ele><time>2026-05-03T12:51:59.535Z</time></trkpt><trkpt lat="44.551052" lon="9.9516673"><ele>567.7142857142857</ele><time>2026-05-03T12:52:00.535Z</time></trkpt><trkpt lat="44.550997" lon="9.9517129"><ele>565.5714285714286</ele><time>2026-05-03T12:52:01.535Z</time></trkpt><trkpt lat="44.5509093" lon="9.9517583"><ele>563.4285714285713</ele><time>2026-05-03T12:52:03.534Z</time></trkpt><trkpt lat="44.5508433" lon="9.9517306"><ele>561.2857142857142</ele><time>2026-05-03T12:52:05.534Z</time></trkpt><trkpt lat="44.5508249" lon="9.9516403"><ele>559.1428571428571</ele><time>2026-05-03T12:52:07.535Z</time></trkpt><trkpt lat="44.5508718" lon="9.9515347"><ele>557.0</ele><time>2026-05-03T12:52:09.536Z</time></trkpt><trkpt lat="44.5509091" lon="9.9514225"><ele>555.4</ele><time>2026-05-03T12:52:11.534Z</time></trkpt><trkpt lat="44.5509082" lon="9.9513206"><ele>553.8000000000001</ele><time>2026-05-03T12:52:13.534Z</time></trkpt><trkpt lat="44.5509257" lon="9.951165"><ele>552.2</ele><time>2026-05-03T12:52:15.534Z</time></trkpt><trkpt lat="44.5509347" lon="9.9510211"><ele>550.6</ele><time>2026-05-03T12:52:16.534Z</time></trkpt><trkpt lat="44.550966" lon="9.9508902"><ele>549.0</ele><time>2026-05-03T12:52:17.534Z</time></trkpt><trkpt lat="44.5509895" lon="9.950765"><ele>547.25</ele><time>2026-05-03T12:52:19.534Z</time></trkpt><trkpt lat="44.5509761" lon="9.9506022"><ele>545.5</ele><time>2026-05-03T12:52:21.535Z</time></trkpt><trkpt lat="44.5510038" lon="9.9504622"><ele>543.75</ele><time>2026-05-03T12:52:22.534Z</time></trkpt><trkpt lat="44.5510652" lon="9.9502854"><ele>542.0</ele><time>2026-05-03T12:52:23.534Z</time></trkpt><trkpt lat="44.5511507" lon="9.9501784"><ele>546.0</ele><time>2026-05-03T12:52:25.535Z</time></trkpt><trkpt lat="44.5512352" lon="9.9500959"><ele>550.0</ele><time>2026-05-03T12:52:28.534Z</time></trkpt><trkpt lat="44.5513193" lon="9.9500865"><ele>554.0</ele><time>2026-05-03T12:52:30.534Z</time></trkpt><trkpt lat="44.5513845" lon="9.9502118"><ele>558.0</ele><time>2026-05-03T12:52:31.534Z</time></trkpt><trkpt lat="44.5514572" lon="9.9502529"><ele>562.0</ele><time>2026-05-03T12:52:33.534Z</time></trkpt><trkpt lat="44.5514952" lon="9.9501503"><ele>559.2</ele><time>2026-05-03T12:52:35.534Z</time></trkpt><trkpt lat="44.5514837" lon="9.9500052"><ele>556.4000000000001</ele><time>2026-05-03T12:52:37.534Z</time></trkpt><trkpt lat="44.5514928" lon="9.9499168"><ele>553.5999999999999</ele><time>2026-05-03T12:52:38.535Z</time></trkpt><trkpt lat="44.5515293" lon="9.9497865"><ele>550.8</ele><time>2026-05-03T12:52:40.534Z</time></trkpt><trkpt lat="44.5515423" lon="9.9496038"><ele>548.0</ele><time>2026-05-03T12:52:42.535Z</time></trkpt><trkpt lat="44.5515606" lon="9.9495017"><ele>548.0</ele><time>2026-05-03T12:52:43.534Z</time></trkpt><trkpt lat="44.5516109" lon="9.9493712"><ele>548.0</ele><time>2026-05-03T12:52:45.534Z</time></trkpt><trkpt lat="44.5516816" lon="9.9492335"><ele>548.0</ele><time>2026-05-03T12:52:47.534Z</time></trkpt><trkpt lat="44.5517583" lon="9.949186"><ele>548.0</ele><time>2026-05-03T12:52:48.534Z</time></trkpt><trkpt lat="44.5518248" lon="9.9490907"><ele>548.0</ele><time>2026-05-03T12:52:50.535Z</time></trkpt><trkpt lat="44.5519139" lon="9.9489525"><ele>548.1999999999999</ele><time>2026-05-03T12:52:52.534Z</time></trkpt><trkpt lat="44.5519518" lon="9.94887"><ele>548.4</ele><time>2026-05-03T12:52:53.534Z</time></trkpt><trkpt lat="44.5520007" lon="9.9487986"><ele>548.5999999999999</ele><time>2026-05-03T12:52:54.534Z</time></trkpt><trkpt lat="44.552064" lon="9.9487681"><ele>548.8</ele><time>2026-05-03T12:52:55.535Z</time></trkpt><trkpt lat="44.5521574" lon="9.9486741"><ele>549.0</ele><time>2026-05-03T12:52:57.534Z</time></trkpt><trkpt lat="44.552308" lon="9.9486045"><ele>549.0</ele><time>2026-05-03T12:52:59.534Z</time></trkpt><trkpt lat="44.5523895" lon="9.9485684"><ele>549.0</ele><time>2026-05-03T12:53:00.535Z</time></trkpt><trkpt lat="44.5524678" lon="9.9485085"><ele>549.0</ele><time>2026-05-03T12:53:01.534Z</time></trkpt><trkpt lat="44.5525546" lon="9.9484584"><ele>549.0</ele><time>2026-05-03T12:53:03.534Z</time></trkpt><trkpt lat="44.5526268" lon="9.9484239"><ele>549.0</ele><time>2026-05-03T12:53:05.535Z</time></trkpt><trkpt lat="44.5526578" lon="9.9483378"><ele>549.0</ele><time>2026-05-03T12:53:07.534Z</time></trkpt><trkpt lat="44.5527098" lon="9.9481842"><ele>545.4285714285714</ele><time>2026-05-03T12:53:09.534Z</time></trkpt><trkpt lat="44.5527165" lon="9.9480747"><ele>541.8571428571429</ele><time>2026-05-03T12:53:10.534Z</time></trkpt><trkpt lat="44.5527216" lon="9.9479621"><ele>538.2857142857143</ele><time>2026-05-03T12:53:11.534Z</time></trkpt><trkpt lat="44.5527246" lon="9.9478691"><ele>534.7142857142858</ele><time>2026-05-03T12:53:12.534Z</time></trkpt><trkpt lat="44.552742" lon="9.9477702"><ele>531.1428571428572</ele><time>2026-05-03T12:53:13.534Z</time></trkpt><trkpt lat="44.5527525" lon="9.9476801"><ele>527.5714285714286</ele><time>2026-05-03T12:53:14.534Z</time></trkpt><trkpt lat="44.5527742" lon="9.9475731"><ele>524.0</ele><time>2026-05-03T12:53:15.534Z</time></trkpt><trkpt lat="44.5527889" lon="9.9474637"><ele>520.8333333333333</ele><time>2026-05-03T12:53:16.534Z</time></trkpt><trkpt lat="44.5527821" lon="9.947355"><ele>517.6666666666666</ele><time>2026-05-03T12:53:17.534Z</time></trkpt><trkpt lat="44.5527961" lon="9.9472387"><ele>514.5</ele><time>2026-05-03T12:53:18.534Z</time></trkpt><trkpt lat="44.5527913" lon="9.9471468"><ele>511.33333333333337</ele><time>2026-05-03T12:53:19.534Z</time></trkpt><trkpt lat="44.5527917" lon="9.9470195"><ele>508.1666666666667</ele><time>2026-05-03T12:53:20.534Z</time></trkpt><trkpt lat="44.5527857" lon="9.9468782"><ele>505.0</ele><time>2026-05-03T12:53:22.535Z</time></trkpt><trkpt lat="44.5527746" lon="9.9467435"><ele>503.1666666666667</ele><time>2026-05-03T12:53:24.534Z</time></trkpt><trkpt lat="44.5527416" lon="9.9466492"><ele>501.33333333333337</ele><time>2026-05-03T12:53:25.534Z</time></trkpt><trkpt lat="44.552712" lon="9.9465474"><ele>499.5</ele><time>2026-05-03T12:53:26.534Z</time></trkpt><trkpt lat="44.5526761" lon="9.9464513"><ele>497.66666666666663</ele><time>2026-05-03T12:53:27.535Z</time></trkpt><trkpt lat="44.5526338" lon="9.946345"><ele>495.8333333333333</ele><time>2026-05-03T12:53:28.534Z</time></trkpt><trkpt lat="44.5525508" lon="9.9462292"><ele>494.0</ele><time>2026-05-03T12:53:30.536Z</time></trkpt><trkpt lat="44.5524572" lon="9.9461368"><ele>493.99999999999994</ele><time>2026-05-03T12:53:32.535Z</time></trkpt><trkpt lat="44.5523739" lon="9.9460092"><ele>494.0</ele><time>2026-05-03T12:53:34.534Z</time></trkpt><trkpt lat="44.5523568" lon="9.9458972"><ele>494.0</ele><time>2026-05-03T12:53:36.534Z</time></trkpt><trkpt lat="44.5523652" lon="9.9457854"><ele>494.0</ele><time>2026-05-03T12:53:38.535Z</time></trkpt><trkpt lat="44.5524286" lon="9.9457387"><ele>493.99999999999994</ele><time>2026-05-03T12:53:40.534Z</time></trkpt><trkpt lat="44.5524989" lon="9.945684"><ele>494.0</ele><time>2026-05-03T12:53:42.534Z</time></trkpt><trkpt lat="44.5525134" lon="9.9455469"><ele>492.3333333333333</ele><time>2026-05-03T12:53:44.534Z</time></trkpt><trkpt lat="44.5525038" lon="9.9454317"><ele>490.66666666666663</ele><time>2026-05-03T12:53:46.534Z</time></trkpt><trkpt lat="44.5525006" lon="9.9453232"><ele>489.0</ele><time>2026-05-03T12:53:49.534Z</time></trkpt><trkpt lat="44.5525575" lon="9.9452828"><ele>487.33333333333337</ele><time>2026-05-03T12:53:53.534Z</time></trkpt><trkpt lat="44.5526446" lon="9.9453148"><ele>485.6666666666667</ele><time>2026-05-03T12:53:56.534Z</time></trkpt><trkpt lat="44.5527246" lon="9.9453213"><ele>484.0</ele><time>2026-05-03T12:53:58.534Z</time></trkpt><trkpt lat="44.5528002" lon="9.9453116"><ele>484.00000000000006</ele><time>2026-05-03T12:54:00.534Z</time></trkpt><trkpt lat="44.5528718" lon="9.9452849"><ele>484.0</ele><time>2026-05-03T12:54:02.534Z</time></trkpt><trkpt lat="44.5529385" lon="9.9452877"><ele>484.0</ele><time>2026-05-03T12:54:04.534Z</time></trkpt><trkpt lat="44.5529976" lon="9.9452395"><ele>484.0</ele><time>2026-05-03T12:54:06.534Z</time></trkpt><trkpt lat="44.5530349" lon="9.945147"><ele>484.00000000000006</ele><time>2026-05-03T12:54:08.534Z</time></trkpt><trkpt lat="44.553049" lon="9.9450201"><ele>484.0</ele><time>2026-05-03T12:54:09.534Z</time></trkpt><trkpt lat="44.5531075" lon="9.9449042"><ele>482.1666666666667</ele><time>2026-05-03T12:54:11.534Z</time></trkpt><trkpt lat="44.5531161" lon="9.9448128"><ele>480.33333333333337</ele><time>2026-05-03T12:54:12.535Z</time></trkpt><trkpt lat="44.553147" lon="9.944713"><ele>478.5</ele><time>2026-05-03T12:54:14.534Z</time></trkpt><trkpt lat="44.5531694" lon="9.9445971"><ele>476.66666666666663</ele><time>2026-05-03T12:54:16.534Z</time></trkpt><trkpt lat="44.5531918" lon="9.9444754"><ele>474.8333333333333</ele><time>2026-05-03T12:54:18.534Z</time></trkpt><trkpt lat="44.5531783" lon="9.944341"><ele>473.0</ele><time>2026-05-03T12:54:20.535Z</time></trkpt><trkpt lat="44.5531808" lon="9.9441943"><ele>470.16666666666663</ele><time>2026-05-03T12:54:22.534Z</time></trkpt><trkpt lat="44.5531704" lon="9.9440204"><ele>467.3333333333333</ele><time>2026-05-03T12:54:24.534Z</time></trkpt><trkpt lat="44.5531823" lon="9.9439283"><ele>464.5</ele><time>2026-05-03T12:54:25.534Z</time></trkpt><trkpt lat="44.5531839" lon="9.9438244"><ele>461.66666666666663</ele><time>2026-05-03T12:54:26.534Z</time></trkpt><trkpt lat="44.5531997" lon="9.9436996"><ele>458.8333333333333</ele><time>2026-05-03T12:54:27.533Z</time></trkpt><trkpt lat="44.5532288" lon="9.9436011"><ele>456.0</ele><time>2026-05-03T12:54:28.533Z</time></trkpt><trkpt lat="44.5532655" lon="9.9434921"><ele>456.0</ele><time>2026-05-03T12:54:29.533Z</time></trkpt><trkpt lat="44.5532987" lon="9.9434106"><ele>456.0</ele><time>2026-05-03T12:54:30.533Z</time></trkpt><trkpt lat="44.5532803" lon="9.9432718"><ele>456.0</ele><time>2026-05-03T12:54:33.533Z</time></trkpt><trkpt lat="44.5532245" lon="9.9431643"><ele>456.0</ele><time>2026-05-03T12:54:35.533Z</time></trkpt><trkpt lat="44.5531424" lon="9.9430639"><ele>456.0</ele><time>2026-05-03T12:54:37.533Z</time></trkpt><trkpt lat="44.5530908" lon="9.942917"><ele>453.5</ele><time>2026-05-03T12:54:39.533Z</time></trkpt><trkpt lat="44.5530837" lon="9.9428131"><ele>451.0</ele><time>2026-05-03T12:54:40.534Z</time></trkpt><trkpt lat="44.5530993" lon="9.9426383"><ele>448.5</ele><time>2026-05-03T12:54:42.533Z</time></trkpt><trkpt lat="44.5531454" lon="9.9424957"><ele>446.0</ele><time>2026-05-03T12:54:44.534Z</time></trkpt><trkpt lat="44.5531794" lon="9.9424098"><ele>443.5</ele><time>2026-05-03T12:54:45.533Z</time></trkpt><trkpt lat="44.5532106" lon="9.9423304"><ele>441.0</ele><time>2026-05-03T12:54:46.533Z</time></trkpt><trkpt lat="44.5532294" lon="9.9422341"><ele>439.6</ele><time>2026-05-03T12:54:48.533Z</time></trkpt><trkpt lat="44.5532157" lon="9.9421275"><ele>438.20000000000005</ele><time>2026-05-03T12:54:51.533Z</time></trkpt><trkpt lat="44.5531882" lon="9.9419981"><ele>436.79999999999995</ele><time>2026-05-03T12:54:53.533Z</time></trkpt><trkpt lat="44.5531594" lon="9.9418134"><ele>435.4</ele><time>2026-05-03T12:54:55.533Z</time></trkpt><trkpt lat="44.553146" lon="9.9417176"><ele>434.0</ele><time>2026-05-03T12:54:56.533Z</time></trkpt><trkpt lat="44.5531532" lon="9.9415576"><ele>431.8333333333333</ele><time>2026-05-03T12:54:58.533Z</time></trkpt><trkpt lat="44.5531622" lon="9.9414365"><ele>429.66666666666663</ele><time>2026-05-03T12:55:00.533Z</time></trkpt><trkpt lat="44.5531531" lon="9.9413399"><ele>427.5</ele><time>2026-05-03T12:55:02.533Z</time></trkpt><trkpt lat="44.5531304" lon="9.9412313"><ele>425.33333333333337</ele><time>2026-05-03T12:55:04.533Z</time></trkpt><trkpt lat="44.553114" lon="9.9411093"><ele>423.1666666666667</ele><time>2026-05-03T12:55:06.533Z</time></trkpt><trkpt lat="44.5530852" lon="9.9409508"><ele>421.0</ele><time>2026-05-03T12:55:08.533Z</time></trkpt><trkpt lat="44.5530597" lon="9.9408307"><ele>418.4</ele><time>2026-05-03T12:55:10.533Z</time></trkpt><trkpt lat="44.5530206" lon="9.9406744"><ele>415.8</ele><time>2026-05-03T12:55:12.533Z</time></trkpt><trkpt lat="44.5529971" lon="9.9405819"><ele>413.2</ele><time>2026-05-03T12:55:13.533Z</time></trkpt><trkpt lat="44.5530022" lon="9.9404314"><ele>410.59999999999997</ele><time>2026-05-03T12:55:15.533Z</time></trkpt><trkpt lat="44.5530868" lon="9.9403244"><ele>408.0</ele><time>2026-05-03T12:55:17.533Z</time></trkpt><trkpt lat="44.5531783" lon="9.9402428"><ele>408.0</ele><time>2026-05-03T12:55:19.533Z</time></trkpt><trkpt lat="44.5532401" lon="9.9400905"><ele>408.0</ele><time>2026-05-03T12:55:21.533Z</time></trkpt><trkpt lat="44.5532613" lon="9.9400042"><ele>408.0</ele><time>2026-05-03T12:55:22.533Z</time></trkpt><trkpt lat="44.55329" lon="9.939878"><ele>408.0</ele><time>2026-05-03T12:55:24.533Z</time></trkpt><trkpt lat="44.553327" lon="9.9397798"><ele>408.0</ele><time>2026-05-03T12:55:28.533Z</time></trkpt><trkpt lat="44.553406" lon="9.9397228"><ele>407.42857142857144</ele><time>2026-05-03T12:55:30.533Z</time></trkpt><trkpt lat="44.5534175" lon="9.9396319"><ele>406.8571428571429</ele><time>2026-05-03T12:55:31.534Z</time></trkpt><trkpt lat="44.5534496" lon="9.9395451"><ele>406.2857142857143</ele><time>2026-05-03T12:55:32.533Z</time></trkpt><trkpt lat="44.5534877" lon="9.939466"><ele>405.7142857142857</ele><time>2026-05-03T12:55:33.534Z</time></trkpt><trkpt lat="44.5535311" lon="9.9393984"><ele>405.1428571428571</ele><time>2026-05-03T12:55:34.533Z</time></trkpt><trkpt lat="44.553587" lon="9.9393274"><ele>404.57142857142856</ele><time>2026-05-03T12:55:36.534Z</time></trkpt><trkpt lat="44.5536439" lon="9.9392277"><ele>404.0</ele><time>2026-05-03T12:55:42.533Z</time></trkpt><trkpt lat="44.5536832" lon="9.9391319"><ele>400.79999999999995</ele><time>2026-05-03T12:55:44.533Z</time></trkpt><trkpt lat="44.5537282" lon="9.9390213"><ele>397.59999999999997</ele><time>2026-05-03T12:55:46.533Z</time></trkpt><trkpt lat="44.5537399" lon="9.9388945"><ele>394.4</ele><time>2026-05-03T12:55:48.533Z</time></trkpt><trkpt lat="44.5537419" lon="9.9387631"><ele>391.2</ele><time>2026-05-03T12:55:50.533Z</time></trkpt><trkpt lat="44.5537677" lon="9.9386417"><ele>388.0</ele><time>2026-05-03T12:55:52.534Z</time></trkpt><trkpt lat="44.5537677" lon="9.938513"><ele>386.79999999999995</ele><time>2026-05-03T12:55:54.533Z</time></trkpt><trkpt lat="44.5537843" lon="9.9383554"><ele>385.6</ele><time>2026-05-03T12:55:56.533Z</time></trkpt><trkpt lat="44.5538017" lon="9.93818"><ele>384.4</ele><time>2026-05-03T12:55:58.533Z</time></trkpt><trkpt lat="44.5538485" lon="9.9380228"><ele>383.20000000000005</ele><time>2026-05-03T12:56:00.534Z</time></trkpt><trkpt lat="44.5538868" lon="9.937937"><ele>382.0</ele><time>2026-05-03T12:56:01.535Z</time></trkpt><trkpt lat="44.5539771" lon="9.9378235"><ele>382.0</ele><time>2026-05-03T12:56:03.534Z</time></trkpt><trkpt lat="44.5540557" lon="9.9377294"><ele>382.0</ele><time>2026-05-03T12:56:05.533Z</time></trkpt><trkpt lat="44.5541084" lon="9.9375915"><ele>382.0</ele><time>2026-05-03T12:56:07.533Z</time></trkpt><trkpt lat="44.5541489" lon="9.9374979"><ele>382.0</ele><time>2026-05-03T12:56:08.533Z</time></trkpt><trkpt lat="44.554184" lon="9.9373921"><ele>382.0</ele><time>2026-05-03T12:56:09.534Z</time></trkpt><trkpt lat="44.5542269" lon="9.9373158"><ele>382.0</ele><time>2026-05-03T12:56:10.533Z</time></trkpt><trkpt lat="44.5542887" lon="9.937175"><ele>382.0</ele><time>2026-05-03T12:56:12.533Z</time></trkpt><trkpt lat="44.5543728" lon="9.9370752"><ele>382.0</ele><time>2026-05-03T12:56:14.533Z</time></trkpt><trkpt lat="44.5544342" lon="9.9369378"><ele>382.0</ele><time>2026-05-03T12:56:16.534Z</time></trkpt><trkpt lat="44.5544987" lon="9.9368264"><ele>382.0</ele><time>2026-05-03T12:56:18.533Z</time></trkpt><trkpt lat="44.5545477" lon="9.9367449"><ele>382.0</ele><time>2026-05-03T12:56:20.533Z</time></trkpt><trkpt lat="44.5545765" lon="9.9366286"><ele>378.8333333333333</ele><time>2026-05-03T12:56:21.533Z</time></trkpt><trkpt lat="44.5545973" lon="9.9365164"><ele>375.66666666666663</ele><time>2026-05-03T12:56:22.533Z</time></trkpt><trkpt lat="44.554633" lon="9.9364385"><ele>372.5</ele><time>2026-05-03T12:56:23.533Z</time></trkpt><trkpt lat="44.5546701" lon="9.9363221"><ele>369.3333333333333</ele><time>2026-05-03T12:56:25.533Z</time></trkpt><trkpt lat="44.5546965" lon="9.9362281"><ele>366.1666666666667</ele><time>2026-05-03T12:56:31.533Z</time></trkpt><trkpt lat="44.5547647" lon="9.9362304"><ele>363.0</ele><time>2026-05-03T12:56:37.533Z</time></trkpt><trkpt lat="44.5548358" lon="9.9362243"><ele>363.0</ele><time>2026-05-03T12:56:39.533Z</time></trkpt><trkpt lat="44.5549189" lon="9.9362444"><ele>363.0</ele><time>2026-05-03T12:56:41.533Z</time></trkpt><trkpt lat="44.5550132" lon="9.936289"><ele>363.0</ele><time>2026-05-03T12:56:43.533Z</time></trkpt><trkpt lat="44.5550843" lon="9.9363254"><ele>363.0</ele><time>2026-05-03T12:56:45.533Z</time></trkpt><trkpt lat="44.5551608" lon="9.9363747"><ele>363.0</ele><time>2026-05-03T12:56:47.534Z</time></trkpt><trkpt lat="44.5552231" lon="9.9364271"><ele>363.0</ele><time>2026-05-03T12:56:49.534Z</time></trkpt><trkpt lat="44.5553031" lon="9.9364524"><ele>360.5</ele><time>2026-05-03T12:56:52.533Z</time></trkpt><trkpt lat="44.5553746" lon="9.9364666"><ele>358.0</ele><time>2026-05-03T12:56:55.533Z</time></trkpt><trkpt lat="44.5554621" lon="9.9364466"><ele>355.5</ele><time>2026-05-03T12:56:58.533Z</time></trkpt><trkpt lat="44.5555147" lon="9.9363934"><ele>353.0</ele><time>2026-05-03T12:57:00.533Z</time></trkpt><trkpt lat="44.5555467" lon="9.9362998"><ele>350.5</ele><time>2026-05-03T12:57:02.533Z</time></trkpt><trkpt lat="44.555623" lon="9.9362242"><ele>348.0</ele><time>2026-05-03T12:57:04.533Z</time></trkpt><trkpt lat="44.5556976" lon="9.9361612"><ele>348.0</ele><time>2026-05-03T12:57:06.533Z</time></trkpt><trkpt lat="44.5557713" lon="9.9361257"><ele>348.0</ele><time>2026-05-03T12:57:09.533Z</time></trkpt><trkpt lat="44.5558463" lon="9.9360646"><ele>348.0</ele><time>2026-05-03T12:57:12.533Z</time></trkpt><trkpt lat="44.5558969" lon="9.935966"><ele>348.0</ele><time>2026-05-03T12:57:13.534Z</time></trkpt><trkpt lat="44.5559578" lon="9.9358753"><ele>348.0</ele><time>2026-05-03T12:57:16.533Z</time></trkpt><trkpt lat="44.5559957" lon="9.9357787"><ele>348.0</ele><time>2026-05-03T12:57:19.533Z</time></trkpt><trkpt lat="44.5560378" lon="9.9356769"><ele>347.3333333333333</ele><time>2026-05-03T12:57:22.533Z</time></trkpt><trkpt lat="44.5560587" lon="9.9355626"><ele>346.6666666666667</ele><time>2026-05-03T12:57:24.533Z</time></trkpt><trkpt lat="44.5560926" lon="9.9354475"><ele>346.0</ele><time>2026-05-03T12:57:26.533Z</time></trkpt><trkpt lat="44.5561353" lon="9.9353607"><ele>345.33333333333337</ele><time>2026-05-03T12:57:28.533Z</time></trkpt><trkpt lat="44.5562063" lon="9.9353703"><ele>344.6666666666667</ele><time>2026-05-03T12:57:32.532Z</time></trkpt><trkpt lat="44.5562779" lon="9.9353802"><ele>344.0</ele><time>2026-05-03T12:57:35.533Z</time></trkpt><trkpt lat="44.5563451" lon="9.9353405"><ele>341.7142857142857</ele><time>2026-05-03T12:57:38.533Z</time></trkpt><trkpt lat="44.5564079" lon="9.9353331"><ele>339.42857142857144</ele><time>2026-05-03T12:57:41.532Z</time></trkpt><trkpt lat="44.5564554" lon="9.9353965"><ele>337.1428571428571</ele><time>2026-05-03T12:57:42.532Z</time></trkpt><trkpt lat="44.5565084" lon="9.9354484"><ele>334.8571428571429</ele><time>2026-05-03T12:57:43.532Z</time></trkpt><trkpt lat="44.5565755" lon="9.9355154"><ele>332.57142857142856</ele><time>2026-05-03T12:57:44.532Z</time></trkpt><trkpt lat="44.5566339" lon="9.935579"><ele>330.2857142857143</ele><time>2026-05-03T12:57:45.532Z</time></trkpt><trkpt lat="44.5566895" lon="9.9356352"><ele>328.0</ele><time>2026-05-03T12:57:46.532Z</time></trkpt><trkpt lat="44.5567623" lon="9.9356684"><ele>328.0</ele><time>2026-05-03T12:57:49.532Z</time></trkpt><trkpt lat="44.5566826" lon="9.9356397"><ele>328.0</ele><time>2026-05-03T12:57:53.532Z</time></trkpt><trkpt lat="44.5565726" lon="9.9355321"><ele>328.0</ele><time>2026-05-03T12:57:55.532Z</time></trkpt><trkpt lat="44.5565168" lon="9.9354724"><ele>328.0</ele><time>2026-05-03T12:57:56.533Z</time></trkpt><trkpt lat="44.5564641" lon="9.9354113"><ele>328.0</ele><time>2026-05-03T12:57:57.532Z</time></trkpt><trkpt lat="44.5564072" lon="9.9353457"><ele>328.0</ele><time>2026-05-03T12:57:58.532Z</time></trkpt><trkpt lat="44.5563667" lon="9.9352761"><ele>328.0</ele><time>2026-05-03T12:57:59.532Z</time></trkpt><trkpt lat="44.5563307" lon="9.9351896"><ele>328.0</ele><time>2026-05-03T12:58:00.532Z</time></trkpt><trkpt lat="44.5562806" lon="9.935123"><ele>328.0</ele><time>2026-05-03T12:58:01.533Z</time></trkpt><trkpt lat="44.5562322" lon="9.9350623"><ele>328.0</ele><time>2026-05-03T12:58:02.532Z</time></trkpt><trkpt lat="44.55616" lon="9.9349365"><ele>328.0</ele><time>2026-05-03T12:58:04.532Z</time></trkpt><trkpt lat="44.5560954" lon="9.9348625"><ele>328.0</ele><time>2026-05-03T12:58:05.532Z</time></trkpt><trkpt lat="44.5560322" lon="9.9347983"><ele>328.16666666666663</ele><time>2026-05-03T12:58:06.532Z</time></trkpt><trkpt lat="44.5559737" lon="9.9347301"><ele>328.3333333333333</ele><time>2026-05-03T12:58:07.533Z</time></trkpt><trkpt lat="44.555919" lon="9.9346634"><ele>328.5</ele><time>2026-05-03T12:58:08.532Z</time></trkpt><trkpt lat="44.555853" lon="9.9345942"><ele>328.6666666666667</ele><time>2026-05-03T12:58:09.532Z</time></trkpt><trkpt lat="44.555789" lon="9.9345305"><ele>328.83333333333337</ele><time>2026-05-03T12:58:10.532Z</time></trkpt><trkpt lat="44.5557229" lon="9.9344711"><ele>329.0</ele><time>2026-05-03T12:58:11.532Z</time></trkpt><trkpt lat="44.5556543" lon="9.9344103"><ele>329.0</ele><time>2026-05-03T12:58:12.532Z</time></trkpt><trkpt lat="44.5555882" lon="9.9343415"><ele>329.0</ele><time>2026-05-03T12:58:13.532Z</time></trkpt><trkpt lat="44.5555196" lon="9.9342717"><ele>329.0</ele><time>2026-05-03T12:58:14.532Z</time></trkpt><trkpt lat="44.5554453" lon="9.934202"><ele>329.0</ele><time>2026-05-03T12:58:15.532Z</time></trkpt><trkpt lat="44.5553712" lon="9.9341219"><ele>329.0</ele><time>2026-05-03T12:58:16.532Z</time></trkpt><trkpt lat="44.5553043" lon="9.9340394"><ele>329.0</ele><time>2026-05-03T12:58:17.532Z</time></trkpt><trkpt lat="44.5552665" lon="9.9339272"><ele>328.0</ele><time>2026-05-03T12:58:18.532Z</time></trkpt><trkpt lat="44.5552434" lon="9.9338152"><ele>327.0</ele><time>2026-05-03T12:58:19.532Z</time></trkpt><trkpt lat="44.555233" lon="9.9337041"><ele>326.0</ele><time>2026-05-03T12:58:20.532Z</time></trkpt><trkpt lat="44.5552239" lon="9.933569"><ele>325.0</ele><time>2026-05-03T12:58:21.532Z</time></trkpt><trkpt lat="44.5552066" lon="9.9334411"><ele>324.0</ele><time>2026-05-03T12:58:22.532Z</time></trkpt><trkpt lat="44.5551867" lon="9.9333155"><ele>323.0</ele><time>2026-05-03T12:58:23.533Z</time></trkpt><trkpt lat="44.555164" lon="9.9331895"><ele>319.79999999999995</ele><time>2026-05-03T12:58:24.532Z</time></trkpt><trkpt lat="44.5551198" lon="9.933073"><ele>316.59999999999997</ele><time>2026-05-03T12:58:25.532Z</time></trkpt><trkpt lat="44.5550691" lon="9.9329575"><ele>313.4</ele><time>2026-05-03T12:58:26.532Z</time></trkpt><trkpt lat="44.5550112" lon="9.9328504"><ele>310.2</ele><time>2026-05-03T12:58:27.532Z</time></trkpt><trkpt lat="44.554951" lon="9.9327502"><ele>307.0</ele><time>2026-05-03T12:58:28.532Z</time></trkpt><trkpt lat="44.5548916" lon="9.9326552"><ele>307.0</ele><time>2026-05-03T12:58:29.532Z</time></trkpt><trkpt lat="44.5548348" lon="9.9325591"><ele>307.0</ele><time>2026-05-03T12:58:30.533Z</time></trkpt><trkpt lat="44.5547795" lon="9.9324625"><ele>307.0</ele><time>2026-05-03T12:58:31.532Z</time></trkpt><trkpt lat="44.554723" lon="9.9323689"><ele>307.0</ele><time>2026-05-03T12:58:32.532Z</time></trkpt><trkpt lat="44.5546621" lon="9.9322835"><ele>307.0</ele><time>2026-05-03T12:58:33.532Z</time></trkpt><trkpt lat="44.5546072" lon="9.9322148"><ele>307.0</ele><time>2026-05-03T12:58:34.533Z</time></trkpt><trkpt lat="44.5545739" lon="9.9321023"><ele>305.5</ele><time>2026-05-03T12:58:36.533Z</time></trkpt><trkpt lat="44.5546712" lon="9.9320901"><ele>304.0</ele><time>2026-05-03T12:58:39.532Z</time></trkpt><trkpt lat="44.554734" lon="9.9321159"><ele>302.5</ele><time>2026-05-03T12:58:40.532Z</time></trkpt><trkpt lat="44.5548018" lon="9.9321511"><ele>301.0</ele><time>2026-05-03T12:58:41.532Z</time></trkpt><trkpt lat="44.5548787" lon="9.9321866"><ele>299.5</ele><time>2026-05-03T12:58:42.532Z</time></trkpt><trkpt lat="44.554961" lon="9.9322232"><ele>298.0</ele><time>2026-05-03T12:58:43.532Z</time></trkpt><trkpt lat="44.555042" lon="9.9322659"><ele>298.0</ele><time>2026-05-03T12:58:44.532Z</time></trkpt><trkpt lat="44.5551142" lon="9.932311"><ele>298.0</ele><time>2026-05-03T12:58:45.532Z</time></trkpt><trkpt lat="44.5551884" lon="9.9323612"><ele>298.0</ele><time>2026-05-03T12:58:46.533Z</time></trkpt><trkpt lat="44.555263" lon="9.9324061"><ele>298.0</ele><time>2026-05-03T12:58:47.532Z</time></trkpt><trkpt lat="44.5553341" lon="9.9324561"><ele>298.0</ele><time>2026-05-03T12:58:48.532Z</time></trkpt><trkpt lat="44.5553983" lon="9.9325089"><ele>298.0</ele><time>2026-05-03T12:58:49.532Z</time></trkpt><trkpt lat="44.5554646" lon="9.9325524"><ele>297.8333333333333</ele><time>2026-05-03T12:58:50.532Z</time></trkpt><trkpt lat="44.5555332" lon="9.9325977"><ele>297.66666666666663</ele><time>2026-05-03T12:58:51.532Z</time></trkpt><trkpt lat="44.5556181" lon="9.9325416"><ele>297.5</ele><time>2026-05-03T12:58:52.532Z</time></trkpt><trkpt lat="44.5556884" lon="9.932513"><ele>297.3333333333333</ele><time>2026-05-03T12:58:53.532Z</time></trkpt><trkpt lat="44.5557644" lon="9.9324911"><ele>297.1666666666667</ele><time>2026-05-03T12:58:54.532Z</time></trkpt><trkpt lat="44.5558547" lon="9.9325031"><ele>297.0</ele><time>2026-05-03T12:58:55.532Z</time></trkpt><trkpt lat="44.5559445" lon="9.9325183"><ele>297.0</ele><time>2026-05-03T12:58:56.532Z</time></trkpt><trkpt lat="44.5560285" lon="9.9325478"><ele>297.0</ele><time>2026-05-03T12:58:57.532Z</time></trkpt><trkpt lat="44.5561086" lon="9.9325752"><ele>297.0</ele><time>2026-05-03T12:58:58.532Z</time></trkpt><trkpt lat="44.5561876" lon="9.9326"><ele>297.0</ele><time>2026-05-03T12:58:59.533Z</time></trkpt><trkpt lat="44.5562607" lon="9.9326204"><ele>297.0</ele><time>2026-05-03T12:59:00.532Z</time></trkpt><trkpt lat="44.5563263" lon="9.9326437"><ele>297.0</ele><time>2026-05-03T12:59:01.532Z</time></trkpt><trkpt lat="44.556427" lon="9.9326846"><ele>297.0</ele><time>2026-05-03T12:59:03.532Z</time></trkpt><trkpt lat="44.5565028" lon="9.9327038"><ele>297.0</ele><time>2026-05-03T12:59:46.532Z</time></trkpt><trkpt lat="44.5566188" lon="9.9327385"><ele>297.0</ele><time>2026-05-03T12:59:48.532Z</time></trkpt><trkpt lat="44.5566978" lon="9.9327606"><ele>297.0</ele><time>2026-05-03T12:59:49.532Z</time></trkpt><trkpt lat="44.5567895" lon="9.9327925"><ele>297.0</ele><time>2026-05-03T12:59:50.532Z</time></trkpt><trkpt lat="44.5568907" lon="9.9328319"><ele>297.0</ele><time>2026-05-03T12:59:51.532Z</time></trkpt><trkpt lat="44.5569943" lon="9.9328745"><ele>297.0</ele><time>2026-05-03T12:59:52.532Z</time></trkpt><trkpt lat="44.557099" lon="9.9329279"><ele>297.0</ele><time>2026-05-03T12:59:53.532Z</time></trkpt><trkpt lat="44.5572048" lon="9.9329897"><ele>297.0</ele><time>2026-05-03T12:59:54.532Z</time></trkpt><trkpt lat="44.5573115" lon="9.9330522"><ele>296.5</ele><time>2026-05-03T12:59:55.532Z</time></trkpt><trkpt lat="44.5574212" lon="9.9331172"><ele>296.0</ele><time>2026-05-03T12:59:56.532Z</time></trkpt><trkpt lat="44.5575297" lon="9.9331862"><ele>295.5</ele><time>2026-05-03T12:59:57.532Z</time></trkpt><trkpt lat="44.5576325" lon="9.9332621"><ele>295.0</ele><time>2026-05-03T12:59:58.532Z</time></trkpt><trkpt lat="44.5577369" lon="9.9333366"><ele>295.25</ele><time>2026-05-03T12:59:59.532Z</time></trkpt><trkpt lat="44.5578399" lon="9.9334145"><ele>295.5</ele><time>2026-05-03T13:00:00.532Z</time></trkpt><trkpt lat="44.5579423" lon="9.9334974"><ele>295.75</ele><time>2026-05-03T13:00:01.532Z</time></trkpt><trkpt lat="44.5580451" lon="9.9335879"><ele>296.0</ele><time>2026-05-03T13:00:02.532Z</time></trkpt><trkpt lat="44.5581522" lon="9.9336751"><ele>296.0</ele><time>2026-05-03T13:00:03.532Z</time></trkpt><trkpt lat="44.5582603" lon="9.9337659"><ele>296.0</ele><time>2026-05-03T13:00:04.532Z</time></trkpt><trkpt lat="44.5583749" lon="9.9338487"><ele>296.0</ele><time>2026-05-03T13:00:05.532Z</time></trkpt><trkpt lat="44.5584901" lon="9.9339318"><ele>296.0</ele><time>2026-05-03T13:00:06.532Z</time></trkpt><trkpt lat="44.5586135" lon="9.9340167"><ele>296.0</ele><time>2026-05-03T13:00:07.532Z</time></trkpt><trkpt lat="44.5587392" lon="9.9340991"><ele>296.0</ele><time>2026-05-03T13:00:08.532Z</time></trkpt><trkpt lat="44.5588631" lon="9.9341853"><ele>296.0</ele><time>2026-05-03T13:00:09.532Z</time></trkpt><trkpt lat="44.5589853" lon="9.9342715"><ele>296.0</ele><time>2026-05-03T13:00:10.532Z</time></trkpt><trkpt lat="44.5591058" lon="9.9343569"><ele>296.0</ele><time>2026-05-03T13:00:11.532Z</time></trkpt><trkpt lat="44.5592226" lon="9.9344482"><ele>296.0</ele><time>2026-05-03T13:00:12.532Z</time></trkpt><trkpt lat="44.5593413" lon="9.9345362"><ele>296.0</ele><time>2026-05-03T13:00:13.532Z</time></trkpt><trkpt lat="44.5594557" lon="9.9346321"><ele>296.0</ele><time>2026-05-03T13:00:14.534Z</time></trkpt><trkpt lat="44.5595688" lon="9.9347351"><ele>294.75</ele><time>2026-05-03T13:00:15.532Z</time></trkpt><trkpt lat="44.5596757" lon="9.9348384"><ele>293.5</ele><time>2026-05-03T13:00:16.533Z</time></trkpt><trkpt lat="44.559779" lon="9.9349397"><ele>292.25</ele><time>2026-05-03T13:00:17.532Z</time></trkpt><trkpt lat="44.5598785" lon="9.9350479"><ele>291.0</ele><time>2026-05-03T13:00:18.532Z</time></trkpt><trkpt lat="44.5599607" lon="9.9351733"><ele>291.0</ele><time>2026-05-03T13:00:19.532Z</time></trkpt><trkpt lat="44.5600349" lon="9.9352989"><ele>291.0</ele><time>2026-05-03T13:00:20.533Z</time></trkpt><trkpt lat="44.5600982" lon="9.9354497"><ele>291.0</ele><time>2026-05-03T13:00:21.533Z</time></trkpt><trkpt lat="44.5601557" lon="9.9356072"><ele>291.0</ele><time>2026-05-03T13:00:22.532Z</time></trkpt><trkpt lat="44.560212" lon="9.9357706"><ele>292.25</ele><time>2026-05-03T13:00:23.531Z</time></trkpt><trkpt lat="44.560269" lon="9.9359319"><ele>293.5</ele><time>2026-05-03T13:00:24.531Z</time></trkpt><trkpt lat="44.5603245" lon="9.9360953"><ele>294.75</ele><time>2026-05-03T13:00:25.531Z</time></trkpt><trkpt lat="44.5603808" lon="9.9362584"><ele>296.0</ele><time>2026-05-03T13:00:26.531Z</time></trkpt><trkpt lat="44.5604406" lon="9.9364175"><ele>296.75</ele><time>2026-05-03T13:00:27.531Z</time></trkpt><trkpt lat="44.5604995" lon="9.9365753"><ele>297.5</ele><time>2026-05-03T13:00:28.531Z</time></trkpt><trkpt lat="44.5605622" lon="9.9367282"><ele>298.25</ele><time>2026-05-03T13:00:29.531Z</time></trkpt><trkpt lat="44.5606483" lon="9.9368599"><ele>299.0</ele><time>2026-05-03T13:00:30.531Z</time></trkpt><trkpt lat="44.5607514" lon="9.9369641"><ele>299.0</ele><time>2026-05-03T13:00:31.532Z</time></trkpt><trkpt lat="44.5608678" lon="9.9370515"><ele>299.0</ele><time>2026-05-03T13:00:32.531Z</time></trkpt><trkpt lat="44.5609921" lon="9.9371264"><ele>299.0</ele><time>2026-05-03T13:00:33.531Z</time></trkpt><trkpt lat="44.5611106" lon="9.9372066"><ele>299.0</ele><time>2026-05-03T13:00:34.531Z</time></trkpt><trkpt lat="44.5612409" lon="9.9372871"><ele>297.75</ele><time>2026-05-03T13:00:35.532Z</time></trkpt><trkpt lat="44.5613683" lon="9.9373741"><ele>296.5</ele><time>2026-05-03T13:00:36.531Z</time></trkpt><trkpt lat="44.5614923" lon="9.9374597"><ele>295.25</ele><time>2026-05-03T13:00:37.531Z</time></trkpt><trkpt lat="44.5616077" lon="9.9375607"><ele>294.0</ele><time>2026-05-03T13:00:38.531Z</time></trkpt><trkpt lat="44.5617097" lon="9.9376834"><ele>294.0</ele><time>2026-05-03T13:00:39.532Z</time></trkpt><trkpt lat="44.5617962" lon="9.9378209"><ele>294.0</ele><time>2026-05-03T13:00:40.531Z</time></trkpt><trkpt lat="44.56189" lon="9.9379282"><ele>294.0</ele><time>2026-05-03T13:00:41.531Z</time></trkpt><trkpt lat="44.5619942" lon="9.9379963"><ele>294.0</ele><time>2026-05-03T13:00:42.531Z</time></trkpt><trkpt lat="44.5620924" lon="9.9380616"><ele>290.5</ele><time>2026-05-03T13:00:43.531Z</time></trkpt><trkpt lat="44.5622159" lon="9.93801"><ele>287.0</ele><time>2026-05-03T13:00:44.531Z</time></trkpt><trkpt lat="44.5623203" lon="9.9379699"><ele>283.5</ele><time>2026-05-03T13:00:45.532Z</time></trkpt><trkpt lat="44.5624257" lon="9.9378935"><ele>280.0</ele><time>2026-05-03T13:00:46.531Z</time></trkpt><trkpt lat="44.5625215" lon="9.937794"><ele>280.0</ele><time>2026-05-03T13:00:47.531Z</time></trkpt><trkpt lat="44.5626155" lon="9.937714"><ele>280.0</ele><time>2026-05-03T13:00:48.531Z</time></trkpt><trkpt lat="44.5627226" lon="9.9376761"><ele>280.0</ele><time>2026-05-03T13:00:49.531Z</time></trkpt><trkpt lat="44.5628191" lon="9.9376822"><ele>280.0</ele><time>2026-05-03T13:00:50.531Z</time></trkpt><trkpt lat="44.5628927" lon="9.9377273"><ele>280.0</ele><time>2026-05-03T13:00:51.531Z</time></trkpt><trkpt lat="44.562943" lon="9.9377893"><ele>278.8333333333333</ele><time>2026-05-03T13:00:52.531Z</time></trkpt><trkpt lat="44.5629903" lon="9.9378659"><ele>277.66666666666663</ele><time>2026-05-03T13:00:53.531Z</time></trkpt><trkpt lat="44.5630399" lon="9.9379481"><ele>276.5</ele><time>2026-05-03T13:00:54.532Z</time></trkpt><trkpt lat="44.5630911" lon="9.9380299"><ele>275.3333333333333</ele><time>2026-05-03T13:00:55.531Z</time></trkpt><trkpt lat="44.5631503" lon="9.9381174"><ele>274.1666666666667</ele><time>2026-05-03T13:00:56.531Z</time></trkpt><trkpt lat="44.563216" lon="9.9382019"><ele>273.0</ele><time>2026-05-03T13:00:57.531Z</time></trkpt><trkpt lat="44.5632868" lon="9.9382967"><ele>273.8</ele><time>2026-05-03T13:00:58.531Z</time></trkpt><trkpt lat="44.5633707" lon="9.9383925"><ele>274.6</ele><time>2026-05-03T13:00:59.531Z</time></trkpt><trkpt lat="44.5634587" lon="9.9384866"><ele>275.4</ele><time>2026-05-03T13:01:00.531Z</time></trkpt><trkpt lat="44.5635465" lon="9.9385778"><ele>276.2</ele><time>2026-05-03T13:01:01.531Z</time></trkpt><trkpt lat="44.5636413" lon="9.9386686"><ele>277.0</ele><time>2026-05-03T13:01:02.532Z</time></trkpt><trkpt lat="44.56374" lon="9.9387624"><ele>277.0</ele><time>2026-05-03T13:01:03.531Z</time></trkpt><trkpt lat="44.5638394" lon="9.9388564"><ele>277.0</ele><time>2026-05-03T13:01:04.531Z</time></trkpt><trkpt lat="44.5639373" lon="9.9389521"><ele>277.0</ele><time>2026-05-03T13:01:05.531Z</time></trkpt><trkpt lat="44.5640378" lon="9.9390458"><ele>277.0</ele><time>2026-05-03T13:01:06.532Z</time></trkpt><trkpt lat="44.5641421" lon="9.9391377"><ele>276.25</ele><time>2026-05-03T13:01:07.531Z</time></trkpt><trkpt lat="44.564245" lon="9.939233"><ele>275.5</ele><time>2026-05-03T13:01:08.531Z</time></trkpt><trkpt lat="44.5643425" lon="9.9393325"><ele>274.75</ele><time>2026-05-03T13:01:09.531Z</time></trkpt><trkpt lat="44.5644449" lon="9.9394325"><ele>274.0</ele><time>2026-05-03T13:01:10.531Z</time></trkpt><trkpt lat="44.5645484" lon="9.9395372"><ele>274.0</ele><time>2026-05-03T13:01:11.531Z</time></trkpt><trkpt lat="44.56465" lon="9.939653"><ele>274.0</ele><time>2026-05-03T13:01:12.531Z</time></trkpt><trkpt lat="44.5647535" lon="9.9397693"><ele>274.0</ele><time>2026-05-03T13:01:13.531Z</time></trkpt><trkpt lat="44.5648507" lon="9.9399004"><ele>274.0</ele><time>2026-05-03T13:01:14.531Z</time></trkpt><trkpt lat="44.5649525" lon="9.9400285"><ele>275.25</ele><time>2026-05-03T13:01:15.531Z</time></trkpt><trkpt lat="44.5650497" lon="9.9401549"><ele>276.5</ele><time>2026-05-03T13:01:16.531Z</time></trkpt><trkpt lat="44.5651449" lon="9.9402833"><ele>277.75</ele><time>2026-05-03T13:01:17.531Z</time></trkpt><trkpt lat="44.5652367" lon="9.9404119"><ele>279.0</ele><time>2026-05-03T13:01:18.531Z</time></trkpt><trkpt lat="44.5653316" lon="9.9405416"><ele>278.5</ele><time>2026-05-03T13:01:19.531Z</time></trkpt><trkpt lat="44.5654166" lon="9.9406794"><ele>278.0</ele><time>2026-05-03T13:01:20.531Z</time></trkpt><trkpt lat="44.565495" lon="9.9408223"><ele>277.5</ele><time>2026-05-03T13:01:21.531Z</time></trkpt><trkpt lat="44.5655611" lon="9.9409748"><ele>277.0</ele><time>2026-05-03T13:01:22.531Z</time></trkpt><trkpt lat="44.5656234" lon="9.9411314"><ele>277.0</ele><time>2026-05-03T13:01:23.531Z</time></trkpt><trkpt lat="44.565684" lon="9.9412935"><ele>277.0</ele><time>2026-05-03T13:01:24.531Z</time></trkpt><trkpt lat="44.5657389" lon="9.941459"><ele>277.0</ele><time>2026-05-03T13:01:25.531Z</time></trkpt><trkpt lat="44.5657899" lon="9.9416265"><ele>277.0</ele><time>2026-05-03T13:01:26.531Z</time></trkpt><trkpt lat="44.5658407" lon="9.9417946"><ele>277.75</ele><time>2026-05-03T13:01:27.531Z</time></trkpt><trkpt lat="44.5658915" lon="9.9419544"><ele>278.5</ele><time>2026-05-03T13:01:28.531Z</time></trkpt><trkpt lat="44.5659345" lon="9.9421136"><ele>279.25</ele><time>2026-05-03T13:01:29.531Z</time></trkpt><trkpt lat="44.5659516" lon="9.9422798"><ele>280.0</ele><time>2026-05-03T13:01:30.531Z</time></trkpt><trkpt lat="44.5659604" lon="9.9424441"><ele>280.8</ele><time>2026-05-03T13:01:31.531Z</time></trkpt><trkpt lat="44.5659687" lon="9.942601"><ele>281.6</ele><time>2026-05-03T13:01:32.532Z</time></trkpt><trkpt lat="44.5659727" lon="9.9427568"><ele>282.4</ele><time>2026-05-03T13:01:33.531Z</time></trkpt><trkpt lat="44.5659789" lon="9.942904"><ele>283.2</ele><time>2026-05-03T13:01:34.531Z</time></trkpt><trkpt lat="44.5659909" lon="9.9430458"><ele>284.0</ele><time>2026-05-03T13:01:35.531Z</time></trkpt><trkpt lat="44.5660196" lon="9.9431759"><ele>284.0</ele><time>2026-05-03T13:01:36.531Z</time></trkpt><trkpt lat="44.5660686" lon="9.9432927"><ele>284.0</ele><time>2026-05-03T13:01:37.532Z</time></trkpt><trkpt lat="44.5661366" lon="9.9433788"><ele>284.0</ele><time>2026-05-03T13:01:38.532Z</time></trkpt><trkpt lat="44.5662233" lon="9.9434369"><ele>284.0</ele><time>2026-05-03T13:01:39.531Z</time></trkpt><trkpt lat="44.5663214" lon="9.9434663"><ele>284.0</ele><time>2026-05-03T13:01:40.531Z</time></trkpt><trkpt lat="44.5664288" lon="9.9434816"><ele>281.0</ele><time>2026-05-03T13:01:41.531Z</time></trkpt><trkpt lat="44.566539" lon="9.9434955"><ele>278.0</ele><time>2026-05-03T13:01:42.531Z</time></trkpt><trkpt lat="44.5666542" lon="9.9435012"><ele>275.0</ele><time>2026-05-03T13:01:43.531Z</time></trkpt><trkpt lat="44.5667703" lon="9.9435111"><ele>272.0</ele><time>2026-05-03T13:01:44.532Z</time></trkpt><trkpt lat="44.5668857" lon="9.9435179"><ele>272.0</ele><time>2026-05-03T13:01:45.532Z</time></trkpt><trkpt lat="44.5669985" lon="9.9435275"><ele>272.0</ele><time>2026-05-03T13:01:46.531Z</time></trkpt><trkpt lat="44.5671154" lon="9.9435414"><ele>272.0</ele><time>2026-05-03T13:01:47.532Z</time></trkpt><trkpt lat="44.5672337" lon="9.9435564"><ele>272.0</ele><time>2026-05-03T13:01:48.531Z</time></trkpt><trkpt lat="44.5673524" lon="9.9435634"><ele>269.75</ele><time>2026-05-03T13:01:49.532Z</time></trkpt><trkpt lat="44.5674681" lon="9.9435748"><ele>267.5</ele><time>2026-05-03T13:01:50.531Z</time></trkpt><trkpt lat="44.5675842" lon="9.9435845"><ele>265.25</ele><time>2026-05-03T13:01:51.531Z</time></trkpt><trkpt lat="44.5676978" lon="9.9435996"><ele>263.0</ele><time>2026-05-03T13:01:52.531Z</time></trkpt><trkpt lat="44.5678131" lon="9.9436053"><ele>264.8</ele><time>2026-05-03T13:01:53.531Z</time></trkpt><trkpt lat="44.5679223" lon="9.9436096"><ele>266.6</ele><time>2026-05-03T13:01:54.531Z</time></trkpt><trkpt lat="44.5680109" lon="9.9436061"><ele>268.4</ele><time>2026-05-03T13:01:55.531Z</time></trkpt><trkpt lat="44.568096" lon="9.9436067"><ele>270.2</ele><time>2026-05-03T13:01:56.531Z</time></trkpt><trkpt lat="44.5681117" lon="9.9434729"><ele>272.0</ele><time>2026-05-03T13:01:58.531Z</time></trkpt><trkpt lat="44.5680761" lon="9.9433197"><ele>274.8</ele><time>2026-05-03T13:02:00.532Z</time></trkpt><trkpt lat="44.5680439" lon="9.9431898"><ele>277.6</ele><time>2026-05-03T13:02:01.531Z</time></trkpt><trkpt lat="44.5680198" lon="9.9430438"><ele>280.40000000000003</ele><time>2026-05-03T13:02:02.531Z</time></trkpt><trkpt lat="44.5679877" lon="9.9428783"><ele>283.2</ele><time>2026-05-03T13:02:03.531Z</time></trkpt><trkpt lat="44.5679542" lon="9.9427186"><ele>286.0</ele><time>2026-05-03T13:02:04.531Z</time></trkpt><trkpt lat="44.5679188" lon="9.942559"><ele>285.5</ele><time>2026-05-03T13:02:05.531Z</time></trkpt><trkpt lat="44.5678906" lon="9.9423917"><ele>285.0</ele><time>2026-05-03T13:02:06.531Z</time></trkpt><trkpt lat="44.5678591" lon="9.9422218"><ele>284.5</ele><time>2026-05-03T13:02:07.531Z</time></trkpt><trkpt lat="44.5678337" lon="9.94207"><ele>284.0</ele><time>2026-05-03T13:02:08.531Z</time></trkpt><trkpt lat="44.5678146" lon="9.9419235"><ele>280.6666666666667</ele><time>2026-05-03T13:02:09.531Z</time></trkpt><trkpt lat="44.5677989" lon="9.9417837"><ele>277.33333333333337</ele><time>2026-05-03T13:02:10.531Z</time></trkpt><trkpt lat="44.5677853" lon="9.9416721"><ele>274.0</ele><time>2026-05-03T13:02:11.531Z</time></trkpt><trkpt lat="44.5677647" lon="9.9415356"><ele>270.6666666666667</ele><time>2026-05-03T13:02:13.531Z</time></trkpt><trkpt lat="44.5677384" lon="9.9414519"><ele>267.3333333333333</ele><time>2026-05-03T13:02:15.531Z</time></trkpt><trkpt lat="44.5678072" lon="9.9414536"><ele>264.0</ele><time>2026-05-03T13:02:20.532Z</time></trkpt><trkpt lat="44.5678141" lon="9.9415484"><ele>264.0</ele><time>2026-05-03T13:02:23.531Z</time></trkpt><trkpt lat="44.5677513" lon="9.9415815"><ele>264.0</ele><time>2026-05-03T13:02:53.531Z</time></trkpt><trkpt lat="44.5678005" lon="9.9414594"><ele>264.0</ele><time>2026-05-03T13:02:56.531Z</time></trkpt><trkpt lat="44.5678791" lon="9.9414033"><ele>264.0</ele><time>2026-05-03T13:02:58.531Z</time></trkpt><trkpt lat="44.567963" lon="9.9413635"><ele>264.0</ele><time>2026-05-03T13:03:00.531Z</time></trkpt><trkpt lat="44.5680417" lon="9.9413444"><ele>264.0</ele><time>2026-05-03T13:03:13.53Z</time></trkpt><trkpt lat="44.5681482" lon="9.9414238"><ele>266.2857142857143</ele><time>2026-05-03T13:03:16.53Z</time></trkpt><trkpt lat="44.5682101" lon="9.9414415"><ele>268.57142857142856</ele><time>2026-05-03T13:03:18.53Z</time></trkpt><trkpt lat="44.5682823" lon="9.9413737"><ele>270.8571428571429</ele><time>2026-05-03T13:03:20.53Z</time></trkpt><trkpt lat="44.5683432" lon="9.9413447"><ele>273.1428571428571</ele><time>2026-05-03T13:03:22.53Z</time></trkpt><trkpt lat="44.5684133" lon="9.941373"><ele>275.42857142857144</ele><time>2026-05-03T13:03:24.53Z</time></trkpt><trkpt lat="44.568486" lon="9.9414033"><ele>277.7142857142857</ele><time>2026-05-03T13:03:26.53Z</time></trkpt><trkpt lat="44.5685585" lon="9.9414463"><ele>280.0</ele><time>2026-05-03T13:03:28.531Z</time></trkpt><trkpt lat="44.5685667" lon="9.9415709"><ele>280.66666666666663</ele><time>2026-05-03T13:03:31.53Z</time></trkpt><trkpt lat="44.5685636" lon="9.9417621"><ele>281.3333333333333</ele><time>2026-05-03T13:03:33.53Z</time></trkpt><trkpt lat="44.5685642" lon="9.9418655"><ele>282.0</ele><time>2026-05-03T13:03:34.53Z</time></trkpt><trkpt lat="44.568564" lon="9.9419726"><ele>282.6666666666667</ele><time>2026-05-03T13:03:35.53Z</time></trkpt><trkpt lat="44.5685476" lon="9.9420683"><ele>283.33333333333337</ele><time>2026-05-03T13:03:36.53Z</time></trkpt><trkpt lat="44.568532" lon="9.9421721"><ele>284.0</ele><time>2026-05-03T13:03:37.53Z</time></trkpt><trkpt lat="44.5685216" lon="9.9422756"><ele>284.0</ele><time>2026-05-03T13:03:38.53Z</time></trkpt><trkpt lat="44.5685319" lon="9.9424076"><ele>284.0</ele><time>2026-05-03T13:03:40.53Z</time></trkpt><trkpt lat="44.5685578" lon="9.942503"><ele>284.0</ele><time>2026-05-03T13:04:01.53Z</time></trkpt><trkpt lat="44.5686062" lon="9.9426315"><ele>284.0</ele><time>2026-05-03T13:04:03.531Z</time></trkpt><trkpt lat="44.5686457" lon="9.9427776"><ele>284.0</ele><time>2026-05-03T13:04:05.53Z</time></trkpt><trkpt lat="44.5686928" lon="9.9429112"><ele>289.83333333333337</ele><time>2026-05-03T13:04:07.53Z</time></trkpt><trkpt lat="44.5687623" lon="9.9430287"><ele>295.6666666666667</ele><time>2026-05-03T13:04:09.53Z</time></trkpt><trkpt lat="44.5688415" lon="9.9430545"><ele>301.5</ele><time>2026-05-03T13:04:12.53Z</time></trkpt><trkpt lat="44.5689079" lon="9.9429749"><ele>307.3333333333333</ele><time>2026-05-03T13:04:15.53Z</time></trkpt><trkpt lat="44.5689462" lon="9.942892"><ele>313.16666666666663</ele><time>2026-05-03T13:04:17.53Z</time></trkpt><trkpt lat="44.5690004" lon="9.9428043"><ele>319.0</ele><time>2026-05-03T13:04:19.531Z</time></trkpt><trkpt lat="44.569074" lon="9.942765"><ele>319.0</ele><time>2026-05-03T13:04:22.532Z</time></trkpt><trkpt lat="44.5691736" lon="9.9427812"><ele>319.0</ele><time>2026-05-03T13:04:25.53Z</time></trkpt><trkpt lat="44.5692481" lon="9.9427673"><ele>319.0</ele><time>2026-05-03T13:04:27.535Z</time></trkpt><trkpt lat="44.5693016" lon="9.942818"><ele>319.0</ele><time>2026-05-03T13:04:29.53Z</time></trkpt><trkpt lat="44.5692736" lon="9.9429373"><ele>319.0</ele><time>2026-05-03T13:04:32.53Z</time></trkpt><trkpt lat="44.5692771" lon="9.9430277"><ele>319.0</ele><time>2026-05-03T13:04:34.452Z</time></trkpt><trkpt lat="44.5693529" lon="9.9430072"><ele>319.0</ele><time>2026-05-03T13:04:36.53Z</time></trkpt><trkpt lat="44.5694135" lon="9.9429061"><ele>319.0</ele><time>2026-05-03T13:04:38.53Z</time></trkpt><trkpt lat="44.5694921" lon="9.9428107"><ele>319.0</ele><time>2026-05-03T13:04:40.53Z</time></trkpt><trkpt lat="44.569554" lon="9.9427525"><ele>319.0</ele><time>2026-05-03T13:04:42.531Z</time></trkpt><trkpt lat="44.5696443" lon="9.9427342"><ele>319.0</ele><time>2026-05-03T13:04:44.53Z</time></trkpt><trkpt lat="44.5697091" lon="9.9427297"><ele>319.0</ele><time>2026-05-03T13:04:46.53Z</time></trkpt><trkpt lat="44.5697849" lon="9.9427286"><ele>320.7142857142857</ele><time>2026-05-03T13:04:48.53Z</time></trkpt><trkpt lat="44.5698476" lon="9.9427071"><ele>322.4285714285714</ele><time>2026-05-03T13:07:03.529Z</time></trkpt><trkpt lat="44.5699267" lon="9.9426937"><ele>324.1428571428571</ele><time>2026-05-03T13:07:08.529Z</time></trkpt><trkpt lat="44.5700024" lon="9.9426643"><ele>325.8571428571429</ele><time>2026-05-03T13:07:11.529Z</time></trkpt><trkpt lat="44.5700636" lon="9.9426084"><ele>327.57142857142856</ele><time>2026-05-03T13:07:14.529Z</time></trkpt><trkpt lat="44.5701352" lon="9.9426356"><ele>329.2857142857143</ele><time>2026-05-03T13:07:17.529Z</time></trkpt><trkpt lat="44.5702076" lon="9.942638"><ele>331.0</ele><time>2026-05-03T13:07:19.529Z</time></trkpt><trkpt lat="44.5702829" lon="9.9425971"><ele>331.0</ele><time>2026-05-03T13:07:21.529Z</time></trkpt><trkpt lat="44.5703574" lon="9.9425626"><ele>331.0</ele><time>2026-05-03T13:07:23.529Z</time></trkpt><trkpt lat="44.5704269" lon="9.9424885"><ele>331.0</ele><time>2026-05-03T13:07:26.529Z</time></trkpt><trkpt lat="44.5705368" lon="9.9423907"><ele>331.0</ele><time>2026-05-03T13:07:28.529Z</time></trkpt><trkpt lat="44.5706321" lon="9.9423496"><ele>331.0</ele><time>2026-05-03T13:07:30.529Z</time></trkpt><trkpt lat="44.5707154" lon="9.9423716"><ele>335.20000000000005</ele><time>2026-05-03T13:07:32.529Z</time></trkpt><trkpt lat="44.5707872" lon="9.9423758"><ele>339.40000000000003</ele><time>2026-05-03T13:07:34.53Z</time></trkpt><trkpt lat="44.5708566" lon="9.9422529"><ele>343.6</ele><time>2026-05-03T13:07:37.529Z</time></trkpt><trkpt lat="44.5709132" lon="9.9421541"><ele>347.8</ele><time>2026-05-03T13:07:39.529Z</time></trkpt><trkpt lat="44.5709752" lon="9.9420695"><ele>352.0</ele><time>2026-05-03T13:07:41.529Z</time></trkpt><trkpt lat="44.5710541" lon="9.9419813"><ele>352.0</ele><time>2026-05-03T13:07:43.529Z</time></trkpt><trkpt lat="44.5711299" lon="9.9418801"><ele>352.0</ele><time>2026-05-03T13:07:45.529Z</time></trkpt><trkpt lat="44.57121" lon="9.9417929"><ele>352.0</ele><time>2026-05-03T13:07:47.529Z</time></trkpt><trkpt lat="44.5712448" lon="9.941659"><ele>352.0</ele><time>2026-05-03T13:07:49.528Z</time></trkpt><trkpt lat="44.5712905" lon="9.9415144"><ele>352.0</ele><time>2026-05-03T13:07:51.53Z</time></trkpt><trkpt lat="44.5713277" lon="9.9413647"><ele>354.25</ele><time>2026-05-03T13:07:53.529Z</time></trkpt><trkpt lat="44.571318" lon="9.9411863"><ele>356.5</ele><time>2026-05-03T13:07:55.528Z</time></trkpt><trkpt lat="44.5713096" lon="9.9410443"><ele>358.75</ele><time>2026-05-03T13:07:57.528Z</time></trkpt><trkpt lat="44.5712865" lon="9.9408865"><ele>361.0</ele><time>2026-05-03T13:07:59.528Z</time></trkpt><trkpt lat="44.5712512" lon="9.940728"><ele>362.8333333333333</ele><time>2026-05-03T13:08:01.528Z</time></trkpt><trkpt lat="44.5712346" lon="9.9406109"><ele>364.66666666666663</ele><time>2026-05-03T13:08:03.528Z</time></trkpt><trkpt lat="44.5712563" lon="9.9404832"><ele>366.5</ele><time>2026-05-03T13:08:05.528Z</time></trkpt><trkpt lat="44.5712974" lon="9.9403609"><ele>368.3333333333333</ele><time>2026-05-03T13:08:07.528Z</time></trkpt><trkpt lat="44.5713278" lon="9.9402777"><ele>370.1666666666667</ele><time>2026-05-03T13:08:09.528Z</time></trkpt><trkpt lat="44.5713746" lon="9.9401851"><ele>372.0</ele><time>2026-05-03T13:08:11.528Z</time></trkpt><trkpt lat="44.5714235" lon="9.9400881"><ele>374.25</ele><time>2026-05-03T13:08:13.529Z</time></trkpt><trkpt lat="44.5714658" lon="9.9399528"><ele>376.5</ele><time>2026-05-03T13:08:15.528Z</time></trkpt><trkpt lat="44.5714637" lon="9.9398248"><ele>378.75</ele><time>2026-05-03T13:08:17.528Z</time></trkpt><trkpt lat="44.5714702" lon="9.9396509"><ele>381.0</ele><time>2026-05-03T13:08:19.528Z</time></trkpt><trkpt lat="44.571487" lon="9.9394455"><ele>381.0</ele><time>2026-05-03T13:08:21.528Z</time></trkpt><trkpt lat="44.57151" lon="9.9393511"><ele>381.0</ele><time>2026-05-03T13:08:22.528Z</time></trkpt><trkpt lat="44.5715359" lon="9.9392422"><ele>381.0</ele><time>2026-05-03T13:08:24.528Z</time></trkpt><trkpt lat="44.5715989" lon="9.9392114"><ele>381.0</ele><time>2026-05-03T13:08:28.528Z</time></trkpt><trkpt lat="44.5716712" lon="9.9393"><ele>381.0</ele><time>2026-05-03T13:08:30.528Z</time></trkpt><trkpt lat="44.571699" lon="9.9393878"><ele>381.0</ele><time>2026-05-03T13:08:33.528Z</time></trkpt><trkpt lat="44.5717486" lon="9.9394548"><ele>381.0</ele><time>2026-05-03T13:08:40.528Z</time></trkpt><trkpt lat="44.5718101" lon="9.9394884"><ele>381.0</ele><time>2026-05-03T13:08:45.528Z</time></trkpt><trkpt lat="44.5718599" lon="9.9395659"><ele>381.0</ele><time>2026-05-03T13:08:59.529Z</time></trkpt><trkpt lat="44.571922" lon="9.9396151"><ele>381.0</ele><time>2026-05-03T13:09:01.528Z</time></trkpt><trkpt lat="44.5719716" lon="9.9396813"><ele>381.0</ele><time>2026-05-03T13:09:02.528Z</time></trkpt><trkpt lat="44.5720391" lon="9.9397607"><ele>381.0</ele><time>2026-05-03T13:09:04.528Z</time></trkpt><trkpt lat="44.5721274" lon="9.9397582"><ele>384.0</ele><time>2026-05-03T13:09:08.528Z</time></trkpt><trkpt lat="44.5722671" lon="9.9397442"><ele>387.0</ele><time>2026-05-03T13:09:10.528Z</time></trkpt><trkpt lat="44.5723351" lon="9.9397369"><ele>390.0</ele><time>2026-05-03T13:09:12.528Z</time></trkpt><trkpt lat="44.5724049" lon="9.9397232"><ele>393.0</ele><time>2026-05-03T13:09:14.528Z</time></trkpt><trkpt lat="44.5724755" lon="9.9396644"><ele>396.0</ele><time>2026-05-03T13:09:16.528Z</time></trkpt><trkpt lat="44.572543" lon="9.9396272"><ele>399.0</ele><time>2026-05-03T13:09:18.528Z</time></trkpt><trkpt lat="44.5726058" lon="9.9396006"><ele>399.0</ele><time>2026-05-03T13:09:21.528Z</time></trkpt><trkpt lat="44.572678" lon="9.9395755"><ele>399.0</ele><time>2026-05-03T13:09:24.529Z</time></trkpt><trkpt lat="44.5727348" lon="9.9394899"><ele>399.0</ele><time>2026-05-03T13:09:27.529Z</time></trkpt><trkpt lat="44.5728028" lon="9.9394292"><ele>399.0</ele><time>2026-05-03T13:09:30.529Z</time></trkpt><trkpt lat="44.572857" lon="9.9393545"><ele>399.0</ele><time>2026-05-03T13:09:33.528Z</time></trkpt><trkpt lat="44.5729205" lon="9.939291"><ele>399.0</ele><time>2026-05-03T13:09:36.511Z</time></trkpt><trkpt lat="44.5729863" lon="9.9393123"><ele>401.0</ele><time>2026-05-03T13:09:38.528Z</time></trkpt><trkpt lat="44.5730566" lon="9.9393026"><ele>403.0</ele><time>2026-05-03T13:09:41.529Z</time></trkpt><trkpt lat="44.5730911" lon="9.9392129"><ele>405.0</ele><time>2026-05-03T13:09:43.528Z</time></trkpt><trkpt lat="44.5731041" lon="9.9391007"><ele>407.0</ele><time>2026-05-03T13:09:45.529Z</time></trkpt><trkpt lat="44.5731386" lon="9.9390139"><ele>409.0</ele><time>2026-05-03T13:09:47.455Z</time></trkpt><trkpt lat="44.5731768" lon="9.938933"><ele>411.0</ele><time>2026-05-03T13:09:49.528Z</time></trkpt><trkpt lat="44.5732286" lon="9.9388671"><ele>413.0</ele><time>2026-05-03T13:09:51.487Z</time></trkpt><trkpt lat="44.5732896" lon="9.9388047"><ele>415.8333333333333</ele><time>2026-05-03T13:09:53.528Z</time></trkpt><trkpt lat="44.5733387" lon="9.938736"><ele>418.66666666666663</ele><time>2026-05-03T13:09:55.528Z</time></trkpt><trkpt lat="44.5733993" lon="9.9386831"><ele>421.5</ele><time>2026-05-03T13:09:57.528Z</time></trkpt><trkpt lat="44.573454" lon="9.9385845"><ele>424.33333333333337</ele><time>2026-05-03T13:10:00.528Z</time></trkpt><trkpt lat="44.5735003" lon="9.9384583"><ele>427.1666666666667</ele><time>2026-05-03T13:10:03.528Z</time></trkpt><trkpt lat="44.5735588" lon="9.9383347"><ele>430.0</ele><time>2026-05-03T13:10:05.528Z</time></trkpt><trkpt lat="44.573615" lon="9.9382132"><ele>430.8</ele><time>2026-05-03T13:10:07.528Z</time></trkpt><trkpt lat="44.5736597" lon="9.9381037"><ele>431.6</ele><time>2026-05-03T13:10:09.528Z</time></trkpt><trkpt lat="44.5737066" lon="9.9379774"><ele>432.4</ele><time>2026-05-03T13:10:11.528Z</time></trkpt><trkpt lat="44.5737861" lon="9.9378786"><ele>433.2</ele><time>2026-05-03T13:10:13.529Z</time></trkpt><trkpt lat="44.5738326" lon="9.9378106"><ele>434.0</ele><time>2026-05-03T13:10:15.528Z</time></trkpt><trkpt lat="44.5739103" lon="9.9377298"><ele>437.79999999999995</ele><time>2026-05-03T13:10:17.528Z</time></trkpt><trkpt lat="44.5738878" lon="9.9375794"><ele>441.59999999999997</ele><time>2026-05-03T13:10:19.528Z</time></trkpt><trkpt lat="44.5738666" lon="9.9374328"><ele>445.4</ele><time>2026-05-03T13:10:22.527Z</time></trkpt><trkpt lat="44.5738777" lon="9.9372966"><ele>449.2</ele><time>2026-05-03T13:10:24.527Z</time></trkpt><trkpt lat="44.5738608" lon="9.9371561"><ele>453.0</ele><time>2026-05-03T13:10:26.528Z</time></trkpt><trkpt lat="44.5739209" lon="9.9371072"><ele>455.0</ele><time>2026-05-03T13:10:29.527Z</time></trkpt><trkpt lat="44.5739851" lon="9.9372084"><ele>456.99999999999994</ele><time>2026-05-03T13:10:33.527Z</time></trkpt><trkpt lat="44.5740278" lon="9.9373504"><ele>458.99999999999994</ele><time>2026-05-03T13:10:35.527Z</time></trkpt><trkpt lat="44.5741043" lon="9.9373865"><ele>461.0</ele><time>2026-05-03T13:10:38.549Z</time></trkpt><trkpt lat="44.5741643" lon="9.9372944"><ele>463.0</ele><time>2026-05-03T13:10:40.527Z</time></trkpt><trkpt lat="44.5742081" lon="9.9371846"><ele>463.00000000000006</ele><time>2026-05-03T13:10:43.527Z</time></trkpt><trkpt lat="44.5742655" lon="9.9370816"><ele>463.0</ele><time>2026-05-03T13:10:46.527Z</time></trkpt><trkpt lat="44.5742399" lon="9.9369973"><ele>463.0</ele><time>2026-05-03T13:10:55.528Z</time></trkpt><trkpt lat="44.5742308" lon="9.9368835"><ele>463.0</ele><time>2026-05-03T13:12:14.527Z</time></trkpt><trkpt lat="44.5742268" lon="9.9367554"><ele>463.00000000000006</ele><time>2026-05-03T13:12:16.527Z</time></trkpt><trkpt lat="44.5742496" lon="9.9366316"><ele>463.0</ele><time>2026-05-03T13:12:18.527Z</time></trkpt><trkpt lat="44.5742751" lon="9.9365124"><ele>464.00000000000006</ele><time>2026-05-03T13:12:20.528Z</time></trkpt><trkpt lat="44.5743076" lon="9.9364109"><ele>465.0</ele><time>2026-05-03T13:12:22.527Z</time></trkpt><trkpt lat="44.5743201" lon="9.936315"><ele>466.0</ele><time>2026-05-03T13:12:24.527Z</time></trkpt><trkpt lat="44.5743143" lon="9.9361988"><ele>467.0</ele><time>2026-05-03T13:12:26.528Z</time></trkpt><trkpt lat="44.5742845" lon="9.9360827"><ele>468.00000000000006</ele><time>2026-05-03T13:12:28.527Z</time></trkpt><trkpt lat="44.5742383" lon="9.9359798"><ele>469.0</ele><time>2026-05-03T13:12:30.527Z</time></trkpt><trkpt lat="44.5741977" lon="9.9358763"><ele>470.50000000000006</ele><time>2026-05-03T13:12:32.527Z</time></trkpt><trkpt lat="44.574148" lon="9.9358206"><ele>472.0</ele><time>2026-05-03T13:12:33.527Z</time></trkpt><trkpt lat="44.574091" lon="9.9357213"><ele>473.5</ele><time>2026-05-03T13:12:35.527Z</time></trkpt><trkpt lat="44.5740709" lon="9.9356269"><ele>475.0</ele><time>2026-05-03T13:12:38.527Z</time></trkpt><trkpt lat="44.5740538" lon="9.9355156"><ele>476.50000000000006</ele><time>2026-05-03T13:12:41.527Z</time></trkpt><trkpt lat="44.5739613" lon="9.9354184"><ele>478.0</ele><time>2026-05-03T13:12:44.527Z</time></trkpt><trkpt lat="44.5738965" lon="9.9353504"><ele>478.00000000000006</ele><time>2026-05-03T13:12:46.528Z</time></trkpt><trkpt lat="44.5738583" lon="9.9352532"><ele>478.0</ele><time>2026-05-03T13:12:48.527Z</time></trkpt><trkpt lat="44.5738053" lon="9.935136"><ele>478.0</ele><time>2026-05-03T13:12:50.527Z</time></trkpt><trkpt lat="44.5737685" lon="9.9350529"><ele>478.0</ele><time>2026-05-03T13:12:52.527Z</time></trkpt><trkpt lat="44.5736854" lon="9.9350179"><ele>478.00000000000006</ele><time>2026-05-03T13:12:56.527Z</time></trkpt><trkpt lat="44.5735999" lon="9.934976"><ele>478.0</ele><time>2026-05-03T13:12:57.527Z</time></trkpt><trkpt lat="44.5734807" lon="9.9348858"><ele>477.79999999999995</ele><time>2026-05-03T13:12:59.527Z</time></trkpt><trkpt lat="44.5733828" lon="9.9347934"><ele>477.59999999999997</ele><time>2026-05-03T13:13:01.527Z</time></trkpt><trkpt lat="44.5732936" lon="9.9347006"><ele>477.40000000000003</ele><time>2026-05-03T13:13:03.526Z</time></trkpt><trkpt lat="44.5732042" lon="9.9346229"><ele>477.20000000000005</ele><time>2026-05-03T13:13:05.526Z</time></trkpt><trkpt lat="44.5731418" lon="9.9345879"><ele>477.0</ele><time>2026-05-03T13:13:06.526Z</time></trkpt><trkpt lat="44.5730332" lon="9.9344968"><ele>477.0</ele><time>2026-05-03T13:13:08.526Z</time></trkpt><trkpt lat="44.5729679" lon="9.9344467"><ele>477.0</ele><time>2026-05-03T13:13:10.526Z</time></trkpt><trkpt lat="44.5729049" lon="9.9343666"><ele>477.0</ele><time>2026-05-03T13:13:12.526Z</time></trkpt><trkpt lat="44.5728351" lon="9.9342986"><ele>477.0</ele><time>2026-05-03T13:13:14.527Z</time></trkpt><trkpt lat="44.5727365" lon="9.9342555"><ele>477.0</ele><time>2026-05-03T13:13:16.526Z</time></trkpt><trkpt lat="44.5726564" lon="9.9342347"><ele>477.0</ele><time>2026-05-03T13:13:18.526Z</time></trkpt><trkpt lat="44.5725797" lon="9.9342385"><ele>476.0</ele><time>2026-05-03T13:13:20.526Z</time></trkpt><trkpt lat="44.5724898" lon="9.9342442"><ele>475.0</ele><time>2026-05-03T13:13:22.526Z</time></trkpt><trkpt lat="44.5724201" lon="9.9342522"><ele>474.0</ele><time>2026-05-03T13:13:24.526Z</time></trkpt><trkpt lat="44.5723488" lon="9.9342644"><ele>473.0</ele><time>2026-05-03T13:13:27.526Z</time></trkpt><trkpt lat="44.5722654" lon="9.934325"><ele>472.0</ele><time>2026-05-03T13:13:30.527Z</time></trkpt><trkpt lat="44.5721976" lon="9.9343539"><ele>471.0</ele><time>2026-05-03T13:13:32.526Z</time></trkpt><trkpt lat="44.5721274" lon="9.9344048"><ele>471.0</ele><time>2026-05-03T13:13:34.526Z</time></trkpt><trkpt lat="44.5720444" lon="9.9343815"><ele>471.0</ele><time>2026-05-03T13:13:37.526Z</time></trkpt><trkpt lat="44.5720137" lon="9.9342989"><ele>471.0</ele><time>2026-05-03T13:13:39.526Z</time></trkpt><trkpt lat="44.57196" lon="9.9342332"><ele>471.0</ele><time>2026-05-03T13:13:41.526Z</time></trkpt><trkpt lat="44.5718918" lon="9.9342009"><ele>471.0</ele><time>2026-05-03T13:13:42.526Z</time></trkpt><trkpt lat="44.5717957" lon="9.9341361"><ele>471.0</ele><time>2026-05-03T13:13:44.526Z</time></trkpt><trkpt lat="44.5717071" lon="9.9340923"><ele>475.1666666666667</ele><time>2026-05-03T13:13:46.526Z</time></trkpt><trkpt lat="44.5716296" lon="9.9340586"><ele>479.33333333333337</ele><time>2026-05-03T13:13:48.526Z</time></trkpt><trkpt lat="44.5715618" lon="9.9340372"><ele>483.5</ele><time>2026-05-03T13:13:50.526Z</time></trkpt><trkpt lat="44.571495" lon="9.934041"><ele>487.6666666666667</ele><time>2026-05-03T13:13:52.526Z</time></trkpt><trkpt lat="44.5714202" lon="9.9340456"><ele>491.83333333333337</ele><time>2026-05-03T13:13:54.527Z</time></trkpt><trkpt lat="44.5713409" lon="9.9340293"><ele>496.0</ele><time>2026-05-03T13:13:56.526Z</time></trkpt><trkpt lat="44.5712474" lon="9.9339394"><ele>497.6</ele><time>2026-05-03T13:13:58.526Z</time></trkpt><trkpt lat="44.5711747" lon="9.933834"><ele>499.20000000000005</ele><time>2026-05-03T13:14:00.526Z</time></trkpt><trkpt lat="44.571097" lon="9.9337045"><ele>500.79999999999995</ele><time>2026-05-03T13:14:02.526Z</time></trkpt><trkpt lat="44.5710569" lon="9.9336305"><ele>502.4</ele><time>2026-05-03T13:14:03.526Z</time></trkpt><trkpt lat="44.5709973" lon="9.9334871"><ele>504.0</ele><time>2026-05-03T13:14:05.526Z</time></trkpt><trkpt lat="44.5709198" lon="9.9333732"><ele>506.6</ele><time>2026-05-03T13:14:07.527Z</time></trkpt><trkpt lat="44.5708811" lon="9.9333016"><ele>509.2</ele><time>2026-05-03T13:14:08.526Z</time></trkpt><trkpt lat="44.5708011" lon="9.9332439"><ele>511.80000000000007</ele><time>2026-05-03T13:14:10.526Z</time></trkpt><trkpt lat="44.5707065" lon="9.9331636"><ele>514.4</ele><time>2026-05-03T13:14:12.526Z</time></trkpt><trkpt lat="44.5707018" lon="9.933044"><ele>517.0</ele><time>2026-05-03T13:14:14.527Z</time></trkpt><trkpt lat="44.5707336" lon="9.932904"><ele>517.0</ele><time>2026-05-03T13:14:16.526Z</time></trkpt><trkpt lat="44.5707506" lon="9.9327602"><ele>517.0</ele><time>2026-05-03T13:14:18.526Z</time></trkpt><trkpt lat="44.5707679" lon="9.9326209"><ele>517.0</ele><time>2026-05-03T13:14:20.526Z</time></trkpt><trkpt lat="44.5707903" lon="9.9324672"><ele>517.0</ele><time>2026-05-03T13:14:22.526Z</time></trkpt><trkpt lat="44.5708238" lon="9.9323862"><ele>517.0</ele><time>2026-05-03T13:14:23.526Z</time></trkpt><trkpt lat="44.5708553" lon="9.9322969"><ele>516.8333333333334</ele><time>2026-05-03T13:14:24.526Z</time></trkpt><trkpt lat="44.5708881" lon="9.9322155"><ele>516.6666666666667</ele><time>2026-05-03T13:14:25.527Z</time></trkpt><trkpt lat="44.5709295" lon="9.9321469"><ele>516.5</ele><time>2026-05-03T13:14:26.526Z</time></trkpt><trkpt lat="44.5709568" lon="9.932058"><ele>516.3333333333334</ele><time>2026-05-03T13:14:27.526Z</time></trkpt><trkpt lat="44.5710142" lon="9.9319271"><ele>516.1666666666666</ele><time>2026-05-03T13:14:29.526Z</time></trkpt><trkpt lat="44.5710499" lon="9.9317652"><ele>516.0</ele><time>2026-05-03T13:14:31.526Z</time></trkpt><trkpt lat="44.5710614" lon="9.9316073"><ele>516.0</ele><time>2026-05-03T13:14:33.526Z</time></trkpt><trkpt lat="44.5710779" lon="9.9314841"><ele>516.0</ele><time>2026-05-03T13:14:35.527Z</time></trkpt><trkpt lat="44.5710733" lon="9.9313945"><ele>516.0</ele><time>2026-05-03T13:14:36.526Z</time></trkpt><trkpt lat="44.5711002" lon="9.931297"><ele>516.0</ele><time>2026-05-03T13:14:39.526Z</time></trkpt><trkpt lat="44.5711026" lon="9.9311921"><ele>516.0</ele><time>2026-05-03T13:14:42.526Z</time></trkpt><trkpt lat="44.5710521" lon="9.9309975"><ele>516.0</ele><time>2026-05-03T13:14:45.526Z</time></trkpt><trkpt lat="44.57098" lon="9.9309233"><ele>516.0</ele><time>2026-05-03T13:14:47.526Z</time></trkpt><trkpt lat="44.5708846" lon="9.9308083"><ele>516.0</ele><time>2026-05-03T13:14:49.527Z</time></trkpt><trkpt lat="44.5708302" lon="9.930748"><ele>516.0</ele><time>2026-05-03T13:14:50.527Z</time></trkpt><trkpt lat="44.5707702" lon="9.9306856"><ele>516.0</ele><time>2026-05-03T13:14:51.526Z</time></trkpt><trkpt lat="44.5706967" lon="9.9306271"><ele>516.0</ele><time>2026-05-03T13:14:52.526Z</time></trkpt><trkpt lat="44.5705932" lon="9.9305516"><ele>516.6</ele><time>2026-05-03T13:14:54.527Z</time></trkpt><trkpt lat="44.5704995" lon="9.9304454"><ele>517.2</ele><time>2026-05-03T13:14:56.528Z</time></trkpt><trkpt lat="44.5704241" lon="9.9303252"><ele>517.8</ele><time>2026-05-03T13:14:58.526Z</time></trkpt><trkpt lat="44.5703819" lon="9.9302142"><ele>518.4</ele><time>2026-05-03T13:14:59.527Z</time></trkpt><trkpt lat="44.5703495" lon="9.9301123"><ele>519.0</ele><time>2026-05-03T13:15:00.527Z</time></trkpt><trkpt lat="44.5703168" lon="9.9300089"><ele>519.3333333333334</ele><time>2026-05-03T13:15:01.527Z</time></trkpt><trkpt lat="44.5702871" lon="9.929929"><ele>519.6666666666666</ele><time>2026-05-03T13:15:02.526Z</time></trkpt><trkpt lat="44.5702674" lon="9.9297606"><ele>520.0</ele><time>2026-05-03T13:15:04.526Z</time></trkpt><trkpt lat="44.570254" lon="9.9296599"><ele>520.3333333333333</ele><time>2026-05-03T13:15:05.526Z</time></trkpt><trkpt lat="44.5702335" lon="9.9295579"><ele>520.6666666666666</ele><time>2026-05-03T13:15:06.526Z</time></trkpt><trkpt lat="44.5702161" lon="9.9294538"><ele>521.0</ele><time>2026-05-03T13:15:07.526Z</time></trkpt><trkpt lat="44.570215" lon="9.9293537"><ele>521.0</ele><time>2026-05-03T13:15:08.526Z</time></trkpt><trkpt lat="44.5702182" lon="9.9292496"><ele>521.0</ele><time>2026-05-03T13:15:09.526Z</time></trkpt><trkpt lat="44.5702588" lon="9.9291651"><ele>521.0</ele><time>2026-05-03T13:15:10.526Z</time></trkpt><trkpt lat="44.5702798" lon="9.9290698"><ele>521.0</ele><time>2026-05-03T13:15:11.526Z</time></trkpt><trkpt lat="44.5703212" lon="9.9289194"><ele>521.0</ele><time>2026-05-03T13:15:13.526Z</time></trkpt><trkpt lat="44.5703348" lon="9.9287706"><ele>521.0</ele><time>2026-05-03T13:15:15.526Z</time></trkpt><trkpt lat="44.5703376" lon="9.9285948"><ele>521.3333333333333</ele><time>2026-05-03T13:15:17.526Z</time></trkpt><trkpt lat="44.5703109" lon="9.9284198"><ele>521.6666666666666</ele><time>2026-05-03T13:15:19.527Z</time></trkpt><trkpt lat="44.5702757" lon="9.928338"><ele>522.0</ele><time>2026-05-03T13:15:20.526Z</time></trkpt><trkpt lat="44.5702507" lon="9.928243"><ele>522.3333333333334</ele><time>2026-05-03T13:15:21.526Z</time></trkpt><trkpt lat="44.5702375" lon="9.9281213"><ele>522.6666666666667</ele><time>2026-05-03T13:15:22.526Z</time></trkpt><trkpt lat="44.570201" lon="9.9280201"><ele>523.0</ele><time>2026-05-03T13:15:23.526Z</time></trkpt><trkpt lat="44.5701727" lon="9.927922"><ele>523.4</ele><time>2026-05-03T13:15:24.526Z</time></trkpt><trkpt lat="44.5701332" lon="9.9278212"><ele>523.8</ele><time>2026-05-03T13:15:25.526Z</time></trkpt><trkpt lat="44.5700937" lon="9.9277331"><ele>524.2</ele><time>2026-05-03T13:15:26.527Z</time></trkpt><trkpt lat="44.5700344" lon="9.9275749"><ele>524.6</ele><time>2026-05-03T13:15:28.526Z</time></trkpt><trkpt lat="44.5699692" lon="9.927473"><ele>525.0</ele><time>2026-05-03T13:15:30.526Z</time></trkpt><trkpt lat="44.5699137" lon="9.9273451"><ele>527.2</ele><time>2026-05-03T13:15:32.526Z</time></trkpt><trkpt lat="44.5698733" lon="9.9272333"><ele>529.4</ele><time>2026-05-03T13:15:34.526Z</time></trkpt><trkpt lat="44.5698635" lon="9.927143"><ele>531.6</ele><time>2026-05-03T13:15:35.526Z</time></trkpt><trkpt lat="44.5698201" lon="9.9269492"><ele>533.8</ele><time>2026-05-03T13:15:37.526Z</time></trkpt><trkpt lat="44.5697884" lon="9.9268503"><ele>536.0</ele><time>2026-05-03T13:15:38.526Z</time></trkpt><trkpt lat="44.569703" lon="9.9267377"><ele>535.8</ele><time>2026-05-03T13:15:40.526Z</time></trkpt><trkpt lat="44.5696517" lon="9.9266701"><ele>535.6</ele><time>2026-05-03T13:15:41.526Z</time></trkpt><trkpt lat="44.569574" lon="9.9265658"><ele>535.4</ele><time>2026-05-03T13:15:43.527Z</time></trkpt><trkpt lat="44.5695182" lon="9.926499"><ele>535.2</ele><time>2026-05-03T13:15:44.526Z</time></trkpt><trkpt lat="44.5694469" lon="9.9264247"><ele>535.0</ele><time>2026-05-03T13:15:45.526Z</time></trkpt><trkpt lat="44.5693868" lon="9.9262955"><ele>535.0</ele><time>2026-05-03T13:15:47.527Z</time></trkpt><trkpt lat="44.5693528" lon="9.9262171"><ele>535.0</ele><time>2026-05-03T13:15:48.526Z</time></trkpt><trkpt lat="44.5693125" lon="9.9260579"><ele>535.0</ele><time>2026-05-03T13:15:50.527Z</time></trkpt><trkpt lat="44.5692811" lon="9.9259713"><ele>535.0</ele><time>2026-05-03T13:15:51.526Z</time></trkpt><trkpt lat="44.5692401" lon="9.925823"><ele>535.0</ele><time>2026-05-03T13:15:53.527Z</time></trkpt><trkpt lat="44.5691765" lon="9.9257136"><ele>541.25</ele><time>2026-05-03T13:15:55.527Z</time></trkpt><trkpt lat="44.5691127" lon="9.9255714"><ele>547.5</ele><time>2026-05-03T13:15:57.526Z</time></trkpt><trkpt lat="44.5690596" lon="9.9254364"><ele>553.75</ele><time>2026-05-03T13:15:59.526Z</time></trkpt><trkpt lat="44.5689875" lon="9.9253478"><ele>560.0</ele><time>2026-05-03T13:16:01.526Z</time></trkpt><trkpt lat="44.5689009" lon="9.9252161"><ele>560.0</ele><time>2026-05-03T13:16:03.525Z</time></trkpt><trkpt lat="44.5688526" lon="9.9251483"><ele>560.0</ele><time>2026-05-03T13:16:04.525Z</time></trkpt><trkpt lat="44.5687776" lon="9.9250548"><ele>560.0</ele><time>2026-05-03T13:16:06.525Z</time></trkpt><trkpt lat="44.5687127" lon="9.9249479"><ele>560.0</ele><time>2026-05-03T13:16:08.526Z</time></trkpt><trkpt lat="44.5686848" lon="9.9248295"><ele>560.0</ele><time>2026-05-03T13:16:10.525Z</time></trkpt><trkpt lat="44.5687191" lon="9.9246917"><ele>564.5</ele><time>2026-05-03T13:16:12.525Z</time></trkpt><trkpt lat="44.56875" lon="9.9245535"><ele>569.0</ele><time>2026-05-03T13:16:14.525Z</time></trkpt><trkpt lat="44.568778" lon="9.9244654"><ele>573.5</ele><time>2026-05-03T13:16:15.525Z</time></trkpt><trkpt lat="44.5687958" lon="9.9243777"><ele>578.0</ele><time>2026-05-03T13:16:16.525Z</time></trkpt><trkpt lat="44.5688051" lon="9.9242897"><ele>582.5</ele><time>2026-05-03T13:16:18.525Z</time></trkpt><trkpt lat="44.5688639" lon="9.9243363"><ele>587.0</ele><time>2026-05-03T13:16:22.525Z</time></trkpt><trkpt lat="44.5689118" lon="9.9244357"><ele>587.0</ele><time>2026-05-03T13:16:25.525Z</time></trkpt><trkpt lat="44.5689367" lon="9.9245241"><ele>587.0</ele><time>2026-05-03T13:16:27.525Z</time></trkpt><trkpt lat="44.5689964" lon="9.9246179"><ele>587.0</ele><time>2026-05-03T13:16:30.526Z</time></trkpt><trkpt lat="44.5690586" lon="9.9246679"><ele>587.0</ele><time>2026-05-03T13:16:32.525Z</time></trkpt><trkpt lat="44.5691292" lon="9.9246988"><ele>587.0</ele><time>2026-05-03T13:16:34.525Z</time></trkpt><trkpt lat="44.5691943" lon="9.9247383"><ele>587.0</ele><time>2026-05-03T13:16:36.525Z</time></trkpt><trkpt lat="44.5692474" lon="9.924796"><ele>587.0</ele><time>2026-05-03T13:16:38.527Z</time></trkpt><trkpt lat="44.5693252" lon="9.9248483"><ele>587.0</ele><time>2026-05-03T13:16:41.525Z</time></trkpt><trkpt lat="44.5693949" lon="9.9248314"><ele>587.0</ele><time>2026-05-03T13:16:44.525Z</time></trkpt><trkpt lat="44.5694734" lon="9.9248117"><ele>587.0</ele><time>2026-05-03T13:16:47.49Z</time></trkpt><trkpt lat="44.5695702" lon="9.9247645"><ele>587.0</ele><time>2026-05-03T13:16:49.525Z</time></trkpt><trkpt lat="44.5696567" lon="9.9247235"><ele>587.0</ele><time>2026-05-03T13:16:50.525Z</time></trkpt><trkpt lat="44.5697469" lon="9.9247076"><ele>587.0</ele><time>2026-05-03T13:16:53.525Z</time></trkpt><trkpt lat="44.569826" lon="9.9247475"><ele>591.0</ele><time>2026-05-03T13:16:55.525Z</time></trkpt><trkpt lat="44.5698964" lon="9.9247109"><ele>595.0</ele><time>2026-05-03T13:16:58.525Z</time></trkpt><trkpt lat="44.5699843" lon="9.9246715"><ele>599.0</ele><time>2026-05-03T13:17:01.526Z</time></trkpt><trkpt lat="44.5700812" lon="9.92462"><ele>603.0</ele><time>2026-05-03T13:17:04.525Z</time></trkpt><trkpt lat="44.5701432" lon="9.9245831"><ele>607.0</ele><time>2026-05-03T13:17:06.525Z</time></trkpt><trkpt lat="44.5702255" lon="9.9245344"><ele>611.0</ele><time>2026-05-03T13:17:09.525Z</time></trkpt><trkpt lat="44.5703144" lon="9.9244692"><ele>613.1428571428572</ele><time>2026-05-03T13:17:11.526Z</time></trkpt><trkpt lat="44.5703823" lon="9.9244222"><ele>615.2857142857143</ele><time>2026-05-03T13:17:13.525Z</time></trkpt><trkpt lat="44.570448" lon="9.9243832"><ele>617.4285714285714</ele><time>2026-05-03T13:17:15.525Z</time></trkpt><trkpt lat="44.5705179" lon="9.9243274"><ele>619.5714285714287</ele><time>2026-05-03T13:17:18.525Z</time></trkpt><trkpt lat="44.5705642" lon="9.9242644"><ele>621.7142857142858</ele><time>2026-05-03T13:17:21.525Z</time></trkpt><trkpt lat="44.5706182" lon="9.9242162"><ele>623.8571428571429</ele><time>2026-05-03T13:17:23.525Z</time></trkpt><trkpt lat="44.5706822" lon="9.9241628"><ele>626.0</ele><time>2026-05-03T13:17:25.525Z</time></trkpt><trkpt lat="44.5707491" lon="9.9240778"><ele>629.3333333333333</ele><time>2026-05-03T13:17:28.526Z</time></trkpt><trkpt lat="44.5707941" lon="9.9240086"><ele>632.6666666666666</ele><time>2026-05-03T13:17:30.526Z</time></trkpt><trkpt lat="44.570855" lon="9.9239524"><ele>636.0</ele><time>2026-05-03T13:17:33.525Z</time></trkpt><trkpt lat="44.5709278" lon="9.9239372"><ele>639.3333333333334</ele><time>2026-05-03T13:17:36.525Z</time></trkpt><trkpt lat="44.5710016" lon="9.9238869"><ele>642.6666666666667</ele><time>2026-05-03T13:17:40.525Z</time></trkpt><trkpt lat="44.5710401" lon="9.923779"><ele>646.0</ele><time>2026-05-03T13:17:43.525Z</time></trkpt><trkpt lat="44.5710911" lon="9.9236773"><ele>646.0</ele><time>2026-05-03T13:17:46.525Z</time></trkpt><trkpt lat="44.5711675" lon="9.9235877"><ele>646.0</ele><time>2026-05-03T13:17:48.525Z</time></trkpt><trkpt lat="44.5712424" lon="9.9234988"><ele>646.0</ele><time>2026-05-03T13:17:50.525Z</time></trkpt><trkpt lat="44.5713526" lon="9.923399"><ele>646.0</ele><time>2026-05-03T13:17:52.525Z</time></trkpt><trkpt lat="44.5713951" lon="9.9233251"><ele>646.0</ele><time>2026-05-03T13:17:54.525Z</time></trkpt><trkpt lat="44.5713887" lon="9.923172"><ele>649.1999999999999</ele><time>2026-05-03T13:17:56.525Z</time></trkpt><trkpt lat="44.5714054" lon="9.9230208"><ele>652.4</ele><time>2026-05-03T13:17:58.526Z</time></trkpt><trkpt lat="44.5714525" lon="9.9229046"><ele>655.6</ele><time>2026-05-03T13:18:00.525Z</time></trkpt><trkpt lat="44.5715049" lon="9.9227769"><ele>658.8</ele><time>2026-05-03T13:18:02.525Z</time></trkpt><trkpt lat="44.5715092" lon="9.922641"><ele>662.0</ele><time>2026-05-03T13:18:04.525Z</time></trkpt><trkpt lat="44.5715172" lon="9.9224873"><ele>663.8333333333333</ele><time>2026-05-03T13:18:06.525Z</time></trkpt><trkpt lat="44.5715391" lon="9.9223726"><ele>665.6666666666666</ele><time>2026-05-03T13:18:08.525Z</time></trkpt><trkpt lat="44.5715699" lon="9.9222189"><ele>667.5</ele><time>2026-05-03T13:18:10.525Z</time></trkpt><trkpt lat="44.5715756" lon="9.9221297"><ele>669.3333333333334</ele><time>2026-05-03T13:18:11.525Z</time></trkpt><trkpt lat="44.5715898" lon="9.9220393"><ele>671.1666666666667</ele><time>2026-05-03T13:18:12.525Z</time></trkpt><trkpt lat="44.5715821" lon="9.9218822"><ele>673.0</ele><time>2026-05-03T13:18:14.525Z</time></trkpt><trkpt lat="44.5715278" lon="9.9218015"><ele>674.2</ele><time>2026-05-03T13:18:16.525Z</time></trkpt><trkpt lat="44.5714596" lon="9.9217201"><ele>675.4</ele><time>2026-05-03T13:18:18.525Z</time></trkpt><trkpt lat="44.5714127" lon="9.9216259"><ele>676.6</ele><time>2026-05-03T13:18:20.525Z</time></trkpt><trkpt lat="44.5713795" lon="9.9214914"><ele>677.8000000000001</ele><time>2026-05-03T13:18:22.525Z</time></trkpt><trkpt lat="44.5713225" lon="9.9213221"><ele>679.0</ele><time>2026-05-03T13:18:24.525Z</time></trkpt><trkpt lat="44.5712922" lon="9.9212295"><ele>679.0</ele><time>2026-05-03T13:18:25.525Z</time></trkpt><trkpt lat="44.5712167" lon="9.9210927"><ele>679.0</ele><time>2026-05-03T13:18:27.525Z</time></trkpt><trkpt lat="44.571126" lon="9.920979"><ele>679.0</ele><time>2026-05-03T13:18:29.525Z</time></trkpt><trkpt lat="44.5710805" lon="9.9209119"><ele>679.0</ele><time>2026-05-03T13:18:30.525Z</time></trkpt><trkpt lat="44.5710334" lon="9.9208457"><ele>679.0</ele><time>2026-05-03T13:18:31.525Z</time></trkpt><trkpt lat="44.5709877" lon="9.9207772"><ele>679.0</ele><time>2026-05-03T13:18:32.525Z</time></trkpt><trkpt lat="44.5709483" lon="9.9207043"><ele>680.8000000000001</ele><time>2026-05-03T13:18:33.525Z</time></trkpt><trkpt lat="44.5708839" lon="9.9205924"><ele>682.6</ele><time>2026-05-03T13:18:35.525Z</time></trkpt><trkpt lat="44.5708181" lon="9.9205559"><ele>684.4</ele><time>2026-05-03T13:18:36.525Z</time></trkpt><trkpt lat="44.5707065" lon="9.9204873"><ele>686.2</ele><time>2026-05-03T13:18:38.525Z</time></trkpt><trkpt lat="44.5706693" lon="9.9203678"><ele>688.0</ele><time>2026-05-03T13:18:40.525Z</time></trkpt><trkpt lat="44.5706217" lon="9.9202219"><ele>688.0</ele><time>2026-05-03T13:18:42.525Z</time></trkpt><trkpt lat="44.5705786" lon="9.9200788"><ele>688.0</ele><time>2026-05-03T13:18:44.525Z</time></trkpt><trkpt lat="44.5705059" lon="9.9199647"><ele>688.0</ele><time>2026-05-03T13:18:46.525Z</time></trkpt><trkpt lat="44.5704362" lon="9.9198399"><ele>688.0</ele><time>2026-05-03T13:18:48.525Z</time></trkpt><trkpt lat="44.5703772" lon="9.9196995"><ele>688.0</ele><time>2026-05-03T13:18:50.525Z</time></trkpt><trkpt lat="44.5703278" lon="9.9195467"><ele>687.2</ele><time>2026-05-03T13:18:52.525Z</time></trkpt><trkpt lat="44.5703238" lon="9.9194497"><ele>686.4</ele><time>2026-05-03T13:18:53.525Z</time></trkpt><trkpt lat="44.5703102" lon="9.9193573"><ele>685.6</ele><time>2026-05-03T13:18:54.525Z</time></trkpt><trkpt lat="44.570306" lon="9.9191961"><ele>684.8000000000001</ele><time>2026-05-03T13:18:56.525Z</time></trkpt><trkpt lat="44.5702817" lon="9.9190867"><ele>684.0</ele><time>2026-05-03T13:18:57.525Z</time></trkpt><trkpt lat="44.5702551" lon="9.9189185"><ele>687.8000000000001</ele><time>2026-05-03T13:18:59.525Z</time></trkpt><trkpt lat="44.5702387" lon="9.9188219"><ele>691.6</ele><time>2026-05-03T13:19:00.525Z</time></trkpt><trkpt lat="44.5702129" lon="9.9187394"><ele>695.4</ele><time>2026-05-03T13:19:01.525Z</time></trkpt><trkpt lat="44.5701668" lon="9.9186018"><ele>699.2</ele><time>2026-05-03T13:19:03.525Z</time></trkpt><trkpt lat="44.5700947" lon="9.9184879"><ele>703.0</ele><time>2026-05-03T13:19:05.525Z</time></trkpt><trkpt lat="44.5700198" lon="9.9183818"><ele>704.4</ele><time>2026-05-03T13:19:07.526Z</time></trkpt><trkpt lat="44.5699502" lon="9.9182996"><ele>705.8</ele><time>2026-05-03T13:19:09.527Z</time></trkpt><trkpt lat="44.5698931" lon="9.9182196"><ele>707.2</ele><time>2026-05-03T13:19:11.525Z</time></trkpt><trkpt lat="44.5698266" lon="9.9181198"><ele>708.6</ele><time>2026-05-03T13:19:13.525Z</time></trkpt><trkpt lat="44.5697169" lon="9.9180425"><ele>710.0</ele><time>2026-05-03T13:19:16.524Z</time></trkpt><trkpt lat="44.5696128" lon="9.918007"><ele>710.0</ele><time>2026-05-03T13:19:18.525Z</time></trkpt><trkpt lat="44.5695407" lon="9.9179746"><ele>710.0</ele><time>2026-05-03T13:19:21.524Z</time></trkpt><trkpt lat="44.5694713" lon="9.9179288"><ele>710.0</ele><time>2026-05-03T13:19:24.524Z</time></trkpt><trkpt lat="44.5693702" lon="9.9178771"><ele>710.0</ele><time>2026-05-03T13:19:26.524Z</time></trkpt><trkpt lat="44.5692766" lon="9.9178367"><ele>710.0</ele><time>2026-05-03T13:19:28.524Z</time></trkpt><trkpt lat="44.5691656" lon="9.9178088"><ele>712.0</ele><time>2026-05-03T13:19:30.524Z</time></trkpt><trkpt lat="44.5690738" lon="9.9177924"><ele>714.0</ele><time>2026-05-03T13:19:32.524Z</time></trkpt><trkpt lat="44.5689782" lon="9.9177449"><ele>716.0</ele><time>2026-05-03T13:19:34.524Z</time></trkpt><trkpt lat="44.5688925" lon="9.917697"><ele>718.0</ele><time>2026-05-03T13:19:36.525Z</time></trkpt><trkpt lat="44.5688179" lon="9.9176122"><ele>720.0</ele><time>2026-05-03T13:19:38.525Z</time></trkpt><trkpt lat="44.5687544" lon="9.9175153"><ele>720.0</ele><time>2026-05-03T13:19:40.524Z</time></trkpt><trkpt lat="44.5687193" lon="9.9174394"><ele>720.0</ele><time>2026-05-03T13:19:42.524Z</time></trkpt><trkpt lat="44.5686588" lon="9.9173676"><ele>720.0</ele><time>2026-05-03T13:19:43.524Z</time></trkpt><trkpt lat="44.5685862" lon="9.9173668"><ele>720.0</ele><time>2026-05-03T13:19:44.524Z</time></trkpt><trkpt lat="44.568495" lon="9.9173243"><ele>720.0</ele><time>2026-05-03T13:19:46.524Z</time></trkpt><trkpt lat="44.5684175" lon="9.9172602"><ele>720.0</ele><time>2026-05-03T13:19:48.524Z</time></trkpt><trkpt lat="44.5683524" lon="9.9171399"><ele>719.0</ele><time>2026-05-03T13:19:50.524Z</time></trkpt><trkpt lat="44.568327" lon="9.9169696"><ele>718.0</ele><time>2026-05-03T13:19:52.524Z</time></trkpt><trkpt lat="44.5682906" lon="9.9168851"><ele>717.0</ele><time>2026-05-03T13:19:54.525Z</time></trkpt><trkpt lat="44.5682208" lon="9.9168271"><ele>716.0</ele><time>2026-05-03T13:19:56.525Z</time></trkpt><trkpt lat="44.5681083" lon="9.916785"><ele>715.0</ele><time>2026-05-03T13:19:58.525Z</time></trkpt><trkpt lat="44.5680389" lon="9.9167629"><ele>717.2</ele><time>2026-05-03T13:19:59.524Z</time></trkpt><trkpt lat="44.5679689" lon="9.9167224"><ele>719.4</ele><time>2026-05-03T13:20:00.524Z</time></trkpt><trkpt lat="44.567854" lon="9.9167188"><ele>721.5999999999999</ele><time>2026-05-03T13:20:02.524Z</time></trkpt><trkpt lat="44.5677457" lon="9.916721"><ele>723.8</ele><time>2026-05-03T13:20:04.524Z</time></trkpt><trkpt lat="44.5676516" lon="9.9167354"><ele>726.0</ele><time>2026-05-03T13:20:06.524Z</time></trkpt><trkpt lat="44.5675669" lon="9.9167154"><ele>726.0</ele><time>2026-05-03T13:20:08.524Z</time></trkpt><trkpt lat="44.5674782" lon="9.9166865"><ele>726.0</ele><time>2026-05-03T13:20:10.526Z</time></trkpt><trkpt lat="44.5674016" lon="9.9166301"><ele>726.0</ele><time>2026-05-03T13:20:11.524Z</time></trkpt><trkpt lat="44.5673023" lon="9.9165593"><ele>726.0</ele><time>2026-05-03T13:20:13.524Z</time></trkpt><trkpt lat="44.5672386" lon="9.9165094"><ele>726.0</ele><time>2026-05-03T13:20:14.525Z</time></trkpt><trkpt lat="44.567171" lon="9.9164703"><ele>726.0</ele><time>2026-05-03T13:20:15.525Z</time></trkpt><trkpt lat="44.5671015" lon="9.9164388"><ele>724.5</ele><time>2026-05-03T13:20:16.525Z</time></trkpt><trkpt lat="44.5670163" lon="9.9164131"><ele>723.0</ele><time>2026-05-03T13:20:18.524Z</time></trkpt><trkpt lat="44.5669321" lon="9.916361"><ele>721.5</ele><time>2026-05-03T13:20:20.524Z</time></trkpt><trkpt lat="44.5668702" lon="9.9163192"><ele>720.0</ele><time>2026-05-03T13:20:22.524Z</time></trkpt><trkpt lat="44.5668324" lon="9.916195"><ele>718.5</ele><time>2026-05-03T13:20:24.524Z</time></trkpt><trkpt lat="44.5668094" lon="9.9160916"><ele>717.0</ele><time>2026-05-03T13:20:25.525Z</time></trkpt><trkpt lat="44.5667663" lon="9.9159294"><ele>719.0</ele><time>2026-05-03T13:20:27.524Z</time></trkpt><trkpt lat="44.5667171" lon="9.9158047"><ele>721.0</ele><time>2026-05-03T13:20:29.524Z</time></trkpt><trkpt lat="44.566644" lon="9.9157511"><ele>723.0</ele><time>2026-05-03T13:20:31.524Z</time></trkpt><trkpt lat="44.5666737" lon="9.9156536"><ele>725.0</ele><time>2026-05-03T13:20:35.525Z</time></trkpt><trkpt lat="44.5667294" lon="9.9155419"><ele>727.0</ele><time>2026-05-03T13:20:38.524Z</time></trkpt><trkpt lat="44.5667945" lon="9.9154054"><ele>727.0</ele><time>2026-05-03T13:20:40.524Z</time></trkpt><trkpt lat="44.5668275" lon="9.9153208"><ele>727.0</ele><time>2026-05-03T13:20:41.524Z</time></trkpt><trkpt lat="44.5668613" lon="9.9152375"><ele>727.0</ele><time>2026-05-03T13:20:42.524Z</time></trkpt><trkpt lat="44.5669005" lon="9.9151656"><ele>727.0</ele><time>2026-05-03T13:20:43.524Z</time></trkpt><trkpt lat="44.5669728" lon="9.9150536"><ele>727.0</ele><time>2026-05-03T13:20:45.525Z</time></trkpt><trkpt lat="44.5670369" lon="9.9149626"><ele>727.0</ele><time>2026-05-03T13:20:47.524Z</time></trkpt><trkpt lat="44.5670958" lon="9.9148692"><ele>727.8</ele><time>2026-05-03T13:20:49.524Z</time></trkpt><trkpt lat="44.5671216" lon="9.914774"><ele>728.6</ele><time>2026-05-03T13:20:50.524Z</time></trkpt><trkpt lat="44.5671521" lon="9.9146469"><ele>729.4</ele><time>2026-05-03T13:20:52.525Z</time></trkpt><trkpt lat="44.5671148" lon="9.9145449"><ele>730.1999999999999</ele><time>2026-05-03T13:20:54.524Z</time></trkpt><trkpt lat="44.5670225" lon="9.9144681"><ele>731.0</ele><time>2026-05-03T13:20:56.524Z</time></trkpt><trkpt lat="44.5669468" lon="9.9143562"><ele>729.0</ele><time>2026-05-03T13:20:58.525Z</time></trkpt><trkpt lat="44.5669573" lon="9.9142205"><ele>727.0</ele><time>2026-05-03T13:21:00.524Z</time></trkpt><trkpt lat="44.567003" lon="9.9140709"><ele>725.0</ele><time>2026-05-03T13:21:02.524Z</time></trkpt><trkpt lat="44.567061" lon="9.9139415"><ele>723.0</ele><time>2026-05-03T13:21:04.525Z</time></trkpt><trkpt lat="44.5670797" lon="9.9137752"><ele>721.0</ele><time>2026-05-03T13:21:06.524Z</time></trkpt><trkpt lat="44.5671401" lon="9.9136152"><ele>721.0</ele><time>2026-05-03T13:21:08.524Z</time></trkpt><trkpt lat="44.5671805" lon="9.9135416"><ele>721.0</ele><time>2026-05-03T13:21:09.525Z</time></trkpt><trkpt lat="44.5672969" lon="9.9134781"><ele>721.0</ele><time>2026-05-03T13:21:11.524Z</time></trkpt><trkpt lat="44.5673545" lon="9.9134312"><ele>721.0</ele><time>2026-05-03T13:21:12.524Z</time></trkpt><trkpt lat="44.5673906" lon="9.9132815"><ele>721.0</ele><time>2026-05-03T13:21:14.524Z</time></trkpt><trkpt lat="44.5674249" lon="9.9132019"><ele>721.0</ele><time>2026-05-03T13:21:15.524Z</time></trkpt><trkpt lat="44.5674672" lon="9.9131273"><ele>719.1428571428571</ele><time>2026-05-03T13:21:16.525Z</time></trkpt><trkpt lat="44.5675337" lon="9.9130133"><ele>717.2857142857142</ele><time>2026-05-03T13:21:18.524Z</time></trkpt><trkpt lat="44.5675751" lon="9.9129401"><ele>715.4285714285714</ele><time>2026-05-03T13:21:19.525Z</time></trkpt><trkpt lat="44.5676073" lon="9.9128404"><ele>713.5714285714286</ele><time>2026-05-03T13:21:20.524Z</time></trkpt><trkpt lat="44.5676426" lon="9.9127637"><ele>711.7142857142857</ele><time>2026-05-03T13:21:21.524Z</time></trkpt><trkpt lat="44.5676632" lon="9.9126757"><ele>709.8571428571429</ele><time>2026-05-03T13:21:22.525Z</time></trkpt><trkpt lat="44.5676786" lon="9.912588"><ele>708.0</ele><time>2026-05-03T13:21:23.524Z</time></trkpt><trkpt lat="44.5676943" lon="9.9124905"><ele>707.0</ele><time>2026-05-03T13:21:24.524Z</time></trkpt><trkpt lat="44.5677171" lon="9.9124036"><ele>706.0</ele><time>2026-05-03T13:21:25.524Z</time></trkpt><trkpt lat="44.5677442" lon="9.9123088"><ele>705.0</ele><time>2026-05-03T13:21:26.524Z</time></trkpt><trkpt lat="44.5677689" lon="9.9122"><ele>704.0</ele><time>2026-05-03T13:21:27.525Z</time></trkpt><trkpt lat="44.5677836" lon="9.9120948"><ele>703.0</ele><time>2026-05-03T13:21:28.524Z</time></trkpt><trkpt lat="44.5678101" lon="9.9120124"><ele>702.0</ele><time>2026-05-03T13:21:29.524Z</time></trkpt><trkpt lat="44.5678717" lon="9.9118648"><ele>701.1666666666666</ele><time>2026-05-03T13:21:31.525Z</time></trkpt><trkpt lat="44.5679372" lon="9.9117676"><ele>700.3333333333334</ele><time>2026-05-03T13:21:33.524Z</time></trkpt><trkpt lat="44.5679685" lon="9.9116773"><ele>699.5</ele><time>2026-05-03T13:21:35.524Z</time></trkpt><trkpt lat="44.5679558" lon="9.91158"><ele>698.6666666666667</ele><time>2026-05-03T13:21:42.524Z</time></trkpt><trkpt lat="44.567909" lon="9.9114907"><ele>697.8333333333334</ele><time>2026-05-03T13:21:44.524Z</time></trkpt><trkpt lat="44.5678518" lon="9.9113775"><ele>697.0</ele><time>2026-05-03T13:21:46.524Z</time></trkpt><trkpt lat="44.5677871" lon="9.911281"><ele>697.0</ele><time>2026-05-03T13:21:48.524Z</time></trkpt><trkpt lat="44.5677013" lon="9.9112142"><ele>697.0</ele><time>2026-05-03T13:21:50.524Z</time></trkpt><trkpt lat="44.5676192" lon="9.9111093"><ele>697.0</ele><time>2026-05-03T13:21:52.524Z</time></trkpt><trkpt lat="44.5675486" lon="9.911019"><ele>697.0</ele><time>2026-05-03T13:21:54.524Z</time></trkpt><trkpt lat="44.5675193" lon="9.9109195"><ele>697.0</ele><time>2026-05-03T13:24:12.524Z</time></trkpt><trkpt lat="44.5675395" lon="9.9107875"><ele>697.1666666666667</ele><time>2026-05-03T13:24:15.524Z</time></trkpt><trkpt lat="44.5675501" lon="9.9106436"><ele>697.3333333333334</ele><time>2026-05-03T13:24:17.523Z</time></trkpt><trkpt lat="44.5675513" lon="9.9105064"><ele>697.5</ele><time>2026-05-03T13:24:19.523Z</time></trkpt><trkpt lat="44.56755" lon="9.9103733"><ele>697.6666666666666</ele><time>2026-05-03T13:24:21.523Z</time></trkpt><trkpt lat="44.5675539" lon="9.9102655"><ele>697.8333333333333</ele><time>2026-05-03T13:24:24.523Z</time></trkpt><trkpt lat="44.5675595" lon="9.9101619"><ele>698.0</ele><time>2026-05-03T13:24:27.523Z</time></trkpt><trkpt lat="44.5675677" lon="9.9100638"><ele>696.4285714285713</ele><time>2026-05-03T13:24:30.523Z</time></trkpt><trkpt lat="44.5675929" lon="9.9099774"><ele>694.8571428571429</ele><time>2026-05-03T13:24:32.523Z</time></trkpt><trkpt lat="44.5676193" lon="9.9098877"><ele>693.2857142857142</ele><time>2026-05-03T13:24:34.523Z</time></trkpt><trkpt lat="44.5676354" lon="9.909801"><ele>691.7142857142857</ele><time>2026-05-03T13:24:36.523Z</time></trkpt><trkpt lat="44.5676494" lon="9.909707"><ele>690.1428571428571</ele><time>2026-05-03T13:24:39.523Z</time></trkpt><trkpt lat="44.5676271" lon="9.9095898"><ele>688.5714285714286</ele><time>2026-05-03T13:24:49.523Z</time></trkpt><trkpt lat="44.5676049" lon="9.9095041"><ele>687.0</ele><time>2026-05-03T13:24:51.524Z</time></trkpt><trkpt lat="44.5675891" lon="9.9093652"><ele>685.0</ele><time>2026-05-03T13:24:53.523Z</time></trkpt><trkpt lat="44.5675676" lon="9.9092391"><ele>683.0</ele><time>2026-05-03T13:24:55.523Z</time></trkpt><trkpt lat="44.5675434" lon="9.909124"><ele>681.0</ele><time>2026-05-03T13:24:57.523Z</time></trkpt><trkpt lat="44.567502" lon="9.9090162"><ele>679.0</ele><time>2026-05-03T13:24:59.523Z</time></trkpt><trkpt lat="44.5674624" lon="9.908929"><ele>677.0</ele><time>2026-05-03T13:25:02.523Z</time></trkpt><trkpt lat="44.5674951" lon="9.9088117"><ele>675.0</ele><time>2026-05-03T13:25:15.523Z</time></trkpt><trkpt lat="44.5675049" lon="9.9086661"><ele>675.0</ele><time>2026-05-03T13:25:17.523Z</time></trkpt><trkpt lat="44.5674973" lon="9.9085206"><ele>675.0</ele><time>2026-05-03T13:25:19.524Z</time></trkpt><trkpt lat="44.5674907" lon="9.9083972"><ele>675.0</ele><time>2026-05-03T13:25:21.523Z</time></trkpt><trkpt lat="44.5674881" lon="9.9082735"><ele>675.0</ele><time>2026-05-03T13:25:23.523Z</time></trkpt><trkpt lat="44.5674828" lon="9.9081478"><ele>675.0</ele><time>2026-05-03T13:25:25.523Z</time></trkpt><trkpt lat="44.567478" lon="9.9080326"><ele>673.2</ele><time>2026-05-03T13:25:27.523Z</time></trkpt><trkpt lat="44.5675076" lon="9.9079164"><ele>671.4</ele><time>2026-05-03T13:25:29.523Z</time></trkpt><trkpt lat="44.5675392" lon="9.9077848"><ele>669.5999999999999</ele><time>2026-05-03T13:25:31.523Z</time></trkpt><trkpt lat="44.5675676" lon="9.9076635"><ele>667.8</ele><time>2026-05-03T13:25:33.522Z</time></trkpt><trkpt lat="44.5675376" lon="9.9075383"><ele>666.0</ele><time>2026-05-03T13:25:35.522Z</time></trkpt><trkpt lat="44.567481" lon="9.907431"><ele>664.5</ele><time>2026-05-03T13:25:37.522Z</time></trkpt><trkpt lat="44.5674309" lon="9.9073675"><ele>663.0</ele><time>2026-05-03T13:25:38.522Z</time></trkpt><trkpt lat="44.5673802" lon="9.9072946"><ele>661.5</ele><time>2026-05-03T13:25:39.523Z</time></trkpt><trkpt lat="44.5673295" lon="9.9072223"><ele>660.0</ele><time>2026-05-03T13:25:40.524Z</time></trkpt><trkpt lat="44.5672718" lon="9.9071342"><ele>658.5</ele><time>2026-05-03T13:25:41.523Z</time></trkpt><trkpt lat="44.5672272" lon="9.9070463"><ele>657.0</ele><time>2026-05-03T13:25:42.522Z</time></trkpt><trkpt lat="44.5671817" lon="9.9069393"><ele>657.0</ele><time>2026-05-03T13:25:43.522Z</time></trkpt><trkpt lat="44.5671427" lon="9.9068403"><ele>657.0</ele><time>2026-05-03T13:25:44.523Z</time></trkpt><trkpt lat="44.5671037" lon="9.9067478"><ele>657.0</ele><time>2026-05-03T13:25:45.522Z</time></trkpt><trkpt lat="44.5670605" lon="9.9066716"><ele>657.0</ele><time>2026-05-03T13:25:46.522Z</time></trkpt><trkpt lat="44.5669797" lon="9.906556"><ele>657.0</ele><time>2026-05-03T13:25:48.522Z</time></trkpt><trkpt lat="44.5669105" lon="9.9065097"><ele>657.0</ele><time>2026-05-03T13:25:49.522Z</time></trkpt><trkpt lat="44.5668224" lon="9.9064162"><ele>657.0</ele><time>2026-05-03T13:25:51.523Z</time></trkpt><trkpt lat="44.5667934" lon="9.9062429"><ele>657.0</ele><time>2026-05-03T13:25:53.523Z</time></trkpt><trkpt lat="44.5668078" lon="9.9061374"><ele>657.0</ele><time>2026-05-03T13:25:54.522Z</time></trkpt><trkpt lat="44.5668111" lon="9.9060197"><ele>657.0</ele><time>2026-05-03T13:25:55.523Z</time></trkpt><trkpt lat="44.5668118" lon="9.9058948"><ele>657.0</ele><time>2026-05-03T13:25:56.522Z</time></trkpt><trkpt lat="44.566809" lon="9.9057719"><ele>656.0</ele><time>2026-05-03T13:25:57.522Z</time></trkpt><trkpt lat="44.5668063" lon="9.9056613"><ele>655.0</ele><time>2026-05-03T13:25:58.522Z</time></trkpt><trkpt lat="44.566808" lon="9.9055695"><ele>654.0</ele><time>2026-05-03T13:25:59.522Z</time></trkpt><trkpt lat="44.5668352" lon="9.9054889"><ele>653.0</ele><time>2026-05-03T13:26:00.522Z</time></trkpt><trkpt lat="44.5668637" lon="9.9054068"><ele>652.0</ele><time>2026-05-03T13:26:01.522Z</time></trkpt><trkpt lat="44.5668963" lon="9.9053255"><ele>651.0</ele><time>2026-05-03T13:26:02.522Z</time></trkpt><trkpt lat="44.5669324" lon="9.9052367"><ele>650.0</ele><time>2026-05-03T13:26:03.522Z</time></trkpt><trkpt lat="44.5669777" lon="9.9051548"><ele>648.8</ele><time>2026-05-03T13:26:04.522Z</time></trkpt><trkpt lat="44.5670187" lon="9.9050702"><ele>647.6</ele><time>2026-05-03T13:26:05.524Z</time></trkpt><trkpt lat="44.5670586" lon="9.9050018"><ele>646.4000000000001</ele><time>2026-05-03T13:26:06.522Z</time></trkpt><trkpt lat="44.5671387" lon="9.9048629"><ele>645.2</ele><time>2026-05-03T13:26:08.522Z</time></trkpt><trkpt lat="44.5672123" lon="9.9047295"><ele>644.0</ele><time>2026-05-03T13:26:10.522Z</time></trkpt><trkpt lat="44.5672491" lon="9.9046469"><ele>642.5</ele><time>2026-05-03T13:26:11.522Z</time></trkpt><trkpt lat="44.5672837" lon="9.9045552"><ele>641.0</ele><time>2026-05-03T13:26:12.522Z</time></trkpt><trkpt lat="44.5673188" lon="9.904449"><ele>639.5</ele><time>2026-05-03T13:26:13.523Z</time></trkpt><trkpt lat="44.5673459" lon="9.9043412"><ele>638.0</ele><time>2026-05-03T13:26:14.522Z</time></trkpt><trkpt lat="44.5673672" lon="9.9042338"><ele>636.5</ele><time>2026-05-03T13:26:15.522Z</time></trkpt><trkpt lat="44.5673852" lon="9.9041322"><ele>635.0</ele><time>2026-05-03T13:26:16.522Z</time></trkpt><trkpt lat="44.5674029" lon="9.9040328"><ele>634.1666666666666</ele><time>2026-05-03T13:26:17.522Z</time></trkpt><trkpt lat="44.5674275" lon="9.9039369"><ele>633.3333333333333</ele><time>2026-05-03T13:26:18.522Z</time></trkpt><trkpt lat="44.56745" lon="9.9037813"><ele>632.5</ele><time>2026-05-03T13:26:20.522Z</time></trkpt><trkpt lat="44.5674191" lon="9.9036205"><ele>631.6666666666666</ele><time>2026-05-03T13:26:22.522Z</time></trkpt><trkpt lat="44.5673885" lon="9.9035346"><ele>630.8333333333334</ele><time>2026-05-03T13:26:23.522Z</time></trkpt><trkpt lat="44.5673393" lon="9.9034544"><ele>630.0</ele><time>2026-05-03T13:26:24.522Z</time></trkpt><trkpt lat="44.5672834" lon="9.9033643"><ele>628.5</ele><time>2026-05-03T13:26:25.522Z</time></trkpt><trkpt lat="44.567238" lon="9.9032729"><ele>627.0</ele><time>2026-05-03T13:26:26.523Z</time></trkpt><trkpt lat="44.5672017" lon="9.9032006"><ele>625.5</ele><time>2026-05-03T13:26:27.523Z</time></trkpt><trkpt lat="44.5671781" lon="9.9030327"><ele>624.0</ele><time>2026-05-03T13:26:29.522Z</time></trkpt><trkpt lat="44.5671885" lon="9.902933"><ele>622.5</ele><time>2026-05-03T13:26:30.522Z</time></trkpt><trkpt lat="44.5672101" lon="9.9028347"><ele>621.0</ele><time>2026-05-03T13:26:31.522Z</time></trkpt><trkpt lat="44.5672366" lon="9.9027236"><ele>621.0</ele><time>2026-05-03T13:26:32.522Z</time></trkpt><trkpt lat="44.5672728" lon="9.9026402"><ele>621.0</ele><time>2026-05-03T13:26:33.522Z</time></trkpt><trkpt lat="44.5673128" lon="9.9024783"><ele>621.0</ele><time>2026-05-03T13:26:35.522Z</time></trkpt><trkpt lat="44.5673079" lon="9.9023898"><ele>621.0</ele><time>2026-05-03T13:26:36.522Z</time></trkpt><trkpt lat="44.5672851" lon="9.9023042"><ele>621.0</ele><time>2026-05-03T13:26:37.523Z</time></trkpt><trkpt lat="44.5672567" lon="9.9021738"><ele>621.0</ele><time>2026-05-03T13:26:39.522Z</time></trkpt><trkpt lat="44.5672644" lon="9.9020548"><ele>620.6666666666666</ele><time>2026-05-03T13:26:42.522Z</time></trkpt><trkpt lat="44.567243" lon="9.9019267"><ele>620.3333333333334</ele><time>2026-05-03T13:26:45.522Z</time></trkpt><trkpt lat="44.5672238" lon="9.9018187"><ele>620.0</ele><time>2026-05-03T13:26:47.522Z</time></trkpt><trkpt lat="44.5672108" lon="9.9017181"><ele>619.6666666666667</ele><time>2026-05-03T13:26:50.523Z</time></trkpt><trkpt lat="44.5672377" lon="9.9018629"><ele>619.3333333333334</ele><time>2026-05-03T13:30:56.521Z</time></trkpt><trkpt lat="44.5672543" lon="9.901958"><ele>619.0</ele><time>2026-05-03T13:30:57.521Z</time></trkpt><trkpt lat="44.5672652" lon="9.9020581"><ele>618.8333333333334</ele><time>2026-05-03T13:30:58.521Z</time></trkpt><trkpt lat="44.5672784" lon="9.9021636"><ele>618.6666666666667</ele><time>2026-05-03T13:30:59.521Z</time></trkpt><trkpt lat="44.5672994" lon="9.9022761"><ele>618.5</ele><time>2026-05-03T13:31:00.522Z</time></trkpt><trkpt lat="44.5673183" lon="9.9023885"><ele>618.3333333333334</ele><time>2026-05-03T13:31:01.521Z</time></trkpt><trkpt lat="44.5673332" lon="9.9025048"><ele>618.1666666666666</ele><time>2026-05-03T13:31:02.521Z</time></trkpt><trkpt lat="44.567299" lon="9.9026026"><ele>618.0</ele><time>2026-05-03T13:31:03.521Z</time></trkpt><trkpt lat="44.5672671" lon="9.9027024"><ele>618.6</ele><time>2026-05-03T13:31:04.521Z</time></trkpt><trkpt lat="44.5672038" lon="9.9028746"><ele>619.1999999999999</ele><time>2026-05-03T13:31:06.521Z</time></trkpt><trkpt lat="44.5672011" lon="9.9030032"><ele>619.8</ele><time>2026-05-03T13:31:07.521Z</time></trkpt><trkpt lat="44.567207" lon="9.9031093"><ele>620.4</ele><time>2026-05-03T13:31:08.522Z</time></trkpt><trkpt lat="44.5672068" lon="9.903216"><ele>621.0</ele><time>2026-05-03T13:31:09.521Z</time></trkpt><trkpt lat="44.5672547" lon="9.9032937"><ele>621.0</ele><time>2026-05-03T13:31:10.521Z</time></trkpt><trkpt lat="44.5673074" lon="9.9033857"><ele>621.0</ele><time>2026-05-03T13:31:11.522Z</time></trkpt><trkpt lat="44.5673586" lon="9.9034822"><ele>621.0</ele><time>2026-05-03T13:31:12.521Z</time></trkpt><trkpt lat="44.5674104" lon="9.9035778"><ele>621.0</ele><time>2026-05-03T13:31:13.521Z</time></trkpt><trkpt lat="44.5674597" lon="9.9036764"><ele>621.0</ele><time>2026-05-03T13:31:14.521Z</time></trkpt><trkpt lat="44.5674764" lon="9.9037742"><ele>621.0</ele><time>2026-05-03T13:31:15.521Z</time></trkpt><trkpt lat="44.5674408" lon="9.9038825"><ele>622.5</ele><time>2026-05-03T13:31:17.522Z</time></trkpt><trkpt lat="44.5674051" lon="9.9040497"><ele>624.0</ele><time>2026-05-03T13:31:19.521Z</time></trkpt><trkpt lat="44.5673875" lon="9.9041488"><ele>625.5</ele><time>2026-05-03T13:31:20.521Z</time></trkpt><trkpt lat="44.5673756" lon="9.9042481"><ele>627.0</ele><time>2026-05-03T13:31:21.521Z</time></trkpt><trkpt lat="44.567358" lon="9.9043549"><ele>628.5</ele><time>2026-05-03T13:31:22.52Z</time></trkpt><trkpt lat="44.5673352" lon="9.9044637"><ele>630.0</ele><time>2026-05-03T13:31:23.52Z</time></trkpt><trkpt lat="44.5672922" lon="9.9045665"><ele>630.8333333333334</ele><time>2026-05-03T13:31:24.52Z</time></trkpt><trkpt lat="44.5672462" lon="9.904668"><ele>631.6666666666666</ele><time>2026-05-03T13:31:25.52Z</time></trkpt><trkpt lat="44.5672013" lon="9.9047632"><ele>632.5</ele><time>2026-05-03T13:31:26.52Z</time></trkpt><trkpt lat="44.5671511" lon="9.9048551"><ele>633.3333333333333</ele><time>2026-05-03T13:31:27.521Z</time></trkpt><trkpt lat="44.5671017" lon="9.9049367"><ele>634.1666666666666</ele><time>2026-05-03T13:31:28.52Z</time></trkpt><trkpt lat="44.5670496" lon="9.9050222"><ele>635.0</ele><time>2026-05-03T13:31:29.52Z</time></trkpt><trkpt lat="44.5669956" lon="9.9051176"><ele>637.5</ele><time>2026-05-03T13:31:30.52Z</time></trkpt><trkpt lat="44.5669443" lon="9.905212"><ele>640.0</ele><time>2026-05-03T13:31:31.52Z</time></trkpt><trkpt lat="44.5669023" lon="9.9053061"><ele>642.5</ele><time>2026-05-03T13:31:32.52Z</time></trkpt><trkpt lat="44.5668648" lon="9.9054042"><ele>645.0</ele><time>2026-05-03T13:31:33.521Z</time></trkpt><trkpt lat="44.5668358" lon="9.9054926"><ele>647.5</ele><time>2026-05-03T13:31:34.521Z</time></trkpt><trkpt lat="44.5668106" lon="9.905656"><ele>650.0</ele><time>2026-05-03T13:31:36.52Z</time></trkpt><trkpt lat="44.5668186" lon="9.9057513"><ele>650.0</ele><time>2026-05-03T13:31:37.52Z</time></trkpt><trkpt lat="44.5668217" lon="9.905851"><ele>650.0</ele><time>2026-05-03T13:31:38.52Z</time></trkpt><trkpt lat="44.5668192" lon="9.9059558"><ele>650.0</ele><time>2026-05-03T13:31:39.52Z</time></trkpt><trkpt lat="44.5668149" lon="9.9060623"><ele>650.0</ele><time>2026-05-03T13:31:40.52Z</time></trkpt><trkpt lat="44.566808" lon="9.90617"><ele>650.0</ele><time>2026-05-03T13:31:41.52Z</time></trkpt><trkpt lat="44.5668031" lon="9.9062687"><ele>650.0</ele><time>2026-05-03T13:31:42.52Z</time></trkpt><trkpt lat="44.5668373" lon="9.9063593"><ele>650.0</ele><time>2026-05-03T13:31:43.521Z</time></trkpt><trkpt lat="44.5669025" lon="9.906499"><ele>650.0</ele><time>2026-05-03T13:31:45.521Z</time></trkpt><trkpt lat="44.5669731" lon="9.9065483"><ele>650.0</ele><time>2026-05-03T13:31:46.52Z</time></trkpt><trkpt lat="44.5670642" lon="9.90668"><ele>650.0</ele><time>2026-05-03T13:31:48.52Z</time></trkpt><trkpt lat="44.5671057" lon="9.9067576"><ele>650.0</ele><time>2026-05-03T13:31:49.52Z</time></trkpt><trkpt lat="44.5671504" lon="9.9068521"><ele>650.0</ele><time>2026-05-03T13:31:50.52Z</time></trkpt><trkpt lat="44.5671926" lon="9.9069513"><ele>650.0</ele><time>2026-05-03T13:31:51.52Z</time></trkpt><trkpt lat="44.5672357" lon="9.9070603"><ele>651.1666666666666</ele><time>2026-05-03T13:31:52.52Z</time></trkpt><trkpt lat="44.5672926" lon="9.9071569"><ele>652.3333333333333</ele><time>2026-05-03T13:31:53.52Z</time></trkpt><trkpt lat="44.5673534" lon="9.9072455"><ele>653.5</ele><time>2026-05-03T13:31:54.52Z</time></trkpt><trkpt lat="44.5674079" lon="9.9073322"><ele>654.6666666666666</ele><time>2026-05-03T13:31:55.52Z</time></trkpt><trkpt lat="44.5674622" lon="9.9074082"><ele>655.8333333333334</ele><time>2026-05-03T13:31:56.52Z</time></trkpt><trkpt lat="44.567508" lon="9.9074837"><ele>657.0</ele><time>2026-05-03T13:31:57.52Z</time></trkpt><trkpt lat="44.5675398" lon="9.9076323"><ele>658.8</ele><time>2026-05-03T13:31:59.521Z</time></trkpt><trkpt lat="44.5675289" lon="9.9077806"><ele>660.6</ele><time>2026-05-03T13:32:01.52Z</time></trkpt><trkpt lat="44.5675063" lon="9.9079303"><ele>662.4</ele><time>2026-05-03T13:32:03.521Z</time></trkpt><trkpt lat="44.56748" lon="9.9080183"><ele>664.1999999999999</ele><time>2026-05-03T13:32:04.52Z</time></trkpt><trkpt lat="44.5674834" lon="9.9082011"><ele>666.0</ele><time>2026-05-03T13:32:06.521Z</time></trkpt><trkpt lat="44.5674965" lon="9.9083048"><ele>666.0</ele><time>2026-05-03T13:32:07.52Z</time></trkpt><trkpt lat="44.5675042" lon="9.9084049"><ele>666.0</ele><time>2026-05-03T13:32:08.52Z</time></trkpt><trkpt lat="44.5675065" lon="9.9084938"><ele>666.0</ele><time>2026-05-03T13:32:09.521Z</time></trkpt><trkpt lat="44.5675077" lon="9.9085826"><ele>666.0</ele><time>2026-05-03T13:32:10.52Z</time></trkpt><trkpt lat="44.5674994" lon="9.9086732"><ele>666.0</ele><time>2026-05-03T13:32:11.52Z</time></trkpt><trkpt lat="44.5674895" lon="9.9088356"><ele>666.0</ele><time>2026-05-03T13:32:13.52Z</time></trkpt><trkpt lat="44.5674959" lon="9.9089662"><ele>668.25</ele><time>2026-05-03T13:32:15.52Z</time></trkpt><trkpt lat="44.5675345" lon="9.9091164"><ele>670.5</ele><time>2026-05-03T13:32:17.52Z</time></trkpt><trkpt lat="44.5675611" lon="9.9092931"><ele>672.75</ele><time>2026-05-03T13:32:19.52Z</time></trkpt><trkpt lat="44.5676009" lon="9.9094707"><ele>675.0</ele><time>2026-05-03T13:32:21.52Z</time></trkpt><trkpt lat="44.5676268" lon="9.9096088"><ele>677.4</ele><time>2026-05-03T13:32:23.521Z</time></trkpt><trkpt lat="44.5676481" lon="9.9097345"><ele>679.8</ele><time>2026-05-03T13:32:26.52Z</time></trkpt><trkpt lat="44.5676208" lon="9.9098401"><ele>682.2</ele><time>2026-05-03T13:32:28.52Z</time></trkpt><trkpt lat="44.5675961" lon="9.9100017"><ele>684.6</ele><time>2026-05-03T13:32:30.52Z</time></trkpt><trkpt lat="44.5675825" lon="9.9101399"><ele>687.0</ele><time>2026-05-03T13:32:32.521Z</time></trkpt><trkpt lat="44.5675658" lon="9.9102591"><ele>688.8333333333334</ele><time>2026-05-03T13:32:34.52Z</time></trkpt><trkpt lat="44.5675635" lon="9.9104039"><ele>690.6666666666666</ele><time>2026-05-03T13:32:36.52Z</time></trkpt><trkpt lat="44.5675324" lon="9.9105351"><ele>692.5</ele><time>2026-05-03T13:32:38.52Z</time></trkpt><trkpt lat="44.5675262" lon="9.9106237"><ele>694.3333333333333</ele><time>2026-05-03T13:32:39.52Z</time></trkpt><trkpt lat="44.5675319" lon="9.9107237"><ele>696.1666666666666</ele><time>2026-05-03T13:32:40.52Z</time></trkpt><trkpt lat="44.5675257" lon="9.9108291"><ele>698.0</ele><time>2026-05-03T13:32:41.52Z</time></trkpt><trkpt lat="44.5674912" lon="9.9109075"><ele>698.0</ele><time>2026-05-03T13:32:43.52Z</time></trkpt><trkpt lat="44.5674581" lon="9.9107878"><ele>698.0</ele><time>2026-05-03T13:32:57.521Z</time></trkpt><trkpt lat="44.5674256" lon="9.9106785"><ele>698.0</ele><time>2026-05-03T13:32:59.52Z</time></trkpt><trkpt lat="44.5673763" lon="9.910574"><ele>698.0</ele><time>2026-05-03T13:33:01.52Z</time></trkpt><trkpt lat="44.5672985" lon="9.9104978"><ele>698.0</ele><time>2026-05-03T13:33:03.52Z</time></trkpt><trkpt lat="44.5672374" lon="9.9104535"><ele>698.0</ele><time>2026-05-03T13:33:04.52Z</time></trkpt><trkpt lat="44.5671312" lon="9.9103972"><ele>696.0</ele><time>2026-05-03T13:33:06.52Z</time></trkpt><trkpt lat="44.5670205" lon="9.9103345"><ele>694.0</ele><time>2026-05-03T13:33:08.52Z</time></trkpt><trkpt lat="44.5669083" lon="9.9102458"><ele>692.0</ele><time>2026-05-03T13:33:10.52Z</time></trkpt><trkpt lat="44.5668031" lon="9.9102222"><ele>690.0</ele><time>2026-05-03T13:33:12.52Z</time></trkpt><trkpt lat="44.5666899" lon="9.9101792"><ele>690.0</ele><time>2026-05-03T13:33:14.52Z</time></trkpt><trkpt lat="44.5665846" lon="9.9101594"><ele>690.0</ele><time>2026-05-03T13:33:16.52Z</time></trkpt><trkpt lat="44.5664824" lon="9.910124"><ele>690.0</ele><time>2026-05-03T13:33:18.52Z</time></trkpt><trkpt lat="44.5663893" lon="9.9100385"><ele>690.0</ele><time>2026-05-03T13:33:20.52Z</time></trkpt><trkpt lat="44.5662943" lon="9.9099662"><ele>690.0</ele><time>2026-05-03T13:33:22.521Z</time></trkpt><trkpt lat="44.5662193" lon="9.9098369"><ele>690.8</ele><time>2026-05-03T13:33:24.52Z</time></trkpt><trkpt lat="44.5661644" lon="9.9097035"><ele>691.6</ele><time>2026-05-03T13:33:26.52Z</time></trkpt><trkpt lat="44.5661034" lon="9.9095297"><ele>692.4000000000001</ele><time>2026-05-03T13:33:28.52Z</time></trkpt><trkpt lat="44.5660786" lon="9.9094426"><ele>693.2</ele><time>2026-05-03T13:33:29.52Z</time></trkpt><trkpt lat="44.5660894" lon="9.9093163"><ele>694.0</ele><time>2026-05-03T13:33:31.52Z</time></trkpt><trkpt lat="44.5660707" lon="9.9092161"><ele>694.1666666666667</ele><time>2026-05-03T13:33:33.52Z</time></trkpt><trkpt lat="44.5660176" lon="9.9091072"><ele>694.3333333333334</ele><time>2026-05-03T13:33:35.52Z</time></trkpt><trkpt lat="44.5659828" lon="9.9090292"><ele>694.5</ele><time>2026-05-03T13:33:36.52Z</time></trkpt><trkpt lat="44.5659604" lon="9.9089058"><ele>694.6666666666666</ele><time>2026-05-03T13:33:38.52Z</time></trkpt><trkpt lat="44.5659168" lon="9.9087671"><ele>694.8333333333333</ele><time>2026-05-03T13:33:40.52Z</time></trkpt><trkpt lat="44.5658882" lon="9.9086514"><ele>695.0</ele><time>2026-05-03T13:33:43.52Z</time></trkpt><trkpt lat="44.5658556" lon="9.9085265"><ele>694.4</ele><time>2026-05-03T13:36:27.519Z</time></trkpt><trkpt lat="44.5658041" lon="9.9084037"><ele>693.8</ele><time>2026-05-03T13:36:29.52Z</time></trkpt><trkpt lat="44.5657595" lon="9.9082879"><ele>693.2</ele><time>2026-05-03T13:36:30.519Z</time></trkpt><trkpt lat="44.5657175" lon="9.9081345"><ele>692.6</ele><time>2026-05-03T13:36:32.519Z</time></trkpt><trkpt lat="44.5657029" lon="9.9080221"><ele>692.0</ele><time>2026-05-03T13:36:34.519Z</time></trkpt><trkpt lat="44.565713" lon="9.9078972"><ele>692.0</ele><time>2026-05-03T13:36:36.519Z</time></trkpt><trkpt lat="44.5657283" lon="9.9078045"><ele>692.0</ele><time>2026-05-03T13:36:37.519Z</time></trkpt><trkpt lat="44.5657592" lon="9.9076474"><ele>692.0</ele><time>2026-05-03T13:36:39.519Z</time></trkpt><trkpt lat="44.5657776" lon="9.9074943"><ele>692.0</ele><time>2026-05-03T13:36:41.519Z</time></trkpt><trkpt lat="44.5657426" lon="9.9073463"><ele>692.0</ele><time>2026-05-03T13:36:43.52Z</time></trkpt><trkpt lat="44.5656937" lon="9.9071952"><ele>691.0</ele><time>2026-05-03T13:36:45.519Z</time></trkpt><trkpt lat="44.5656533" lon="9.9071138"><ele>690.0</ele><time>2026-05-03T13:36:46.519Z</time></trkpt><trkpt lat="44.5655915" lon="9.9069596"><ele>689.0</ele><time>2026-05-03T13:36:48.519Z</time></trkpt><trkpt lat="44.5655549" lon="9.9068699"><ele>688.0</ele><time>2026-05-03T13:36:49.519Z</time></trkpt><trkpt lat="44.5655195" lon="9.9067703"><ele>687.0</ele><time>2026-05-03T13:36:50.519Z</time></trkpt><trkpt lat="44.5654899" lon="9.9066739"><ele>686.0</ele><time>2026-05-03T13:36:51.519Z</time></trkpt><trkpt lat="44.5654664" lon="9.9065845"><ele>684.4</ele><time>2026-05-03T13:36:52.519Z</time></trkpt><trkpt lat="44.5654486" lon="9.9064996"><ele>682.8</ele><time>2026-05-03T13:36:53.519Z</time></trkpt><trkpt lat="44.5654334" lon="9.906413"><ele>681.1999999999999</ele><time>2026-05-03T13:36:54.519Z</time></trkpt><trkpt lat="44.5653959" lon="9.9062693"><ele>679.5999999999999</ele><time>2026-05-03T13:36:56.52Z</time></trkpt><trkpt lat="44.5653758" lon="9.9061453"><ele>678.0</ele><time>2026-05-03T13:36:58.519Z</time></trkpt><trkpt lat="44.5653529" lon="9.9059404"><ele>678.2</ele><time>2026-05-03T13:37:00.519Z</time></trkpt><trkpt lat="44.5653498" lon="9.9058448"><ele>678.4</ele><time>2026-05-03T13:37:01.52Z</time></trkpt><trkpt lat="44.5653594" lon="9.9056904"><ele>678.6</ele><time>2026-05-03T13:37:03.519Z</time></trkpt><trkpt lat="44.5653157" lon="9.9055093"><ele>678.8000000000001</ele><time>2026-05-03T13:37:05.519Z</time></trkpt><trkpt lat="44.5652999" lon="9.9054161"><ele>679.0</ele><time>2026-05-03T13:37:06.52Z</time></trkpt><trkpt lat="44.5652541" lon="9.9053323"><ele>679.0</ele><time>2026-05-03T13:37:07.519Z</time></trkpt><trkpt lat="44.5652285" lon="9.9052297"><ele>679.0</ele><time>2026-05-03T13:37:08.518Z</time></trkpt><trkpt lat="44.5652081" lon="9.9051113"><ele>679.0</ele><time>2026-05-03T13:37:09.518Z</time></trkpt><trkpt lat="44.5651761" lon="9.9050254"><ele>679.0</ele><time>2026-05-03T13:37:10.518Z</time></trkpt><trkpt lat="44.5651279" lon="9.9048985"><ele>679.0</ele><time>2026-05-03T13:37:11.519Z</time></trkpt><trkpt lat="44.5650865" lon="9.9047867"><ele>679.0</ele><time>2026-05-03T13:37:12.518Z</time></trkpt><trkpt lat="44.5650282" lon="9.9046914"><ele>678.5</ele><time>2026-05-03T13:37:13.518Z</time></trkpt><trkpt lat="44.5650416" lon="9.90457"><ele>678.0</ele><time>2026-05-03T13:37:15.518Z</time></trkpt><trkpt lat="44.5650551" lon="9.9044717"><ele>677.5</ele><time>2026-05-03T13:37:16.518Z</time></trkpt><trkpt lat="44.5650515" lon="9.9043182"><ele>677.0</ele><time>2026-05-03T13:37:18.518Z</time></trkpt><trkpt lat="44.5650516" lon="9.904226"><ele>676.5</ele><time>2026-05-03T13:37:19.519Z</time></trkpt><trkpt lat="44.5650423" lon="9.9040948"><ele>676.0</ele><time>2026-05-03T13:37:20.518Z</time></trkpt><trkpt lat="44.5650313" lon="9.9039744"><ele>676.0</ele><time>2026-05-03T13:37:21.518Z</time></trkpt><trkpt lat="44.5649963" lon="9.9038253"><ele>676.0</ele><time>2026-05-03T13:37:22.518Z</time></trkpt><trkpt lat="44.564989" lon="9.9037107"><ele>676.0</ele><time>2026-05-03T13:37:23.519Z</time></trkpt><trkpt lat="44.5649695" lon="9.9036002"><ele>676.0</ele><time>2026-05-03T13:37:24.518Z</time></trkpt><trkpt lat="44.5649482" lon="9.9034857"><ele>676.0</ele><time>2026-05-03T13:37:25.518Z</time></trkpt><trkpt lat="44.5649206" lon="9.9033844"><ele>676.0</ele><time>2026-05-03T13:37:26.518Z</time></trkpt><trkpt lat="44.5648492" lon="9.9032232"><ele>675.8333333333334</ele><time>2026-05-03T13:37:28.518Z</time></trkpt><trkpt lat="44.5648111" lon="9.9031212"><ele>675.6666666666667</ele><time>2026-05-03T13:37:29.518Z</time></trkpt><trkpt lat="44.5647813" lon="9.903022"><ele>675.5</ele><time>2026-05-03T13:37:30.519Z</time></trkpt><trkpt lat="44.5647571" lon="9.9028965"><ele>675.3333333333334</ele><time>2026-05-03T13:37:31.518Z</time></trkpt><trkpt lat="44.5647122" lon="9.9028085"><ele>675.1666666666666</ele><time>2026-05-03T13:37:32.518Z</time></trkpt><trkpt lat="44.5646731" lon="9.9026827"><ele>675.0</ele><time>2026-05-03T13:37:33.518Z</time></trkpt><trkpt lat="44.5646466" lon="9.9025844"><ele>673.4</ele><time>2026-05-03T13:37:34.518Z</time></trkpt><trkpt lat="44.5646131" lon="9.90249"><ele>671.8</ele><time>2026-05-03T13:37:35.518Z</time></trkpt><trkpt lat="44.5645911" lon="9.9023656"><ele>670.2</ele><time>2026-05-03T13:37:36.518Z</time></trkpt><trkpt lat="44.5645748" lon="9.9022541"><ele>668.6</ele><time>2026-05-03T13:37:37.518Z</time></trkpt><trkpt lat="44.5645618" lon="9.902093"><ele>667.0</ele><time>2026-05-03T13:37:39.518Z</time></trkpt><trkpt lat="44.5645468" lon="9.9019219"><ele>667.0</ele><time>2026-05-03T13:37:41.518Z</time></trkpt><trkpt lat="44.5645409" lon="9.901821"><ele>667.0</ele><time>2026-05-03T13:37:42.518Z</time></trkpt><trkpt lat="44.5645374" lon="9.9017116"><ele>667.0</ele><time>2026-05-03T13:37:43.518Z</time></trkpt><trkpt lat="44.5645288" lon="9.9015946"><ele>667.0</ele><time>2026-05-03T13:37:44.519Z</time></trkpt><trkpt lat="44.5645039" lon="9.9014732"><ele>667.0</ele><time>2026-05-03T13:37:45.518Z</time></trkpt><trkpt lat="44.5644834" lon="9.9013368"><ele>667.0</ele><time>2026-05-03T13:37:46.518Z</time></trkpt><trkpt lat="44.5644189" lon="9.9012169"><ele>667.5</ele><time>2026-05-03T13:37:47.518Z</time></trkpt><trkpt lat="44.5643554" lon="9.9010918"><ele>668.0</ele><time>2026-05-03T13:37:48.518Z</time></trkpt><trkpt lat="44.564284" lon="9.9009673"><ele>668.5</ele><time>2026-05-03T13:37:49.518Z</time></trkpt><trkpt lat="44.5642104" lon="9.9008486"><ele>669.0</ele><time>2026-05-03T13:37:50.518Z</time></trkpt><trkpt lat="44.5641227" lon="9.9007399"><ele>669.0</ele><time>2026-05-03T13:37:51.518Z</time></trkpt><trkpt lat="44.5640373" lon="9.9006382"><ele>669.0</ele><time>2026-05-03T13:37:52.518Z</time></trkpt><trkpt lat="44.5639581" lon="9.9005411"><ele>669.0</ele><time>2026-05-03T13:37:53.518Z</time></trkpt><trkpt lat="44.5638758" lon="9.9004591"><ele>669.0</ele><time>2026-05-03T13:37:54.519Z</time></trkpt><trkpt lat="44.5637934" lon="9.9003696"><ele>669.0</ele><time>2026-05-03T13:37:55.518Z</time></trkpt><trkpt lat="44.5637133" lon="9.9002806"><ele>667.0</ele><time>2026-05-03T13:37:56.518Z</time></trkpt><trkpt lat="44.5636464" lon="9.9001764"><ele>665.0</ele><time>2026-05-03T13:37:57.518Z</time></trkpt><trkpt lat="44.5635954" lon="9.9001144"><ele>663.0</ele><time>2026-05-03T13:37:58.518Z</time></trkpt><trkpt lat="44.563521" lon="9.8999967"><ele>661.0</ele><time>2026-05-03T13:37:59.518Z</time></trkpt><trkpt lat="44.563474" lon="9.8999005"><ele>659.0</ele><time>2026-05-03T13:38:00.518Z</time></trkpt><trkpt lat="44.5635108" lon="9.899747"><ele>659.0</ele><time>2026-05-03T13:38:01.519Z</time></trkpt><trkpt lat="44.5635341" lon="9.8996221"><ele>659.0</ele><time>2026-05-03T13:38:02.519Z</time></trkpt><trkpt lat="44.5635604" lon="9.8994794"><ele>659.0</ele><time>2026-05-03T13:38:03.518Z</time></trkpt><trkpt lat="44.5635827" lon="9.8993902"><ele>659.0</ele><time>2026-05-03T13:38:04.518Z</time></trkpt><trkpt lat="44.5635937" lon="9.8992942"><ele>659.0</ele><time>2026-05-03T13:38:05.518Z</time></trkpt><trkpt lat="44.5636172" lon="9.8991681"><ele>659.0</ele><time>2026-05-03T13:38:06.518Z</time></trkpt><trkpt lat="44.563676" lon="9.8990671"><ele>662.4000000000001</ele><time>2026-05-03T13:38:07.519Z</time></trkpt><trkpt lat="44.563733" lon="9.8989445"><ele>665.8</ele><time>2026-05-03T13:38:08.518Z</time></trkpt><trkpt lat="44.5637968" lon="9.8988188"><ele>669.2</ele><time>2026-05-03T13:38:09.518Z</time></trkpt><trkpt lat="44.5638582" lon="9.8987102"><ele>672.5999999999999</ele><time>2026-05-03T13:38:10.52Z</time></trkpt><trkpt lat="44.5638985" lon="9.8986207"><ele>676.0</ele><time>2026-05-03T13:38:11.518Z</time></trkpt><trkpt lat="44.5639492" lon="9.8985427"><ele>676.0</ele><time>2026-05-03T13:38:14.518Z</time></trkpt><trkpt lat="44.5640211" lon="9.8985139"><ele>676.0</ele><time>2026-05-03T13:38:17.518Z</time></trkpt><trkpt lat="44.5641085" lon="9.8985196"><ele>676.0</ele><time>2026-05-03T13:38:19.518Z</time></trkpt><trkpt lat="44.5642227" lon="9.8984927"><ele>676.0</ele><time>2026-05-03T13:38:21.518Z</time></trkpt><trkpt lat="44.5642912" lon="9.8984476"><ele>676.0</ele><time>2026-05-03T13:38:22.518Z</time></trkpt><trkpt lat="44.564356" lon="9.8983746"><ele>676.0</ele><time>2026-05-03T13:38:23.518Z</time></trkpt><trkpt lat="44.5644129" lon="9.8982976"><ele>675.8</ele><time>2026-05-03T13:38:24.518Z</time></trkpt><trkpt lat="44.5644665" lon="9.8981948"><ele>675.5999999999999</ele><time>2026-05-03T13:38:25.518Z</time></trkpt><trkpt lat="44.564519" lon="9.8980822"><ele>675.4</ele><time>2026-05-03T13:38:26.518Z</time></trkpt><trkpt lat="44.5645682" lon="9.8979542"><ele>675.2</ele><time>2026-05-03T13:38:27.519Z</time></trkpt><trkpt lat="44.5646164" lon="9.8978352"><ele>675.0</ele><time>2026-05-03T13:38:28.518Z</time></trkpt><trkpt lat="44.5646672" lon="9.8977175"><ele>671.4</ele><time>2026-05-03T13:38:29.518Z</time></trkpt><trkpt lat="44.564717" lon="9.8976021"><ele>667.8</ele><time>2026-05-03T13:38:30.518Z</time></trkpt><trkpt lat="44.5647621" lon="9.8974864"><ele>664.2</ele><time>2026-05-03T13:38:31.518Z</time></trkpt><trkpt lat="44.5648097" lon="9.8973769"><ele>660.6</ele><time>2026-05-03T13:38:32.518Z</time></trkpt><trkpt lat="44.5648591" lon="9.8972716"><ele>657.0</ele><time>2026-05-03T13:38:33.518Z</time></trkpt><trkpt lat="44.5649134" lon="9.8971823"><ele>657.0</ele><time>2026-05-03T13:38:34.518Z</time></trkpt><trkpt lat="44.5649692" lon="9.8971199"><ele>657.0</ele><time>2026-05-03T13:38:35.519Z</time></trkpt><trkpt lat="44.565063" lon="9.8970817"><ele>657.0</ele><time>2026-05-03T13:38:37.519Z</time></trkpt><trkpt lat="44.5651378" lon="9.8971126"><ele>657.0</ele><time>2026-05-03T13:38:40.518Z</time></trkpt><trkpt lat="44.5651844" lon="9.8971854"><ele>657.0</ele><time>2026-05-03T13:38:42.518Z</time></trkpt><trkpt lat="44.5652416" lon="9.8973135"><ele>657.0</ele><time>2026-05-03T13:38:44.518Z</time></trkpt><trkpt lat="44.5652789" lon="9.8974184"><ele>657.0</ele><time>2026-05-03T13:38:46.519Z</time></trkpt><trkpt lat="44.5652584" lon="9.8973179"><ele>657.0</ele><time>2026-05-03T13:38:50.518Z</time></trkpt><trkpt lat="44.5651784" lon="9.8971777"><ele>657.0</ele><time>2026-05-03T13:38:52.518Z</time></trkpt><trkpt lat="44.5651214" lon="9.8971242"><ele>657.0</ele><time>2026-05-03T13:38:53.518Z</time></trkpt><trkpt lat="44.5650572" lon="9.8971043"><ele>657.0</ele><time>2026-05-03T13:38:54.519Z</time></trkpt><trkpt lat="44.5649878" lon="9.8971205"><ele>657.0</ele><time>2026-05-03T13:38:55.518Z</time></trkpt><trkpt lat="44.5649228" lon="9.8971847"><ele>657.0</ele><time>2026-05-03T13:38:56.518Z</time></trkpt><trkpt lat="44.5648572" lon="9.8972781"><ele>657.0</ele><time>2026-05-03T13:38:57.518Z</time></trkpt><trkpt lat="44.5648017" lon="9.8973929"><ele>657.0</ele><time>2026-05-03T13:38:58.518Z</time></trkpt><trkpt lat="44.5647457" lon="9.8975096"><ele>657.0</ele><time>2026-05-03T13:38:59.518Z</time></trkpt><trkpt lat="44.5646923" lon="9.8976298"><ele>657.0</ele><time>2026-05-03T13:39:00.519Z</time></trkpt><trkpt lat="44.5646394" lon="9.8977548"><ele>656.4000000000001</ele><time>2026-05-03T13:39:01.519Z</time></trkpt><trkpt lat="44.5645858" lon="9.8978808"><ele>655.8000000000001</ele><time>2026-05-03T13:39:02.518Z</time></trkpt><trkpt lat="44.5645309" lon="9.8980089"><ele>655.2</ele><time>2026-05-03T13:39:03.519Z</time></trkpt><trkpt lat="44.5644745" lon="9.8981345"><ele>654.6</ele><time>2026-05-03T13:39:04.518Z</time></trkpt><trkpt lat="44.5644167" lon="9.898247"><ele>654.0</ele><time>2026-05-03T13:39:05.518Z</time></trkpt><trkpt lat="44.5643555" lon="9.8983384"><ele>657.5</ele><time>2026-05-03T13:39:06.519Z</time></trkpt><trkpt lat="44.5642906" lon="9.8984135"><ele>661.0</ele><time>2026-05-03T13:39:07.518Z</time></trkpt><trkpt lat="44.5642194" lon="9.8984648"><ele>664.5</ele><time>2026-05-03T13:39:08.518Z</time></trkpt><trkpt lat="44.564147" lon="9.8984945"><ele>668.0</ele><time>2026-05-03T13:39:09.518Z</time></trkpt><trkpt lat="44.56407" lon="9.8985086"><ele>671.5</ele><time>2026-05-03T13:39:10.519Z</time></trkpt><trkpt lat="44.564001" lon="9.8985046"><ele>675.0</ele><time>2026-05-03T13:39:11.518Z</time></trkpt><trkpt lat="44.5639302" lon="9.8984458"><ele>675.0</ele><time>2026-05-03T13:39:13.518Z</time></trkpt><trkpt lat="44.5639833" lon="9.8983705"><ele>675.0</ele><time>2026-05-03T13:39:25.518Z</time></trkpt><trkpt lat="44.5639661" lon="9.8982752"><ele>675.0</ele><time>2026-05-03T13:39:28.518Z</time></trkpt><trkpt lat="44.5639582" lon="9.8981638"><ele>675.0</ele><time>2026-05-03T13:39:30.518Z</time></trkpt><trkpt lat="44.5639854" lon="9.8980305"><ele>675.0</ele><time>2026-05-03T13:39:32.518Z</time></trkpt><trkpt lat="44.563981" lon="9.8979066"><ele>675.0</ele><time>2026-05-03T13:39:34.518Z</time></trkpt><trkpt lat="44.56397" lon="9.8977621"><ele>675.0</ele><time>2026-05-03T13:39:36.518Z</time></trkpt><trkpt lat="44.5639745" lon="9.8976467"><ele>675.0</ele><time>2026-05-03T13:39:38.518Z</time></trkpt><trkpt lat="44.5639786" lon="9.8975191"><ele>675.0</ele><time>2026-05-03T13:39:41.518Z</time></trkpt><trkpt lat="44.5639712" lon="9.8974125"><ele>675.0</ele><time>2026-05-03T13:39:43.518Z</time></trkpt><trkpt lat="44.5639318" lon="9.8973289"><ele>675.0</ele><time>2026-05-03T13:39:45.518Z</time></trkpt><trkpt lat="44.5638544" lon="9.8972846"><ele>675.0</ele><time>2026-05-03T13:39:47.518Z</time></trkpt><trkpt lat="44.5638065" lon="9.8972153"><ele>676.3333333333334</ele><time>2026-05-03T13:39:49.518Z</time></trkpt><trkpt lat="44.5637876" lon="9.8970826"><ele>677.6666666666666</ele><time>2026-05-03T13:39:51.518Z</time></trkpt><trkpt lat="44.56376" lon="9.8969676"><ele>679.0</ele><time>2026-05-03T13:39:53.519Z</time></trkpt><trkpt lat="44.5637523" lon="9.8968619"><ele>680.3333333333333</ele><time>2026-05-03T13:39:55.518Z</time></trkpt><trkpt lat="44.563761" lon="9.8967504"><ele>681.6666666666666</ele><time>2026-05-03T13:39:57.519Z</time></trkpt><trkpt lat="44.5637739" lon="9.8966331"><ele>683.0</ele><time>2026-05-03T13:39:59.518Z</time></trkpt><trkpt lat="44.5637817" lon="9.8965286"><ele>683.4</ele><time>2026-05-03T13:40:01.518Z</time></trkpt><trkpt lat="44.5637937" lon="9.8963823"><ele>683.8</ele><time>2026-05-03T13:40:04.519Z</time></trkpt><trkpt lat="44.5637926" lon="9.896232"><ele>684.2</ele><time>2026-05-03T13:40:06.518Z</time></trkpt><trkpt lat="44.5637762" lon="9.8960826"><ele>684.6</ele><time>2026-05-03T13:40:08.518Z</time></trkpt><trkpt lat="44.5637515" lon="9.8959654"><ele>685.0</ele><time>2026-05-03T13:40:10.518Z</time></trkpt><trkpt lat="44.5637392" lon="9.8958751"><ele>685.0</ele><time>2026-05-03T13:40:12.518Z</time></trkpt><trkpt lat="44.5637337" lon="9.8957541"><ele>685.0</ele><time>2026-05-03T13:40:28.517Z</time></trkpt><trkpt lat="44.5637512" lon="9.895666"><ele>685.0</ele><time>2026-05-03T13:40:30.517Z</time></trkpt><trkpt lat="44.5637593" lon="9.895564"><ele>685.0</ele><time>2026-05-03T13:40:32.518Z</time></trkpt><trkpt lat="44.5637648" lon="9.8954499"><ele>685.0</ele><time>2026-05-03T13:40:35.517Z</time></trkpt><trkpt lat="44.5637966" lon="9.8953417"><ele>685.0</ele><time>2026-05-03T13:40:37.517Z</time></trkpt><trkpt lat="44.5638081" lon="9.89524"><ele>685.0</ele><time>2026-05-03T13:40:41.517Z</time></trkpt><trkpt lat="44.5638273" lon="9.8951311"><ele>685.0</ele><time>2026-05-03T13:40:43.517Z</time></trkpt><trkpt lat="44.5638489" lon="9.8949849"><ele>685.0</ele><time>2026-05-03T13:40:45.517Z</time></trkpt><trkpt lat="44.5638991" lon="9.8948431"><ele>685.0</ele><time>2026-05-03T13:40:47.517Z</time></trkpt><trkpt lat="44.5639412" lon="9.894754"><ele>685.0</ele><time>2026-05-03T13:40:48.517Z</time></trkpt><trkpt lat="44.56398" lon="9.8946689"><ele>685.0</ele><time>2026-05-03T13:40:49.517Z</time></trkpt><trkpt lat="44.5640115" lon="9.8945867"><ele>684.6666666666667</ele><time>2026-05-03T13:40:50.517Z</time></trkpt><trkpt lat="44.5640484" lon="9.8945138"><ele>684.3333333333334</ele><time>2026-05-03T13:40:51.518Z</time></trkpt><trkpt lat="44.5640789" lon="9.8944335"><ele>684.0</ele><time>2026-05-03T13:40:52.517Z</time></trkpt><trkpt lat="44.5641202" lon="9.894269"><ele>683.6666666666666</ele><time>2026-05-03T13:40:54.517Z</time></trkpt><trkpt lat="44.564127" lon="9.8941807"><ele>683.3333333333333</ele><time>2026-05-03T13:40:55.518Z</time></trkpt><trkpt lat="44.5641012" lon="9.8940145"><ele>683.0</ele><time>2026-05-03T13:40:57.517Z</time></trkpt><trkpt lat="44.5640677" lon="9.8939293"><ele>684.6666666666666</ele><time>2026-05-03T13:40:58.517Z</time></trkpt><trkpt lat="44.5640383" lon="9.893843"><ele>686.3333333333333</ele><time>2026-05-03T13:40:59.517Z</time></trkpt><trkpt lat="44.5640037" lon="9.8937509"><ele>688.0</ele><time>2026-05-03T13:41:00.517Z</time></trkpt><trkpt lat="44.5639614" lon="9.8936536"><ele>689.6666666666666</ele><time>2026-05-03T13:41:01.517Z</time></trkpt><trkpt lat="44.5639132" lon="9.8935604"><ele>691.3333333333334</ele><time>2026-05-03T13:41:02.518Z</time></trkpt><trkpt lat="44.5638714" lon="9.8934664"><ele>693.0</ele><time>2026-05-03T13:41:03.517Z</time></trkpt><trkpt lat="44.5638322" lon="9.8933734"><ele>693.0</ele><time>2026-05-03T13:41:04.517Z</time></trkpt><trkpt lat="44.5637989" lon="9.8932832"><ele>693.0</ele><time>2026-05-03T13:41:05.518Z</time></trkpt><trkpt lat="44.56377" lon="9.8931922"><ele>693.0</ele><time>2026-05-03T13:41:06.518Z</time></trkpt><trkpt lat="44.5637363" lon="9.8931017"><ele>693.0</ele><time>2026-05-03T13:41:07.517Z</time></trkpt><trkpt lat="44.5636925" lon="9.8930116"><ele>693.0</ele><time>2026-05-03T13:41:08.517Z</time></trkpt><trkpt lat="44.5636463" lon="9.8929263"><ele>693.0</ele><time>2026-05-03T13:41:09.517Z</time></trkpt><trkpt lat="44.5636048" lon="9.8928394"><ele>693.0</ele><time>2026-05-03T13:41:10.517Z</time></trkpt><trkpt lat="44.563578" lon="9.8927446"><ele>693.3333333333334</ele><time>2026-05-03T13:41:11.517Z</time></trkpt><trkpt lat="44.5635533" lon="9.8926429"><ele>693.6666666666666</ele><time>2026-05-03T13:41:12.518Z</time></trkpt><trkpt lat="44.5635312" lon="9.8925326"><ele>694.0</ele><time>2026-05-03T13:41:13.518Z</time></trkpt><trkpt lat="44.5635095" lon="9.8924229"><ele>694.3333333333333</ele><time>2026-05-03T13:41:14.517Z</time></trkpt><trkpt lat="44.5634877" lon="9.8923202"><ele>694.6666666666666</ele><time>2026-05-03T13:41:15.517Z</time></trkpt><trkpt lat="44.5634724" lon="9.8921772"><ele>695.0</ele><time>2026-05-03T13:41:17.518Z</time></trkpt><trkpt lat="44.5634655" lon="9.8920539"><ele>695.8</ele><time>2026-05-03T13:41:19.517Z</time></trkpt><trkpt lat="44.563484" lon="9.8919647"><ele>696.6</ele><time>2026-05-03T13:41:21.517Z</time></trkpt><trkpt lat="44.5635299" lon="9.8918408"><ele>697.4000000000001</ele><time>2026-05-03T13:41:23.517Z</time></trkpt><trkpt lat="44.5635658" lon="9.8916938"><ele>698.2</ele><time>2026-05-03T13:41:25.517Z</time></trkpt><trkpt lat="44.563603" lon="9.8915379"><ele>699.0</ele><time>2026-05-03T13:41:27.518Z</time></trkpt><trkpt lat="44.5636329" lon="9.891362"><ele>699.0</ele><time>2026-05-03T13:41:29.517Z</time></trkpt><trkpt lat="44.5636861" lon="9.8912621"><ele>699.0</ele><time>2026-05-03T13:41:30.517Z</time></trkpt><trkpt lat="44.5637015" lon="9.8911424"><ele>699.0</ele><time>2026-05-03T13:41:31.517Z</time></trkpt><trkpt lat="44.5637159" lon="9.891036"><ele>699.0</ele><time>2026-05-03T13:41:32.517Z</time></trkpt><trkpt lat="44.5637656" lon="9.8909459"><ele>699.0</ele><time>2026-05-03T13:41:33.517Z</time></trkpt><trkpt lat="44.5637922" lon="9.8908515"><ele>699.0</ele><time>2026-05-03T13:41:34.517Z</time></trkpt><trkpt lat="44.5638104" lon="9.8907506"><ele>699.4000000000001</ele><time>2026-05-03T13:41:35.517Z</time></trkpt><trkpt lat="44.5638385" lon="9.8905882"><ele>699.8</ele><time>2026-05-03T13:41:37.517Z</time></trkpt><trkpt lat="44.5638247" lon="9.8904882"><ele>700.2</ele><time>2026-05-03T13:41:39.518Z</time></trkpt><trkpt lat="44.5637763" lon="9.8903814"><ele>700.5999999999999</ele><time>2026-05-03T13:41:40.517Z</time></trkpt><trkpt lat="44.5637302" lon="9.8902665"><ele>701.0</ele><time>2026-05-03T13:41:41.517Z</time></trkpt><trkpt lat="44.5636966" lon="9.8901726"><ele>701.0</ele><time>2026-05-03T13:41:42.517Z</time></trkpt><trkpt lat="44.5636699" lon="9.8900632"><ele>701.0</ele><time>2026-05-03T13:41:43.517Z</time></trkpt><trkpt lat="44.5636472" lon="9.8899658"><ele>701.0</ele><time>2026-05-03T13:41:44.517Z</time></trkpt><trkpt lat="44.5636077" lon="9.889845"><ele>701.0</ele><time>2026-05-03T13:41:45.517Z</time></trkpt><trkpt lat="44.5636013" lon="9.8897364"><ele>701.0</ele><time>2026-05-03T13:41:46.518Z</time></trkpt><trkpt lat="44.5635745" lon="9.8896188"><ele>701.0</ele><time>2026-05-03T13:41:47.518Z</time></trkpt><trkpt lat="44.5635605" lon="9.8895261"><ele>701.0</ele><time>2026-05-03T13:41:48.518Z</time></trkpt><trkpt lat="44.5635523" lon="9.8894332"><ele>701.0</ele><time>2026-05-03T13:41:49.517Z</time></trkpt><trkpt lat="44.563539" lon="9.8893299"><ele>701.0</ele><time>2026-05-03T13:41:50.517Z</time></trkpt><trkpt lat="44.5635384" lon="9.8892305"><ele>701.0</ele><time>2026-05-03T13:41:51.517Z</time></trkpt><trkpt lat="44.5635469" lon="9.8891332"><ele>701.0</ele><time>2026-05-03T13:41:52.517Z</time></trkpt><trkpt lat="44.5635893" lon="9.8889835"><ele>701.0</ele><time>2026-05-03T13:41:54.517Z</time></trkpt><trkpt lat="44.5636202" lon="9.8888946"><ele>702.1999999999999</ele><time>2026-05-03T13:41:55.517Z</time></trkpt><trkpt lat="44.5636471" lon="9.8888053"><ele>703.4</ele><time>2026-05-03T13:41:56.518Z</time></trkpt><trkpt lat="44.5637042" lon="9.8887487"><ele>704.6</ele><time>2026-05-03T13:41:57.518Z</time></trkpt><trkpt lat="44.5637561" lon="9.8885926"><ele>705.8</ele><time>2026-05-03T13:41:59.517Z</time></trkpt><trkpt lat="44.5637875" lon="9.8885151"><ele>707.0</ele><time>2026-05-03T13:42:00.517Z</time></trkpt><trkpt lat="44.5638539" lon="9.8883491"><ele>700.75</ele><time>2026-05-03T13:42:02.517Z</time></trkpt><trkpt lat="44.563913" lon="9.8882192"><ele>694.5</ele><time>2026-05-03T13:42:04.518Z</time></trkpt><trkpt lat="44.5639263" lon="9.8880546"><ele>688.25</ele><time>2026-05-03T13:42:06.517Z</time></trkpt><trkpt lat="44.5639242" lon="9.8878872"><ele>682.0</ele><time>2026-05-03T13:42:08.518Z</time></trkpt><trkpt lat="44.5638891" lon="9.887727"><ele>682.0</ele><time>2026-05-03T13:42:10.517Z</time></trkpt><trkpt lat="44.5638999" lon="9.8876344"><ele>682.0</ele><time>2026-05-03T13:42:12.517Z</time></trkpt><trkpt lat="44.5638956" lon="9.8875323"><ele>682.0</ele><time>2026-05-03T13:42:14.517Z</time></trkpt><trkpt lat="44.5638501" lon="9.887417"><ele>682.0</ele><time>2026-05-03T13:42:16.517Z</time></trkpt><trkpt lat="44.563836" lon="9.8872853"><ele>682.0</ele><time>2026-05-03T13:42:18.516Z</time></trkpt><trkpt lat="44.5638712" lon="9.8871413"><ele>682.0</ele><time>2026-05-03T13:42:20.518Z</time></trkpt><trkpt lat="44.5639254" lon="9.8870628"><ele>681.3333333333334</ele><time>2026-05-03T13:42:21.517Z</time></trkpt><trkpt lat="44.563956" lon="9.8869584"><ele>680.6666666666667</ele><time>2026-05-03T13:42:22.518Z</time></trkpt><trkpt lat="44.5639922" lon="9.8868634"><ele>680.0</ele><time>2026-05-03T13:42:23.517Z</time></trkpt><trkpt lat="44.5640084" lon="9.886774"><ele>679.3333333333334</ele><time>2026-05-03T13:42:24.517Z</time></trkpt><trkpt lat="44.5640382" lon="9.8866884"><ele>678.6666666666666</ele><time>2026-05-03T13:42:25.518Z</time></trkpt><trkpt lat="44.5640497" lon="9.8865949"><ele>678.0</ele><time>2026-05-03T13:42:26.517Z</time></trkpt><trkpt lat="44.5640595" lon="9.8864501"><ele>678.0</ele><time>2026-05-03T13:42:27.517Z</time></trkpt><trkpt lat="44.5640696" lon="9.8863605"><ele>678.0</ele><time>2026-05-03T13:42:28.517Z</time></trkpt><trkpt lat="44.5640906" lon="9.8861655"><ele>678.0</ele><time>2026-05-03T13:42:30.517Z</time></trkpt><trkpt lat="44.5641146" lon="9.8860616"><ele>678.0</ele><time>2026-05-03T13:42:31.517Z</time></trkpt><trkpt lat="44.5641258" lon="9.885887"><ele>678.0</ele><time>2026-05-03T13:42:32.517Z</time></trkpt><trkpt lat="44.5641485" lon="9.885797"><ele>679.8333333333334</ele><time>2026-05-03T13:42:33.518Z</time></trkpt><trkpt lat="44.5641668" lon="9.8856959"><ele>681.6666666666666</ele><time>2026-05-03T13:42:34.517Z</time></trkpt><trkpt lat="44.5641428" lon="9.8855904"><ele>683.5</ele><time>2026-05-03T13:42:35.517Z</time></trkpt><trkpt lat="44.5640688" lon="9.8854432"><ele>685.3333333333333</ele><time>2026-05-03T13:42:37.517Z</time></trkpt><trkpt lat="44.5640734" lon="9.8853179"><ele>687.1666666666666</ele><time>2026-05-03T13:42:39.517Z</time></trkpt><trkpt lat="44.5641011" lon="9.885237"><ele>689.0</ele><time>2026-05-03T13:42:40.517Z</time></trkpt><trkpt lat="44.5641308" lon="9.8851384"><ele>690.0</ele><time>2026-05-03T13:42:41.517Z</time></trkpt><trkpt lat="44.5641466" lon="9.8850394"><ele>691.0</ele><time>2026-05-03T13:42:42.517Z</time></trkpt><trkpt lat="44.564192" lon="9.8849527"><ele>692.0</ele><time>2026-05-03T13:42:43.518Z</time></trkpt><trkpt lat="44.5642478" lon="9.884829"><ele>693.0</ele><time>2026-05-03T13:42:45.517Z</time></trkpt><trkpt lat="44.5642842" lon="9.8847153"><ele>694.0</ele><time>2026-05-03T13:42:47.518Z</time></trkpt><trkpt lat="44.5642938" lon="9.884533"><ele>694.0</ele><time>2026-05-03T13:42:49.517Z</time></trkpt><trkpt lat="44.5643023" lon="9.8844223"><ele>694.0</ele><time>2026-05-03T13:42:50.517Z</time></trkpt><trkpt lat="44.5643147" lon="9.8843253"><ele>694.0</ele><time>2026-05-03T13:42:51.517Z</time></trkpt><trkpt lat="44.5643295" lon="9.8841451"><ele>694.0</ele><time>2026-05-03T13:42:53.517Z</time></trkpt><trkpt lat="44.5643264" lon="9.8840457"><ele>694.0</ele><time>2026-05-03T13:42:54.518Z</time></trkpt><trkpt lat="44.5642948" lon="9.8839453"><ele>694.0</ele><time>2026-05-03T13:42:56.517Z</time></trkpt><trkpt lat="44.5642705" lon="9.8838341"><ele>694.6</ele><time>2026-05-03T13:42:58.517Z</time></trkpt><trkpt lat="44.5642319" lon="9.8836887"><ele>695.2</ele><time>2026-05-03T13:43:00.517Z</time></trkpt><trkpt lat="44.5642051" lon="9.88353"><ele>695.8000000000001</ele><time>2026-05-03T13:43:02.518Z</time></trkpt><trkpt lat="44.5642199" lon="9.8833947"><ele>696.4000000000001</ele><time>2026-05-03T13:43:04.517Z</time></trkpt><trkpt lat="44.5642238" lon="9.8832865"><ele>697.0</ele><time>2026-05-03T13:43:06.517Z</time></trkpt><trkpt lat="44.5642352" lon="9.8831521"><ele>696.5</ele><time>2026-05-03T13:43:08.517Z</time></trkpt><trkpt lat="44.5642384" lon="9.8830489"><ele>696.0</ele><time>2026-05-03T13:43:09.517Z</time></trkpt><trkpt lat="44.5642682" lon="9.8829497"><ele>695.5</ele><time>2026-05-03T13:43:10.517Z</time></trkpt><trkpt lat="44.5642857" lon="9.8828538"><ele>695.0</ele><time>2026-05-03T13:43:11.517Z</time></trkpt><trkpt lat="44.5643069" lon="9.8827549"><ele>694.5</ele><time>2026-05-03T13:43:12.517Z</time></trkpt><trkpt lat="44.5643283" lon="9.8826356"><ele>694.0</ele><time>2026-05-03T13:43:13.517Z</time></trkpt><trkpt lat="44.5642544" lon="9.8825534"><ele>694.0</ele><time>2026-05-03T13:43:15.517Z</time></trkpt><trkpt lat="44.5641867" lon="9.8824489"><ele>694.0</ele><time>2026-05-03T13:43:17.517Z</time></trkpt><trkpt lat="44.5641424" lon="9.882319"><ele>694.0</ele><time>2026-05-03T13:43:19.517Z</time></trkpt><trkpt lat="44.5640988" lon="9.8821837"><ele>694.0</ele><time>2026-05-03T13:43:21.517Z</time></trkpt><trkpt lat="44.5640655" lon="9.8820945"><ele>694.0</ele><time>2026-05-03T13:43:22.517Z</time></trkpt><trkpt lat="44.5640322" lon="9.8819993"><ele>694.0</ele><time>2026-05-03T13:43:23.517Z</time></trkpt><trkpt lat="44.5639855" lon="9.8818987"><ele>694.0</ele><time>2026-05-03T13:43:24.517Z</time></trkpt><trkpt lat="44.563925" lon="9.8817715"><ele>694.0</ele><time>2026-05-03T13:43:25.518Z</time></trkpt><trkpt lat="44.5638766" lon="9.8816796"><ele>694.0</ele><time>2026-05-03T13:43:26.517Z</time></trkpt><trkpt lat="44.5637547" lon="9.8815878"><ele>694.0</ele><time>2026-05-03T13:43:28.517Z</time></trkpt><trkpt lat="44.5636781" lon="9.8815527"><ele>694.6666666666667</ele><time>2026-05-03T13:43:29.517Z</time></trkpt><trkpt lat="44.563608" lon="9.8815268"><ele>695.3333333333334</ele><time>2026-05-03T13:43:30.518Z</time></trkpt><trkpt lat="44.5635471" lon="9.8814762"><ele>696.0</ele><time>2026-05-03T13:43:31.517Z</time></trkpt><trkpt lat="44.5634876" lon="9.8814181"><ele>696.6666666666666</ele><time>2026-05-03T13:43:32.517Z</time></trkpt><trkpt lat="44.5634297" lon="9.8813428"><ele>697.3333333333333</ele><time>2026-05-03T13:43:33.517Z</time></trkpt><trkpt lat="44.5633803" lon="9.8812746"><ele>698.0</ele><time>2026-05-03T13:43:34.517Z</time></trkpt><trkpt lat="44.5633243" lon="9.8811619"><ele>698.0</ele><time>2026-05-03T13:43:36.518Z</time></trkpt><trkpt lat="44.5633344" lon="9.8810122"><ele>698.0</ele><time>2026-05-03T13:43:38.518Z</time></trkpt><trkpt lat="44.5633569" lon="9.8809183"><ele>698.0</ele><time>2026-05-03T13:43:39.517Z</time></trkpt><trkpt lat="44.5633819" lon="9.8808256"><ele>698.0</ele><time>2026-05-03T13:43:40.517Z</time></trkpt><trkpt lat="44.5634053" lon="9.8807227"><ele>698.0</ele><time>2026-05-03T13:43:41.517Z</time></trkpt><trkpt lat="44.5634296" lon="9.8806228"><ele>698.0</ele><time>2026-05-03T13:43:42.518Z</time></trkpt><trkpt lat="44.5633994" lon="9.880405"><ele>696.3333333333333</ele><time>2026-05-03T13:43:44.517Z</time></trkpt><trkpt lat="44.5633904" lon="9.8802423"><ele>694.6666666666666</ele><time>2026-05-03T13:43:46.517Z</time></trkpt><trkpt lat="44.5634262" lon="9.8801665"><ele>693.0</ele><time>2026-05-03T13:43:47.517Z</time></trkpt><trkpt lat="44.563461" lon="9.8800734"><ele>691.3333333333334</ele><time>2026-05-03T13:43:48.518Z</time></trkpt><trkpt lat="44.5634957" lon="9.8799699"><ele>689.6666666666667</ele><time>2026-05-03T13:43:49.517Z</time></trkpt><trkpt lat="44.56351" lon="9.8798617"><ele>688.0</ele><time>2026-05-03T13:43:50.517Z</time></trkpt><trkpt lat="44.56352" lon="9.8797438"><ele>687.4285714285714</ele><time>2026-05-03T13:43:51.518Z</time></trkpt><trkpt lat="44.5635212" lon="9.8796322"><ele>686.8571428571429</ele><time>2026-05-03T13:43:52.517Z</time></trkpt><trkpt lat="44.5635222" lon="9.8795375"><ele>686.2857142857142</ele><time>2026-05-03T13:43:53.518Z</time></trkpt><trkpt lat="44.5635186" lon="9.8794483"><ele>685.7142857142858</ele><time>2026-05-03T13:43:54.519Z</time></trkpt><trkpt lat="44.5635161" lon="9.8793501"><ele>685.1428571428571</ele><time>2026-05-03T13:43:55.517Z</time></trkpt><trkpt lat="44.5635487" lon="9.8792517"><ele>684.5714285714286</ele><time>2026-05-03T13:45:31.516Z</time></trkpt><trkpt lat="44.5636342" lon="9.8792066"><ele>684.0</ele><time>2026-05-03T13:45:33.516Z</time></trkpt><trkpt lat="44.5636969" lon="9.8791908"><ele>682.5</ele><time>2026-05-03T13:45:34.516Z</time></trkpt><trkpt lat="44.5637666" lon="9.8791746"><ele>681.0</ele><time>2026-05-03T13:45:35.516Z</time></trkpt><trkpt lat="44.5638446" lon="9.8791558"><ele>679.5</ele><time>2026-05-03T13:45:36.516Z</time></trkpt><trkpt lat="44.5639226" lon="9.8791422"><ele>678.0</ele><time>2026-05-03T13:45:37.516Z</time></trkpt><trkpt lat="44.5640057" lon="9.8791429"><ele>676.5</ele><time>2026-05-03T13:45:38.517Z</time></trkpt><trkpt lat="44.5640887" lon="9.8791573"><ele>675.0</ele><time>2026-05-03T13:45:39.516Z</time></trkpt><trkpt lat="44.5641779" lon="9.8791702"><ele>675.0</ele><time>2026-05-03T13:45:40.516Z</time></trkpt><trkpt lat="44.5642747" lon="9.8791936"><ele>675.0</ele><time>2026-05-03T13:45:41.517Z</time></trkpt><trkpt lat="44.5643823" lon="9.8792243"><ele>675.0</ele><time>2026-05-03T13:45:42.516Z</time></trkpt><trkpt lat="44.5644941" lon="9.8792554"><ele>675.0</ele><time>2026-05-03T13:45:43.516Z</time></trkpt><trkpt lat="44.5646059" lon="9.8792734"><ele>675.0</ele><time>2026-05-03T13:45:44.516Z</time></trkpt><trkpt lat="44.5647071" lon="9.8792895"><ele>673.1666666666666</ele><time>2026-05-03T13:45:45.517Z</time></trkpt><trkpt lat="44.5648014" lon="9.8793085"><ele>671.3333333333334</ele><time>2026-05-03T13:45:46.516Z</time></trkpt><trkpt lat="44.5648919" lon="9.8793124"><ele>669.5</ele><time>2026-05-03T13:45:47.517Z</time></trkpt><trkpt lat="44.5649787" lon="9.8792898"><ele>667.6666666666667</ele><time>2026-05-03T13:45:48.516Z</time></trkpt><trkpt lat="44.5650574" lon="9.8792549"><ele>665.8333333333334</ele><time>2026-05-03T13:45:49.517Z</time></trkpt><trkpt lat="44.5651176" lon="9.8792078"><ele>664.0</ele><time>2026-05-03T13:45:50.516Z</time></trkpt><trkpt lat="44.5651801" lon="9.8790686"><ele>664.0</ele><time>2026-05-03T13:45:52.516Z</time></trkpt><trkpt lat="44.5651857" lon="9.8789711"><ele>664.0</ele><time>2026-05-03T13:45:53.516Z</time></trkpt><trkpt lat="44.5651803" lon="9.8788472"><ele>664.0</ele><time>2026-05-03T13:45:54.516Z</time></trkpt><trkpt lat="44.5651689" lon="9.8787241"><ele>664.0</ele><time>2026-05-03T13:45:55.517Z</time></trkpt><trkpt lat="44.565149" lon="9.8786026"><ele>664.0</ele><time>2026-05-03T13:45:56.516Z</time></trkpt><trkpt lat="44.5651307" lon="9.8784782"><ele>664.0</ele><time>2026-05-03T13:45:57.516Z</time></trkpt><trkpt lat="44.5651096" lon="9.8783512"><ele>663.4000000000001</ele><time>2026-05-03T13:45:58.516Z</time></trkpt><trkpt lat="44.5650804" lon="9.8782164"><ele>662.8</ele><time>2026-05-03T13:45:59.516Z</time></trkpt><trkpt lat="44.5650541" lon="9.8780664"><ele>662.2</ele><time>2026-05-03T13:46:00.516Z</time></trkpt><trkpt lat="44.5650278" lon="9.877911"><ele>661.5999999999999</ele><time>2026-05-03T13:46:01.516Z</time></trkpt><trkpt lat="44.5650003" lon="9.8777582"><ele>661.0</ele><time>2026-05-03T13:46:02.516Z</time></trkpt><trkpt lat="44.5649652" lon="9.8776048"><ele>659.5</ele><time>2026-05-03T13:46:03.516Z</time></trkpt><trkpt lat="44.5649178" lon="9.8774559"><ele>658.0</ele><time>2026-05-03T13:46:04.517Z</time></trkpt><trkpt lat="44.5648688" lon="9.8773132"><ele>656.5</ele><time>2026-05-03T13:46:05.516Z</time></trkpt><trkpt lat="44.5648154" lon="9.8771687"><ele>655.0</ele><time>2026-05-03T13:46:06.516Z</time></trkpt><trkpt lat="44.5647651" lon="9.8770247"><ele>655.0</ele><time>2026-05-03T13:46:07.516Z</time></trkpt><trkpt lat="44.5647201" lon="9.876888"><ele>655.0</ele><time>2026-05-03T13:46:08.516Z</time></trkpt><trkpt lat="44.564678" lon="9.8767557"><ele>655.0</ele><time>2026-05-03T13:46:09.516Z</time></trkpt><trkpt lat="44.5646335" lon="9.8766241"><ele>655.0</ele><time>2026-05-03T13:46:10.516Z</time></trkpt><trkpt lat="44.5646062" lon="9.8765102"><ele>655.0</ele><time>2026-05-03T13:46:11.516Z</time></trkpt><trkpt lat="44.5645969" lon="9.876388"><ele>655.0</ele><time>2026-05-03T13:46:12.516Z</time></trkpt><trkpt lat="44.5645859" lon="9.8762721"><ele>655.0</ele><time>2026-05-03T13:46:13.516Z</time></trkpt><trkpt lat="44.5645842" lon="9.8761569"><ele>655.0</ele><time>2026-05-03T13:46:14.516Z</time></trkpt><trkpt lat="44.5645848" lon="9.8760312"><ele>655.0</ele><time>2026-05-03T13:46:15.516Z</time></trkpt><trkpt lat="44.5645764" lon="9.8759021"><ele>655.0</ele><time>2026-05-03T13:46:16.516Z</time></trkpt><trkpt lat="44.5645656" lon="9.8757633"><ele>655.0</ele><time>2026-05-03T13:46:17.516Z</time></trkpt><trkpt lat="44.5645662" lon="9.8756387"><ele>655.0</ele><time>2026-05-03T13:46:18.516Z</time></trkpt><trkpt lat="44.5645825" lon="9.8755252"><ele>655.0</ele><time>2026-05-03T13:46:19.516Z</time></trkpt><trkpt lat="44.5646127" lon="9.8754205"><ele>655.0</ele><time>2026-05-03T13:46:20.516Z</time></trkpt><trkpt lat="44.564655" lon="9.8753369"><ele>655.0</ele><time>2026-05-03T13:46:21.516Z</time></trkpt><trkpt lat="44.5647124" lon="9.8752771"><ele>655.0</ele><time>2026-05-03T13:46:22.517Z</time></trkpt><trkpt lat="44.5647629" lon="9.8752243"><ele>655.0</ele><time>2026-05-03T13:46:23.516Z</time></trkpt><trkpt lat="44.5648218" lon="9.8751727"><ele>655.0</ele><time>2026-05-03T13:46:24.516Z</time></trkpt><trkpt lat="44.5648866" lon="9.875132"><ele>655.3333333333334</ele><time>2026-05-03T13:46:25.516Z</time></trkpt><trkpt lat="44.5649547" lon="9.8750827"><ele>655.6666666666667</ele><time>2026-05-03T13:46:26.516Z</time></trkpt><trkpt lat="44.5650289" lon="9.8750327"><ele>656.0</ele><time>2026-05-03T13:46:27.517Z</time></trkpt><trkpt lat="44.5651078" lon="9.87499"><ele>656.3333333333334</ele><time>2026-05-03T13:46:28.516Z</time></trkpt><trkpt lat="44.5651943" lon="9.8749621"><ele>656.6666666666666</ele><time>2026-05-03T13:46:29.516Z</time></trkpt><trkpt lat="44.5652768" lon="9.8749575"><ele>657.0</ele><time>2026-05-03T13:46:30.516Z</time></trkpt><trkpt lat="44.5653535" lon="9.8749851"><ele>655.6666666666666</ele><time>2026-05-03T13:46:31.516Z</time></trkpt><trkpt lat="44.5654265" lon="9.8750449"><ele>654.3333333333334</ele><time>2026-05-03T13:46:32.516Z</time></trkpt><trkpt lat="44.56549" lon="9.8751209"><ele>653.0</ele><time>2026-05-03T13:46:33.516Z</time></trkpt><trkpt lat="44.5655371" lon="9.8752214"><ele>651.6666666666667</ele><time>2026-05-03T13:46:34.516Z</time></trkpt><trkpt lat="44.5655644" lon="9.8753408"><ele>650.3333333333334</ele><time>2026-05-03T13:46:35.516Z</time></trkpt><trkpt lat="44.5655906" lon="9.8754429"><ele>649.0</ele><time>2026-05-03T13:46:36.517Z</time></trkpt><trkpt lat="44.5656178" lon="9.8755506"><ele>649.0</ele><time>2026-05-03T13:46:37.516Z</time></trkpt><trkpt lat="44.5656548" lon="9.8756502"><ele>649.0</ele><time>2026-05-03T13:46:38.517Z</time></trkpt><trkpt lat="44.5656987" lon="9.8757514"><ele>649.0</ele><time>2026-05-03T13:46:39.516Z</time></trkpt><trkpt lat="44.5657247" lon="9.8758559"><ele>649.0</ele><time>2026-05-03T13:46:40.517Z</time></trkpt><trkpt lat="44.5657314" lon="9.8759559"><ele>649.0</ele><time>2026-05-03T13:46:41.516Z</time></trkpt><trkpt lat="44.5657632" lon="9.8760467"><ele>649.0</ele><time>2026-05-03T13:46:42.516Z</time></trkpt><trkpt lat="44.5658162" lon="9.8761281"><ele>648.5</ele><time>2026-05-03T13:46:43.516Z</time></trkpt><trkpt lat="44.5658654" lon="9.876204"><ele>648.0</ele><time>2026-05-03T13:46:44.516Z</time></trkpt><trkpt lat="44.5658898" lon="9.876297"><ele>647.5</ele><time>2026-05-03T13:46:45.516Z</time></trkpt><trkpt lat="44.565934" lon="9.8764464"><ele>647.0</ele><time>2026-05-03T13:46:47.516Z</time></trkpt><trkpt lat="44.5660281" lon="9.8764667"><ele>646.5</ele><time>2026-05-03T13:46:49.516Z</time></trkpt><trkpt lat="44.566077" lon="9.876409"><ele>646.0</ele><time>2026-05-03T13:46:50.516Z</time></trkpt><trkpt lat="44.566124" lon="9.8763254"><ele>646.0</ele><time>2026-05-03T13:46:51.517Z</time></trkpt><trkpt lat="44.5661617" lon="9.8762167"><ele>646.0</ele><time>2026-05-03T13:46:52.516Z</time></trkpt><trkpt lat="44.566186" lon="9.8760872"><ele>646.0</ele><time>2026-05-03T13:46:53.516Z</time></trkpt><trkpt lat="44.5662012" lon="9.875951"><ele>646.0</ele><time>2026-05-03T13:46:54.516Z</time></trkpt><trkpt lat="44.5662175" lon="9.8758229"><ele>646.0</ele><time>2026-05-03T13:46:55.516Z</time></trkpt><trkpt lat="44.5662503" lon="9.8756997"><ele>643.8</ele><time>2026-05-03T13:46:56.517Z</time></trkpt><trkpt lat="44.5663035" lon="9.8755854"><ele>641.5999999999999</ele><time>2026-05-03T13:46:57.517Z</time></trkpt><trkpt lat="44.5663756" lon="9.8754954"><ele>639.4</ele><time>2026-05-03T13:46:58.516Z</time></trkpt><trkpt lat="44.566455" lon="9.8754471"><ele>637.2</ele><time>2026-05-03T13:46:59.516Z</time></trkpt><trkpt lat="44.5665461" lon="9.875444"><ele>635.0</ele><time>2026-05-03T13:47:00.516Z</time></trkpt><trkpt lat="44.5666368" lon="9.8754839"><ele>635.0</ele><time>2026-05-03T13:47:01.516Z</time></trkpt><trkpt lat="44.5667315" lon="9.8755582"><ele>635.0</ele><time>2026-05-03T13:47:02.516Z</time></trkpt><trkpt lat="44.5668166" lon="9.8756547"><ele>635.0</ele><time>2026-05-03T13:47:03.516Z</time></trkpt><trkpt lat="44.5668926" lon="9.8757703"><ele>635.0</ele><time>2026-05-03T13:47:04.516Z</time></trkpt><trkpt lat="44.5669519" lon="9.8759071"><ele>635.0</ele><time>2026-05-03T13:47:05.516Z</time></trkpt><trkpt lat="44.5670015" lon="9.8760532"><ele>631.2</ele><time>2026-05-03T13:47:06.516Z</time></trkpt><trkpt lat="44.5670356" lon="9.8762023"><ele>627.4</ele><time>2026-05-03T13:47:07.516Z</time></trkpt><trkpt lat="44.5670585" lon="9.8763294"><ele>623.6</ele><time>2026-05-03T13:47:08.516Z</time></trkpt><trkpt lat="44.5670884" lon="9.8764305"><ele>619.8</ele><time>2026-05-03T13:47:09.516Z</time></trkpt><trkpt lat="44.56718" lon="9.8765196"><ele>616.0</ele><time>2026-05-03T13:47:11.516Z</time></trkpt><trkpt lat="44.5672621" lon="9.8764261"><ele>616.0</ele><time>2026-05-03T13:47:13.516Z</time></trkpt><trkpt lat="44.5672625" lon="9.8763373"><ele>616.0</ele><time>2026-05-03T13:47:14.516Z</time></trkpt><trkpt lat="44.5672689" lon="9.8762338"><ele>616.0</ele><time>2026-05-03T13:47:15.516Z</time></trkpt><trkpt lat="44.5672819" lon="9.8761246"><ele>616.0</ele><time>2026-05-03T13:47:16.516Z</time></trkpt><trkpt lat="44.5672943" lon="9.876"><ele>616.0</ele><time>2026-05-03T13:47:17.517Z</time></trkpt><trkpt lat="44.5673052" lon="9.8758721"><ele>616.0</ele><time>2026-05-03T13:47:18.516Z</time></trkpt><trkpt lat="44.5673092" lon="9.8757424"><ele>615.8333333333334</ele><time>2026-05-03T13:47:19.517Z</time></trkpt><trkpt lat="44.5672849" lon="9.8756231"><ele>615.6666666666667</ele><time>2026-05-03T13:47:20.516Z</time></trkpt><trkpt lat="44.5672809" lon="9.8755276"><ele>615.5</ele><time>2026-05-03T13:47:21.516Z</time></trkpt><trkpt lat="44.5673492" lon="9.8754129"><ele>615.3333333333334</ele><time>2026-05-03T13:47:23.516Z</time></trkpt><trkpt lat="44.5674369" lon="9.8754822"><ele>615.1666666666666</ele><time>2026-05-03T13:47:25.516Z</time></trkpt><trkpt lat="44.5674619" lon="9.8755755"><ele>615.0</ele><time>2026-05-03T13:47:26.517Z</time></trkpt><trkpt lat="44.5674846" lon="9.8756894"><ele>615.0</ele><time>2026-05-03T13:47:27.516Z</time></trkpt><trkpt lat="44.567512" lon="9.8758106"><ele>615.0</ele><time>2026-05-03T13:47:28.516Z</time></trkpt><trkpt lat="44.5675568" lon="9.8759271"><ele>615.0</ele><time>2026-05-03T13:47:29.516Z</time></trkpt><trkpt lat="44.5676092" lon="9.8760575"><ele>615.0</ele><time>2026-05-03T13:47:30.516Z</time></trkpt><trkpt lat="44.5676648" lon="9.8761825"><ele>615.0</ele><time>2026-05-03T13:47:31.516Z</time></trkpt><trkpt lat="44.5677199" lon="9.876299"><ele>615.2</ele><time>2026-05-03T13:47:32.516Z</time></trkpt><trkpt lat="44.5677752" lon="9.8764229"><ele>615.4</ele><time>2026-05-03T13:47:33.516Z</time></trkpt><trkpt lat="44.5678274" lon="9.8765453"><ele>615.6</ele><time>2026-05-03T13:47:34.516Z</time></trkpt><trkpt lat="44.5678811" lon="9.8766642"><ele>615.8</ele><time>2026-05-03T13:47:35.516Z</time></trkpt><trkpt lat="44.5679239" lon="9.8767893"><ele>616.0</ele><time>2026-05-03T13:47:36.516Z</time></trkpt><trkpt lat="44.5679748" lon="9.8769148"><ele>613.3333333333334</ele><time>2026-05-03T13:47:37.516Z</time></trkpt><trkpt lat="44.5680324" lon="9.8770166"><ele>610.6666666666667</ele><time>2026-05-03T13:47:38.516Z</time></trkpt><trkpt lat="44.5680995" lon="9.8770886"><ele>608.0</ele><time>2026-05-03T13:47:39.516Z</time></trkpt><trkpt lat="44.5681681" lon="9.8771393"><ele>605.3333333333334</ele><time>2026-05-03T13:47:40.516Z</time></trkpt><trkpt lat="44.5682402" lon="9.8771559"><ele>602.6666666666666</ele><time>2026-05-03T13:47:41.516Z</time></trkpt><trkpt lat="44.5683158" lon="9.8771344"><ele>600.0</ele><time>2026-05-03T13:47:42.516Z</time></trkpt><trkpt lat="44.5683777" lon="9.8770779"><ele>599.9999999999999</ele><time>2026-05-03T13:47:43.516Z</time></trkpt><trkpt lat="44.5684179" lon="9.8769904"><ele>600.0</ele><time>2026-05-03T13:47:44.517Z</time></trkpt><trkpt lat="44.5684329" lon="9.8768934"><ele>600.0</ele><time>2026-05-03T13:47:45.515Z</time></trkpt><trkpt lat="44.5684214" lon="9.8767993"><ele>600.0</ele><time>2026-05-03T13:47:46.515Z</time></trkpt><trkpt lat="44.5683939" lon="9.876715"><ele>600.0</ele><time>2026-05-03T13:47:47.515Z</time></trkpt><trkpt lat="44.5683511" lon="9.876644"><ele>599.9999999999999</ele><time>2026-05-03T13:47:48.515Z</time></trkpt><trkpt lat="44.5683022" lon="9.8765757"><ele>600.0</ele><time>2026-05-03T13:47:49.515Z</time></trkpt><trkpt lat="44.5682772" lon="9.8764237"><ele>600.1666666666666</ele><time>2026-05-03T13:47:52.515Z</time></trkpt><trkpt lat="44.5683699" lon="9.8764807"><ele>600.3333333333334</ele><time>2026-05-03T13:47:54.515Z</time></trkpt><trkpt lat="44.5684512" lon="9.8765559"><ele>600.5</ele><time>2026-05-03T13:47:56.516Z</time></trkpt><trkpt lat="44.5685091" lon="9.8766029"><ele>600.6666666666667</ele><time>2026-05-03T13:47:57.515Z</time></trkpt><trkpt lat="44.5685736" lon="9.8766575"><ele>600.8333333333334</ele><time>2026-05-03T13:47:58.515Z</time></trkpt><trkpt lat="44.5686352" lon="9.8767173"><ele>601.0</ele><time>2026-05-03T13:47:59.515Z</time></trkpt><trkpt lat="44.5686997" lon="9.8767848"><ele>598.8</ele><time>2026-05-03T13:48:00.515Z</time></trkpt><trkpt lat="44.5687589" lon="9.8768682"><ele>596.6</ele><time>2026-05-03T13:48:01.515Z</time></trkpt><trkpt lat="44.5688094" lon="9.8769756"><ele>594.4</ele><time>2026-05-03T13:48:02.515Z</time></trkpt><trkpt lat="44.5688349" lon="9.8771027"><ele>592.2</ele><time>2026-05-03T13:48:03.515Z</time></trkpt><trkpt lat="44.568844" lon="9.8772395"><ele>590.0</ele><time>2026-05-03T13:48:04.515Z</time></trkpt><trkpt lat="44.5688459" lon="9.8773841"><ele>590.0</ele><time>2026-05-03T13:48:05.515Z</time></trkpt><trkpt lat="44.5688303" lon="9.8775336"><ele>590.0</ele><time>2026-05-03T13:48:06.515Z</time></trkpt><trkpt lat="44.5687908" lon="9.8776799"><ele>590.0</ele><time>2026-05-03T13:48:07.515Z</time></trkpt><trkpt lat="44.5687308" lon="9.8778053"><ele>590.0</ele><time>2026-05-03T13:48:08.515Z</time></trkpt><trkpt lat="44.5686494" lon="9.8779139"><ele>590.0</ele><time>2026-05-03T13:48:09.515Z</time></trkpt><trkpt lat="44.5685563" lon="9.8779924"><ele>589.8</ele><time>2026-05-03T13:48:10.516Z</time></trkpt><trkpt lat="44.5684622" lon="9.8780458"><ele>589.6</ele><time>2026-05-03T13:48:11.516Z</time></trkpt><trkpt lat="44.5683696" lon="9.8780927"><ele>589.4</ele><time>2026-05-03T13:48:12.515Z</time></trkpt><trkpt lat="44.5682814" lon="9.8781425"><ele>589.2</ele><time>2026-05-03T13:48:13.515Z</time></trkpt><trkpt lat="44.5682023" lon="9.8782035"><ele>589.0</ele><time>2026-05-03T13:48:14.515Z</time></trkpt><trkpt lat="44.568127" lon="9.8782736"><ele>589.0</ele><time>2026-05-03T13:48:15.515Z</time></trkpt><trkpt lat="44.5680538" lon="9.8783524"><ele>589.0</ele><time>2026-05-03T13:48:16.515Z</time></trkpt><trkpt lat="44.567981" lon="9.8784432"><ele>589.0</ele><time>2026-05-03T13:48:17.515Z</time></trkpt><trkpt lat="44.5679087" lon="9.8785389"><ele>589.0</ele><time>2026-05-03T13:48:18.515Z</time></trkpt><trkpt lat="44.5678358" lon="9.8786375"><ele>589.0</ele><time>2026-05-03T13:48:19.516Z</time></trkpt><trkpt lat="44.5677625" lon="9.8787434"><ele>588.25</ele><time>2026-05-03T13:48:20.515Z</time></trkpt><trkpt lat="44.5676886" lon="9.8788571"><ele>587.5</ele><time>2026-05-03T13:48:21.516Z</time></trkpt><trkpt lat="44.567616" lon="9.87898"><ele>586.75</ele><time>2026-05-03T13:48:22.515Z</time></trkpt><trkpt lat="44.5675422" lon="9.8791101"><ele>586.0</ele><time>2026-05-03T13:48:23.516Z</time></trkpt><trkpt lat="44.5674707" lon="9.8792445"><ele>585.2</ele><time>2026-05-03T13:48:24.515Z</time></trkpt><trkpt lat="44.5674146" lon="9.879388"><ele>584.4000000000001</ele><time>2026-05-03T13:48:25.515Z</time></trkpt><trkpt lat="44.5673745" lon="9.8795364"><ele>583.6</ele><time>2026-05-03T13:48:26.515Z</time></trkpt><trkpt lat="44.5673411" lon="9.8796842"><ele>582.8000000000001</ele><time>2026-05-03T13:48:27.515Z</time></trkpt><trkpt lat="44.567314" lon="9.879825"><ele>582.0</ele><time>2026-05-03T13:48:28.515Z</time></trkpt><trkpt lat="44.5672881" lon="9.8799601"><ele>582.0</ele><time>2026-05-03T13:48:29.516Z</time></trkpt><trkpt lat="44.5672845" lon="9.8800915"><ele>582.0</ele><time>2026-05-03T13:48:30.515Z</time></trkpt><trkpt lat="44.5673122" lon="9.8802144"><ele>582.0</ele><time>2026-05-03T13:48:31.515Z</time></trkpt><trkpt lat="44.5673693" lon="9.8803212"><ele>582.0</ele><time>2026-05-03T13:48:32.515Z</time></trkpt><trkpt lat="44.5674394" lon="9.8804214"><ele>582.0</ele><time>2026-05-03T13:48:33.515Z</time></trkpt><trkpt lat="44.5675181" lon="9.880518"><ele>582.6</ele><time>2026-05-03T13:48:34.515Z</time></trkpt><trkpt lat="44.5676019" lon="9.8806123"><ele>583.2</ele><time>2026-05-03T13:48:35.515Z</time></trkpt><trkpt lat="44.567683" lon="9.8807087"><ele>583.8</ele><time>2026-05-03T13:48:36.515Z</time></trkpt><trkpt lat="44.5677667" lon="9.8808028"><ele>584.4</ele><time>2026-05-03T13:48:37.515Z</time></trkpt><trkpt lat="44.5678538" lon="9.8808979"><ele>585.0</ele><time>2026-05-03T13:48:38.515Z</time></trkpt><trkpt lat="44.5679458" lon="9.8809993"><ele>583.8</ele><time>2026-05-03T13:48:39.515Z</time></trkpt><trkpt lat="44.5680365" lon="9.8810949"><ele>582.6</ele><time>2026-05-03T13:48:40.516Z</time></trkpt><trkpt lat="44.5681219" lon="9.8811856"><ele>581.4</ele><time>2026-05-03T13:48:41.515Z</time></trkpt><trkpt lat="44.5682047" lon="9.8812766"><ele>580.2</ele><time>2026-05-03T13:48:42.515Z</time></trkpt><trkpt lat="44.5682831" lon="9.881368"><ele>579.0</ele><time>2026-05-03T13:48:43.515Z</time></trkpt><trkpt lat="44.5683612" lon="9.8814473"><ele>579.0</ele><time>2026-05-03T13:48:44.516Z</time></trkpt><trkpt lat="44.5684332" lon="9.8815253"><ele>579.0</ele><time>2026-05-03T13:48:45.515Z</time></trkpt><trkpt lat="44.568505" lon="9.8816043"><ele>579.0</ele><time>2026-05-03T13:48:46.515Z</time></trkpt><trkpt lat="44.5685758" lon="9.8816825"><ele>579.0</ele><time>2026-05-03T13:48:47.515Z</time></trkpt><trkpt lat="44.5686465" lon="9.8817636"><ele>579.0</ele><time>2026-05-03T13:48:48.515Z</time></trkpt><trkpt lat="44.5687128" lon="9.8818502"><ele>576.8</ele><time>2026-05-03T13:48:49.515Z</time></trkpt><trkpt lat="44.5687637" lon="9.8819574"><ele>574.5999999999999</ele><time>2026-05-03T13:48:50.515Z</time></trkpt><trkpt lat="44.5687979" lon="9.8820815"><ele>572.4</ele><time>2026-05-03T13:48:51.515Z</time></trkpt><trkpt lat="44.5688121" lon="9.8822196"><ele>570.1999999999999</ele><time>2026-05-03T13:48:52.516Z</time></trkpt><trkpt lat="44.5688269" lon="9.8823669"><ele>568.0</ele><time>2026-05-03T13:48:53.516Z</time></trkpt><trkpt lat="44.5688385" lon="9.8825194"><ele>567.4</ele><time>2026-05-03T13:48:54.516Z</time></trkpt><trkpt lat="44.5688511" lon="9.8826671"><ele>566.8</ele><time>2026-05-03T13:48:55.515Z</time></trkpt><trkpt lat="44.568866" lon="9.8828138"><ele>566.2</ele><time>2026-05-03T13:48:56.515Z</time></trkpt><trkpt lat="44.5688822" lon="9.8829573"><ele>565.6</ele><time>2026-05-03T13:48:57.515Z</time></trkpt><trkpt lat="44.5688961" lon="9.8831052"><ele>565.0</ele><time>2026-05-03T13:48:58.515Z</time></trkpt><trkpt lat="44.5689081" lon="9.8832408"><ele>565.0</ele><time>2026-05-03T13:48:59.516Z</time></trkpt><trkpt lat="44.5689237" lon="9.8833735"><ele>565.0</ele><time>2026-05-03T13:49:00.515Z</time></trkpt><trkpt lat="44.5689354" lon="9.8835128"><ele>565.0</ele><time>2026-05-03T13:49:01.515Z</time></trkpt><trkpt lat="44.5689489" lon="9.8836534"><ele>565.0</ele><time>2026-05-03T13:49:02.515Z</time></trkpt><trkpt lat="44.5689529" lon="9.8837944"><ele>565.0</ele><time>2026-05-03T13:49:03.516Z</time></trkpt><trkpt lat="44.5689446" lon="9.883936"><ele>565.0</ele><time>2026-05-03T13:49:04.515Z</time></trkpt><trkpt lat="44.5689133" lon="9.8840682"><ele>565.0</ele><time>2026-05-03T13:49:05.515Z</time></trkpt><trkpt lat="44.5688595" lon="9.8841969"><ele>565.0</ele><time>2026-05-03T13:49:06.515Z</time></trkpt><trkpt lat="44.5687955" lon="9.8843248"><ele>565.0</ele><time>2026-05-03T13:49:07.515Z</time></trkpt><trkpt lat="44.5687199" lon="9.8844472"><ele>565.0</ele><time>2026-05-03T13:49:08.516Z</time></trkpt><trkpt lat="44.5686424" lon="9.8845679"><ele>565.0</ele><time>2026-05-03T13:49:09.515Z</time></trkpt><trkpt lat="44.5685646" lon="9.8846897"><ele>565.0</ele><time>2026-05-03T13:49:10.515Z</time></trkpt><trkpt lat="44.5684862" lon="9.8848053"><ele>565.0</ele><time>2026-05-03T13:49:11.515Z</time></trkpt><trkpt lat="44.5684086" lon="9.8849195"><ele>565.0</ele><time>2026-05-03T13:49:12.515Z</time></trkpt><trkpt lat="44.568329" lon="9.8850399"><ele>564.0</ele><time>2026-05-03T13:49:13.515Z</time></trkpt><trkpt lat="44.568245" lon="9.8851661"><ele>563.0</ele><time>2026-05-03T13:49:14.515Z</time></trkpt><trkpt lat="44.568162" lon="9.885292"><ele>562.0</ele><time>2026-05-03T13:49:15.515Z</time></trkpt><trkpt lat="44.568078" lon="9.8854203"><ele>561.0</ele><time>2026-05-03T13:49:16.516Z</time></trkpt><trkpt lat="44.5679934" lon="9.8855478"><ele>561.0</ele><time>2026-05-03T13:49:17.515Z</time></trkpt><trkpt lat="44.5679129" lon="9.8856765"><ele>561.0</ele><time>2026-05-03T13:49:18.515Z</time></trkpt><trkpt lat="44.567845" lon="9.8858065"><ele>561.0</ele><time>2026-05-03T13:49:19.515Z</time></trkpt><trkpt lat="44.5677983" lon="9.8859463"><ele>561.0</ele><time>2026-05-03T13:49:20.515Z</time></trkpt><trkpt lat="44.5677794" lon="9.8860964"><ele>560.0</ele><time>2026-05-03T13:49:21.515Z</time></trkpt><trkpt lat="44.5677928" lon="9.8862429"><ele>559.0</ele><time>2026-05-03T13:49:22.515Z</time></trkpt><trkpt lat="44.5678324" lon="9.8863877"><ele>558.0</ele><time>2026-05-03T13:49:23.515Z</time></trkpt><trkpt lat="44.5678875" lon="9.8865335"><ele>557.0</ele><time>2026-05-03T13:49:24.516Z</time></trkpt><trkpt lat="44.5679367" lon="9.8866856"><ele>557.75</ele><time>2026-05-03T13:49:25.515Z</time></trkpt><trkpt lat="44.5679698" lon="9.8868523"><ele>558.5</ele><time>2026-05-03T13:49:26.515Z</time></trkpt><trkpt lat="44.5679818" lon="9.8870212"><ele>559.25</ele><time>2026-05-03T13:49:27.515Z</time></trkpt><trkpt lat="44.5679785" lon="9.8871817"><ele>560.0</ele><time>2026-05-03T13:49:28.515Z</time></trkpt><trkpt lat="44.5679677" lon="9.8873385"><ele>560.0</ele><time>2026-05-03T13:49:29.515Z</time></trkpt><trkpt lat="44.5679696" lon="9.8874919"><ele>560.0</ele><time>2026-05-03T13:49:30.515Z</time></trkpt><trkpt lat="44.5680002" lon="9.887633"><ele>560.0</ele><time>2026-05-03T13:49:31.515Z</time></trkpt><trkpt lat="44.5680589" lon="9.8877564"><ele>560.0</ele><time>2026-05-03T13:49:32.515Z</time></trkpt><trkpt lat="44.5681394" lon="9.88787"><ele>560.0</ele><time>2026-05-03T13:49:33.515Z</time></trkpt><trkpt lat="44.5682299" lon="9.8879713"><ele>562.25</ele><time>2026-05-03T13:49:34.515Z</time></trkpt><trkpt lat="44.5683222" lon="9.88807"><ele>564.5</ele><time>2026-05-03T13:49:35.515Z</time></trkpt><trkpt lat="44.5684194" lon="9.8881564"><ele>566.75</ele><time>2026-05-03T13:49:36.515Z</time></trkpt><trkpt lat="44.5685292" lon="9.8882181"><ele>569.0</ele><time>2026-05-03T13:49:37.515Z</time></trkpt><trkpt lat="44.5686413" lon="9.8882588"><ele>568.75</ele><time>2026-05-03T13:49:38.516Z</time></trkpt><trkpt lat="44.5687557" lon="9.8882893"><ele>568.5</ele><time>2026-05-03T13:49:39.515Z</time></trkpt><trkpt lat="44.568871" lon="9.8883143"><ele>568.25</ele><time>2026-05-03T13:49:40.515Z</time></trkpt><trkpt lat="44.5689863" lon="9.8883408"><ele>568.0</ele><time>2026-05-03T13:49:41.515Z</time></trkpt><trkpt lat="44.5691035" lon="9.8883647"><ele>568.0</ele><time>2026-05-03T13:49:42.515Z</time></trkpt><trkpt lat="44.5692211" lon="9.8883855"><ele>568.0</ele><time>2026-05-03T13:49:43.515Z</time></trkpt><trkpt lat="44.5693361" lon="9.8884132"><ele>568.0</ele><time>2026-05-03T13:49:44.515Z</time></trkpt><trkpt lat="44.5694391" lon="9.8884575"><ele>568.0</ele><time>2026-05-03T13:49:45.515Z</time></trkpt><trkpt lat="44.5695308" lon="9.8885293"><ele>568.0</ele><time>2026-05-03T13:49:46.516Z</time></trkpt><trkpt lat="44.5695995" lon="9.888633"><ele>568.6</ele><time>2026-05-03T13:49:47.515Z</time></trkpt><trkpt lat="44.5696451" lon="9.8887596"><ele>569.1999999999999</ele><time>2026-05-03T13:49:48.515Z</time></trkpt><trkpt lat="44.5696767" lon="9.8889006"><ele>569.8</ele><time>2026-05-03T13:49:49.515Z</time></trkpt><trkpt lat="44.5697032" lon="9.8890465"><ele>570.4</ele><time>2026-05-03T13:49:50.516Z</time></trkpt><trkpt lat="44.5697284" lon="9.8891979"><ele>571.0</ele><time>2026-05-03T13:49:51.515Z</time></trkpt><trkpt lat="44.5697547" lon="9.8893504"><ele>571.0</ele><time>2026-05-03T13:49:52.515Z</time></trkpt><trkpt lat="44.5697794" lon="9.8895114"><ele>571.0</ele><time>2026-05-03T13:49:53.516Z</time></trkpt><trkpt lat="44.5698055" lon="9.8896685"><ele>571.0</ele><time>2026-05-03T13:49:54.515Z</time></trkpt><trkpt lat="44.5698392" lon="9.8898242"><ele>571.0</ele><time>2026-05-03T13:49:55.516Z</time></trkpt><trkpt lat="44.5698858" lon="9.8899745"><ele>573.5</ele><time>2026-05-03T13:49:56.516Z</time></trkpt><trkpt lat="44.5699468" lon="9.890119"><ele>576.0</ele><time>2026-05-03T13:49:57.515Z</time></trkpt><trkpt lat="44.5700194" lon="9.8902624"><ele>578.5</ele><time>2026-05-03T13:49:58.515Z</time></trkpt><trkpt lat="44.5701026" lon="9.8903929"><ele>581.0</ele><time>2026-05-03T13:49:59.516Z</time></trkpt><trkpt lat="44.5701878" lon="9.8905161"><ele>581.0</ele><time>2026-05-03T13:50:00.515Z</time></trkpt><trkpt lat="44.5702754" lon="9.8906326"><ele>581.0</ele><time>2026-05-03T13:50:01.515Z</time></trkpt><trkpt lat="44.5703631" lon="9.8907496"><ele>581.0</ele><time>2026-05-03T13:50:02.515Z</time></trkpt><trkpt lat="44.5704496" lon="9.8908628"><ele>581.0</ele><time>2026-05-03T13:50:03.515Z</time></trkpt><trkpt lat="44.5705299" lon="9.890969"><ele>577.8</ele><time>2026-05-03T13:50:04.515Z</time></trkpt><trkpt lat="44.570597" lon="9.891085"><ele>574.6</ele><time>2026-05-03T13:50:05.515Z</time></trkpt><trkpt lat="44.5706412" lon="9.891211"><ele>571.4</ele><time>2026-05-03T13:50:06.515Z</time></trkpt><trkpt lat="44.5706619" lon="9.8913423"><ele>568.2</ele><time>2026-05-03T13:50:07.515Z</time></trkpt><trkpt lat="44.5706491" lon="9.8914717"><ele>565.0</ele><time>2026-05-03T13:50:08.515Z</time></trkpt><trkpt lat="44.5706028" lon="9.8915912"><ele>565.0</ele><time>2026-05-03T13:50:09.515Z</time></trkpt><trkpt lat="44.5705406" lon="9.8917008"><ele>565.0</ele><time>2026-05-03T13:50:10.515Z</time></trkpt><trkpt lat="44.5704665" lon="9.8918095"><ele>565.0</ele><time>2026-05-03T13:50:11.515Z</time></trkpt><trkpt lat="44.5703958" lon="9.8919172"><ele>565.0</ele><time>2026-05-03T13:50:12.515Z</time></trkpt><trkpt lat="44.5703273" lon="9.8920224"><ele>565.0</ele><time>2026-05-03T13:50:13.515Z</time></trkpt><trkpt lat="44.5702671" lon="9.8921356"><ele>565.4</ele><time>2026-05-03T13:50:14.515Z</time></trkpt><trkpt lat="44.5702217" lon="9.8922685"><ele>565.8</ele><time>2026-05-03T13:50:15.516Z</time></trkpt><trkpt lat="44.5701921" lon="9.8924115"><ele>566.2</ele><time>2026-05-03T13:50:16.515Z</time></trkpt><trkpt lat="44.5701744" lon="9.89256"><ele>566.6</ele><time>2026-05-03T13:50:17.515Z</time></trkpt><trkpt lat="44.5701619" lon="9.8927094"><ele>567.0</ele><time>2026-05-03T13:50:18.515Z</time></trkpt><trkpt lat="44.5701487" lon="9.8928552"><ele>566.2</ele><time>2026-05-03T13:50:19.515Z</time></trkpt><trkpt lat="44.5701402" lon="9.8929999"><ele>565.4000000000001</ele><time>2026-05-03T13:50:20.515Z</time></trkpt><trkpt lat="44.5701394" lon="9.8931415"><ele>564.5999999999999</ele><time>2026-05-03T13:50:21.515Z</time></trkpt><trkpt lat="44.5701537" lon="9.8932773"><ele>563.8</ele><time>2026-05-03T13:50:22.515Z</time></trkpt><trkpt lat="44.5701769" lon="9.8933905"><ele>563.0</ele><time>2026-05-03T13:50:23.516Z</time></trkpt><trkpt lat="44.5701987" lon="9.8934787"><ele>562.4285714285714</ele><time>2026-05-03T13:50:24.515Z</time></trkpt><trkpt lat="44.5702239" lon="9.8935662"><ele>561.8571428571429</ele><time>2026-05-03T13:50:26.515Z</time></trkpt><trkpt lat="44.5702775" lon="9.8936418"><ele>561.2857142857143</ele><time>2026-05-03T13:51:11.515Z</time></trkpt><trkpt lat="44.5703052" lon="9.8937237"><ele>560.7142857142858</ele><time>2026-05-03T13:51:17.515Z</time></trkpt><trkpt lat="44.5703428" lon="9.8938226"><ele>560.1428571428572</ele><time>2026-05-03T13:51:24.514Z</time></trkpt><trkpt lat="44.5703743" lon="9.8938993"><ele>559.5714285714286</ele><time>2026-05-03T13:51:25.514Z</time></trkpt><trkpt lat="44.570413" lon="9.8939902"><ele>559.0</ele><time>2026-05-03T13:51:26.514Z</time></trkpt><trkpt lat="44.5704551" lon="9.894098"><ele>557.2</ele><time>2026-05-03T13:51:27.514Z</time></trkpt><trkpt lat="44.5704887" lon="9.8942116"><ele>555.4</ele><time>2026-05-03T13:51:28.514Z</time></trkpt><trkpt lat="44.5705101" lon="9.8943403"><ele>553.6</ele><time>2026-05-03T13:51:29.515Z</time></trkpt><trkpt lat="44.5705059" lon="9.8944767"><ele>551.8</ele><time>2026-05-03T13:51:30.514Z</time></trkpt><trkpt lat="44.5704835" lon="9.894622"><ele>550.0</ele><time>2026-05-03T13:51:31.514Z</time></trkpt><trkpt lat="44.5704579" lon="9.894771"><ele>549.0</ele><time>2026-05-03T13:51:32.514Z</time></trkpt><trkpt lat="44.5704328" lon="9.8949207"><ele>548.0</ele><time>2026-05-03T13:51:33.514Z</time></trkpt><trkpt lat="44.570412" lon="9.895074"><ele>547.0</ele><time>2026-05-03T13:51:34.514Z</time></trkpt><trkpt lat="44.5704027" lon="9.8952325"><ele>546.0</ele><time>2026-05-03T13:51:35.515Z</time></trkpt><trkpt lat="44.570404" lon="9.8954025"><ele>544.5</ele><time>2026-05-03T13:51:36.514Z</time></trkpt><trkpt lat="44.57041" lon="9.8955749"><ele>543.0</ele><time>2026-05-03T13:51:37.514Z</time></trkpt><trkpt lat="44.5704181" lon="9.8957447"><ele>541.5</ele><time>2026-05-03T13:51:38.514Z</time></trkpt><trkpt lat="44.5704248" lon="9.8959138"><ele>540.0</ele><time>2026-05-03T13:51:39.514Z</time></trkpt><trkpt lat="44.5704325" lon="9.8960821"><ele>539.5</ele><time>2026-05-03T13:51:40.514Z</time></trkpt><trkpt lat="44.5704381" lon="9.8962508"><ele>539.0</ele><time>2026-05-03T13:51:41.514Z</time></trkpt><trkpt lat="44.5704424" lon="9.8964138"><ele>538.5</ele><time>2026-05-03T13:51:42.514Z</time></trkpt><trkpt lat="44.5704503" lon="9.8965761"><ele>538.0</ele><time>2026-05-03T13:51:43.514Z</time></trkpt><trkpt lat="44.5704663" lon="9.8967378"><ele>538.4</ele><time>2026-05-03T13:51:44.514Z</time></trkpt><trkpt lat="44.5704921" lon="9.8968907"><ele>538.8</ele><time>2026-05-03T13:51:45.514Z</time></trkpt><trkpt lat="44.5705325" lon="9.8970399"><ele>539.2</ele><time>2026-05-03T13:51:46.514Z</time></trkpt><trkpt lat="44.5705855" lon="9.8971781"><ele>539.6</ele><time>2026-05-03T13:51:47.514Z</time></trkpt><trkpt lat="44.5706429" lon="9.8973117"><ele>540.0</ele><time>2026-05-03T13:51:48.515Z</time></trkpt><trkpt lat="44.5707078" lon="9.8974387"><ele>540.0</ele><time>2026-05-03T13:51:49.515Z</time></trkpt><trkpt lat="44.5707723" lon="9.8975683"><ele>540.0</ele><time>2026-05-03T13:51:50.514Z</time></trkpt><trkpt lat="44.5708376" lon="9.8976994"><ele>540.0</ele><time>2026-05-03T13:51:51.514Z</time></trkpt><trkpt lat="44.5709041" lon="9.897831"><ele>540.0</ele><time>2026-05-03T13:51:52.514Z</time></trkpt><trkpt lat="44.5709732" lon="9.897965"><ele>540.75</ele><time>2026-05-03T13:51:53.515Z</time></trkpt><trkpt lat="44.5710438" lon="9.898103"><ele>541.5</ele><time>2026-05-03T13:51:54.514Z</time></trkpt><trkpt lat="44.571115" lon="9.8982398"><ele>542.25</ele><time>2026-05-03T13:51:55.515Z</time></trkpt><trkpt lat="44.5711888" lon="9.8983884"><ele>543.0</ele><time>2026-05-03T13:51:56.514Z</time></trkpt><trkpt lat="44.5712616" lon="9.8985297"><ele>541.25</ele><time>2026-05-03T13:51:57.514Z</time></trkpt><trkpt lat="44.5713364" lon="9.8986694"><ele>539.5</ele><time>2026-05-03T13:51:58.514Z</time></trkpt><trkpt lat="44.5714082" lon="9.8988102"><ele>537.75</ele><time>2026-05-03T13:51:59.515Z</time></trkpt><trkpt lat="44.5714766" lon="9.8989507"><ele>536.0</ele><time>2026-05-03T13:52:00.514Z</time></trkpt><trkpt lat="44.5715417" lon="9.8990947"><ele>536.0</ele><time>2026-05-03T13:52:01.515Z</time></trkpt><trkpt lat="44.5715964" lon="9.8992433"><ele>536.0</ele><time>2026-05-03T13:52:02.514Z</time></trkpt><trkpt lat="44.5716465" lon="9.8993958"><ele>536.0</ele><time>2026-05-03T13:52:03.514Z</time></trkpt><trkpt lat="44.5716973" lon="9.8995435"><ele>536.0</ele><time>2026-05-03T13:52:04.515Z</time></trkpt><trkpt lat="44.5717565" lon="9.8996798"><ele>537.75</ele><time>2026-05-03T13:52:05.514Z</time></trkpt><trkpt lat="44.5718345" lon="9.899795"><ele>539.5</ele><time>2026-05-03T13:52:06.514Z</time></trkpt><trkpt lat="44.5719167" lon="9.8998844"><ele>541.25</ele><time>2026-05-03T13:52:07.514Z</time></trkpt><trkpt lat="44.5720201" lon="9.8999565"><ele>543.0</ele><time>2026-05-03T13:52:08.515Z</time></trkpt><trkpt lat="44.5721484" lon="9.8999885"><ele>542.25</ele><time>2026-05-03T13:52:09.514Z</time></trkpt><trkpt lat="44.5722791" lon="9.9000364"><ele>541.5</ele><time>2026-05-03T13:52:10.514Z</time></trkpt><trkpt lat="44.5724157" lon="9.9000846"><ele>540.75</ele><time>2026-05-03T13:52:11.514Z</time></trkpt><trkpt lat="44.572539" lon="9.9001304"><ele>540.0</ele><time>2026-05-03T13:52:12.514Z</time></trkpt><trkpt lat="44.5726604" lon="9.9001665"><ele>540.0</ele><time>2026-05-03T13:52:13.514Z</time></trkpt><trkpt lat="44.5727844" lon="9.9001997"><ele>540.0</ele><time>2026-05-03T13:52:14.515Z</time></trkpt><trkpt lat="44.5729064" lon="9.9002184"><ele>540.0</ele><time>2026-05-03T13:52:15.514Z</time></trkpt><trkpt lat="44.5730302" lon="9.9002348"><ele>540.0</ele><time>2026-05-03T13:52:16.514Z</time></trkpt><trkpt lat="44.573149" lon="9.9002488"><ele>537.4</ele><time>2026-05-03T13:52:17.514Z</time></trkpt><trkpt lat="44.5732523" lon="9.9002775"><ele>534.8</ele><time>2026-05-03T13:52:18.514Z</time></trkpt><trkpt lat="44.5733419" lon="9.9003406"><ele>532.2</ele><time>2026-05-03T13:52:19.514Z</time></trkpt><trkpt lat="44.5734145" lon="9.9004281"><ele>529.6</ele><time>2026-05-03T13:52:20.515Z</time></trkpt><trkpt lat="44.5734647" lon="9.900547"><ele>527.0</ele><time>2026-05-03T13:52:21.514Z</time></trkpt><trkpt lat="44.5735026" lon="9.9006844"><ele>527.0</ele><time>2026-05-03T13:52:22.514Z</time></trkpt><trkpt lat="44.5735222" lon="9.9008393"><ele>527.0</ele><time>2026-05-03T13:52:23.515Z</time></trkpt><trkpt lat="44.5735372" lon="9.9009901"><ele>527.0</ele><time>2026-05-03T13:52:24.514Z</time></trkpt><trkpt lat="44.5735772" lon="9.9011328"><ele>527.0</ele><time>2026-05-03T13:52:25.514Z</time></trkpt><trkpt lat="44.5736331" lon="9.9012584"><ele>527.0</ele><time>2026-05-03T13:52:26.514Z</time></trkpt><trkpt lat="44.5737017" lon="9.9013859"><ele>522.0</ele><time>2026-05-03T13:52:27.515Z</time></trkpt><trkpt lat="44.5737713" lon="9.9015198"><ele>517.0</ele><time>2026-05-03T13:52:28.514Z</time></trkpt><trkpt lat="44.573838" lon="9.9016607"><ele>512.0</ele><time>2026-05-03T13:52:29.515Z</time></trkpt><trkpt lat="44.5738991" lon="9.9018056"><ele>507.0</ele><time>2026-05-03T13:52:30.514Z</time></trkpt><trkpt lat="44.5739438" lon="9.9019594"><ele>506.75</ele><time>2026-05-03T13:52:31.514Z</time></trkpt><trkpt lat="44.5739675" lon="9.9021247"><ele>506.5</ele><time>2026-05-03T13:52:32.514Z</time></trkpt><trkpt lat="44.5739867" lon="9.9022747"><ele>506.25</ele><time>2026-05-03T13:52:33.514Z</time></trkpt><trkpt lat="44.5739311" lon="9.9024406"><ele>506.0</ele><time>2026-05-03T13:52:34.515Z</time></trkpt><trkpt lat="44.573881" lon="9.9025618"><ele>505.3333333333333</ele><time>2026-05-03T13:52:35.514Z</time></trkpt><trkpt lat="44.5738458" lon="9.9026825"><ele>504.66666666666663</ele><time>2026-05-03T13:52:36.514Z</time></trkpt><trkpt lat="44.5738228" lon="9.9028006"><ele>504.0</ele><time>2026-05-03T13:52:37.514Z</time></trkpt><trkpt lat="44.5738138" lon="9.9029022"><ele>503.33333333333337</ele><time>2026-05-03T13:52:38.514Z</time></trkpt><trkpt lat="44.5738241" lon="9.9030496"><ele>502.6666666666667</ele><time>2026-05-03T13:52:40.514Z</time></trkpt><trkpt lat="44.5738789" lon="9.9031455"><ele>502.0</ele><time>2026-05-03T13:52:43.514Z</time></trkpt><trkpt lat="44.5739425" lon="9.9031447"><ele>502.00000000000006</ele><time>2026-05-03T13:52:46.514Z</time></trkpt><trkpt lat="44.5740365" lon="9.9030988"><ele>502.0</ele><time>2026-05-03T13:52:48.514Z</time></trkpt><trkpt lat="44.574076" lon="9.9030192"><ele>502.0</ele><time>2026-05-03T13:52:49.514Z</time></trkpt><trkpt lat="44.574104" lon="9.9029169"><ele>502.0</ele><time>2026-05-03T13:52:50.514Z</time></trkpt><trkpt lat="44.5741238" lon="9.9028032"><ele>502.00000000000006</ele><time>2026-05-03T13:52:51.514Z</time></trkpt><trkpt lat="44.5741462" lon="9.9026738"><ele>502.0</ele><time>2026-05-03T13:52:52.514Z</time></trkpt><trkpt lat="44.5741807" lon="9.9025346"><ele>503.0</ele><time>2026-05-03T13:52:53.514Z</time></trkpt><trkpt lat="44.5742308" lon="9.9023935"><ele>504.0</ele><time>2026-05-03T13:52:54.514Z</time></trkpt><trkpt lat="44.5742941" lon="9.9022523"><ele>505.0</ele><time>2026-05-03T13:52:55.514Z</time></trkpt><trkpt lat="44.5743594" lon="9.9021161"><ele>506.0</ele><time>2026-05-03T13:52:56.514Z</time></trkpt><trkpt lat="44.5744295" lon="9.9019724"><ele>506.0</ele><time>2026-05-03T13:52:57.514Z</time></trkpt><trkpt lat="44.5745005" lon="9.9018261"><ele>506.0</ele><time>2026-05-03T13:52:58.514Z</time></trkpt><trkpt lat="44.5745695" lon="9.9016833"><ele>506.0</ele><time>2026-05-03T13:52:59.515Z</time></trkpt><trkpt lat="44.5746363" lon="9.9015372"><ele>506.0</ele><time>2026-05-03T13:53:00.514Z</time></trkpt><trkpt lat="44.5747049" lon="9.9013942"><ele>503.5</ele><time>2026-05-03T13:53:01.514Z</time></trkpt><trkpt lat="44.5747722" lon="9.9012528"><ele>501.0</ele><time>2026-05-03T13:53:02.514Z</time></trkpt><trkpt lat="44.5748409" lon="9.9011145"><ele>498.5</ele><time>2026-05-03T13:53:03.514Z</time></trkpt><trkpt lat="44.5749058" lon="9.9009805"><ele>496.0</ele><time>2026-05-03T13:53:04.514Z</time></trkpt><trkpt lat="44.5749641" lon="9.9008644"><ele>496.00000000000006</ele><time>2026-05-03T13:53:05.514Z</time></trkpt><trkpt lat="44.5750188" lon="9.9007677"><ele>496.0</ele><time>2026-05-03T13:53:06.514Z</time></trkpt><trkpt lat="44.5750808" lon="9.9007033"><ele>496.0</ele><time>2026-05-03T13:53:07.514Z</time></trkpt><trkpt lat="44.5751487" lon="9.9006641"><ele>496.0</ele><time>2026-05-03T13:53:08.515Z</time></trkpt><trkpt lat="44.5752197" lon="9.900655"><ele>496.00000000000006</ele><time>2026-05-03T13:53:09.514Z</time></trkpt><trkpt lat="44.5753262" lon="9.9006632"><ele>496.0</ele><time>2026-05-03T13:53:11.514Z</time></trkpt><trkpt lat="44.5754013" lon="9.9005955"><ele>493.33333333333337</ele><time>2026-05-03T13:53:14.515Z</time></trkpt><trkpt lat="44.5754699" lon="9.9005523"><ele>490.6666666666667</ele><time>2026-05-03T13:53:18.514Z</time></trkpt><trkpt lat="44.5755288" lon="9.9005921"><ele>488.0</ele><time>2026-05-03T13:53:21.514Z</time></trkpt><trkpt lat="44.5756295" lon="9.9005413"><ele>485.33333333333337</ele><time>2026-05-03T13:53:25.514Z</time></trkpt><trkpt lat="44.5756918" lon="9.9004928"><ele>482.6666666666667</ele><time>2026-05-03T13:53:27.514Z</time></trkpt><trkpt lat="44.5757617" lon="9.9005299"><ele>480.0</ele><time>2026-05-03T13:53:29.514Z</time></trkpt><trkpt lat="44.5758123" lon="9.9006342"><ele>480.0</ele><time>2026-05-03T13:53:32.514Z</time></trkpt><trkpt lat="44.5758799" lon="9.9006624"><ele>480.0</ele><time>2026-05-03T13:53:34.514Z</time></trkpt><trkpt lat="44.5759491" lon="9.9006513"><ele>480.0</ele><time>2026-05-03T13:53:36.514Z</time></trkpt><trkpt lat="44.5760483" lon="9.9006621"><ele>480.0</ele><time>2026-05-03T13:53:39.514Z</time></trkpt><trkpt lat="44.5761604" lon="9.900698"><ele>480.0</ele><time>2026-05-03T13:53:41.514Z</time></trkpt><trkpt lat="44.5762194" lon="9.900656"><ele>480.0</ele><time>2026-05-03T13:53:46.514Z</time></trkpt><trkpt lat="44.5762941" lon="9.9006736"><ele>476.8333333333333</ele><time>2026-05-03T13:53:48.514Z</time></trkpt><trkpt lat="44.5763806" lon="9.9006814"><ele>473.66666666666663</ele><time>2026-05-03T13:53:50.514Z</time></trkpt><trkpt lat="44.5764654" lon="9.9007419"><ele>470.5</ele><time>2026-05-03T13:53:52.515Z</time></trkpt><trkpt lat="44.5765306" lon="9.9007436"><ele>467.3333333333333</ele><time>2026-05-03T13:53:54.515Z</time></trkpt><trkpt lat="44.5764993" lon="9.9006312"><ele>464.16666666666663</ele><time>2026-05-03T13:53:56.514Z</time></trkpt><trkpt lat="44.576445" lon="9.9005437"><ele>461.0</ele><time>2026-05-03T13:53:59.515Z</time></trkpt><trkpt lat="44.5763757" lon="9.9004637"><ele>461.0</ele><time>2026-05-03T13:54:01.514Z</time></trkpt><trkpt lat="44.5763212" lon="9.9003749"><ele>461.0</ele><time>2026-05-03T13:54:03.514Z</time></trkpt><trkpt lat="44.5762666" lon="9.9002492"><ele>461.0</ele><time>2026-05-03T13:54:05.515Z</time></trkpt><trkpt lat="44.576214" lon="9.9001534"><ele>461.0</ele><time>2026-05-03T13:54:07.514Z</time></trkpt><trkpt lat="44.5762188" lon="9.8999849"><ele>461.0</ele><time>2026-05-03T13:54:10.514Z</time></trkpt><trkpt lat="44.5762345" lon="9.8998579"><ele>460.42857142857144</ele><time>2026-05-03T13:54:12.514Z</time></trkpt><trkpt lat="44.5762483" lon="9.8997406"><ele>459.8571428571429</ele><time>2026-05-03T13:54:14.514Z</time></trkpt><trkpt lat="44.5762391" lon="9.8996503"><ele>459.28571428571433</ele><time>2026-05-03T13:54:16.514Z</time></trkpt><trkpt lat="44.5762319" lon="9.8995392"><ele>458.7142857142858</ele><time>2026-05-03T13:54:18.514Z</time></trkpt><trkpt lat="44.576248" lon="9.8994329"><ele>458.14285714285717</ele><time>2026-05-03T13:54:20.514Z</time></trkpt><trkpt lat="44.57626" lon="9.8993358"><ele>457.57142857142867</ele><time>2026-05-03T13:54:22.514Z</time></trkpt><trkpt lat="44.576294" lon="9.8992572"><ele>457.00000000000006</ele><time>2026-05-03T13:54:24.514Z</time></trkpt><trkpt lat="44.5763154" lon="9.899161"><ele>457.00000000000006</ele><time>2026-05-03T13:54:26.515Z</time></trkpt><trkpt lat="44.5762673" lon="9.8992965"><ele>457.0</ele><time>2026-05-03T13:54:50.514Z</time></trkpt><trkpt lat="44.5762416" lon="9.8994032"><ele>457.0</ele><time>2026-05-03T13:54:52.514Z</time></trkpt><trkpt lat="44.5762305" lon="9.8995118"><ele>457.0</ele><time>2026-05-03T13:54:55.514Z</time></trkpt><trkpt lat="44.5762988" lon="9.8995157"><ele>457.00000000000006</ele><time>2026-05-03T13:55:02.513Z</time></trkpt><trkpt lat="44.57637" lon="9.8995022"><ele>457.0</ele><time>2026-05-03T13:55:05.513Z</time></trkpt><trkpt lat="44.5764477" lon="9.8994997"><ele>457.00000000000006</ele><time>2026-05-03T13:55:08.514Z</time></trkpt><trkpt lat="44.5765139" lon="9.8994814"><ele>457.0</ele><time>2026-05-03T13:55:10.514Z</time></trkpt><trkpt lat="44.5765963" lon="9.89949"><ele>457.0</ele><time>2026-05-03T13:55:13.513Z</time></trkpt><trkpt lat="44.5766779" lon="9.8995394"><ele>457.0</ele><time>2026-05-03T13:55:16.513Z</time></trkpt><trkpt lat="44.5767386" lon="9.8995835"><ele>457.00000000000006</ele><time>2026-05-03T13:55:18.514Z</time></trkpt><trkpt lat="44.5767933" lon="9.8996584"><ele>457.0</ele><time>2026-05-03T13:55:20.513Z</time></trkpt><trkpt lat="44.5768441" lon="9.8997365"><ele>457.00000000000006</ele><time>2026-05-03T13:55:22.513Z</time></trkpt><trkpt lat="44.5769057" lon="9.8997843"><ele>457.0</ele><time>2026-05-03T13:55:24.513Z</time></trkpt><trkpt lat="44.5769809" lon="9.8998576"><ele>457.0</ele><time>2026-05-03T13:55:27.514Z</time></trkpt><trkpt lat="44.5770513" lon="9.8998976"><ele>457.0</ele><time>2026-05-03T13:55:30.513Z</time></trkpt><trkpt lat="44.5771295" lon="9.8998865"><ele>457.00000000000006</ele><time>2026-05-03T13:55:34.513Z</time></trkpt><trkpt lat="44.5771857" lon="9.8998349"><ele>457.0</ele><time>2026-05-03T13:55:36.514Z</time></trkpt><trkpt lat="44.5772614" lon="9.8997841"><ele>454.33333333333337</ele><time>2026-05-03T13:55:39.513Z</time></trkpt><trkpt lat="44.5773518" lon="9.899787"><ele>451.6666666666667</ele><time>2026-05-03T13:55:42.513Z</time></trkpt><trkpt lat="44.5774284" lon="9.8997439"><ele>449.0</ele><time>2026-05-03T13:55:45.513Z</time></trkpt><trkpt lat="44.5775127" lon="9.8997138"><ele>446.33333333333337</ele><time>2026-05-03T13:55:48.513Z</time></trkpt><trkpt lat="44.5776" lon="9.8997173"><ele>443.6666666666667</ele><time>2026-05-03T13:55:51.513Z</time></trkpt><trkpt lat="44.5776706" lon="9.8997043"><ele>441.0</ele><time>2026-05-03T13:55:53.513Z</time></trkpt><trkpt lat="44.5777298" lon="9.8996666"><ele>441.0</ele><time>2026-05-03T13:55:55.513Z</time></trkpt><trkpt lat="44.5777815" lon="9.8996146"><ele>441.0</ele><time>2026-05-03T13:56:05.514Z</time></trkpt><trkpt lat="44.5778373" lon="9.8995607"><ele>441.0</ele><time>2026-05-03T13:56:09.513Z</time></trkpt><trkpt lat="44.5778962" lon="9.8995149"><ele>441.0</ele><time>2026-05-03T13:56:11.513Z</time></trkpt><trkpt lat="44.5779583" lon="9.8994963"><ele>441.0</ele><time>2026-05-03T13:56:13.513Z</time></trkpt><trkpt lat="44.5780203" lon="9.8994701"><ele>441.0</ele><time>2026-05-03T13:56:16.513Z</time></trkpt><trkpt lat="44.5780948" lon="9.8994617"><ele>441.0</ele><time>2026-05-03T13:56:19.513Z</time></trkpt><trkpt lat="44.5781544" lon="9.8994952"><ele>439.0</ele><time>2026-05-03T13:56:24.513Z</time></trkpt><trkpt lat="44.5782137" lon="9.8995274"><ele>437.0</ele><time>2026-05-03T13:58:28.513Z</time></trkpt><trkpt lat="44.5782869" lon="9.8995274"><ele>435.0</ele><time>2026-05-03T13:58:33.513Z</time></trkpt><trkpt lat="44.5783257" lon="9.8996216"><ele>433.0</ele><time>2026-05-03T13:58:40.512Z</time></trkpt><trkpt lat="44.5783238" lon="9.8997299"><ele>431.0</ele><time>2026-05-03T13:58:43.512Z</time></trkpt><trkpt lat="44.5783708" lon="9.8998325"><ele>429.0</ele><time>2026-05-03T13:58:46.512Z</time></trkpt><trkpt lat="44.5784337" lon="9.8999179"><ele>429.0</ele><time>2026-05-03T13:58:49.512Z</time></trkpt><trkpt lat="44.5785194" lon="9.8999483"><ele>429.0</ele><time>2026-05-03T13:58:52.512Z</time></trkpt><trkpt lat="44.5786285" lon="9.8999373"><ele>429.0</ele><time>2026-05-03T13:58:54.512Z</time></trkpt><trkpt lat="44.5786935" lon="9.8999433"><ele>429.0</ele><time>2026-05-03T13:58:55.512Z</time></trkpt><trkpt lat="44.5788066" lon="9.8999135"><ele>429.0</ele><time>2026-05-03T13:58:57.513Z</time></trkpt><trkpt lat="44.5789159" lon="9.899927"><ele>427.3333333333333</ele><time>2026-05-03T13:58:59.512Z</time></trkpt><trkpt lat="44.5790249" lon="9.8999248"><ele>425.66666666666663</ele><time>2026-05-03T13:59:01.512Z</time></trkpt><trkpt lat="44.579098" lon="9.8999505"><ele>424.0</ele><time>2026-05-03T13:59:03.513Z</time></trkpt><trkpt lat="44.5791649" lon="9.899921"><ele>422.3333333333333</ele><time>2026-05-03T13:59:04.513Z</time></trkpt><trkpt lat="44.579256" lon="9.8999537"><ele>420.66666666666663</ele><time>2026-05-03T13:59:06.512Z</time></trkpt><trkpt lat="44.5793385" lon="9.899972"><ele>419.0</ele><time>2026-05-03T13:59:09.513Z</time></trkpt><trkpt lat="44.5794358" lon="9.8999603"><ele>417.66666666666663</ele><time>2026-05-03T13:59:12.512Z</time></trkpt><trkpt lat="44.5795426" lon="9.8999761"><ele>416.3333333333333</ele><time>2026-05-03T13:59:14.512Z</time></trkpt><trkpt lat="44.5796241" lon="9.8999583"><ele>415.0</ele><time>2026-05-03T13:59:17.513Z</time></trkpt><trkpt lat="44.5796919" lon="9.8999389"><ele>413.66666666666663</ele><time>2026-05-03T13:59:19.512Z</time></trkpt><trkpt lat="44.5797866" lon="9.8999219"><ele>412.3333333333333</ele><time>2026-05-03T13:59:22.512Z</time></trkpt><trkpt lat="44.5798647" lon="9.8999187"><ele>411.0</ele><time>2026-05-03T13:59:24.512Z</time></trkpt><trkpt lat="44.5799375" lon="9.8999024"><ele>411.0</ele><time>2026-05-03T13:59:27.512Z</time></trkpt><trkpt lat="44.5800254" lon="9.8999051"><ele>411.0</ele><time>2026-05-03T13:59:30.513Z</time></trkpt><trkpt lat="44.5801083" lon="9.8998915"><ele>411.0</ele><time>2026-05-03T13:59:33.513Z</time></trkpt><trkpt lat="44.580168" lon="9.8998626"><ele>411.0</ele><time>2026-05-03T13:59:35.512Z</time></trkpt><trkpt lat="44.5802398" lon="9.8998241"><ele>411.0</ele><time>2026-05-03T13:59:37.513Z</time></trkpt><trkpt lat="44.5803277" lon="9.8998348"><ele>411.0</ele><time>2026-05-03T13:59:39.512Z</time></trkpt><trkpt lat="44.5804095" lon="9.8998293"><ele>408.6666666666667</ele><time>2026-05-03T13:59:41.512Z</time></trkpt><trkpt lat="44.5804693" lon="9.8998738"><ele>406.33333333333337</ele><time>2026-05-03T13:59:44.513Z</time></trkpt><trkpt lat="44.5805322" lon="9.8999055"><ele>404.0</ele><time>2026-05-03T13:59:47.512Z</time></trkpt><trkpt lat="44.5806201" lon="9.8999206"><ele>401.6666666666667</ele><time>2026-05-03T13:59:50.512Z</time></trkpt><trkpt lat="44.5807077" lon="9.8999507"><ele>399.33333333333337</ele><time>2026-05-03T13:59:53.512Z</time></trkpt><trkpt lat="44.5808107" lon="9.8999652"><ele>397.0</ele><time>2026-05-03T13:59:55.513Z</time></trkpt><trkpt lat="44.5808992" lon="9.9000045"><ele>397.00000000000006</ele><time>2026-05-03T13:59:57.512Z</time></trkpt><trkpt lat="44.5809764" lon="9.9000403"><ele>397.0</ele><time>2026-05-03T13:59:59.513Z</time></trkpt><trkpt lat="44.5810525" lon="9.9000464"><ele>397.0</ele><time>2026-05-03T14:00:01.513Z</time></trkpt><trkpt lat="44.5811179" lon="9.90006"><ele>397.0</ele><time>2026-05-03T14:00:03.512Z</time></trkpt><trkpt lat="44.5811991" lon="9.9000949"><ele>397.00000000000006</ele><time>2026-05-03T14:00:06.512Z</time></trkpt><trkpt lat="44.5812779" lon="9.9001359"><ele>397.0</ele><time>2026-05-03T14:00:09.513Z</time></trkpt><trkpt lat="44.5813675" lon="9.9001386"><ele>394.33333333333337</ele><time>2026-05-03T14:00:12.513Z</time></trkpt><trkpt lat="44.5814275" lon="9.9001078"><ele>391.6666666666667</ele><time>2026-05-03T14:00:14.513Z</time></trkpt><trkpt lat="44.5814876" lon="9.900048"><ele>389.0</ele><time>2026-05-03T14:00:17.512Z</time></trkpt><trkpt lat="44.5815184" lon="9.899962"><ele>386.33333333333337</ele><time>2026-05-03T14:00:25.512Z</time></trkpt><trkpt lat="44.5815715" lon="9.8998818"><ele>383.6666666666667</ele><time>2026-05-03T14:00:28.513Z</time></trkpt><trkpt lat="44.5816253" lon="9.8997717"><ele>381.0</ele><time>2026-05-03T14:00:31.512Z</time></trkpt><trkpt lat="44.5816571" lon="9.8996712"><ele>380.3333333333333</ele><time>2026-05-03T14:00:35.512Z</time></trkpt><trkpt lat="44.5817014" lon="9.8996082"><ele>379.6666666666667</ele><time>2026-05-03T14:00:38.512Z</time></trkpt><trkpt lat="44.5817648" lon="9.8995322"><ele>379.0</ele><time>2026-05-03T14:00:42.512Z</time></trkpt><trkpt lat="44.5818197" lon="9.8994708"><ele>378.33333333333337</ele><time>2026-05-03T14:00:45.512Z</time></trkpt><trkpt lat="44.5818745" lon="9.8993685"><ele>377.6666666666667</ele><time>2026-05-03T14:00:48.513Z</time></trkpt><trkpt lat="44.5819067" lon="9.8992682"><ele>377.0</ele><time>2026-05-03T14:00:51.512Z</time></trkpt><trkpt lat="44.581884" lon="9.8991666"><ele>375.83333333333337</ele><time>2026-05-03T14:00:53.513Z</time></trkpt><trkpt lat="44.5818356" lon="9.8990716"><ele>374.6666666666667</ele><time>2026-05-03T14:00:56.512Z</time></trkpt><trkpt lat="44.5818857" lon="9.8990132"><ele>373.5</ele><time>2026-05-03T14:01:00.512Z</time></trkpt><trkpt lat="44.58195" lon="9.8991069"><ele>372.3333333333333</ele><time>2026-05-03T14:01:02.512Z</time></trkpt><trkpt lat="44.5820025" lon="9.8991818"><ele>371.16666666666663</ele><time>2026-05-03T14:01:03.512Z</time></trkpt><trkpt lat="44.582083" lon="9.8992168"><ele>370.0</ele><time>2026-05-03T14:01:09.512Z</time></trkpt><trkpt lat="44.5821943" lon="9.8992283"><ele>365.8</ele><time>2026-05-03T14:01:12.512Z</time></trkpt><trkpt lat="44.5822887" lon="9.8992202"><ele>361.6</ele><time>2026-05-03T14:01:14.512Z</time></trkpt><trkpt lat="44.5823881" lon="9.8991944"><ele>357.4</ele><time>2026-05-03T14:01:16.513Z</time></trkpt><trkpt lat="44.5824568" lon="9.8992311"><ele>353.2</ele><time>2026-05-03T14:01:18.512Z</time></trkpt><trkpt lat="44.5824777" lon="9.8993675"><ele>349.0</ele><time>2026-05-03T14:01:20.512Z</time></trkpt><trkpt lat="44.5824931" lon="9.8994989"><ele>349.0</ele><time>2026-05-03T14:01:22.512Z</time></trkpt><trkpt lat="44.5825059" lon="9.8996624"><ele>349.0</ele><time>2026-05-03T14:01:24.512Z</time></trkpt><trkpt lat="44.5825116" lon="9.8998475"><ele>349.0</ele><time>2026-05-03T14:01:26.513Z</time></trkpt><trkpt lat="44.5825154" lon="9.899969"><ele>349.0</ele><time>2026-05-03T14:01:27.512Z</time></trkpt><trkpt lat="44.5825196" lon="9.9001095"><ele>349.0</ele><time>2026-05-03T14:01:28.512Z</time></trkpt><trkpt lat="44.5825221" lon="9.9002443"><ele>349.79999999999995</ele><time>2026-05-03T14:01:29.512Z</time></trkpt><trkpt lat="44.5825319" lon="9.9003636"><ele>350.59999999999997</ele><time>2026-05-03T14:01:30.512Z</time></trkpt><trkpt lat="44.5825715" lon="9.9004736"><ele>351.4</ele><time>2026-05-03T14:01:31.513Z</time></trkpt><trkpt lat="44.5826282" lon="9.900581"><ele>352.2</ele><time>2026-05-03T14:01:32.512Z</time></trkpt><trkpt lat="44.582685" lon="9.900677"><ele>353.0</ele><time>2026-05-03T14:01:33.512Z</time></trkpt><trkpt lat="44.5827476" lon="9.9007789"><ele>353.0</ele><time>2026-05-03T14:01:34.513Z</time></trkpt><trkpt lat="44.5828156" lon="9.900878"><ele>353.0</ele><time>2026-05-03T14:01:35.512Z</time></trkpt><trkpt lat="44.58288" lon="9.9009744"><ele>353.0</ele><time>2026-05-03T14:01:36.512Z</time></trkpt><trkpt lat="44.5829334" lon="9.9010789"><ele>353.0</ele><time>2026-05-03T14:01:37.512Z</time></trkpt><trkpt lat="44.5829767" lon="9.9011951"><ele>353.0</ele><time>2026-05-03T14:01:38.512Z</time></trkpt><trkpt lat="44.5830036" lon="9.9013146"><ele>350.0</ele><time>2026-05-03T14:01:39.513Z</time></trkpt><trkpt lat="44.5830232" lon="9.9014378"><ele>347.0</ele><time>2026-05-03T14:01:40.514Z</time></trkpt><trkpt lat="44.5830251" lon="9.9015569"><ele>344.0</ele><time>2026-05-03T14:01:41.512Z</time></trkpt><trkpt lat="44.5830066" lon="9.9016885"><ele>341.0</ele><time>2026-05-03T14:01:42.512Z</time></trkpt><trkpt lat="44.5829766" lon="9.901825"><ele>338.0</ele><time>2026-05-03T14:01:43.512Z</time></trkpt><trkpt lat="44.5829486" lon="9.9019615"><ele>338.0</ele><time>2026-05-03T14:01:44.513Z</time></trkpt><trkpt lat="44.5829156" lon="9.9021051"><ele>338.0</ele><time>2026-05-03T14:01:45.512Z</time></trkpt><trkpt lat="44.5828871" lon="9.9022418"><ele>338.0</ele><time>2026-05-03T14:01:46.512Z</time></trkpt><trkpt lat="44.5828567" lon="9.9023883"><ele>338.0</ele><time>2026-05-03T14:01:47.512Z</time></trkpt><trkpt lat="44.5828211" lon="9.902536"><ele>338.0</ele><time>2026-05-03T14:01:48.512Z</time></trkpt><trkpt lat="44.5827954" lon="9.9026913"><ele>341.0</ele><time>2026-05-03T14:01:49.512Z</time></trkpt><trkpt lat="44.5827856" lon="9.9028534"><ele>344.0</ele><time>2026-05-03T14:01:50.512Z</time></trkpt><trkpt lat="44.5827775" lon="9.903017"><ele>347.0</ele><time>2026-05-03T14:01:51.512Z</time></trkpt><trkpt lat="44.5827708" lon="9.9031797"><ele>350.0</ele><time>2026-05-03T14:01:52.512Z</time></trkpt><trkpt lat="44.5827636" lon="9.9033389"><ele>350.25</ele><time>2026-05-03T14:01:53.512Z</time></trkpt><trkpt lat="44.5827557" lon="9.9034943"><ele>350.5</ele><time>2026-05-03T14:01:54.512Z</time></trkpt><trkpt lat="44.5827484" lon="9.9036527"><ele>350.75</ele><time>2026-05-03T14:01:55.512Z</time></trkpt><trkpt lat="44.5827466" lon="9.9038104"><ele>351.0</ele><time>2026-05-03T14:01:56.512Z</time></trkpt><trkpt lat="44.5827579" lon="9.9039706"><ele>351.0</ele><time>2026-05-03T14:01:57.513Z</time></trkpt><trkpt lat="44.5827825" lon="9.9041247"><ele>351.0</ele><time>2026-05-03T14:01:58.512Z</time></trkpt><trkpt lat="44.5828141" lon="9.9042783"><ele>351.0</ele><time>2026-05-03T14:01:59.512Z</time></trkpt><trkpt lat="44.5828454" lon="9.9044194"><ele>351.0</ele><time>2026-05-03T14:02:00.512Z</time></trkpt><trkpt lat="44.5828782" lon="9.9045591"><ele>351.0</ele><time>2026-05-03T14:02:01.512Z</time></trkpt><trkpt lat="44.5829105" lon="9.9046926"><ele>348.20000000000005</ele><time>2026-05-03T14:02:02.513Z</time></trkpt><trkpt lat="44.5829375" lon="9.9048206"><ele>345.40000000000003</ele><time>2026-05-03T14:02:03.512Z</time></trkpt><trkpt lat="44.5829678" lon="9.9049446"><ele>342.6</ele><time>2026-05-03T14:02:04.513Z</time></trkpt><trkpt lat="44.5829976" lon="9.9050721"><ele>339.8</ele><time>2026-05-03T14:02:05.513Z</time></trkpt><trkpt lat="44.5830321" lon="9.9052038"><ele>337.0</ele><time>2026-05-03T14:02:06.512Z</time></trkpt><trkpt lat="44.583073" lon="9.9053387"><ele>337.0</ele><time>2026-05-03T14:02:07.512Z</time></trkpt><trkpt lat="44.5831192" lon="9.905467"><ele>337.0</ele><time>2026-05-03T14:02:08.512Z</time></trkpt><trkpt lat="44.5831585" lon="9.9055897"><ele>337.0</ele><time>2026-05-03T14:02:09.512Z</time></trkpt><trkpt lat="44.5831821" lon="9.905718"><ele>337.0</ele><time>2026-05-03T14:02:10.511Z</time></trkpt><trkpt lat="44.5831963" lon="9.9058696"><ele>337.0</ele><time>2026-05-03T14:02:11.512Z</time></trkpt><trkpt lat="44.5831984" lon="9.9060251"><ele>336.75</ele><time>2026-05-03T14:02:12.512Z</time></trkpt><trkpt lat="44.5832073" lon="9.9061877"><ele>336.5</ele><time>2026-05-03T14:02:13.511Z</time></trkpt><trkpt lat="44.5832163" lon="9.9063524"><ele>336.25</ele><time>2026-05-03T14:02:14.511Z</time></trkpt><trkpt lat="44.5832244" lon="9.9065161"><ele>336.0</ele><time>2026-05-03T14:02:15.511Z</time></trkpt><trkpt lat="44.5832311" lon="9.9066746"><ele>336.6</ele><time>2026-05-03T14:02:16.511Z</time></trkpt><trkpt lat="44.58324" lon="9.9068275"><ele>337.20000000000005</ele><time>2026-05-03T14:02:17.511Z</time></trkpt><trkpt lat="44.5832527" lon="9.9069805"><ele>337.79999999999995</ele><time>2026-05-03T14:02:18.511Z</time></trkpt><trkpt lat="44.5832659" lon="9.9071339"><ele>338.4</ele><time>2026-05-03T14:02:19.511Z</time></trkpt><trkpt lat="44.5832752" lon="9.9072908"><ele>339.0</ele><time>2026-05-03T14:02:20.511Z</time></trkpt><trkpt lat="44.5832801" lon="9.9074456"><ele>340.2</ele><time>2026-05-03T14:02:21.511Z</time></trkpt><trkpt lat="44.5832771" lon="9.9075989"><ele>341.4</ele><time>2026-05-03T14:02:22.511Z</time></trkpt><trkpt lat="44.5832731" lon="9.9077532"><ele>342.6</ele><time>2026-05-03T14:02:23.512Z</time></trkpt><trkpt lat="44.5832804" lon="9.9078984"><ele>343.8</ele><time>2026-05-03T14:02:24.511Z</time></trkpt><trkpt lat="44.5833043" lon="9.9080128"><ele>345.0</ele><time>2026-05-03T14:02:25.511Z</time></trkpt><trkpt lat="44.5833661" lon="9.9081208"><ele>345.0</ele><time>2026-05-03T14:02:27.512Z</time></trkpt><trkpt lat="44.5834744" lon="9.9080889"><ele>345.0</ele><time>2026-05-03T14:02:29.511Z</time></trkpt><trkpt lat="44.583559" lon="9.9080478"><ele>345.0</ele><time>2026-05-03T14:02:30.511Z</time></trkpt><trkpt lat="44.5836538" lon="9.908035"><ele>345.0</ele><time>2026-05-03T14:02:31.511Z</time></trkpt><trkpt lat="44.5837476" lon="9.9080537"><ele>345.0</ele><time>2026-05-03T14:02:32.511Z</time></trkpt><trkpt lat="44.5838375" lon="9.9080989"><ele>344.4</ele><time>2026-05-03T14:02:33.511Z</time></trkpt><trkpt lat="44.5839223" lon="9.9081831"><ele>343.8</ele><time>2026-05-03T14:02:34.511Z</time></trkpt><trkpt lat="44.5840019" lon="9.9082936"><ele>343.20000000000005</ele><time>2026-05-03T14:02:35.511Z</time></trkpt><trkpt lat="44.5840875" lon="9.9084"><ele>342.6</ele><time>2026-05-03T14:02:36.511Z</time></trkpt><trkpt lat="44.5841827" lon="9.9084926"><ele>342.0</ele><time>2026-05-03T14:02:37.511Z</time></trkpt><trkpt lat="44.5842873" lon="9.9085731"><ele>342.0</ele><time>2026-05-03T14:02:38.511Z</time></trkpt><trkpt lat="44.5843996" lon="9.9086177"><ele>342.0</ele><time>2026-05-03T14:02:39.512Z</time></trkpt><trkpt lat="44.5845141" lon="9.9086267"><ele>342.0</ele><time>2026-05-03T14:02:40.511Z</time></trkpt><trkpt lat="44.5846308" lon="9.9086342"><ele>342.0</ele><time>2026-05-03T14:02:41.511Z</time></trkpt><trkpt lat="44.5847424" lon="9.9086705"><ele>338.5</ele><time>2026-05-03T14:02:42.511Z</time></trkpt><trkpt lat="44.5848439" lon="9.9087352"><ele>335.0</ele><time>2026-05-03T14:02:43.511Z</time></trkpt><trkpt lat="44.5849415" lon="9.9088327"><ele>331.5</ele><time>2026-05-03T14:02:44.511Z</time></trkpt><trkpt lat="44.5850449" lon="9.9089468"><ele>328.0</ele><time>2026-05-03T14:02:45.511Z</time></trkpt><trkpt lat="44.5851296" lon="9.9090899"><ele>328.0</ele><time>2026-05-03T14:02:46.511Z</time></trkpt><trkpt lat="44.585217" lon="9.9091998"><ele>328.0</ele><time>2026-05-03T14:02:47.511Z</time></trkpt><trkpt lat="44.5853039" lon="9.9092643"><ele>328.0</ele><time>2026-05-03T14:02:48.511Z</time></trkpt><trkpt lat="44.5853973" lon="9.9092953"><ele>328.0</ele><time>2026-05-03T14:02:49.511Z</time></trkpt><trkpt lat="44.5854921" lon="9.909297"><ele>328.0</ele><time>2026-05-03T14:02:50.511Z</time></trkpt><trkpt lat="44.585584" lon="9.9092887"><ele>326.0</ele><time>2026-05-03T14:02:51.511Z</time></trkpt><trkpt lat="44.5856853" lon="9.9092765"><ele>324.0</ele><time>2026-05-03T14:02:52.511Z</time></trkpt><trkpt lat="44.5857793" lon="9.9092659"><ele>322.0</ele><time>2026-05-03T14:02:53.511Z</time></trkpt><trkpt lat="44.5858671" lon="9.9092436"><ele>320.0</ele><time>2026-05-03T14:02:54.511Z</time></trkpt><trkpt lat="44.5859477" lon="9.9092009"><ele>318.0</ele><time>2026-05-03T14:02:55.511Z</time></trkpt><trkpt lat="44.5860116" lon="9.9091414"><ele>316.0</ele><time>2026-05-03T14:02:56.511Z</time></trkpt><trkpt lat="44.5860813" lon="9.9090702"><ele>316.0</ele><time>2026-05-03T14:02:58.511Z</time></trkpt><trkpt lat="44.5861576" lon="9.9090554"><ele>316.0</ele><time>2026-05-03T14:08:37.51Z</time></trkpt><trkpt lat="44.5862135" lon="9.9091031"><ele>316.0</ele><time>2026-05-03T14:08:38.51Z</time></trkpt><trkpt lat="44.5862549" lon="9.909196"><ele>316.0</ele><time>2026-05-03T14:08:39.51Z</time></trkpt><trkpt lat="44.5862947" lon="9.9093138"><ele>316.0</ele><time>2026-05-03T14:08:40.511Z</time></trkpt><trkpt lat="44.586302" lon="9.9094674"><ele>316.0</ele><time>2026-05-03T14:08:41.51Z</time></trkpt><trkpt lat="44.5863211" lon="9.9096189"><ele>316.75</ele><time>2026-05-03T14:08:42.51Z</time></trkpt><trkpt lat="44.5863235" lon="9.9098078"><ele>317.5</ele><time>2026-05-03T14:08:43.51Z</time></trkpt><trkpt lat="44.5863299" lon="9.9099997"><ele>318.25</ele><time>2026-05-03T14:08:44.51Z</time></trkpt><trkpt lat="44.5863305" lon="9.9101695"><ele>319.0</ele><time>2026-05-03T14:08:45.51Z</time></trkpt><trkpt lat="44.5863283" lon="9.9103541"><ele>319.0</ele><time>2026-05-03T14:08:46.511Z</time></trkpt><trkpt lat="44.5863317" lon="9.9105329"><ele>319.0</ele><time>2026-05-03T14:08:47.51Z</time></trkpt><trkpt lat="44.58635" lon="9.9107144"><ele>319.0</ele><time>2026-05-03T14:08:48.51Z</time></trkpt><trkpt lat="44.5863954" lon="9.9108821"><ele>319.0</ele><time>2026-05-03T14:08:49.51Z</time></trkpt><trkpt lat="44.5864597" lon="9.9110259"><ele>316.75</ele><time>2026-05-03T14:08:50.512Z</time></trkpt><trkpt lat="44.5865467" lon="9.9111435"><ele>314.5</ele><time>2026-05-03T14:08:51.51Z</time></trkpt><trkpt lat="44.5866468" lon="9.9112197"><ele>312.25</ele><time>2026-05-03T14:08:52.51Z</time></trkpt><trkpt lat="44.5867584" lon="9.9112497"><ele>310.0</ele><time>2026-05-03T14:08:53.51Z</time></trkpt><trkpt lat="44.5868858" lon="9.9112467"><ele>312.25</ele><time>2026-05-03T14:08:54.51Z</time></trkpt><trkpt lat="44.5870242" lon="9.9112317"><ele>314.5</ele><time>2026-05-03T14:08:55.51Z</time></trkpt><trkpt lat="44.5871748" lon="9.911222"><ele>316.75</ele><time>2026-05-03T14:08:56.51Z</time></trkpt><trkpt lat="44.587326" lon="9.9112327"><ele>319.0</ele><time>2026-05-03T14:08:57.51Z</time></trkpt><trkpt lat="44.5874895" lon="9.9112655"><ele>319.0</ele><time>2026-05-03T14:08:58.51Z</time></trkpt><trkpt lat="44.5876571" lon="9.9113133"><ele>319.0</ele><time>2026-05-03T14:08:59.51Z</time></trkpt><trkpt lat="44.5878145" lon="9.9113584"><ele>319.0</ele><time>2026-05-03T14:09:00.511Z</time></trkpt><trkpt lat="44.5879558" lon="9.9114101"><ele>321.2</ele><time>2026-05-03T14:09:01.511Z</time></trkpt><trkpt lat="44.5880826" lon="9.9114554"><ele>323.4</ele><time>2026-05-03T14:09:02.51Z</time></trkpt><trkpt lat="44.588199" lon="9.9114992"><ele>325.6</ele><time>2026-05-03T14:09:03.51Z</time></trkpt><trkpt lat="44.5882865" lon="9.9115535"><ele>327.8</ele><time>2026-05-03T14:09:04.51Z</time></trkpt><trkpt lat="44.5883583" lon="9.9116009"><ele>330.0</ele><time>2026-05-03T14:09:05.509Z</time></trkpt><trkpt lat="44.5883645" lon="9.9117054"><ele>331.8</ele><time>2026-05-03T14:09:06.509Z</time></trkpt><trkpt lat="44.5883204" lon="9.9119033"><ele>333.6</ele><time>2026-05-03T14:09:08.509Z</time></trkpt><trkpt lat="44.5882551" lon="9.9119947"><ele>335.4</ele><time>2026-05-03T14:09:09.509Z</time></trkpt><trkpt lat="44.5881908" lon="9.9120942"><ele>337.2</ele><time>2026-05-03T14:09:10.509Z</time></trkpt><trkpt lat="44.5880896" lon="9.9121295"><ele>339.0</ele><time>2026-05-03T14:09:11.509Z</time></trkpt><trkpt lat="44.5880016" lon="9.9121999"><ele>339.0</ele><time>2026-05-03T14:09:12.509Z</time></trkpt><trkpt lat="44.587901" lon="9.9122371"><ele>339.0</ele><time>2026-05-03T14:09:13.509Z</time></trkpt><trkpt lat="44.5878388" lon="9.9123226"><ele>339.0</ele><time>2026-05-03T14:09:14.509Z</time></trkpt><trkpt lat="44.5877665" lon="9.9124005"><ele>339.0</ele><time>2026-05-03T14:09:15.509Z</time></trkpt><trkpt lat="44.5877814" lon="9.9125454"><ele>339.0</ele><time>2026-05-03T14:09:16.509Z</time></trkpt><trkpt lat="44.5877835" lon="9.9126905"><ele>339.0</ele><time>2026-05-03T14:09:17.51Z</time></trkpt><trkpt lat="44.587765" lon="9.9128554"><ele>339.0</ele><time>2026-05-03T14:09:18.509Z</time></trkpt><trkpt lat="44.5877418" lon="9.9130325"><ele>339.0</ele><time>2026-05-03T14:09:19.509Z</time></trkpt><trkpt lat="44.5877043" lon="9.9132131"><ele>339.0</ele><time>2026-05-03T14:09:20.51Z</time></trkpt><trkpt lat="44.5876549" lon="9.913385"><ele>342.5</ele><time>2026-05-03T14:09:21.51Z</time></trkpt><trkpt lat="44.5875841" lon="9.913537"><ele>346.0</ele><time>2026-05-03T14:09:22.509Z</time></trkpt><trkpt lat="44.5875064" lon="9.9136936"><ele>349.5</ele><time>2026-05-03T14:09:23.509Z</time></trkpt><trkpt lat="44.5874306" lon="9.9138521"><ele>353.0</ele><time>2026-05-03T14:09:24.509Z</time></trkpt><trkpt lat="44.5873469" lon="9.9140098"><ele>353.0</ele><time>2026-05-03T14:09:25.51Z</time></trkpt><trkpt lat="44.5872909" lon="9.9141696"><ele>353.0</ele><time>2026-05-03T14:09:26.51Z</time></trkpt><trkpt lat="44.5872122" lon="9.9142636"><ele>353.0</ele><time>2026-05-03T14:09:27.51Z</time></trkpt><trkpt lat="44.5871929" lon="9.9143579"><ele>353.0</ele><time>2026-05-03T14:09:28.51Z</time></trkpt><trkpt lat="44.5872206" lon="9.9145035"><ele>353.0</ele><time>2026-05-03T14:09:30.509Z</time></trkpt><trkpt lat="44.5872736" lon="9.9145662"><ele>355.4</ele><time>2026-05-03T14:09:31.509Z</time></trkpt><trkpt lat="44.587332" lon="9.9146406"><ele>357.79999999999995</ele><time>2026-05-03T14:09:32.509Z</time></trkpt><trkpt lat="44.5874632" lon="9.9146335"><ele>360.2</ele><time>2026-05-03T14:09:33.509Z</time></trkpt><trkpt lat="44.5875773" lon="9.9146641"><ele>362.6</ele><time>2026-05-03T14:09:34.51Z</time></trkpt><trkpt lat="44.587693" lon="9.9146203"><ele>365.0</ele><time>2026-05-03T14:09:35.51Z</time></trkpt><trkpt lat="44.5877961" lon="9.9146103"><ele>366.75</ele><time>2026-05-03T14:09:36.51Z</time></trkpt><trkpt lat="44.587888" lon="9.9146096"><ele>368.5</ele><time>2026-05-03T14:09:37.509Z</time></trkpt><trkpt lat="44.5880086" lon="9.9146117"><ele>370.25</ele><time>2026-05-03T14:09:38.509Z</time></trkpt><trkpt lat="44.588143" lon="9.9145716"><ele>372.0</ele><time>2026-05-03T14:09:39.509Z</time></trkpt><trkpt lat="44.5882625" lon="9.9145424"><ele>372.0</ele><time>2026-05-03T14:09:40.509Z</time></trkpt><trkpt lat="44.5883743" lon="9.9145404"><ele>372.0</ele><time>2026-05-03T14:09:41.509Z</time></trkpt><trkpt lat="44.5884672" lon="9.9145676"><ele>372.0</ele><time>2026-05-03T14:09:42.509Z</time></trkpt><trkpt lat="44.5885567" lon="9.9146324"><ele>372.0</ele><time>2026-05-03T14:09:43.509Z</time></trkpt><trkpt lat="44.5886479" lon="9.9147261"><ele>372.0</ele><time>2026-05-03T14:09:44.509Z</time></trkpt><trkpt lat="44.5887485" lon="9.9148129"><ele>372.6</ele><time>2026-05-03T14:09:45.509Z</time></trkpt><trkpt lat="44.5888612" lon="9.914862"><ele>373.20000000000005</ele><time>2026-05-03T14:09:46.509Z</time></trkpt><trkpt lat="44.5889819" lon="9.9148973"><ele>373.8</ele><time>2026-05-03T14:09:47.509Z</time></trkpt><trkpt lat="44.5890908" lon="9.9149146"><ele>374.4</ele><time>2026-05-03T14:09:48.509Z</time></trkpt><trkpt lat="44.5891889" lon="9.9149043"><ele>375.0</ele><time>2026-05-03T14:09:49.509Z</time></trkpt><trkpt lat="44.5892805" lon="9.9148551"><ele>375.0</ele><time>2026-05-03T14:09:50.509Z</time></trkpt><trkpt lat="44.5893564" lon="9.9147582"><ele>375.0</ele><time>2026-05-03T14:09:51.509Z</time></trkpt><trkpt lat="44.5894336" lon="9.9146449"><ele>375.0</ele><time>2026-05-03T14:09:52.51Z</time></trkpt><trkpt lat="44.589508" lon="9.9145505"><ele>375.0</ele><time>2026-05-03T14:09:53.509Z</time></trkpt><trkpt lat="44.5896262" lon="9.9144989"><ele>375.0</ele><time>2026-05-03T14:09:54.509Z</time></trkpt><trkpt lat="44.5897395" lon="9.9144431"><ele>380.5</ele><time>2026-05-03T14:09:55.509Z</time></trkpt><trkpt lat="44.5898662" lon="9.9143958"><ele>386.0</ele><time>2026-05-03T14:09:56.509Z</time></trkpt><trkpt lat="44.5900001" lon="9.9143576"><ele>391.5</ele><time>2026-05-03T14:09:57.509Z</time></trkpt><trkpt lat="44.5901321" lon="9.914312"><ele>397.0</ele><time>2026-05-03T14:09:58.509Z</time></trkpt><trkpt lat="44.5902601" lon="9.9142507"><ele>396.40000000000003</ele><time>2026-05-03T14:09:59.509Z</time></trkpt><trkpt lat="44.5903739" lon="9.9141979"><ele>395.8</ele><time>2026-05-03T14:10:00.509Z</time></trkpt><trkpt lat="44.5904748" lon="9.9141665"><ele>395.2</ele><time>2026-05-03T14:10:01.509Z</time></trkpt><trkpt lat="44.5905592" lon="9.9141631"><ele>394.6</ele><time>2026-05-03T14:10:02.509Z</time></trkpt><trkpt lat="44.5906243" lon="9.9141797"><ele>394.0</ele><time>2026-05-03T14:10:03.509Z</time></trkpt><trkpt lat="44.5907148" lon="9.9142358"><ele>396.0</ele><time>2026-05-03T14:10:05.509Z</time></trkpt><trkpt lat="44.5907626" lon="9.9142973"><ele>398.0</ele><time>2026-05-03T14:13:40.508Z</time></trkpt><trkpt lat="44.5907875" lon="9.9144341"><ele>400.0</ele><time>2026-05-03T14:13:42.508Z</time></trkpt><trkpt lat="44.5907466" lon="9.9145811"><ele>402.0</ele><time>2026-05-03T14:13:44.508Z</time></trkpt><trkpt lat="44.5906653" lon="9.9146932"><ele>404.0</ele><time>2026-05-03T14:13:46.509Z</time></trkpt><trkpt lat="44.5906304" lon="9.9148105"><ele>404.0</ele><time>2026-05-03T14:13:48.509Z</time></trkpt><trkpt lat="44.5906462" lon="9.9149563"><ele>404.0</ele><time>2026-05-03T14:13:50.508Z</time></trkpt><trkpt lat="44.5906884" lon="9.9151042"><ele>404.0</ele><time>2026-05-03T14:13:52.508Z</time></trkpt><trkpt lat="44.5907438" lon="9.9152688"><ele>404.0</ele><time>2026-05-03T14:13:54.508Z</time></trkpt><trkpt lat="44.5907742" lon="9.9153629"><ele>404.0</ele><time>2026-05-03T14:13:55.508Z</time></trkpt><trkpt lat="44.5908074" lon="9.9154734"><ele>406.16666666666663</ele><time>2026-05-03T14:13:56.509Z</time></trkpt><trkpt lat="44.5908432" lon="9.9155866"><ele>408.3333333333333</ele><time>2026-05-03T14:13:57.508Z</time></trkpt><trkpt lat="44.5908845" lon="9.9157087"><ele>410.5</ele><time>2026-05-03T14:13:58.508Z</time></trkpt><trkpt lat="44.5909261" lon="9.9158249"><ele>412.66666666666663</ele><time>2026-05-03T14:13:59.508Z</time></trkpt><trkpt lat="44.5909637" lon="9.9159311"><ele>414.8333333333333</ele><time>2026-05-03T14:14:00.508Z</time></trkpt><trkpt lat="44.590984" lon="9.9160296"><ele>417.0</ele><time>2026-05-03T14:14:01.508Z</time></trkpt><trkpt lat="44.5909626" lon="9.9161743"><ele>417.0</ele><time>2026-05-03T14:14:03.509Z</time></trkpt><trkpt lat="44.5908823" lon="9.9162073"><ele>417.0</ele><time>2026-05-03T14:14:05.508Z</time></trkpt><trkpt lat="44.5907843" lon="9.9161124"><ele>417.0</ele><time>2026-05-03T14:14:07.508Z</time></trkpt><trkpt lat="44.5907229" lon="9.9160273"><ele>417.0</ele><time>2026-05-03T14:14:08.508Z</time></trkpt><trkpt lat="44.5906661" lon="9.9159437"><ele>417.0</ele><time>2026-05-03T14:14:09.508Z</time></trkpt><trkpt lat="44.5906109" lon="9.9158815"><ele>417.0</ele><time>2026-05-03T14:14:10.509Z</time></trkpt><trkpt lat="44.5905081" lon="9.9158427"><ele>418.6666666666667</ele><time>2026-05-03T14:14:12.508Z</time></trkpt><trkpt lat="44.5904481" lon="9.9159244"><ele>420.33333333333337</ele><time>2026-05-03T14:14:14.509Z</time></trkpt><trkpt lat="44.5904285" lon="9.9160752"><ele>422.0</ele><time>2026-05-03T14:14:16.508Z</time></trkpt><trkpt lat="44.5904314" lon="9.9161805"><ele>423.6666666666667</ele><time>2026-05-03T14:14:17.508Z</time></trkpt><trkpt lat="44.5904388" lon="9.9162882"><ele>425.33333333333337</ele><time>2026-05-03T14:14:18.508Z</time></trkpt><trkpt lat="44.5904449" lon="9.9163943"><ele>427.0</ele><time>2026-05-03T14:14:19.509Z</time></trkpt><trkpt lat="44.5904292" lon="9.9164944"><ele>427.00000000000006</ele><time>2026-05-03T14:14:20.508Z</time></trkpt><trkpt lat="44.5904184" lon="9.91659"><ele>427.0</ele><time>2026-05-03T14:14:21.508Z</time></trkpt><trkpt lat="44.5904072" lon="9.9167001"><ele>427.0</ele><time>2026-05-03T14:14:22.508Z</time></trkpt><trkpt lat="44.5904151" lon="9.916813"><ele>427.0</ele><time>2026-05-03T14:14:23.508Z</time></trkpt><trkpt lat="44.5904199" lon="9.9169334"><ele>427.00000000000006</ele><time>2026-05-03T14:14:24.508Z</time></trkpt><trkpt lat="44.5904297" lon="9.9170529"><ele>427.0</ele><time>2026-05-03T14:14:25.509Z</time></trkpt><trkpt lat="44.590449" lon="9.9171775"><ele>429.20000000000005</ele><time>2026-05-03T14:14:26.508Z</time></trkpt><trkpt lat="44.59045" lon="9.9173058"><ele>431.40000000000003</ele><time>2026-05-03T14:14:27.508Z</time></trkpt><trkpt lat="44.5904424" lon="9.9174408"><ele>433.59999999999997</ele><time>2026-05-03T14:14:28.508Z</time></trkpt><trkpt lat="44.590422" lon="9.9175752"><ele>435.79999999999995</ele><time>2026-05-03T14:14:29.508Z</time></trkpt><trkpt lat="44.5904036" lon="9.9177049"><ele>438.0</ele><time>2026-05-03T14:14:30.508Z</time></trkpt><trkpt lat="44.5903873" lon="9.9178229"><ele>439.3333333333333</ele><time>2026-05-03T14:14:31.508Z</time></trkpt><trkpt lat="44.5903703" lon="9.9179303"><ele>440.66666666666663</ele><time>2026-05-03T14:14:32.508Z</time></trkpt><trkpt lat="44.5903553" lon="9.918066"><ele>442.0</ele><time>2026-05-03T14:14:33.508Z</time></trkpt><trkpt lat="44.5903388" lon="9.9182019"><ele>443.3333333333333</ele><time>2026-05-03T14:14:34.508Z</time></trkpt><trkpt lat="44.5903194" lon="9.9183258"><ele>444.66666666666663</ele><time>2026-05-03T14:14:35.508Z</time></trkpt><trkpt lat="44.5902948" lon="9.9184336"><ele>446.0</ele><time>2026-05-03T14:14:36.508Z</time></trkpt><trkpt lat="44.5902442" lon="9.9185499"><ele>448.4</ele><time>2026-05-03T14:14:37.508Z</time></trkpt><trkpt lat="44.5902217" lon="9.9186842"><ele>450.8</ele><time>2026-05-03T14:14:38.509Z</time></trkpt><trkpt lat="44.5901776" lon="9.918813"><ele>453.19999999999993</ele><time>2026-05-03T14:14:39.508Z</time></trkpt><trkpt lat="44.5901286" lon="9.9189296"><ele>455.59999999999997</ele><time>2026-05-03T14:14:40.509Z</time></trkpt><trkpt lat="44.5900843" lon="9.9190334"><ele>458.0</ele><time>2026-05-03T14:14:41.508Z</time></trkpt><trkpt lat="44.5900476" lon="9.9191306"><ele>457.99999999999994</ele><time>2026-05-03T14:14:42.508Z</time></trkpt><trkpt lat="44.5900139" lon="9.9192286"><ele>458.0</ele><time>2026-05-03T14:14:43.508Z</time></trkpt><trkpt lat="44.5899893" lon="9.919329"><ele>458.0</ele><time>2026-05-03T14:14:44.508Z</time></trkpt><trkpt lat="44.5899775" lon="9.9194332"><ele>458.0</ele><time>2026-05-03T14:14:45.508Z</time></trkpt><trkpt lat="44.5899666" lon="9.9195288"><ele>457.99999999999994</ele><time>2026-05-03T14:14:46.508Z</time></trkpt><trkpt lat="44.589968" lon="9.9196502"><ele>458.0</ele><time>2026-05-03T14:14:48.508Z</time></trkpt><trkpt lat="44.5900155" lon="9.9195672"><ele>459.3333333333333</ele><time>2026-05-03T14:14:58.508Z</time></trkpt><trkpt lat="44.590089" lon="9.919545"><ele>460.66666666666663</ele><time>2026-05-03T14:15:01.508Z</time></trkpt><trkpt lat="44.5901436" lon="9.9195914"><ele>462.0</ele><time>2026-05-03T14:15:03.508Z</time></trkpt><trkpt lat="44.590248" lon="9.9195525"><ele>463.33333333333337</ele><time>2026-05-03T14:15:05.508Z</time></trkpt><trkpt lat="44.5903259" lon="9.9195734"><ele>464.6666666666667</ele><time>2026-05-03T14:15:07.508Z</time></trkpt><trkpt lat="44.590375" lon="9.9196691"><ele>466.0</ele><time>2026-05-03T14:15:09.508Z</time></trkpt><trkpt lat="44.5903706" lon="9.9198507"><ele>467.33333333333337</ele><time>2026-05-03T14:15:11.508Z</time></trkpt><trkpt lat="44.5903627" lon="9.9199446"><ele>468.6666666666667</ele><time>2026-05-03T14:15:12.508Z</time></trkpt><trkpt lat="44.5903557" lon="9.9200998"><ele>470.0</ele><time>2026-05-03T14:15:14.508Z</time></trkpt><trkpt lat="44.5903585" lon="9.9201912"><ele>471.33333333333337</ele><time>2026-05-03T14:15:16.508Z</time></trkpt><trkpt lat="44.5903721" lon="9.9202847"><ele>472.6666666666667</ele><time>2026-05-03T14:15:18.509Z</time></trkpt><trkpt lat="44.5904276" lon="9.9204093"><ele>474.0</ele><time>2026-05-03T14:15:20.508Z</time></trkpt><trkpt lat="44.5904598" lon="9.9204855"><ele>476.4</ele><time>2026-05-03T14:15:21.508Z</time></trkpt><trkpt lat="44.5904826" lon="9.9206555"><ele>478.79999999999995</ele><time>2026-05-03T14:15:23.508Z</time></trkpt><trkpt lat="44.5905459" lon="9.9207784"><ele>481.20000000000005</ele><time>2026-05-03T14:15:25.508Z</time></trkpt><trkpt lat="44.5905927" lon="9.9208935"><ele>483.6</ele><time>2026-05-03T14:15:27.508Z</time></trkpt><trkpt lat="44.5906224" lon="9.9210224"><ele>486.0</ele><time>2026-05-03T14:15:29.508Z</time></trkpt><trkpt lat="44.5906598" lon="9.9211254"><ele>486.8</ele><time>2026-05-03T14:15:31.508Z</time></trkpt><trkpt lat="44.5907156" lon="9.9212318"><ele>487.6</ele><time>2026-05-03T14:15:33.508Z</time></trkpt><trkpt lat="44.5907773" lon="9.9213276"><ele>488.4</ele><time>2026-05-03T14:15:35.508Z</time></trkpt><trkpt lat="44.5908339" lon="9.9214267"><ele>489.2</ele><time>2026-05-03T14:15:37.508Z</time></trkpt><trkpt lat="44.5909208" lon="9.9215215"><ele>490.0</ele><time>2026-05-03T14:15:39.508Z</time></trkpt><trkpt lat="44.590993" lon="9.9216275"><ele>491.6</ele><time>2026-05-03T14:15:41.508Z</time></trkpt><trkpt lat="44.5910583" lon="9.9217628"><ele>493.2</ele><time>2026-05-03T14:15:43.509Z</time></trkpt><trkpt lat="44.591081" lon="9.9218987"><ele>494.79999999999995</ele><time>2026-05-03T14:15:45.509Z</time></trkpt><trkpt lat="44.5910747" lon="9.9220169"><ele>496.4</ele><time>2026-05-03T14:15:47.509Z</time></trkpt><trkpt lat="44.5909867" lon="9.9221105"><ele>498.0</ele><time>2026-05-03T14:15:49.508Z</time></trkpt><trkpt lat="44.5909009" lon="9.9222205"><ele>498.0</ele><time>2026-05-03T14:15:51.508Z</time></trkpt><trkpt lat="44.5908904" lon="9.9223121"><ele>497.99999999999994</ele><time>2026-05-03T14:15:52.508Z</time></trkpt><trkpt lat="44.5908309" lon="9.9224777"><ele>497.99999999999994</ele><time>2026-05-03T14:15:54.509Z</time></trkpt><trkpt lat="44.5907795" lon="9.9226231"><ele>498.0</ele><time>2026-05-03T14:15:56.508Z</time></trkpt><trkpt lat="44.5908081" lon="9.9227087"><ele>498.0</ele><time>2026-05-03T14:15:59.508Z</time></trkpt><trkpt lat="44.5909005" lon="9.9226723"><ele>500.0</ele><time>2026-05-03T14:16:02.51Z</time></trkpt><trkpt lat="44.5909864" lon="9.9226591"><ele>501.99999999999994</ele><time>2026-05-03T14:16:04.508Z</time></trkpt><trkpt lat="44.5910893" lon="9.9225912"><ele>503.99999999999994</ele><time>2026-05-03T14:16:06.508Z</time></trkpt><trkpt lat="44.591205" lon="9.9224901"><ele>506.0</ele><time>2026-05-03T14:16:08.508Z</time></trkpt><trkpt lat="44.5912955" lon="9.9224632"><ele>508.0</ele><time>2026-05-03T14:16:10.508Z</time></trkpt><trkpt lat="44.5914039" lon="9.9224582"><ele>512.0</ele><time>2026-05-03T14:16:12.508Z</time></trkpt><trkpt lat="44.5914887" lon="9.9225691"><ele>516.0</ele><time>2026-05-03T14:16:14.509Z</time></trkpt><trkpt lat="44.5914392" lon="9.922644"><ele>520.0</ele><time>2026-05-03T14:16:15.508Z</time></trkpt><trkpt lat="44.5914604" lon="9.922834"><ele>524.0</ele><time>2026-05-03T14:16:17.508Z</time></trkpt><trkpt lat="44.5914554" lon="9.9229392"><ele>528.0</ele><time>2026-05-03T14:16:18.509Z</time></trkpt><trkpt lat="44.5914514" lon="9.9230373"><ele>528.0</ele><time>2026-05-03T14:16:19.508Z</time></trkpt><trkpt lat="44.5914626" lon="9.9231977"><ele>528.0</ele><time>2026-05-03T14:16:21.508Z</time></trkpt><trkpt lat="44.5914674" lon="9.9233045"><ele>528.0</ele><time>2026-05-03T14:16:22.508Z</time></trkpt><trkpt lat="44.59143" lon="9.9233939"><ele>528.0</ele><time>2026-05-03T14:16:23.508Z</time></trkpt><trkpt lat="44.5913664" lon="9.9234468"><ele>528.0</ele><time>2026-05-03T14:16:24.508Z</time></trkpt><trkpt lat="44.5913097" lon="9.9235637"><ele>528.0</ele><time>2026-05-03T14:16:26.509Z</time></trkpt><trkpt lat="44.5912723" lon="9.9236687"><ele>529.4</ele><time>2026-05-03T14:16:28.508Z</time></trkpt><trkpt lat="44.5912389" lon="9.9237662"><ele>530.8</ele><time>2026-05-03T14:16:30.508Z</time></trkpt><trkpt lat="44.5912182" lon="9.923873"><ele>532.2</ele><time>2026-05-03T14:16:32.508Z</time></trkpt><trkpt lat="44.5912657" lon="9.9239607"><ele>533.6</ele><time>2026-05-03T14:16:35.432Z</time></trkpt><trkpt lat="44.5913463" lon="9.9239794"><ele>535.0</ele><time>2026-05-03T14:16:36.507Z</time></trkpt><trkpt lat="44.591491" lon="9.9239699"><ele>535.0</ele><time>2026-05-03T14:16:38.507Z</time></trkpt><trkpt lat="44.5915831" lon="9.9239645"><ele>535.0</ele><time>2026-05-03T14:16:39.507Z</time></trkpt><trkpt lat="44.591647" lon="9.9239785"><ele>535.0</ele><time>2026-05-03T14:16:40.507Z</time></trkpt><trkpt lat="44.5917119" lon="9.9239851"><ele>535.0</ele><time>2026-05-03T14:16:41.507Z</time></trkpt><trkpt lat="44.5918024" lon="9.9240054"><ele>535.0</ele><time>2026-05-03T14:16:43.507Z</time></trkpt><trkpt lat="44.5918249" lon="9.924135"><ele>535.0</ele><time>2026-05-03T14:16:45.507Z</time></trkpt><trkpt lat="44.5917806" lon="9.9242203"><ele>534.0</ele><time>2026-05-03T14:16:46.509Z</time></trkpt><trkpt lat="44.5917703" lon="9.924375"><ele>533.0</ele><time>2026-05-03T14:16:48.507Z</time></trkpt><trkpt lat="44.591797" lon="9.9244558"><ele>532.0</ele><time>2026-05-03T14:16:49.508Z</time></trkpt><trkpt lat="44.5918687" lon="9.9245842"><ele>531.0</ele><time>2026-05-03T14:16:51.508Z</time></trkpt><trkpt lat="44.5919379" lon="9.9246473"><ele>530.0</ele><time>2026-05-03T14:16:52.507Z</time></trkpt><trkpt lat="44.5919958" lon="9.9246877"><ele>529.0</ele><time>2026-05-03T14:16:53.508Z</time></trkpt><trkpt lat="44.5920564" lon="9.9247256"><ele>533.1666666666667</ele><time>2026-05-03T14:16:54.507Z</time></trkpt><trkpt lat="44.5921253" lon="9.9246716"><ele>537.3333333333334</ele><time>2026-05-03T14:16:55.507Z</time></trkpt><trkpt lat="44.5922198" lon="9.924579"><ele>541.5</ele><time>2026-05-03T14:16:57.507Z</time></trkpt><trkpt lat="44.5922725" lon="9.9245291"><ele>545.6666666666666</ele><time>2026-05-03T14:16:58.507Z</time></trkpt><trkpt lat="44.5923281" lon="9.9244806"><ele>549.8333333333333</ele><time>2026-05-03T14:16:59.507Z</time></trkpt><trkpt lat="44.5924374" lon="9.9244615"><ele>554.0</ele><time>2026-05-03T14:17:01.507Z</time></trkpt><trkpt lat="44.5925246" lon="9.9244693"><ele>554.0</ele><time>2026-05-03T14:17:02.507Z</time></trkpt><trkpt lat="44.5926074" lon="9.9244775"><ele>554.0</ele><time>2026-05-03T14:17:03.507Z</time></trkpt><trkpt lat="44.5926817" lon="9.9245412"><ele>554.0</ele><time>2026-05-03T14:17:04.507Z</time></trkpt><trkpt lat="44.592764" lon="9.9245886"><ele>554.0</ele><time>2026-05-03T14:17:05.507Z</time></trkpt><trkpt lat="44.5928268" lon="9.924624"><ele>554.0</ele><time>2026-05-03T14:17:06.507Z</time></trkpt><trkpt lat="44.5928899" lon="9.9246326"><ele>554.0</ele><time>2026-05-03T14:17:07.508Z</time></trkpt><trkpt lat="44.5929636" lon="9.9246521"><ele>557.8</ele><time>2026-05-03T14:17:08.507Z</time></trkpt><trkpt lat="44.5931039" lon="9.9245624"><ele>561.5999999999999</ele><time>2026-05-03T14:17:10.507Z</time></trkpt><trkpt lat="44.5931895" lon="9.9245326"><ele>565.4</ele><time>2026-05-03T14:17:11.507Z</time></trkpt><trkpt lat="44.5932927" lon="9.9245275"><ele>569.1999999999999</ele><time>2026-05-03T14:17:12.507Z</time></trkpt><trkpt lat="44.5933792" lon="9.9245191"><ele>573.0</ele><time>2026-05-03T14:17:13.507Z</time></trkpt><trkpt lat="44.5934731" lon="9.924515"><ele>573.0</ele><time>2026-05-03T14:17:14.508Z</time></trkpt><trkpt lat="44.5935707" lon="9.9244992"><ele>573.0</ele><time>2026-05-03T14:17:15.508Z</time></trkpt><trkpt lat="44.5936679" lon="9.9244914"><ele>573.0</ele><time>2026-05-03T14:17:16.507Z</time></trkpt><trkpt lat="44.5937612" lon="9.9244643"><ele>573.0</ele><time>2026-05-03T14:17:17.507Z</time></trkpt><trkpt lat="44.5938565" lon="9.9244353"><ele>573.0</ele><time>2026-05-03T14:17:18.507Z</time></trkpt><trkpt lat="44.5939595" lon="9.9243899"><ele>576.1999999999999</ele><time>2026-05-03T14:17:19.507Z</time></trkpt><trkpt lat="44.5940316" lon="9.9243548"><ele>579.4</ele><time>2026-05-03T14:17:20.507Z</time></trkpt><trkpt lat="44.5941123" lon="9.9242935"><ele>582.5999999999999</ele><time>2026-05-03T14:17:21.507Z</time></trkpt><trkpt lat="44.5941973" lon="9.9242119"><ele>585.8</ele><time>2026-05-03T14:17:22.507Z</time></trkpt><trkpt lat="44.5943048" lon="9.9240859"><ele>589.0</ele><time>2026-05-03T14:17:24.509Z</time></trkpt><trkpt lat="44.5943653" lon="9.9239873"><ele>589.0</ele><time>2026-05-03T14:17:25.507Z</time></trkpt><trkpt lat="44.5944207" lon="9.923908"><ele>589.0</ele><time>2026-05-03T14:17:26.507Z</time></trkpt><trkpt lat="44.5944816" lon="9.9238414"><ele>589.0</ele><time>2026-05-03T14:17:27.507Z</time></trkpt><trkpt lat="44.5945397" lon="9.923791"><ele>589.0</ele><time>2026-05-03T14:17:28.507Z</time></trkpt><trkpt lat="44.5946061" lon="9.923727"><ele>589.0</ele><time>2026-05-03T14:17:29.508Z</time></trkpt><trkpt lat="44.5946744" lon="9.9236668"><ele>589.0</ele><time>2026-05-03T14:17:30.507Z</time></trkpt><trkpt lat="44.5947587" lon="9.9236325"><ele>591.1666666666667</ele><time>2026-05-03T14:17:31.507Z</time></trkpt><trkpt lat="44.5948079" lon="9.9237068"><ele>593.3333333333334</ele><time>2026-05-03T14:17:32.507Z</time></trkpt><trkpt lat="44.5948777" lon="9.9238526"><ele>595.5</ele><time>2026-05-03T14:17:34.507Z</time></trkpt><trkpt lat="44.5949098" lon="9.9239521"><ele>597.6666666666666</ele><time>2026-05-03T14:17:35.507Z</time></trkpt><trkpt lat="44.5949411" lon="9.9240499"><ele>599.8333333333333</ele><time>2026-05-03T14:17:36.507Z</time></trkpt><trkpt lat="44.5949395" lon="9.9241703"><ele>602.0</ele><time>2026-05-03T14:17:37.508Z</time></trkpt><trkpt lat="44.5949442" lon="9.9242841"><ele>604.6</ele><time>2026-05-03T14:17:38.507Z</time></trkpt><trkpt lat="44.594955" lon="9.9243894"><ele>607.2</ele><time>2026-05-03T14:17:39.507Z</time></trkpt><trkpt lat="44.5949644" lon="9.9244818"><ele>609.8</ele><time>2026-05-03T14:17:40.507Z</time></trkpt><trkpt lat="44.5950705" lon="9.9246541"><ele>612.4</ele><time>2026-05-03T14:17:42.507Z</time></trkpt><trkpt lat="44.5951158" lon="9.9247509"><ele>615.0</ele><time>2026-05-03T14:17:43.507Z</time></trkpt><trkpt lat="44.595172" lon="9.9248396"><ele>615.0</ele><time>2026-05-03T14:17:44.507Z</time></trkpt><trkpt lat="44.5952045" lon="9.9249519"><ele>615.0</ele><time>2026-05-03T14:17:45.507Z</time></trkpt><trkpt lat="44.5952021" lon="9.9250579"><ele>615.0</ele><time>2026-05-03T14:17:46.507Z</time></trkpt><trkpt lat="44.5952113" lon="9.9251842"><ele>615.0</ele><time>2026-05-03T14:17:47.507Z</time></trkpt><trkpt lat="44.5951783" lon="9.9252971"><ele>615.0</ele><time>2026-05-03T14:17:48.507Z</time></trkpt><trkpt lat="44.5951741" lon="9.9253916"><ele>615.0</ele><time>2026-05-03T14:17:49.507Z</time></trkpt><trkpt lat="44.5952454" lon="9.9255062"><ele>615.4</ele><time>2026-05-03T14:17:51.507Z</time></trkpt><trkpt lat="44.5953351" lon="9.9255291"><ele>615.8</ele><time>2026-05-03T14:17:53.508Z</time></trkpt><trkpt lat="44.5954109" lon="9.9254832"><ele>616.2</ele><time>2026-05-03T14:17:54.507Z</time></trkpt><trkpt lat="44.5954853" lon="9.9254469"><ele>616.6</ele><time>2026-05-03T14:17:55.507Z</time></trkpt><trkpt lat="44.5955949" lon="9.9255116"><ele>617.0</ele><time>2026-05-03T14:17:57.507Z</time></trkpt><trkpt lat="44.5956466" lon="9.9256011"><ele>621.5</ele><time>2026-05-03T14:17:58.507Z</time></trkpt><trkpt lat="44.5956911" lon="9.925688"><ele>626.0</ele><time>2026-05-03T14:17:59.507Z</time></trkpt><trkpt lat="44.5957161" lon="9.9257692"><ele>630.5</ele><time>2026-05-03T14:18:00.507Z</time></trkpt><trkpt lat="44.5958244" lon="9.9258002"><ele>635.0</ele><time>2026-05-03T14:18:02.507Z</time></trkpt><trkpt lat="44.5959038" lon="9.9257801"><ele>639.5</ele><time>2026-05-03T14:18:04.508Z</time></trkpt><trkpt lat="44.5959761" lon="9.9256918"><ele>644.0</ele><time>2026-05-03T14:18:06.507Z</time></trkpt><trkpt lat="44.5960531" lon="9.9255639"><ele>644.0</ele><time>2026-05-03T14:18:08.507Z</time></trkpt><trkpt lat="44.5961324" lon="9.9254548"><ele>644.0</ele><time>2026-05-03T14:18:10.507Z</time></trkpt><trkpt lat="44.596183" lon="9.9253642"><ele>644.0</ele><time>2026-05-03T14:18:11.507Z</time></trkpt><trkpt lat="44.5962407" lon="9.9252618"><ele>644.0</ele><time>2026-05-03T14:18:12.507Z</time></trkpt><trkpt lat="44.5962939" lon="9.9251472"><ele>644.0</ele><time>2026-05-03T14:18:13.507Z</time></trkpt><trkpt lat="44.596339" lon="9.9250411"><ele>645.8000000000001</ele><time>2026-05-03T14:18:14.508Z</time></trkpt><trkpt lat="44.5963812" lon="9.9249265"><ele>647.6</ele><time>2026-05-03T14:18:15.507Z</time></trkpt><trkpt lat="44.596433" lon="9.9248223"><ele>649.4</ele><time>2026-05-03T14:18:16.508Z</time></trkpt><trkpt lat="44.5964913" lon="9.9247223"><ele>651.2</ele><time>2026-05-03T14:18:17.507Z</time></trkpt><trkpt lat="44.5965509" lon="9.9246266"><ele>653.0</ele><time>2026-05-03T14:18:18.508Z</time></trkpt><trkpt lat="44.5966352" lon="9.9245719"><ele>653.0</ele><time>2026-05-03T14:18:19.507Z</time></trkpt><trkpt lat="44.5967251" lon="9.9245071"><ele>653.0</ele><time>2026-05-03T14:18:20.507Z</time></trkpt><trkpt lat="44.5968123" lon="9.9244816"><ele>653.0</ele><time>2026-05-03T14:18:21.507Z</time></trkpt><trkpt lat="44.5968947" lon="9.9244151"><ele>653.0</ele><time>2026-05-03T14:18:22.507Z</time></trkpt><trkpt lat="44.5969619" lon="9.9243102"><ele>653.0</ele><time>2026-05-03T14:18:23.507Z</time></trkpt><trkpt lat="44.5970272" lon="9.9241807"><ele>653.8</ele><time>2026-05-03T14:18:24.509Z</time></trkpt><trkpt lat="44.5970892" lon="9.924064"><ele>654.5999999999999</ele><time>2026-05-03T14:18:25.508Z</time></trkpt><trkpt lat="44.597143" lon="9.9239535"><ele>655.4000000000001</ele><time>2026-05-03T14:18:26.507Z</time></trkpt><trkpt lat="44.5972101" lon="9.9238634"><ele>656.2</ele><time>2026-05-03T14:18:27.507Z</time></trkpt><trkpt lat="44.5972951" lon="9.9238067"><ele>657.0</ele><time>2026-05-03T14:18:28.507Z</time></trkpt><trkpt lat="44.597382" lon="9.9237768"><ele>657.0</ele><time>2026-05-03T14:18:29.507Z</time></trkpt><trkpt lat="44.5975005" lon="9.9237972"><ele>657.0</ele><time>2026-05-03T14:18:30.507Z</time></trkpt><trkpt lat="44.597619" lon="9.9238078"><ele>657.0</ele><time>2026-05-03T14:18:31.507Z</time></trkpt><trkpt lat="44.5977168" lon="9.9238262"><ele>657.0</ele><time>2026-05-03T14:18:32.507Z</time></trkpt><trkpt lat="44.5978424" lon="9.9238625"><ele>657.5</ele><time>2026-05-03T14:18:33.507Z</time></trkpt><trkpt lat="44.5979493" lon="9.9238863"><ele>658.0</ele><time>2026-05-03T14:18:34.507Z</time></trkpt><trkpt lat="44.5980731" lon="9.9238864"><ele>658.5</ele><time>2026-05-03T14:18:35.508Z</time></trkpt><trkpt lat="44.5981945" lon="9.9238714"><ele>659.0</ele><time>2026-05-03T14:18:36.507Z</time></trkpt><trkpt lat="44.598308" lon="9.9238601"><ele>659.0</ele><time>2026-05-03T14:18:37.507Z</time></trkpt><trkpt lat="44.5984185" lon="9.9238567"><ele>659.0</ele><time>2026-05-03T14:18:38.507Z</time></trkpt><trkpt lat="44.5985301" lon="9.9238646"><ele>659.0</ele><time>2026-05-03T14:18:39.507Z</time></trkpt><trkpt lat="44.5986353" lon="9.9238889"><ele>659.0</ele><time>2026-05-03T14:18:40.508Z</time></trkpt><trkpt lat="44.598742" lon="9.923935"><ele>659.0</ele><time>2026-05-03T14:18:41.507Z</time></trkpt><trkpt lat="44.5988418" lon="9.9239987"><ele>659.8000000000001</ele><time>2026-05-03T14:18:42.509Z</time></trkpt><trkpt lat="44.5989405" lon="9.9240663"><ele>660.6</ele><time>2026-05-03T14:18:43.507Z</time></trkpt><trkpt lat="44.5990449" lon="9.9241209"><ele>661.4</ele><time>2026-05-03T14:18:44.507Z</time></trkpt><trkpt lat="44.5991591" lon="9.9241611"><ele>662.2</ele><time>2026-05-03T14:18:45.507Z</time></trkpt><trkpt lat="44.5992689" lon="9.9241658"><ele>663.0</ele><time>2026-05-03T14:18:46.507Z</time></trkpt><trkpt lat="44.599361" lon="9.9241602"><ele>663.0</ele><time>2026-05-03T14:18:47.507Z</time></trkpt><trkpt lat="44.5994416" lon="9.9241731"><ele>663.0</ele><time>2026-05-03T14:18:48.507Z</time></trkpt><trkpt lat="44.5994968" lon="9.9242205"><ele>663.0</ele><time>2026-05-03T14:18:49.507Z</time></trkpt><trkpt lat="44.5995024" lon="9.9243273"><ele>663.0</ele><time>2026-05-03T14:18:51.507Z</time></trkpt><trkpt lat="44.5993973" lon="9.9244228"><ele>663.0</ele><time>2026-05-03T14:18:53.508Z</time></trkpt><trkpt lat="44.5993298" lon="9.9244864"><ele>663.0</ele><time>2026-05-03T14:18:54.507Z</time></trkpt><trkpt lat="44.5992461" lon="9.924559"><ele>666.8</ele><time>2026-05-03T14:18:55.507Z</time></trkpt><trkpt lat="44.5991675" lon="9.9246449"><ele>670.5999999999999</ele><time>2026-05-03T14:18:56.507Z</time></trkpt><trkpt lat="44.5990852" lon="9.9247402"><ele>674.4000000000001</ele><time>2026-05-03T14:18:57.507Z</time></trkpt><trkpt lat="44.5989904" lon="9.9248374"><ele>678.2</ele><time>2026-05-03T14:18:58.507Z</time></trkpt><trkpt lat="44.5988995" lon="9.924948"><ele>682.0</ele><time>2026-05-03T14:18:59.507Z</time></trkpt><trkpt lat="44.5988013" lon="9.9250523"><ele>683.0</ele><time>2026-05-03T14:19:00.507Z</time></trkpt><trkpt lat="44.598707" lon="9.9251599"><ele>684.0</ele><time>2026-05-03T14:19:01.507Z</time></trkpt><trkpt lat="44.5986091" lon="9.9252687"><ele>685.0</ele><time>2026-05-03T14:19:02.507Z</time></trkpt><trkpt lat="44.5985099" lon="9.9253829"><ele>686.0</ele><time>2026-05-03T14:19:03.507Z</time></trkpt><trkpt lat="44.598411" lon="9.9255002"><ele>686.0</ele><time>2026-05-03T14:19:04.507Z</time></trkpt><trkpt lat="44.5983108" lon="9.9256118"><ele>686.0</ele><time>2026-05-03T14:19:05.507Z</time></trkpt><trkpt lat="44.5982109" lon="9.9257267"><ele>686.0</ele><time>2026-05-03T14:19:06.508Z</time></trkpt><trkpt lat="44.5981184" lon="9.925837"><ele>686.0</ele><time>2026-05-03T14:19:07.507Z</time></trkpt><trkpt lat="44.5980359" lon="9.925952"><ele>689.0</ele><time>2026-05-03T14:19:08.507Z</time></trkpt><trkpt lat="44.5979716" lon="9.9260722"><ele>692.0</ele><time>2026-05-03T14:19:09.507Z</time></trkpt><trkpt lat="44.5979282" lon="9.9262138"><ele>695.0</ele><time>2026-05-03T14:19:10.508Z</time></trkpt><trkpt lat="44.5979054" lon="9.9263687"><ele>698.0</ele><time>2026-05-03T14:19:11.507Z</time></trkpt><trkpt lat="44.5978885" lon="9.9265386"><ele>698.0</ele><time>2026-05-03T14:19:12.507Z</time></trkpt><trkpt lat="44.5978707" lon="9.9267174"><ele>698.0</ele><time>2026-05-03T14:19:13.507Z</time></trkpt><trkpt lat="44.5978523" lon="9.9269019"><ele>698.0</ele><time>2026-05-03T14:19:14.507Z</time></trkpt><trkpt lat="44.5978297" lon="9.9270759"><ele>698.0</ele><time>2026-05-03T14:19:15.507Z</time></trkpt><trkpt lat="44.5978096" lon="9.9272419"><ele>698.75</ele><time>2026-05-03T14:19:16.508Z</time></trkpt><trkpt lat="44.5977958" lon="9.9274018"><ele>699.5</ele><time>2026-05-03T14:19:17.507Z</time></trkpt><trkpt lat="44.5977963" lon="9.9275546"><ele>700.25</ele><time>2026-05-03T14:19:18.508Z</time></trkpt><trkpt lat="44.597841" lon="9.9276983"><ele>701.0</ele><time>2026-05-03T14:19:19.507Z</time></trkpt><trkpt lat="44.5979028" lon="9.9278387"><ele>701.0</ele><time>2026-05-03T14:19:20.508Z</time></trkpt><trkpt lat="44.5979734" lon="9.9279816"><ele>701.0</ele><time>2026-05-03T14:19:21.507Z</time></trkpt><trkpt lat="44.5980376" lon="9.9281375"><ele>701.0</ele><time>2026-05-03T14:19:22.509Z</time></trkpt><trkpt lat="44.5980924" lon="9.9283063"><ele>701.0</ele><time>2026-05-03T14:19:23.507Z</time></trkpt><trkpt lat="44.5981292" lon="9.928482"><ele>700.0</ele><time>2026-05-03T14:19:24.507Z</time></trkpt><trkpt lat="44.5981519" lon="9.9286607"><ele>699.0</ele><time>2026-05-03T14:19:25.507Z</time></trkpt><trkpt lat="44.598162" lon="9.9288408"><ele>698.0</ele><time>2026-05-03T14:19:26.507Z</time></trkpt><trkpt lat="44.5981671" lon="9.9290197"><ele>697.0</ele><time>2026-05-03T14:19:27.507Z</time></trkpt><trkpt lat="44.5981782" lon="9.9292031"><ele>695.0</ele><time>2026-05-03T14:19:28.508Z</time></trkpt><trkpt lat="44.598192" lon="9.9293827"><ele>693.0</ele><time>2026-05-03T14:19:29.507Z</time></trkpt><trkpt lat="44.5982101" lon="9.9295469"><ele>691.0</ele><time>2026-05-03T14:19:30.507Z</time></trkpt><trkpt lat="44.5982542" lon="9.9296975"><ele>689.0</ele><time>2026-05-03T14:19:31.507Z</time></trkpt><trkpt lat="44.5983114" lon="9.9298454"><ele>689.0</ele><time>2026-05-03T14:19:32.507Z</time></trkpt><trkpt lat="44.5983885" lon="9.9299884"><ele>689.0</ele><time>2026-05-03T14:19:33.507Z</time></trkpt><trkpt lat="44.5984832" lon="9.9301339"><ele>689.0</ele><time>2026-05-03T14:19:34.508Z</time></trkpt><trkpt lat="44.5985736" lon="9.9302768"><ele>689.0</ele><time>2026-05-03T14:19:35.507Z</time></trkpt><trkpt lat="44.5986627" lon="9.9304224"><ele>689.25</ele><time>2026-05-03T14:19:36.508Z</time></trkpt><trkpt lat="44.5987534" lon="9.9305615"><ele>689.5</ele><time>2026-05-03T14:19:37.507Z</time></trkpt><trkpt lat="44.5988582" lon="9.9306885"><ele>689.75</ele><time>2026-05-03T14:19:38.507Z</time></trkpt><trkpt lat="44.5989718" lon="9.9307948"><ele>690.0</ele><time>2026-05-03T14:19:39.507Z</time></trkpt><trkpt lat="44.599086" lon="9.9308918"><ele>684.25</ele><time>2026-05-03T14:19:40.507Z</time></trkpt><trkpt lat="44.5991982" lon="9.9309896"><ele>678.5</ele><time>2026-05-03T14:19:41.507Z</time></trkpt><trkpt lat="44.5993131" lon="9.9310994"><ele>672.75</ele><time>2026-05-03T14:19:42.507Z</time></trkpt><trkpt lat="44.5993813" lon="9.931223"><ele>667.0</ele><time>2026-05-03T14:19:43.508Z</time></trkpt><trkpt lat="44.5994545" lon="9.9313694"><ele>666.25</ele><time>2026-05-03T14:19:44.507Z</time></trkpt><trkpt lat="44.5995188" lon="9.9315061"><ele>665.5</ele><time>2026-05-03T14:19:45.507Z</time></trkpt><trkpt lat="44.59962" lon="9.9316577"><ele>664.75</ele><time>2026-05-03T14:19:46.507Z</time></trkpt><trkpt lat="44.5997161" lon="9.9317855"><ele>664.0</ele><time>2026-05-03T14:19:47.508Z</time></trkpt><trkpt lat="44.5998193" lon="9.9318953"><ele>664.0</ele><time>2026-05-03T14:19:48.507Z</time></trkpt><trkpt lat="44.5999365" lon="9.9319812"><ele>664.0</ele><time>2026-05-03T14:19:49.507Z</time></trkpt><trkpt lat="44.6000747" lon="9.9320409"><ele>664.0</ele><time>2026-05-03T14:19:50.507Z</time></trkpt><trkpt lat="44.6002093" lon="9.9320921"><ele>664.0</ele><time>2026-05-03T14:19:51.507Z</time></trkpt><trkpt lat="44.6003453" lon="9.9321341"><ele>666.5</ele><time>2026-05-03T14:19:52.508Z</time></trkpt><trkpt lat="44.6004724" lon="9.932184"><ele>669.0</ele><time>2026-05-03T14:19:53.508Z</time></trkpt><trkpt lat="44.600588" lon="9.9322533"><ele>671.5</ele><time>2026-05-03T14:19:54.508Z</time></trkpt><trkpt lat="44.6006862" lon="9.9323585"><ele>674.0</ele><time>2026-05-03T14:19:55.508Z</time></trkpt><trkpt lat="44.6007785" lon="9.9324499"><ele>674.0</ele><time>2026-05-03T14:19:56.507Z</time></trkpt><trkpt lat="44.6008968" lon="9.9325113"><ele>674.0</ele><time>2026-05-03T14:19:57.508Z</time></trkpt><trkpt lat="44.601012" lon="9.9325763"><ele>674.0</ele><time>2026-05-03T14:19:58.507Z</time></trkpt><trkpt lat="44.6011597" lon="9.9325824"><ele>674.0</ele><time>2026-05-03T14:19:59.507Z</time></trkpt><trkpt lat="44.6012931" lon="9.932628"><ele>671.25</ele><time>2026-05-03T14:20:00.507Z</time></trkpt><trkpt lat="44.6014199" lon="9.9327063"><ele>668.5</ele><time>2026-05-03T14:20:01.507Z</time></trkpt><trkpt lat="44.6015436" lon="9.9328"><ele>665.75</ele><time>2026-05-03T14:20:02.507Z</time></trkpt><trkpt lat="44.6016479" lon="9.9329472"><ele>663.0</ele><time>2026-05-03T14:20:03.507Z</time></trkpt><trkpt lat="44.6017646" lon="9.9330676"><ele>663.0</ele><time>2026-05-03T14:20:04.508Z</time></trkpt><trkpt lat="44.6018843" lon="9.9331936"><ele>663.0</ele><time>2026-05-03T14:20:05.507Z</time></trkpt><trkpt lat="44.6020006" lon="9.9333062"><ele>663.0</ele><time>2026-05-03T14:20:06.507Z</time></trkpt><trkpt lat="44.6021238" lon="9.9334196"><ele>663.0</ele><time>2026-05-03T14:20:07.507Z</time></trkpt><trkpt lat="44.6022468" lon="9.9335281"><ele>663.5</ele><time>2026-05-03T14:20:08.507Z</time></trkpt><trkpt lat="44.6023579" lon="9.9336501"><ele>664.0</ele><time>2026-05-03T14:20:09.508Z</time></trkpt><trkpt lat="44.6024597" lon="9.9337874"><ele>664.5</ele><time>2026-05-03T14:20:10.507Z</time></trkpt><trkpt lat="44.602549" lon="9.9339415"><ele>665.0</ele><time>2026-05-03T14:20:11.508Z</time></trkpt><trkpt lat="44.6026339" lon="9.9340941"><ele>666.0</ele><time>2026-05-03T14:20:12.507Z</time></trkpt><trkpt lat="44.6027232" lon="9.934251"><ele>667.0</ele><time>2026-05-03T14:20:13.508Z</time></trkpt><trkpt lat="44.6028076" lon="9.9344063"><ele>668.0</ele><time>2026-05-03T14:20:14.507Z</time></trkpt><trkpt lat="44.6028887" lon="9.9345723"><ele>669.0</ele><time>2026-05-03T14:20:15.507Z</time></trkpt><trkpt lat="44.6029692" lon="9.9347319"><ele>669.0</ele><time>2026-05-03T14:20:16.507Z</time></trkpt><trkpt lat="44.6030357" lon="9.9349075"><ele>669.0</ele><time>2026-05-03T14:20:17.507Z</time></trkpt><trkpt lat="44.6031009" lon="9.9350601"><ele>669.0</ele><time>2026-05-03T14:20:18.507Z</time></trkpt><trkpt lat="44.6031728" lon="9.9352024"><ele>669.0</ele><time>2026-05-03T14:20:19.507Z</time></trkpt><trkpt lat="44.6032661" lon="9.9352995"><ele>667.4000000000001</ele><time>2026-05-03T14:20:20.507Z</time></trkpt><trkpt lat="44.60336" lon="9.9353643"><ele>665.8</ele><time>2026-05-03T14:20:21.508Z</time></trkpt><trkpt lat="44.603454" lon="9.9353721"><ele>664.2</ele><time>2026-05-03T14:20:22.508Z</time></trkpt><trkpt lat="44.603551" lon="9.935337"><ele>662.5999999999999</ele><time>2026-05-03T14:20:23.507Z</time></trkpt><trkpt lat="44.6036588" lon="9.9352861"><ele>661.0</ele><time>2026-05-03T14:20:24.508Z</time></trkpt><trkpt lat="44.6037718" lon="9.9352058"><ele>660.0</ele><time>2026-05-03T14:20:25.508Z</time></trkpt><trkpt lat="44.6038958" lon="9.9351427"><ele>659.0</ele><time>2026-05-03T14:20:26.507Z</time></trkpt><trkpt lat="44.6040158" lon="9.9350864"><ele>658.0</ele><time>2026-05-03T14:20:27.507Z</time></trkpt><trkpt lat="44.6041411" lon="9.93506"><ele>657.0</ele><time>2026-05-03T14:20:28.507Z</time></trkpt><trkpt lat="44.6042642" lon="9.9351012"><ele>657.0</ele><time>2026-05-03T14:20:29.507Z</time></trkpt><trkpt lat="44.6043934" lon="9.9351569"><ele>657.0</ele><time>2026-05-03T14:20:30.507Z</time></trkpt><trkpt lat="44.6044793" lon="9.9353205"><ele>657.0</ele><time>2026-05-03T14:20:31.507Z</time></trkpt><trkpt lat="44.6045691" lon="9.9354715"><ele>657.0</ele><time>2026-05-03T14:20:32.507Z</time></trkpt><trkpt lat="44.6046592" lon="9.9356298"><ele>658.0</ele><time>2026-05-03T14:20:33.506Z</time></trkpt><trkpt lat="44.6047489" lon="9.9357899"><ele>659.0</ele><time>2026-05-03T14:20:34.506Z</time></trkpt><trkpt lat="44.6048332" lon="9.9359469"><ele>660.0</ele><time>2026-05-03T14:20:35.506Z</time></trkpt><trkpt lat="44.6049088" lon="9.9360959"><ele>661.0</ele><time>2026-05-03T14:20:36.506Z</time></trkpt><trkpt lat="44.6049775" lon="9.9362515"><ele>661.0</ele><time>2026-05-03T14:20:37.506Z</time></trkpt><trkpt lat="44.6050371" lon="9.9364046"><ele>661.0</ele><time>2026-05-03T14:20:38.506Z</time></trkpt><trkpt lat="44.6050799" lon="9.93654"><ele>661.0</ele><time>2026-05-03T14:20:39.506Z</time></trkpt><trkpt lat="44.6051148" lon="9.9366495"><ele>661.0</ele><time>2026-05-03T14:20:40.506Z</time></trkpt><trkpt lat="44.605157" lon="9.9367273"><ele>661.0</ele><time>2026-05-03T14:20:41.506Z</time></trkpt><trkpt lat="44.6052464" lon="9.936827"><ele>662.8333333333334</ele><time>2026-05-03T14:20:43.506Z</time></trkpt><trkpt lat="44.6053318" lon="9.9368838"><ele>664.6666666666667</ele><time>2026-05-03T14:20:44.506Z</time></trkpt><trkpt lat="44.6053993" lon="9.9369405"><ele>666.5</ele><time>2026-05-03T14:20:45.506Z</time></trkpt><trkpt lat="44.6054977" lon="9.9370099"><ele>668.3333333333334</ele><time>2026-05-03T14:20:46.507Z</time></trkpt><trkpt lat="44.6055715" lon="9.9370906"><ele>670.1666666666666</ele><time>2026-05-03T14:20:47.506Z</time></trkpt><trkpt lat="44.6056275" lon="9.9371518"><ele>672.0</ele><time>2026-05-03T14:20:48.506Z</time></trkpt><trkpt lat="44.6056759" lon="9.9372253"><ele>672.0</ele><time>2026-05-03T14:20:49.506Z</time></trkpt><trkpt lat="44.6057288" lon="9.9372948"><ele>672.0</ele><time>2026-05-03T14:20:50.506Z</time></trkpt><trkpt lat="44.6057596" lon="9.9373794"><ele>672.0</ele><time>2026-05-03T14:20:51.506Z</time></trkpt><trkpt lat="44.6058445" lon="9.937481"><ele>672.0</ele><time>2026-05-03T14:20:53.506Z</time></trkpt><trkpt lat="44.6059464" lon="9.937531"><ele>672.0</ele><time>2026-05-03T14:20:55.506Z</time></trkpt><trkpt lat="44.606056" lon="9.9375104"><ele>672.0</ele><time>2026-05-03T14:20:57.506Z</time></trkpt><trkpt lat="44.6061196" lon="9.9375095"><ele>672.0</ele><time>2026-05-03T14:20:58.506Z</time></trkpt><trkpt lat="44.6062666" lon="9.9374431"><ele>672.0</ele><time>2026-05-03T14:21:00.506Z</time></trkpt><trkpt lat="44.6063504" lon="9.9374757"><ele>672.0</ele><time>2026-05-03T14:21:01.506Z</time></trkpt><trkpt lat="44.6064566" lon="9.9374582"><ele>672.0</ele><time>2026-05-03T14:21:03.507Z</time></trkpt><trkpt lat="44.6065295" lon="9.9374724"><ele>673.3333333333334</ele><time>2026-05-03T14:21:05.506Z</time></trkpt><trkpt lat="44.606599" lon="9.9374632"><ele>674.6666666666666</ele><time>2026-05-03T14:21:12.506Z</time></trkpt><trkpt lat="44.6066648" lon="9.9374945"><ele>676.0</ele><time>2026-05-03T14:21:14.506Z</time></trkpt><trkpt lat="44.6067564" lon="9.9375442"><ele>677.3333333333333</ele><time>2026-05-03T14:21:17.506Z</time></trkpt><trkpt lat="44.6068248" lon="9.937572"><ele>678.6666666666666</ele><time>2026-05-03T14:21:19.507Z</time></trkpt><trkpt lat="44.6069022" lon="9.9376157"><ele>680.0</ele><time>2026-05-03T14:21:21.506Z</time></trkpt><trkpt lat="44.6069573" lon="9.9377024"><ele>678.6666666666666</ele><time>2026-05-03T14:21:24.506Z</time></trkpt><trkpt lat="44.6069859" lon="9.9377866"><ele>677.3333333333333</ele><time>2026-05-03T14:21:26.506Z</time></trkpt><trkpt lat="44.6070245" lon="9.9378761"><ele>676.0</ele><time>2026-05-03T14:21:29.506Z</time></trkpt><trkpt lat="44.6071152" lon="9.9379126"><ele>674.6666666666666</ele><time>2026-05-03T14:21:32.506Z</time></trkpt><trkpt lat="44.6072318" lon="9.937837"><ele>673.3333333333334</ele><time>2026-05-03T14:21:34.506Z</time></trkpt><trkpt lat="44.6072891" lon="9.9377777"><ele>672.0</ele><time>2026-05-03T14:21:35.506Z</time></trkpt><trkpt lat="44.6073488" lon="9.9377364"><ele>672.0</ele><time>2026-05-03T14:21:36.506Z</time></trkpt><trkpt lat="44.607416" lon="9.9377116"><ele>672.0</ele><time>2026-05-03T14:21:37.506Z</time></trkpt><trkpt lat="44.607481" lon="9.9376857"><ele>672.0</ele><time>2026-05-03T14:21:38.506Z</time></trkpt><trkpt lat="44.6075409" lon="9.937649"><ele>672.0</ele><time>2026-05-03T14:21:39.506Z</time></trkpt><trkpt lat="44.6076569" lon="9.9376288"><ele>672.0</ele><time>2026-05-03T14:21:41.506Z</time></trkpt><trkpt lat="44.6077795" lon="9.9376514"><ele>672.0</ele><time>2026-05-03T14:21:43.506Z</time></trkpt><trkpt lat="44.6078658" lon="9.9377573"><ele>673.5</ele><time>2026-05-03T14:21:45.507Z</time></trkpt><trkpt lat="44.6079022" lon="9.9378321"><ele>675.0</ele><time>2026-05-03T14:21:46.506Z</time></trkpt><trkpt lat="44.6079823" lon="9.9379531"><ele>676.5</ele><time>2026-05-03T14:21:48.507Z</time></trkpt><trkpt lat="44.6080385" lon="9.9380165"><ele>678.0</ele><time>2026-05-03T14:21:49.507Z</time></trkpt><trkpt lat="44.6080919" lon="9.9380697"><ele>679.5</ele><time>2026-05-03T14:21:50.506Z</time></trkpt><trkpt lat="44.6081492" lon="9.9381064"><ele>681.0</ele><time>2026-05-03T14:21:51.506Z</time></trkpt><trkpt lat="44.6082166" lon="9.9381333"><ele>681.0000000000001</ele><time>2026-05-03T14:21:52.506Z</time></trkpt><trkpt lat="44.6082857" lon="9.9381612"><ele>681.0</ele><time>2026-05-03T14:21:53.506Z</time></trkpt><trkpt lat="44.6083566" lon="9.9381874"><ele>681.0</ele><time>2026-05-03T14:21:54.506Z</time></trkpt><trkpt lat="44.6084227" lon="9.9382357"><ele>681.0</ele><time>2026-05-03T14:21:55.507Z</time></trkpt><trkpt lat="44.6084857" lon="9.938278"><ele>681.0</ele><time>2026-05-03T14:21:56.506Z</time></trkpt><trkpt lat="44.6085494" lon="9.9383343"><ele>681.0000000000001</ele><time>2026-05-03T14:21:57.506Z</time></trkpt><trkpt lat="44.6086114" lon="9.9383732"><ele>681.0</ele><time>2026-05-03T14:21:58.506Z</time></trkpt><trkpt lat="44.6086742" lon="9.9384017"><ele>679.0</ele><time>2026-05-03T14:21:59.506Z</time></trkpt><trkpt lat="44.6087395" lon="9.9384492"><ele>677.0</ele><time>2026-05-03T14:22:00.507Z</time></trkpt><trkpt lat="44.608804" lon="9.9384908"><ele>675.0</ele><time>2026-05-03T14:22:01.506Z</time></trkpt><trkpt lat="44.6089292" lon="9.9385408"><ele>673.0</ele><time>2026-05-03T14:22:03.506Z</time></trkpt><trkpt lat="44.6090116" lon="9.9385319"><ele>671.0</ele><time>2026-05-03T14:22:04.506Z</time></trkpt><trkpt lat="44.6090873" lon="9.9385436"><ele>669.0</ele><time>2026-05-03T14:22:05.506Z</time></trkpt><trkpt lat="44.6091605" lon="9.9385604"><ele>669.0</ele><time>2026-05-03T14:22:06.506Z</time></trkpt><trkpt lat="44.6092387" lon="9.9385847"><ele>669.0</ele><time>2026-05-03T14:22:07.506Z</time></trkpt><trkpt lat="44.6093037" lon="9.9386436"><ele>669.0</ele><time>2026-05-03T14:22:08.506Z</time></trkpt><trkpt lat="44.609364" lon="9.9387106"><ele>669.0</ele><time>2026-05-03T14:22:09.506Z</time></trkpt><trkpt lat="44.609428" lon="9.9387679"><ele>669.0</ele><time>2026-05-03T14:22:10.507Z</time></trkpt><trkpt lat="44.609491" lon="9.9388108"><ele>669.0</ele><time>2026-05-03T14:22:11.506Z</time></trkpt><trkpt lat="44.6095582" lon="9.9388445"><ele>668.5</ele><time>2026-05-03T14:22:12.506Z</time></trkpt><trkpt lat="44.6096342" lon="9.9388424"><ele>668.0</ele><time>2026-05-03T14:22:13.506Z</time></trkpt><trkpt lat="44.6097065" lon="9.9388334"><ele>667.5</ele><time>2026-05-03T14:22:14.506Z</time></trkpt><trkpt lat="44.6097766" lon="9.9387934"><ele>667.0</ele><time>2026-05-03T14:22:15.507Z</time></trkpt><trkpt lat="44.6098488" lon="9.9387395"><ele>666.5</ele><time>2026-05-03T14:22:16.506Z</time></trkpt><trkpt lat="44.6099275" lon="9.9386952"><ele>666.0</ele><time>2026-05-03T14:22:17.507Z</time></trkpt><trkpt lat="44.6100051" lon="9.938643"><ele>666.0</ele><time>2026-05-03T14:22:18.506Z</time></trkpt><trkpt lat="44.6100729" lon="9.938592"><ele>666.0</ele><time>2026-05-03T14:22:19.506Z</time></trkpt><trkpt lat="44.6101524" lon="9.9384801"><ele>666.0</ele><time>2026-05-03T14:22:21.506Z</time></trkpt><trkpt lat="44.6102018" lon="9.9384177"><ele>666.0</ele><time>2026-05-03T14:22:22.507Z</time></trkpt><trkpt lat="44.6102625" lon="9.9383873"><ele>666.0</ele><time>2026-05-03T14:22:23.507Z</time></trkpt><trkpt lat="44.6103826" lon="9.9383083"><ele>666.8571428571429</ele><time>2026-05-03T14:22:25.506Z</time></trkpt><trkpt lat="44.6104542" lon="9.9382782"><ele>667.7142857142857</ele><time>2026-05-03T14:22:26.506Z</time></trkpt><trkpt lat="44.6105266" lon="9.9382612"><ele>668.5714285714286</ele><time>2026-05-03T14:22:27.506Z</time></trkpt><trkpt lat="44.6105937" lon="9.9382591"><ele>669.4285714285714</ele><time>2026-05-03T14:22:28.506Z</time></trkpt><trkpt lat="44.6106516" lon="9.9382233"><ele>670.2857142857142</ele><time>2026-05-03T14:22:29.506Z</time></trkpt><trkpt lat="44.6107024" lon="9.938166"><ele>671.1428571428571</ele><time>2026-05-03T14:22:30.507Z</time></trkpt><trkpt lat="44.6107601" lon="9.9381095"><ele>672.0</ele><time>2026-05-03T14:22:31.506Z</time></trkpt><trkpt lat="44.6108025" lon="9.9380037"><ele>672.0</ele><time>2026-05-03T14:22:32.506Z</time></trkpt><trkpt lat="44.6108614" lon="9.9379111"><ele>672.0</ele><time>2026-05-03T14:22:33.508Z</time></trkpt><trkpt lat="44.6109354" lon="9.9378493"><ele>672.0</ele><time>2026-05-03T14:22:34.506Z</time></trkpt><trkpt lat="44.6110088" lon="9.937791"><ele>672.0</ele><time>2026-05-03T14:22:35.506Z</time></trkpt><trkpt lat="44.6110561" lon="9.9377197"><ele>672.0</ele><time>2026-05-03T14:22:36.506Z</time></trkpt><trkpt lat="44.6110996" lon="9.9376366"><ele>672.0</ele><time>2026-05-03T14:22:37.506Z</time></trkpt><trkpt lat="44.6111592" lon="9.9375891"><ele>672.6666666666666</ele><time>2026-05-03T14:22:38.506Z</time></trkpt><trkpt lat="44.6112128" lon="9.937536"><ele>673.3333333333334</ele><time>2026-05-03T14:22:39.506Z</time></trkpt><trkpt lat="44.6112697" lon="9.9374903"><ele>674.0</ele><time>2026-05-03T14:22:40.506Z</time></trkpt><trkpt lat="44.6113949" lon="9.9374625"><ele>674.6666666666667</ele><time>2026-05-03T14:22:42.506Z</time></trkpt><trkpt lat="44.6115098" lon="9.9374328"><ele>675.3333333333334</ele><time>2026-05-03T14:22:44.506Z</time></trkpt><trkpt lat="44.6115708" lon="9.9374085"><ele>676.0</ele><time>2026-05-03T14:22:45.506Z</time></trkpt><trkpt lat="44.6116571" lon="9.9373423"><ele>676.0</ele><time>2026-05-03T14:22:47.506Z</time></trkpt><trkpt lat="44.6117523" lon="9.937304"><ele>676.0</ele><time>2026-05-03T14:22:49.507Z</time></trkpt><trkpt lat="44.611813" lon="9.9372802"><ele>676.0</ele><time>2026-05-03T14:22:51.508Z</time></trkpt><trkpt lat="44.6118853" lon="9.937238"><ele>676.0</ele><time>2026-05-03T14:22:54.506Z</time></trkpt><trkpt lat="44.6119703" lon="9.9371883"><ele>676.0</ele><time>2026-05-03T14:22:56.506Z</time></trkpt><trkpt lat="44.6120352" lon="9.9372241"><ele>676.0</ele><time>2026-05-03T14:22:58.506Z</time></trkpt><trkpt lat="44.6120874" lon="9.9372838"><ele>677.0</ele><time>2026-05-03T14:23:00.506Z</time></trkpt><trkpt lat="44.6121844" lon="9.9372797"><ele>678.0</ele><time>2026-05-03T14:23:02.507Z</time></trkpt><trkpt lat="44.6122513" lon="9.9372406"><ele>679.0</ele><time>2026-05-03T14:23:04.506Z</time></trkpt><trkpt lat="44.6123221" lon="9.9371732"><ele>680.0</ele><time>2026-05-03T14:23:07.506Z</time></trkpt><trkpt lat="44.6124104" lon="9.9371739"><ele>681.0</ele><time>2026-05-03T14:23:09.506Z</time></trkpt><trkpt lat="44.6125229" lon="9.9372565"><ele>681.0</ele><time>2026-05-03T14:23:11.506Z</time></trkpt><trkpt lat="44.6125852" lon="9.9373088"><ele>681.0</ele><time>2026-05-03T14:23:12.506Z</time></trkpt><trkpt lat="44.6126931" lon="9.937392"><ele>681.0</ele><time>2026-05-03T14:23:14.506Z</time></trkpt><trkpt lat="44.612788" lon="9.9374001"><ele>681.0</ele><time>2026-05-03T14:23:16.507Z</time></trkpt><trkpt lat="44.6128593" lon="9.9373717"><ele>681.0</ele><time>2026-05-03T14:23:17.506Z</time></trkpt><trkpt lat="44.6129276" lon="9.9373484"><ele>681.0</ele><time>2026-05-03T14:23:18.507Z</time></trkpt><trkpt lat="44.6130002" lon="9.9373308"><ele>682.3333333333334</ele><time>2026-05-03T14:23:19.506Z</time></trkpt><trkpt lat="44.6130773" lon="9.9373199"><ele>683.6666666666666</ele><time>2026-05-03T14:23:20.507Z</time></trkpt><trkpt lat="44.6131422" lon="9.9372976"><ele>685.0</ele><time>2026-05-03T14:23:21.506Z</time></trkpt><trkpt lat="44.6132515" lon="9.937196"><ele>686.3333333333333</ele><time>2026-05-03T14:23:23.507Z</time></trkpt><trkpt lat="44.6133129" lon="9.9371326"><ele>687.6666666666666</ele><time>2026-05-03T14:23:24.506Z</time></trkpt><trkpt lat="44.6133796" lon="9.9370996"><ele>689.0</ele><time>2026-05-03T14:23:25.506Z</time></trkpt><trkpt lat="44.6134465" lon="9.9370728"><ele>689.0</ele><time>2026-05-03T14:23:26.506Z</time></trkpt><trkpt lat="44.6135274" lon="9.9370519"><ele>689.0</ele><time>2026-05-03T14:23:27.507Z</time></trkpt><trkpt lat="44.6135924" lon="9.93707"><ele>689.0</ele><time>2026-05-03T14:23:28.507Z</time></trkpt><trkpt lat="44.6136773" lon="9.9371082"><ele>689.0</ele><time>2026-05-03T14:23:29.506Z</time></trkpt><trkpt lat="44.6137406" lon="9.9371415"><ele>689.0</ele><time>2026-05-03T14:23:30.506Z</time></trkpt><trkpt lat="44.6137991" lon="9.9371833"><ele>689.0</ele><time>2026-05-03T14:23:31.506Z</time></trkpt><trkpt lat="44.6138468" lon="9.9372775"><ele>690.0</ele><time>2026-05-03T14:23:32.506Z</time></trkpt><trkpt lat="44.6139143" lon="9.9373562"><ele>691.0</ele><time>2026-05-03T14:23:33.506Z</time></trkpt><trkpt lat="44.6139837" lon="9.9374136"><ele>692.0</ele><time>2026-05-03T14:23:34.507Z</time></trkpt><trkpt lat="44.6140615" lon="9.937465"><ele>693.0</ele><time>2026-05-03T14:23:35.507Z</time></trkpt><trkpt lat="44.6141384" lon="9.9375068"><ele>694.0</ele><time>2026-05-03T14:23:36.506Z</time></trkpt><trkpt lat="44.6142116" lon="9.9375516"><ele>695.0</ele><time>2026-05-03T14:23:37.506Z</time></trkpt><trkpt lat="44.6142827" lon="9.937577"><ele>695.0</ele><time>2026-05-03T14:23:38.506Z</time></trkpt><trkpt lat="44.6143594" lon="9.9376053"><ele>695.0</ele><time>2026-05-03T14:23:39.507Z</time></trkpt><trkpt lat="44.6144247" lon="9.9376355"><ele>695.0</ele><time>2026-05-03T14:23:40.506Z</time></trkpt><trkpt lat="44.6145349" lon="9.9376238"><ele>695.0</ele><time>2026-05-03T14:23:42.506Z</time></trkpt><trkpt lat="44.6146453" lon="9.9376937"><ele>695.0</ele><time>2026-05-03T14:23:44.506Z</time></trkpt><trkpt lat="44.6147125" lon="9.9377312"><ele>697.8333333333333</ele><time>2026-05-03T14:23:45.506Z</time></trkpt><trkpt lat="44.6147702" lon="9.937809"><ele>700.6666666666666</ele><time>2026-05-03T14:23:46.506Z</time></trkpt><trkpt lat="44.6148341" lon="9.9378733"><ele>703.5</ele><time>2026-05-03T14:23:47.506Z</time></trkpt><trkpt lat="44.6148805" lon="9.9379357"><ele>706.3333333333334</ele><time>2026-05-03T14:23:48.506Z</time></trkpt><trkpt lat="44.6149214" lon="9.9380033"><ele>709.1666666666667</ele><time>2026-05-03T14:23:49.507Z</time></trkpt><trkpt lat="44.6149353" lon="9.9381326"><ele>712.0</ele><time>2026-05-03T14:23:50.506Z</time></trkpt><trkpt lat="44.6149782" lon="9.9382434"><ele>712.0</ele><time>2026-05-03T14:23:51.506Z</time></trkpt><trkpt lat="44.6150188" lon="9.9383512"><ele>712.0</ele><time>2026-05-03T14:23:52.506Z</time></trkpt><trkpt lat="44.6150838" lon="9.9384337"><ele>712.0</ele><time>2026-05-03T14:23:53.506Z</time></trkpt><trkpt lat="44.6151649" lon="9.9384908"><ele>712.0</ele><time>2026-05-03T14:23:54.506Z</time></trkpt><trkpt lat="44.6152491" lon="9.9385102"><ele>712.0</ele><time>2026-05-03T14:23:55.506Z</time></trkpt><trkpt lat="44.6153541" lon="9.9385087"><ele>712.4000000000001</ele><time>2026-05-03T14:23:56.507Z</time></trkpt><trkpt lat="44.6154558" lon="9.9385001"><ele>712.8000000000001</ele><time>2026-05-03T14:23:57.506Z</time></trkpt><trkpt lat="44.6155576" lon="9.9384925"><ele>713.2</ele><time>2026-05-03T14:23:58.506Z</time></trkpt><trkpt lat="44.6156364" lon="9.9384943"><ele>713.6</ele><time>2026-05-03T14:23:59.506Z</time></trkpt><trkpt lat="44.6156823" lon="9.9386191"><ele>714.0</ele><time>2026-05-03T14:24:00.506Z</time></trkpt><trkpt lat="44.6157409" lon="9.938706"><ele>714.0</ele><time>2026-05-03T14:24:01.507Z</time></trkpt><trkpt lat="44.6158172" lon="9.9387642"><ele>714.0</ele><time>2026-05-03T14:24:02.506Z</time></trkpt><trkpt lat="44.6158886" lon="9.938836"><ele>714.0</ele><time>2026-05-03T14:24:03.506Z</time></trkpt><trkpt lat="44.6159614" lon="9.9389854"><ele>714.0</ele><time>2026-05-03T14:24:05.506Z</time></trkpt><trkpt lat="44.6160025" lon="9.9390783"><ele>714.0</ele><time>2026-05-03T14:24:06.506Z</time></trkpt><trkpt lat="44.6160506" lon="9.9391469"><ele>714.0</ele><time>2026-05-03T14:24:07.506Z</time></trkpt><trkpt lat="44.6161111" lon="9.9392067"><ele>714.0</ele><time>2026-05-03T14:24:08.506Z</time></trkpt><trkpt lat="44.6161836" lon="9.9392724"><ele>714.0</ele><time>2026-05-03T14:24:09.506Z</time></trkpt><trkpt lat="44.6162472" lon="9.9393301"><ele>714.0</ele><time>2026-05-03T14:24:10.506Z</time></trkpt><trkpt lat="44.6163028" lon="9.9393803"><ele>714.0</ele><time>2026-05-03T14:24:11.506Z</time></trkpt><trkpt lat="44.616325" lon="9.9394775"><ele>714.0</ele><time>2026-05-03T14:24:13.508Z</time></trkpt><trkpt lat="44.6162629" lon="9.9396228"><ele>714.4000000000001</ele><time>2026-05-03T14:24:15.506Z</time></trkpt><trkpt lat="44.6162226" lon="9.9397277"><ele>714.8</ele><time>2026-05-03T14:24:16.508Z</time></trkpt><trkpt lat="44.6161951" lon="9.939848"><ele>715.2</ele><time>2026-05-03T14:24:17.506Z</time></trkpt><trkpt lat="44.6161726" lon="9.9399795"><ele>715.5999999999999</ele><time>2026-05-03T14:24:18.506Z</time></trkpt><trkpt lat="44.6161462" lon="9.9401225"><ele>716.0</ele><time>2026-05-03T14:24:19.506Z</time></trkpt><trkpt lat="44.616114" lon="9.9402661"><ele>713.1999999999999</ele><time>2026-05-03T14:24:20.506Z</time></trkpt><trkpt lat="44.6160758" lon="9.940407"><ele>710.4</ele><time>2026-05-03T14:24:21.506Z</time></trkpt><trkpt lat="44.6160438" lon="9.9405381"><ele>707.6</ele><time>2026-05-03T14:24:22.506Z</time></trkpt><trkpt lat="44.6160134" lon="9.9406633"><ele>704.8</ele><time>2026-05-03T14:24:23.506Z</time></trkpt><trkpt lat="44.615969" lon="9.9407648"><ele>702.0</ele><time>2026-05-03T14:24:24.507Z</time></trkpt><trkpt lat="44.6159244" lon="9.9408495"><ele>701.3333333333334</ele><time>2026-05-03T14:24:25.506Z</time></trkpt><trkpt lat="44.6158802" lon="9.9409753"><ele>700.6666666666666</ele><time>2026-05-03T14:24:27.506Z</time></trkpt><trkpt lat="44.6157808" lon="9.9410035"><ele>700.0</ele><time>2026-05-03T14:24:29.506Z</time></trkpt><trkpt lat="44.6157123" lon="9.9410275"><ele>699.3333333333333</ele><time>2026-05-03T14:24:30.506Z</time></trkpt><trkpt lat="44.6156481" lon="9.9410454"><ele>698.6666666666666</ele><time>2026-05-03T14:24:31.506Z</time></trkpt><trkpt lat="44.6155392" lon="9.941066"><ele>698.0</ele><time>2026-05-03T14:24:33.506Z</time></trkpt><trkpt lat="44.6154606" lon="9.9411171"><ele>698.0</ele><time>2026-05-03T14:24:34.506Z</time></trkpt><trkpt lat="44.615394" lon="9.9411398"><ele>698.0</ele><time>2026-05-03T14:24:35.506Z</time></trkpt><trkpt lat="44.6153208" lon="9.9411517"><ele>698.0</ele><time>2026-05-03T14:24:36.506Z</time></trkpt><trkpt lat="44.6152504" lon="9.941158"><ele>698.0</ele><time>2026-05-03T14:24:37.507Z</time></trkpt><trkpt lat="44.6151106" lon="9.9412322"><ele>698.0</ele><time>2026-05-03T14:24:39.506Z</time></trkpt><trkpt lat="44.6150322" lon="9.9412889"><ele>697.1666666666666</ele><time>2026-05-03T14:24:40.506Z</time></trkpt><trkpt lat="44.6149776" lon="9.9413424"><ele>696.3333333333333</ele><time>2026-05-03T14:24:41.506Z</time></trkpt><trkpt lat="44.6149355" lon="9.9414132"><ele>695.5</ele><time>2026-05-03T14:24:42.506Z</time></trkpt><trkpt lat="44.6148904" lon="9.9414883"><ele>694.6666666666666</ele><time>2026-05-03T14:24:43.506Z</time></trkpt><trkpt lat="44.6147884" lon="9.941615"><ele>693.8333333333334</ele><time>2026-05-03T14:24:45.506Z</time></trkpt><trkpt lat="44.6147491" lon="9.9417101"><ele>693.0</ele><time>2026-05-03T14:24:46.507Z</time></trkpt><trkpt lat="44.6146933" lon="9.9417913"><ele>692.6666666666666</ele><time>2026-05-03T14:24:47.507Z</time></trkpt><trkpt lat="44.6146263" lon="9.9418861"><ele>692.3333333333334</ele><time>2026-05-03T14:24:48.507Z</time></trkpt><trkpt lat="44.614564" lon="9.9419772"><ele>692.0</ele><time>2026-05-03T14:24:49.507Z</time></trkpt><trkpt lat="44.6145086" lon="9.9420513"><ele>691.6666666666667</ele><time>2026-05-03T14:24:50.506Z</time></trkpt><trkpt lat="44.6144641" lon="9.9421249"><ele>691.3333333333334</ele><time>2026-05-03T14:24:51.507Z</time></trkpt><trkpt lat="44.6144047" lon="9.9422694"><ele>691.0</ele><time>2026-05-03T14:24:53.506Z</time></trkpt><trkpt lat="44.6143423" lon="9.9424072"><ele>690.4285714285713</ele><time>2026-05-03T14:24:55.506Z</time></trkpt><trkpt lat="44.6143018" lon="9.9424853"><ele>689.8571428571429</ele><time>2026-05-03T14:24:56.506Z</time></trkpt><trkpt lat="44.6142574" lon="9.9425487"><ele>689.2857142857142</ele><time>2026-05-03T14:24:57.506Z</time></trkpt><trkpt lat="44.6141985" lon="9.9426059"><ele>688.7142857142857</ele><time>2026-05-03T14:24:58.506Z</time></trkpt><trkpt lat="44.6141361" lon="9.942686"><ele>688.1428571428571</ele><time>2026-05-03T14:24:59.506Z</time></trkpt><trkpt lat="44.6140724" lon="9.9427443"><ele>687.5714285714286</ele><time>2026-05-03T14:25:00.505Z</time></trkpt><trkpt lat="44.6140251" lon="9.942831"><ele>687.0</ele><time>2026-05-03T14:25:02.506Z</time></trkpt><trkpt lat="44.6139575" lon="9.9429579"><ele>686.0</ele><time>2026-05-03T14:25:04.505Z</time></trkpt><trkpt lat="44.6138924" lon="9.9430591"><ele>685.0</ele><time>2026-05-03T14:25:06.505Z</time></trkpt><trkpt lat="44.6138433" lon="9.9432056"><ele>684.0</ele><time>2026-05-03T14:25:08.505Z</time></trkpt><trkpt lat="44.6138093" lon="9.943349"><ele>683.0</ele><time>2026-05-03T14:25:10.505Z</time></trkpt><trkpt lat="44.6137868" lon="9.943471"><ele>682.0</ele><time>2026-05-03T14:25:12.505Z</time></trkpt><trkpt lat="44.6137442" lon="9.9435448"><ele>678.8</ele><time>2026-05-03T14:25:13.506Z</time></trkpt><trkpt lat="44.6138142" lon="9.9436669"><ele>675.6</ele><time>2026-05-03T14:25:15.505Z</time></trkpt><trkpt lat="44.6137574" lon="9.9438011"><ele>672.4</ele><time>2026-05-03T14:25:17.505Z</time></trkpt><trkpt lat="44.613754" lon="9.9438953"><ele>669.1999999999999</ele><time>2026-05-03T14:25:19.505Z</time></trkpt><trkpt lat="44.6136833" lon="9.9440124"><ele>666.0</ele><time>2026-05-03T14:25:21.506Z</time></trkpt><trkpt lat="44.6136243" lon="9.9441334"><ele>660.8</ele><time>2026-05-03T14:25:23.505Z</time></trkpt><trkpt lat="44.613594" lon="9.94428"><ele>655.5999999999999</ele><time>2026-05-03T14:25:25.505Z</time></trkpt><trkpt lat="44.6135855" lon="9.9443702"><ele>650.4</ele><time>2026-05-03T14:25:26.506Z</time></trkpt><trkpt lat="44.6135347" lon="9.9445098"><ele>645.2</ele><time>2026-05-03T14:25:28.505Z</time></trkpt><trkpt lat="44.613465" lon="9.9446382"><ele>640.0</ele><time>2026-05-03T14:25:30.505Z</time></trkpt><trkpt lat="44.6133878" lon="9.9447414"><ele>640.0</ele><time>2026-05-03T14:25:32.505Z</time></trkpt><trkpt lat="44.6132956" lon="9.9447726"><ele>640.0</ele><time>2026-05-03T14:25:34.505Z</time></trkpt><trkpt lat="44.6132213" lon="9.944789"><ele>640.0</ele><time>2026-05-03T14:25:36.505Z</time></trkpt><trkpt lat="44.6131426" lon="9.9448357"><ele>640.0</ele><time>2026-05-03T14:25:38.505Z</time></trkpt><trkpt lat="44.6130929" lon="9.9449293"><ele>640.0</ele><time>2026-05-03T14:25:42.505Z</time></trkpt><trkpt lat="44.6130553" lon="9.9450351"><ele>640.0</ele><time>2026-05-03T14:25:44.505Z</time></trkpt><trkpt lat="44.6130049" lon="9.9451145"><ele>635.8333333333334</ele><time>2026-05-03T14:25:46.505Z</time></trkpt><trkpt lat="44.6129323" lon="9.9451762"><ele>631.6666666666667</ele><time>2026-05-03T14:25:48.505Z</time></trkpt><trkpt lat="44.6128538" lon="9.945268"><ele>627.5</ele><time>2026-05-03T14:25:50.505Z</time></trkpt><trkpt lat="44.6128228" lon="9.9453779"><ele>623.3333333333334</ele><time>2026-05-03T14:25:52.505Z</time></trkpt><trkpt lat="44.612771" lon="9.9454382"><ele>619.1666666666666</ele><time>2026-05-03T14:25:54.505Z</time></trkpt><trkpt lat="44.6127376" lon="9.9455273"><ele>615.0</ele><time>2026-05-03T14:25:56.506Z</time></trkpt><trkpt lat="44.6126958" lon="9.9455999"><ele>615.0</ele><time>2026-05-03T14:25:57.505Z</time></trkpt><trkpt lat="44.612683" lon="9.9457257"><ele>615.0</ele><time>2026-05-03T14:25:59.505Z</time></trkpt><trkpt lat="44.6126195" lon="9.9458423"><ele>615.0</ele><time>2026-05-03T14:26:02.506Z</time></trkpt><trkpt lat="44.6125584" lon="9.9459549"><ele>615.0</ele><time>2026-05-03T14:26:04.505Z</time></trkpt><trkpt lat="44.6124813" lon="9.9460436"><ele>615.0</ele><time>2026-05-03T14:26:06.505Z</time></trkpt><trkpt lat="44.6123686" lon="9.9460949"><ele>611.0</ele><time>2026-05-03T14:26:08.505Z</time></trkpt><trkpt lat="44.6123045" lon="9.9461442"><ele>607.0</ele><time>2026-05-03T14:26:09.505Z</time></trkpt><trkpt lat="44.6122108" lon="9.9462067"><ele>603.0</ele><time>2026-05-03T14:26:11.505Z</time></trkpt><trkpt lat="44.6121545" lon="9.9462596"><ele>599.0</ele><time>2026-05-03T14:26:13.505Z</time></trkpt><trkpt lat="44.6120779" lon="9.9463121"><ele>595.0</ele><time>2026-05-03T14:26:15.505Z</time></trkpt><trkpt lat="44.6119893" lon="9.946393"><ele>591.0</ele><time>2026-05-03T14:26:17.505Z</time></trkpt><trkpt lat="44.6119442" lon="9.9464565"><ele>591.0</ele><time>2026-05-03T14:26:18.505Z</time></trkpt><trkpt lat="44.6118545" lon="9.9465403"><ele>591.0</ele><time>2026-05-03T14:26:20.505Z</time></trkpt><trkpt lat="44.6117534" lon="9.9465872"><ele>591.0</ele><time>2026-05-03T14:26:22.505Z</time></trkpt><trkpt lat="44.6116497" lon="9.9466345"><ele>591.0</ele><time>2026-05-03T14:26:24.506Z</time></trkpt><trkpt lat="44.6115655" lon="9.946709"><ele>591.0</ele><time>2026-05-03T14:26:26.506Z</time></trkpt><trkpt lat="44.6114854" lon="9.9467973"><ele>588.3333333333334</ele><time>2026-05-03T14:26:28.505Z</time></trkpt><trkpt lat="44.6113987" lon="9.9469108"><ele>585.6666666666666</ele><time>2026-05-03T14:26:30.505Z</time></trkpt><trkpt lat="44.6113228" lon="9.9470495"><ele>583.0</ele><time>2026-05-03T14:26:32.506Z</time></trkpt><trkpt lat="44.6112609" lon="9.9470751"><ele>580.3333333333333</ele><time>2026-05-03T14:26:33.506Z</time></trkpt><trkpt lat="44.6112089" lon="9.9471273"><ele>577.6666666666666</ele><time>2026-05-03T14:26:34.505Z</time></trkpt><trkpt lat="44.6111583" lon="9.9471864"><ele>575.0</ele><time>2026-05-03T14:26:35.505Z</time></trkpt><trkpt lat="44.6110837" lon="9.9473296"><ele>575.0</ele><time>2026-05-03T14:26:37.506Z</time></trkpt><trkpt lat="44.6110556" lon="9.9474597"><ele>575.0</ele><time>2026-05-03T14:26:38.505Z</time></trkpt><trkpt lat="44.6110303" lon="9.9475584"><ele>575.0</ele><time>2026-05-03T14:26:39.505Z</time></trkpt><trkpt lat="44.610978" lon="9.947671"><ele>575.0</ele><time>2026-05-03T14:26:40.505Z</time></trkpt><trkpt lat="44.6109212" lon="9.9477763"><ele>575.0</ele><time>2026-05-03T14:26:41.505Z</time></trkpt><trkpt lat="44.6108748" lon="9.9478873"><ele>574.1666666666666</ele><time>2026-05-03T14:26:42.505Z</time></trkpt><trkpt lat="44.6108396" lon="9.948"><ele>573.3333333333333</ele><time>2026-05-03T14:26:43.505Z</time></trkpt><trkpt lat="44.6107941" lon="9.9481081"><ele>572.5</ele><time>2026-05-03T14:26:44.505Z</time></trkpt><trkpt lat="44.6107566" lon="9.948226"><ele>571.6666666666666</ele><time>2026-05-03T14:26:45.505Z</time></trkpt><trkpt lat="44.6107291" lon="9.9483122"><ele>570.8333333333334</ele><time>2026-05-03T14:26:46.505Z</time></trkpt><trkpt lat="44.61072" lon="9.9484121"><ele>570.0</ele><time>2026-05-03T14:26:47.505Z</time></trkpt><trkpt lat="44.6107004" lon="9.9485012"><ele>568.8571428571429</ele><time>2026-05-03T14:26:48.505Z</time></trkpt><trkpt lat="44.6106829" lon="9.9486013"><ele>567.7142857142858</ele><time>2026-05-03T14:26:49.505Z</time></trkpt><trkpt lat="44.6106569" lon="9.9486988"><ele>566.5714285714287</ele><time>2026-05-03T14:26:50.506Z</time></trkpt><trkpt lat="44.6106459" lon="9.9487978"><ele>565.4285714285714</ele><time>2026-05-03T14:26:51.505Z</time></trkpt><trkpt lat="44.6106439" lon="9.9488996"><ele>564.2857142857143</ele><time>2026-05-03T14:26:52.505Z</time></trkpt><trkpt lat="44.610636" lon="9.9490014"><ele>563.1428571428572</ele><time>2026-05-03T14:26:53.505Z</time></trkpt><trkpt lat="44.6106175" lon="9.9490893"><ele>562.0</ele><time>2026-05-03T14:26:54.506Z</time></trkpt><trkpt lat="44.6105964" lon="9.9491947"><ele>560.6</ele><time>2026-05-03T14:26:55.505Z</time></trkpt><trkpt lat="44.610623" lon="9.9493372"><ele>559.2</ele><time>2026-05-03T14:26:57.505Z</time></trkpt><trkpt lat="44.6106371" lon="9.9495153"><ele>557.8</ele><time>2026-05-03T14:26:59.505Z</time></trkpt><trkpt lat="44.6106348" lon="9.9496196"><ele>556.4</ele><time>2026-05-03T14:27:00.505Z</time></trkpt><trkpt lat="44.6106565" lon="9.9497554"><ele>555.0</ele><time>2026-05-03T14:27:02.506Z</time></trkpt><trkpt lat="44.6106848" lon="9.9498698"><ele>555.0000000000001</ele><time>2026-05-03T14:27:05.505Z</time></trkpt><trkpt lat="44.6107032" lon="9.9499605"><ele>555.0</ele><time>2026-05-03T14:27:07.505Z</time></trkpt><trkpt lat="44.6107426" lon="9.9500337"><ele>555.0</ele><time>2026-05-03T14:27:09.505Z</time></trkpt><trkpt lat="44.6107964" lon="9.95009"><ele>555.0</ele><time>2026-05-03T14:27:11.506Z</time></trkpt><trkpt lat="44.610859" lon="9.9501337"><ele>555.0</ele><time>2026-05-03T14:27:13.505Z</time></trkpt><trkpt lat="44.6109417" lon="9.9501249"><ele>555.0000000000001</ele><time>2026-05-03T14:27:15.505Z</time></trkpt><trkpt lat="44.6110029" lon="9.9500792"><ele>555.0</ele><time>2026-05-03T14:27:17.505Z</time></trkpt><trkpt lat="44.6110652" lon="9.9500469"><ele>551.6</ele><time>2026-05-03T14:27:19.506Z</time></trkpt><trkpt lat="44.6111632" lon="9.9500455"><ele>548.2</ele><time>2026-05-03T14:27:23.505Z</time></trkpt><trkpt lat="44.611244" lon="9.9500537"><ele>544.8</ele><time>2026-05-03T14:27:25.505Z</time></trkpt><trkpt lat="44.6113129" lon="9.9500647"><ele>541.4</ele><time>2026-05-03T14:27:26.505Z</time></trkpt><trkpt lat="44.6114138" lon="9.950151"><ele>538.0</ele><time>2026-05-03T14:27:28.505Z</time></trkpt><trkpt lat="44.6115323" lon="9.9501899"><ele>538.0</ele><time>2026-05-03T14:27:30.505Z</time></trkpt><trkpt lat="44.6115947" lon="9.9502157"><ele>538.0</ele><time>2026-05-03T14:27:31.507Z</time></trkpt><trkpt lat="44.6116991" lon="9.9502419"><ele>538.0</ele><time>2026-05-03T14:27:33.505Z</time></trkpt><trkpt lat="44.61178" lon="9.9501538"><ele>538.0</ele><time>2026-05-03T14:27:35.505Z</time></trkpt><trkpt lat="44.6118416" lon="9.9501227"><ele>538.0</ele><time>2026-05-03T14:27:37.505Z</time></trkpt><trkpt lat="44.6119265" lon="9.9501185"><ele>538.0</ele><time>2026-05-03T14:27:40.505Z</time></trkpt><trkpt lat="44.6119692" lon="9.9502147"><ele>535.6666666666667</ele><time>2026-05-03T14:27:41.505Z</time></trkpt><trkpt lat="44.6120023" lon="9.9502934"><ele>533.3333333333334</ele><time>2026-05-03T14:27:43.506Z</time></trkpt><trkpt lat="44.6120148" lon="9.9504437"><ele>531.0</ele><time>2026-05-03T14:27:45.505Z</time></trkpt><trkpt lat="44.6120382" lon="9.9505537"><ele>528.6666666666666</ele><time>2026-05-03T14:27:47.506Z</time></trkpt><trkpt lat="44.6121019" lon="9.9506412"><ele>526.3333333333333</ele><time>2026-05-03T14:27:49.505Z</time></trkpt><trkpt lat="44.6121375" lon="9.9507516"><ele>524.0</ele><time>2026-05-03T14:27:51.505Z</time></trkpt><trkpt lat="44.6121345" lon="9.9508825"><ele>521.6666666666666</ele><time>2026-05-03T14:27:53.505Z</time></trkpt><trkpt lat="44.6121433" lon="9.9509938"><ele>519.3333333333333</ele><time>2026-05-03T14:27:55.505Z</time></trkpt><trkpt lat="44.6121821" lon="9.9510974"><ele>517.0</ele><time>2026-05-03T14:27:57.505Z</time></trkpt><trkpt lat="44.6122644" lon="9.9511154"><ele>514.6666666666666</ele><time>2026-05-03T14:27:58.505Z</time></trkpt><trkpt lat="44.6123187" lon="9.9511701"><ele>512.3333333333334</ele><time>2026-05-03T14:28:00.505Z</time></trkpt><trkpt lat="44.6123689" lon="9.9512585"><ele>510.0</ele><time>2026-05-03T14:28:02.505Z</time></trkpt><trkpt lat="44.6123963" lon="9.9513555"><ele>510.0</ele><time>2026-05-03T14:28:05.505Z</time></trkpt><trkpt lat="44.6124202" lon="9.9514548"><ele>510.0</ele><time>2026-05-03T14:28:07.505Z</time></trkpt><trkpt lat="44.612421" lon="9.9515952"><ele>510.0</ele><time>2026-05-03T14:28:09.505Z</time></trkpt><trkpt lat="44.6124188" lon="9.951764"><ele>510.0</ele><time>2026-05-03T14:28:11.506Z</time></trkpt><trkpt lat="44.612392" lon="9.9519204"><ele>510.0</ele><time>2026-05-03T14:28:13.505Z</time></trkpt><trkpt lat="44.6123556" lon="9.9520133"><ele>508.8333333333333</ele><time>2026-05-03T14:28:14.505Z</time></trkpt><trkpt lat="44.6123264" lon="9.9520941"><ele>507.66666666666663</ele><time>2026-05-03T14:28:15.505Z</time></trkpt><trkpt lat="44.6123054" lon="9.9522223"><ele>506.5</ele><time>2026-05-03T14:28:17.506Z</time></trkpt><trkpt lat="44.6123478" lon="9.9523748"><ele>505.3333333333333</ele><time>2026-05-03T14:28:19.505Z</time></trkpt><trkpt lat="44.6123862" lon="9.9524579"><ele>504.16666666666663</ele><time>2026-05-03T14:28:20.506Z</time></trkpt><trkpt lat="44.6124097" lon="9.9525554"><ele>503.0</ele><time>2026-05-03T14:28:21.505Z</time></trkpt><trkpt lat="44.6124103" lon="9.9527332"><ele>502.16666666666663</ele><time>2026-05-03T14:28:23.505Z</time></trkpt><trkpt lat="44.6123925" lon="9.9528183"><ele>501.3333333333333</ele><time>2026-05-03T14:28:24.505Z</time></trkpt><trkpt lat="44.6123832" lon="9.9529217"><ele>500.5</ele><time>2026-05-03T14:28:25.505Z</time></trkpt><trkpt lat="44.61236" lon="9.9530383"><ele>499.66666666666663</ele><time>2026-05-03T14:28:26.505Z</time></trkpt><trkpt lat="44.612333" lon="9.9531854"><ele>498.8333333333333</ele><time>2026-05-03T14:28:28.505Z</time></trkpt><trkpt lat="44.6123219" lon="9.9532867"><ele>498.0</ele><time>2026-05-03T14:28:29.505Z</time></trkpt><trkpt lat="44.6123147" lon="9.9534226"><ele>496.0</ele><time>2026-05-03T14:28:31.505Z</time></trkpt><trkpt lat="44.6123069" lon="9.953558"><ele>493.99999999999994</ele><time>2026-05-03T14:28:33.505Z</time></trkpt><trkpt lat="44.6123001" lon="9.9537025"><ele>491.99999999999994</ele><time>2026-05-03T14:28:35.505Z</time></trkpt><trkpt lat="44.6123291" lon="9.9538554"><ele>490.0</ele><time>2026-05-03T14:28:37.505Z</time></trkpt><trkpt lat="44.6123658" lon="9.9539361"><ele>488.0</ele><time>2026-05-03T14:28:38.505Z</time></trkpt><trkpt lat="44.6124264" lon="9.9540692"><ele>485.59999999999997</ele><time>2026-05-03T14:28:40.505Z</time></trkpt><trkpt lat="44.6124363" lon="9.9542055"><ele>483.19999999999993</ele><time>2026-05-03T14:28:42.505Z</time></trkpt><trkpt lat="44.6123999" lon="9.9543774"><ele>480.8</ele><time>2026-05-03T14:28:44.505Z</time></trkpt><trkpt lat="44.6123364" lon="9.9544755"><ele>478.4</ele><time>2026-05-03T14:28:46.505Z</time></trkpt><trkpt lat="44.6122816" lon="9.9545415"><ele>476.0</ele><time>2026-05-03T14:28:47.505Z</time></trkpt><trkpt lat="44.6122194" lon="9.9545896"><ele>476.0</ele><time>2026-05-03T14:28:48.505Z</time></trkpt><trkpt lat="44.612144" lon="9.9546293"><ele>476.0</ele><time>2026-05-03T14:28:49.505Z</time></trkpt><trkpt lat="44.6120799" lon="9.9546471"><ele>476.0</ele><time>2026-05-03T14:28:50.505Z</time></trkpt><trkpt lat="44.612008" lon="9.9546825"><ele>476.0</ele><time>2026-05-03T14:28:51.505Z</time></trkpt><trkpt lat="44.6119423" lon="9.9547361"><ele>476.0</ele><time>2026-05-03T14:28:52.505Z</time></trkpt><trkpt lat="44.6118843" lon="9.9547914"><ele>476.0</ele><time>2026-05-03T14:28:53.505Z</time></trkpt><trkpt lat="44.6118256" lon="9.9548406"><ele>476.0</ele><time>2026-05-03T14:28:54.505Z</time></trkpt><trkpt lat="44.6117699" lon="9.9548832"><ele>475.0</ele><time>2026-05-03T14:28:55.505Z</time></trkpt><trkpt lat="44.6116767" lon="9.9549515"><ele>474.0</ele><time>2026-05-03T14:28:57.505Z</time></trkpt><trkpt lat="44.6115891" lon="9.9550209"><ele>473.0</ele><time>2026-05-03T14:28:59.505Z</time></trkpt><trkpt lat="44.6115309" lon="9.9550751"><ele>472.0</ele><time>2026-05-03T14:29:00.505Z</time></trkpt><trkpt lat="44.6114737" lon="9.9551493"><ele>471.0</ele><time>2026-05-03T14:29:01.505Z</time></trkpt><trkpt lat="44.6114166" lon="9.9552717"><ele>471.0</ele><time>2026-05-03T14:29:03.505Z</time></trkpt><trkpt lat="44.6113952" lon="9.9554233"><ele>471.0</ele><time>2026-05-03T14:29:05.505Z</time></trkpt><trkpt lat="44.6113734" lon="9.9555171"><ele>471.0</ele><time>2026-05-03T14:29:07.506Z</time></trkpt><trkpt lat="44.611326" lon="9.9555775"><ele>471.0</ele><time>2026-05-03T14:29:09.504Z</time></trkpt><trkpt lat="44.6112682" lon="9.9556552"><ele>471.0</ele><time>2026-05-03T14:29:11.504Z</time></trkpt><trkpt lat="44.6112012" lon="9.9557287"><ele>471.0</ele><time>2026-05-03T14:29:13.504Z</time></trkpt><trkpt lat="44.6111348" lon="9.9558431"><ele>469.4</ele><time>2026-05-03T14:29:15.504Z</time></trkpt><trkpt lat="44.6110802" lon="9.9560061"><ele>467.8</ele><time>2026-05-03T14:29:17.504Z</time></trkpt><trkpt lat="44.6110586" lon="9.9560933"><ele>466.19999999999993</ele><time>2026-05-03T14:29:18.504Z</time></trkpt><trkpt lat="44.6110152" lon="9.9562557"><ele>464.59999999999997</ele><time>2026-05-03T14:29:20.505Z</time></trkpt><trkpt lat="44.6109841" lon="9.9564346"><ele>463.0</ele><time>2026-05-03T14:29:22.504Z</time></trkpt><trkpt lat="44.6109701" lon="9.9565282"><ele>463.00000000000006</ele><time>2026-05-03T14:29:23.504Z</time></trkpt><trkpt lat="44.6109431" lon="9.9566201"><ele>463.0</ele><time>2026-05-03T14:29:24.505Z</time></trkpt><trkpt lat="44.6109199" lon="9.9567185"><ele>463.0</ele><time>2026-05-03T14:29:25.504Z</time></trkpt><trkpt lat="44.6108968" lon="9.9568182"><ele>463.0</ele><time>2026-05-03T14:29:26.504Z</time></trkpt><trkpt lat="44.6108698" lon="9.9569122"><ele>463.00000000000006</ele><time>2026-05-03T14:29:27.505Z</time></trkpt><trkpt lat="44.6108252" lon="9.9570092"><ele>463.0</ele><time>2026-05-03T14:29:28.504Z</time></trkpt><trkpt lat="44.6107885" lon="9.9571251"><ele>461.6666666666667</ele><time>2026-05-03T14:29:29.505Z</time></trkpt><trkpt lat="44.6107225" lon="9.957216"><ele>460.33333333333337</ele><time>2026-05-03T14:29:30.504Z</time></trkpt><trkpt lat="44.610668" lon="9.9573191"><ele>459.0</ele><time>2026-05-03T14:29:31.505Z</time></trkpt><trkpt lat="44.6106181" lon="9.9574046"><ele>457.66666666666663</ele><time>2026-05-03T14:29:32.504Z</time></trkpt><trkpt lat="44.6105831" lon="9.9574806"><ele>456.3333333333333</ele><time>2026-05-03T14:29:33.504Z</time></trkpt><trkpt lat="44.610534" lon="9.9575403"><ele>455.0</ele><time>2026-05-03T14:29:34.504Z</time></trkpt><trkpt lat="44.6104765" lon="9.9576045"><ele>453.66666666666663</ele><time>2026-05-03T14:29:35.504Z</time></trkpt><trkpt lat="44.6103892" lon="9.9577212"><ele>452.3333333333333</ele><time>2026-05-03T14:29:37.505Z</time></trkpt><trkpt lat="44.6103747" lon="9.9578502"><ele>451.0</ele><time>2026-05-03T14:29:38.504Z</time></trkpt><trkpt lat="44.6103401" lon="9.9579242"><ele>449.66666666666663</ele><time>2026-05-03T14:29:39.504Z</time></trkpt><trkpt lat="44.6103039" lon="9.9580028"><ele>448.3333333333333</ele><time>2026-05-03T14:29:40.504Z</time></trkpt><trkpt lat="44.61026" lon="9.958071"><ele>447.0</ele><time>2026-05-03T14:29:41.504Z</time></trkpt><trkpt lat="44.6102158" lon="9.9581441"><ele>446.99999999999994</ele><time>2026-05-03T14:29:42.504Z</time></trkpt><trkpt lat="44.6101713" lon="9.9582105"><ele>447.0</ele><time>2026-05-03T14:29:43.504Z</time></trkpt><trkpt lat="44.610135" lon="9.9582963"><ele>447.0</ele><time>2026-05-03T14:29:44.504Z</time></trkpt><trkpt lat="44.6101053" lon="9.9583958"><ele>447.0</ele><time>2026-05-03T14:29:45.504Z</time></trkpt><trkpt lat="44.6100842" lon="9.9584993"><ele>447.0</ele><time>2026-05-03T14:29:46.504Z</time></trkpt><trkpt lat="44.6100739" lon="9.9585984"><ele>446.99999999999994</ele><time>2026-05-03T14:29:47.505Z</time></trkpt><trkpt lat="44.6100553" lon="9.9586857"><ele>447.0</ele><time>2026-05-03T14:29:48.504Z</time></trkpt><trkpt lat="44.6100376" lon="9.9587775"><ele>445.6666666666667</ele><time>2026-05-03T14:29:49.504Z</time></trkpt><trkpt lat="44.6100026" lon="9.9588676"><ele>444.33333333333337</ele><time>2026-05-03T14:29:50.505Z</time></trkpt><trkpt lat="44.6099682" lon="9.9589483"><ele>443.0</ele><time>2026-05-03T14:29:51.504Z</time></trkpt><trkpt lat="44.6099381" lon="9.9590391"><ele>441.6666666666667</ele><time>2026-05-03T14:29:52.504Z</time></trkpt><trkpt lat="44.6099012" lon="9.9591373"><ele>440.33333333333337</ele><time>2026-05-03T14:29:53.504Z</time></trkpt><trkpt lat="44.6098696" lon="9.9592567"><ele>439.0</ele><time>2026-05-03T14:29:54.504Z</time></trkpt><trkpt lat="44.609842" lon="9.9593699"><ele>438.2</ele><time>2026-05-03T14:29:55.504Z</time></trkpt><trkpt lat="44.6098277" lon="9.9594605"><ele>437.4</ele><time>2026-05-03T14:29:56.504Z</time></trkpt><trkpt lat="44.6098607" lon="9.9595892"><ele>436.6</ele><time>2026-05-03T14:29:58.504Z</time></trkpt><trkpt lat="44.60996" lon="9.9596032"><ele>435.8</ele><time>2026-05-03T14:30:00.505Z</time></trkpt><trkpt lat="44.6100561" lon="9.9594698"><ele>435.0</ele><time>2026-05-03T14:30:02.505Z</time></trkpt><trkpt lat="44.6100997" lon="9.9593709"><ele>435.0</ele><time>2026-05-03T14:30:03.504Z</time></trkpt><trkpt lat="44.6101547" lon="9.9592781"><ele>435.0</ele><time>2026-05-03T14:30:04.504Z</time></trkpt><trkpt lat="44.6102321" lon="9.959215"><ele>435.0</ele><time>2026-05-03T14:30:05.505Z</time></trkpt><trkpt lat="44.6103146" lon="9.9591781"><ele>435.0</ele><time>2026-05-03T14:30:06.504Z</time></trkpt><trkpt lat="44.6103782" lon="9.9591687"><ele>435.0</ele><time>2026-05-03T14:30:07.504Z</time></trkpt><trkpt lat="44.6104742" lon="9.9592213"><ele>435.0</ele><time>2026-05-03T14:30:09.504Z</time></trkpt><trkpt lat="44.6105242" lon="9.9593649"><ele>431.6</ele><time>2026-05-03T14:30:11.504Z</time></trkpt><trkpt lat="44.610625" lon="9.9594721"><ele>428.2</ele><time>2026-05-03T14:30:13.506Z</time></trkpt><trkpt lat="44.6106959" lon="9.9594688"><ele>424.79999999999995</ele><time>2026-05-03T14:30:14.505Z</time></trkpt><trkpt lat="44.6107763" lon="9.9594374"><ele>421.4</ele><time>2026-05-03T14:30:15.504Z</time></trkpt><trkpt lat="44.6108692" lon="9.9593857"><ele>418.0</ele><time>2026-05-03T14:30:16.504Z</time></trkpt><trkpt lat="44.6109632" lon="9.959339"><ele>418.0</ele><time>2026-05-03T14:30:17.504Z</time></trkpt><trkpt lat="44.6110597" lon="9.9592985"><ele>418.0</ele><time>2026-05-03T14:30:18.504Z</time></trkpt><trkpt lat="44.6111505" lon="9.9592602"><ele>418.0</ele><time>2026-05-03T14:30:19.505Z</time></trkpt><trkpt lat="44.6112402" lon="9.9592112"><ele>418.0</ele><time>2026-05-03T14:30:20.504Z</time></trkpt><trkpt lat="44.6113232" lon="9.9591537"><ele>418.0</ele><time>2026-05-03T14:30:21.505Z</time></trkpt><trkpt lat="44.6113985" lon="9.959103"><ele>416.33333333333337</ele><time>2026-05-03T14:30:22.504Z</time></trkpt><trkpt lat="44.6114721" lon="9.9590807"><ele>414.6666666666667</ele><time>2026-05-03T14:30:23.504Z</time></trkpt><trkpt lat="44.6115474" lon="9.9591027"><ele>413.0</ele><time>2026-05-03T14:30:24.504Z</time></trkpt><trkpt lat="44.6116284" lon="9.959136"><ele>411.33333333333337</ele><time>2026-05-03T14:30:25.504Z</time></trkpt><trkpt lat="44.6117069" lon="9.9591453"><ele>409.6666666666667</ele><time>2026-05-03T14:30:26.504Z</time></trkpt><trkpt lat="44.6117981" lon="9.9591305"><ele>408.0</ele><time>2026-05-03T14:30:27.504Z</time></trkpt><trkpt lat="44.6119023" lon="9.9590958"><ele>406.79999999999995</ele><time>2026-05-03T14:30:28.504Z</time></trkpt><trkpt lat="44.6120086" lon="9.9590768"><ele>405.6</ele><time>2026-05-03T14:30:29.505Z</time></trkpt><trkpt lat="44.6121331" lon="9.959074"><ele>404.4</ele><time>2026-05-03T14:30:30.504Z</time></trkpt><trkpt lat="44.612245" lon="9.9590752"><ele>403.20000000000005</ele><time>2026-05-03T14:30:31.504Z</time></trkpt><trkpt lat="44.6123402" lon="9.9590738"><ele>402.0</ele><time>2026-05-03T14:30:32.504Z</time></trkpt><trkpt lat="44.6124141" lon="9.9590849"><ele>402.0</ele><time>2026-05-03T14:30:33.504Z</time></trkpt><trkpt lat="44.6124807" lon="9.9591252"><ele>402.0</ele><time>2026-05-03T14:30:34.504Z</time></trkpt><trkpt lat="44.6125337" lon="9.9591808"><ele>402.0</ele><time>2026-05-03T14:30:35.504Z</time></trkpt><trkpt lat="44.6125771" lon="9.9592971"><ele>402.0</ele><time>2026-05-03T14:30:36.505Z</time></trkpt><trkpt lat="44.6126162" lon="9.9594342"><ele>402.0</ele><time>2026-05-03T14:30:37.504Z</time></trkpt><trkpt lat="44.6126427" lon="9.9595812"><ele>402.0</ele><time>2026-05-03T14:30:38.504Z</time></trkpt><trkpt lat="44.6126612" lon="9.9597169"><ele>399.40000000000003</ele><time>2026-05-03T14:30:39.506Z</time></trkpt><trkpt lat="44.6126738" lon="9.9598458"><ele>396.8</ele><time>2026-05-03T14:30:40.504Z</time></trkpt><trkpt lat="44.6126895" lon="9.9599535"><ele>394.2</ele><time>2026-05-03T14:30:41.505Z</time></trkpt><trkpt lat="44.6127076" lon="9.9600443"><ele>391.6</ele><time>2026-05-03T14:30:42.504Z</time></trkpt><trkpt lat="44.6127601" lon="9.960188"><ele>389.0</ele><time>2026-05-03T14:30:44.504Z</time></trkpt><trkpt lat="44.6128683" lon="9.9602569"><ele>387.0</ele><time>2026-05-03T14:30:46.504Z</time></trkpt><trkpt lat="44.6129858" lon="9.9602197"><ele>385.0</ele><time>2026-05-03T14:30:48.504Z</time></trkpt><trkpt lat="44.6130823" lon="9.9601806"><ele>383.0</ele><time>2026-05-03T14:30:50.504Z</time></trkpt><trkpt lat="44.6131605" lon="9.9602008"><ele>381.0</ele><time>2026-05-03T14:30:52.505Z</time></trkpt><trkpt lat="44.6132339" lon="9.9602304"><ele>379.0</ele><time>2026-05-03T14:30:54.504Z</time></trkpt><trkpt lat="44.613322" lon="9.9602939"><ele>379.0</ele><time>2026-05-03T14:30:58.504Z</time></trkpt><trkpt lat="44.6134068" lon="9.9603662"><ele>379.0</ele><time>2026-05-03T14:31:00.504Z</time></trkpt><trkpt lat="44.613495" lon="9.9604269"><ele>379.0</ele><time>2026-05-03T14:31:02.504Z</time></trkpt><trkpt lat="44.6135545" lon="9.9604698"><ele>379.0</ele><time>2026-05-03T14:31:04.504Z</time></trkpt><trkpt lat="44.6136252" lon="9.9605316"><ele>379.0</ele><time>2026-05-03T14:31:06.504Z</time></trkpt><trkpt lat="44.6136926" lon="9.9606257"><ele>379.0</ele><time>2026-05-03T14:31:08.504Z</time></trkpt><trkpt lat="44.6137475" lon="9.9607158"><ele>379.79999999999995</ele><time>2026-05-03T14:31:10.504Z</time></trkpt><trkpt lat="44.613817" lon="9.9608411"><ele>380.59999999999997</ele><time>2026-05-03T14:31:12.504Z</time></trkpt><trkpt lat="44.6138799" lon="9.9609548"><ele>381.4</ele><time>2026-05-03T14:31:14.504Z</time></trkpt><trkpt lat="44.6139017" lon="9.9610804"><ele>382.2</ele><time>2026-05-03T14:31:16.504Z</time></trkpt><trkpt lat="44.6138538" lon="9.9611851"><ele>383.0</ele><time>2026-05-03T14:31:18.504Z</time></trkpt><trkpt lat="44.6138226" lon="9.9613132"><ele>383.0</ele><time>2026-05-03T14:31:20.504Z</time></trkpt><trkpt lat="44.6139011" lon="9.9613813"><ele>383.0</ele><time>2026-05-03T14:31:22.504Z</time></trkpt><trkpt lat="44.6140181" lon="9.9613757"><ele>383.0</ele><time>2026-05-03T14:31:24.504Z</time></trkpt><trkpt lat="44.6140825" lon="9.9614048"><ele>383.0</ele><time>2026-05-03T14:31:25.504Z</time></trkpt><trkpt lat="44.6141582" lon="9.9614374"><ele>383.0</ele><time>2026-05-03T14:31:26.504Z</time></trkpt><trkpt lat="44.6142378" lon="9.9614808"><ele>383.0</ele><time>2026-05-03T14:31:27.504Z</time></trkpt><trkpt lat="44.6143169" lon="9.9615335"><ele>383.0</ele><time>2026-05-03T14:31:28.504Z</time></trkpt><trkpt lat="44.6144047" lon="9.9615868"><ele>383.0</ele><time>2026-05-03T14:31:29.504Z</time></trkpt><trkpt lat="44.6144893" lon="9.961654"><ele>383.0</ele><time>2026-05-03T14:31:30.505Z</time></trkpt><trkpt lat="44.6145699" lon="9.9617206"><ele>383.0</ele><time>2026-05-03T14:31:31.504Z</time></trkpt><trkpt lat="44.6146519" lon="9.9617779"><ele>383.0</ele><time>2026-05-03T14:31:32.504Z</time></trkpt><trkpt lat="44.6147248" lon="9.9618381"><ele>384.33333333333337</ele><time>2026-05-03T14:31:33.504Z</time></trkpt><trkpt lat="44.6147906" lon="9.9618961"><ele>385.6666666666667</ele><time>2026-05-03T14:31:34.505Z</time></trkpt><trkpt lat="44.6148528" lon="9.9619591"><ele>387.0</ele><time>2026-05-03T14:31:35.504Z</time></trkpt><trkpt lat="44.6149187" lon="9.9620632"><ele>388.33333333333337</ele><time>2026-05-03T14:31:36.504Z</time></trkpt><trkpt lat="44.6149822" lon="9.9621651"><ele>389.6666666666667</ele><time>2026-05-03T14:31:37.504Z</time></trkpt><trkpt lat="44.6150125" lon="9.962287"><ele>391.0</ele><time>2026-05-03T14:31:38.504Z</time></trkpt><trkpt lat="44.6150492" lon="9.9623992"><ele>391.0</ele><time>2026-05-03T14:31:39.504Z</time></trkpt><trkpt lat="44.6150706" lon="9.9625278"><ele>391.0</ele><time>2026-05-03T14:31:40.504Z</time></trkpt><trkpt lat="44.6150409" lon="9.9626633"><ele>391.0</ele><time>2026-05-03T14:31:41.504Z</time></trkpt><trkpt lat="44.6150288" lon="9.9627921"><ele>391.0</ele><time>2026-05-03T14:31:42.505Z</time></trkpt><trkpt lat="44.6150318" lon="9.962905"><ele>391.0</ele><time>2026-05-03T14:31:43.504Z</time></trkpt><trkpt lat="44.6150332" lon="9.9630311"><ele>390.0</ele><time>2026-05-03T14:31:44.504Z</time></trkpt><trkpt lat="44.6150544" lon="9.963164"><ele>389.0</ele><time>2026-05-03T14:31:45.504Z</time></trkpt><trkpt lat="44.6150773" lon="9.9633019"><ele>388.0</ele><time>2026-05-03T14:31:46.504Z</time></trkpt><trkpt lat="44.6151003" lon="9.9634467"><ele>387.0</ele><time>2026-05-03T14:31:47.504Z</time></trkpt><trkpt lat="44.6151042" lon="9.9636375"><ele>386.0</ele><time>2026-05-03T14:31:48.504Z</time></trkpt><trkpt lat="44.6151048" lon="9.9638278"><ele>384.8</ele><time>2026-05-03T14:31:49.504Z</time></trkpt><trkpt lat="44.6151102" lon="9.9640001"><ele>383.6</ele><time>2026-05-03T14:31:50.504Z</time></trkpt><trkpt lat="44.6151308" lon="9.9641451"><ele>382.4</ele><time>2026-05-03T14:31:51.504Z</time></trkpt><trkpt lat="44.6151478" lon="9.9642869"><ele>381.2</ele><time>2026-05-03T14:31:52.504Z</time></trkpt><trkpt lat="44.6151934" lon="9.9644208"><ele>380.0</ele><time>2026-05-03T14:31:53.504Z</time></trkpt><trkpt lat="44.6152491" lon="9.9645541"><ele>379.0</ele><time>2026-05-03T14:31:54.504Z</time></trkpt><trkpt lat="44.6153028" lon="9.9646853"><ele>378.0</ele><time>2026-05-03T14:31:55.504Z</time></trkpt><trkpt lat="44.6153691" lon="9.9648037"><ele>377.0</ele><time>2026-05-03T14:31:56.504Z</time></trkpt><trkpt lat="44.6153886" lon="9.9649428"><ele>376.0</ele><time>2026-05-03T14:31:57.504Z</time></trkpt><trkpt lat="44.6154097" lon="9.9650841"><ele>375.0</ele><time>2026-05-03T14:31:58.504Z</time></trkpt><trkpt lat="44.6154252" lon="9.9652288"><ele>378.0</ele><time>2026-05-03T14:31:59.504Z</time></trkpt><trkpt lat="44.6154441" lon="9.9653566"><ele>381.0</ele><time>2026-05-03T14:32:00.505Z</time></trkpt><trkpt lat="44.6154637" lon="9.9654902"><ele>384.0</ele><time>2026-05-03T14:32:01.504Z</time></trkpt><trkpt lat="44.6155835" lon="9.965583"><ele>387.0</ele><time>2026-05-03T14:32:02.504Z</time></trkpt><trkpt lat="44.615661" lon="9.965706"><ele>390.0</ele><time>2026-05-03T14:32:03.504Z</time></trkpt><trkpt lat="44.6157387" lon="9.9658426"><ele>387.6</ele><time>2026-05-03T14:32:04.504Z</time></trkpt><trkpt lat="44.6157925" lon="9.9659857"><ele>385.2</ele><time>2026-05-03T14:32:05.504Z</time></trkpt><trkpt lat="44.6158362" lon="9.9661063"><ele>382.79999999999995</ele><time>2026-05-03T14:32:06.504Z</time></trkpt><trkpt lat="44.6158905" lon="9.9661931"><ele>380.4</ele><time>2026-05-03T14:32:07.504Z</time></trkpt><trkpt lat="44.6159682" lon="9.9662455"><ele>378.0</ele><time>2026-05-03T14:32:08.504Z</time></trkpt><trkpt lat="44.616064" lon="9.9662664"><ele>381.75</ele><time>2026-05-03T14:32:09.504Z</time></trkpt><trkpt lat="44.6161689" lon="9.9663096"><ele>385.5</ele><time>2026-05-03T14:32:10.505Z</time></trkpt><trkpt lat="44.6162729" lon="9.9664248"><ele>389.25</ele><time>2026-05-03T14:32:11.506Z</time></trkpt><trkpt lat="44.6163796" lon="9.9665336"><ele>393.0</ele><time>2026-05-03T14:32:12.504Z</time></trkpt><trkpt lat="44.6164884" lon="9.9666216"><ele>391.79999999999995</ele><time>2026-05-03T14:32:13.504Z</time></trkpt><trkpt lat="44.6165844" lon="9.9667232"><ele>390.6</ele><time>2026-05-03T14:32:14.504Z</time></trkpt><trkpt lat="44.6166461" lon="9.9668557"><ele>389.4</ele><time>2026-05-03T14:32:15.504Z</time></trkpt><trkpt lat="44.6166856" lon="9.9669871"><ele>388.20000000000005</ele><time>2026-05-03T14:32:16.504Z</time></trkpt><trkpt lat="44.6167453" lon="9.9670933"><ele>387.0</ele><time>2026-05-03T14:32:17.504Z</time></trkpt><trkpt lat="44.6168222" lon="9.9671639"><ele>387.0</ele><time>2026-05-03T14:32:18.504Z</time></trkpt><trkpt lat="44.616909" lon="9.967185"><ele>387.0</ele><time>2026-05-03T14:32:19.505Z</time></trkpt><trkpt lat="44.6169991" lon="9.9671627"><ele>387.0</ele><time>2026-05-03T14:32:20.504Z</time></trkpt><trkpt lat="44.6170765" lon="9.9671264"><ele>387.0</ele><time>2026-05-03T14:32:21.504Z</time></trkpt><trkpt lat="44.6171659" lon="9.96703"><ele>387.0</ele><time>2026-05-03T14:32:22.504Z</time></trkpt><trkpt lat="44.617257" lon="9.9670039"><ele>386.0</ele><time>2026-05-03T14:32:23.504Z</time></trkpt><trkpt lat="44.6173491" lon="9.9670307"><ele>385.0</ele><time>2026-05-03T14:32:24.504Z</time></trkpt><trkpt lat="44.6174395" lon="9.9670638"><ele>384.0</ele><time>2026-05-03T14:32:25.505Z</time></trkpt><trkpt lat="44.617547" lon="9.9672321"><ele>383.0</ele><time>2026-05-03T14:32:26.504Z</time></trkpt><trkpt lat="44.6176214" lon="9.9673567"><ele>383.0</ele><time>2026-05-03T14:32:27.504Z</time></trkpt><trkpt lat="44.6177036" lon="9.967457"><ele>383.0</ele><time>2026-05-03T14:32:28.505Z</time></trkpt><trkpt lat="44.6177979" lon="9.9675217"><ele>383.0</ele><time>2026-05-03T14:32:29.504Z</time></trkpt><trkpt lat="44.6179134" lon="9.9675345"><ele>383.0</ele><time>2026-05-03T14:32:30.504Z</time></trkpt><trkpt lat="44.6180272" lon="9.9675005"><ele>383.0</ele><time>2026-05-03T14:32:31.504Z</time></trkpt><trkpt lat="44.6181217" lon="9.967461"><ele>382.2</ele><time>2026-05-03T14:32:32.504Z</time></trkpt><trkpt lat="44.6182072" lon="9.9674398"><ele>381.4</ele><time>2026-05-03T14:32:33.505Z</time></trkpt><trkpt lat="44.6182703" lon="9.9674573"><ele>380.59999999999997</ele><time>2026-05-03T14:32:34.504Z</time></trkpt><trkpt lat="44.6183407" lon="9.9675659"><ele>379.79999999999995</ele><time>2026-05-03T14:32:36.504Z</time></trkpt><trkpt lat="44.6182432" lon="9.9676946"><ele>379.0</ele><time>2026-05-03T14:32:38.504Z</time></trkpt><trkpt lat="44.6181745" lon="9.9677718"><ele>375.79999999999995</ele><time>2026-05-03T14:32:39.504Z</time></trkpt><trkpt lat="44.6180048" lon="9.9678516"><ele>372.59999999999997</ele><time>2026-05-03T14:32:40.505Z</time></trkpt><trkpt lat="44.6179425" lon="9.967921"><ele>369.4</ele><time>2026-05-03T14:32:41.504Z</time></trkpt><trkpt lat="44.6178732" lon="9.9679715"><ele>366.2</ele><time>2026-05-03T14:32:42.504Z</time></trkpt><trkpt lat="44.6178421" lon="9.9681028"><ele>363.0</ele><time>2026-05-03T14:32:44.504Z</time></trkpt><trkpt lat="44.6179129" lon="9.9681921"><ele>363.0</ele><time>2026-05-03T14:32:46.504Z</time></trkpt><trkpt lat="44.6181329" lon="9.9681976"><ele>363.0</ele><time>2026-05-03T14:32:48.505Z</time></trkpt><trkpt lat="44.6182401" lon="9.9682268"><ele>363.0</ele><time>2026-05-03T14:32:49.504Z</time></trkpt><trkpt lat="44.6183608" lon="9.9682824"><ele>363.0</ele><time>2026-05-03T14:32:50.504Z</time></trkpt><trkpt lat="44.61849" lon="9.9683556"><ele>363.0</ele><time>2026-05-03T14:32:51.504Z</time></trkpt><trkpt lat="44.6186159" lon="9.9684471"><ele>363.0</ele><time>2026-05-03T14:32:52.504Z</time></trkpt><trkpt lat="44.6186779" lon="9.9685906"><ele>363.0</ele><time>2026-05-03T14:32:53.504Z</time></trkpt><trkpt lat="44.6187356" lon="9.9687121"><ele>362.6666666666667</ele><time>2026-05-03T14:32:54.504Z</time></trkpt><trkpt lat="44.61877" lon="9.9688499"><ele>362.3333333333333</ele><time>2026-05-03T14:32:55.504Z</time></trkpt><trkpt lat="44.6187986" lon="9.968975"><ele>362.0</ele><time>2026-05-03T14:32:56.504Z</time></trkpt><trkpt lat="44.6188499" lon="9.9690521"><ele>361.66666666666663</ele><time>2026-05-03T14:32:57.505Z</time></trkpt><trkpt lat="44.6188994" lon="9.9691472"><ele>361.3333333333333</ele><time>2026-05-03T14:32:58.504Z</time></trkpt><trkpt lat="44.6189673" lon="9.9692046"><ele>361.0</ele><time>2026-05-03T14:32:59.504Z</time></trkpt><trkpt lat="44.6190918" lon="9.9693083"><ele>359.6</ele><time>2026-05-03T14:33:00.504Z</time></trkpt><trkpt lat="44.6191775" lon="9.9694054"><ele>358.20000000000005</ele><time>2026-05-03T14:33:01.504Z</time></trkpt><trkpt lat="44.619272" lon="9.9695086"><ele>356.79999999999995</ele><time>2026-05-03T14:33:02.504Z</time></trkpt><trkpt lat="44.6193599" lon="9.969596"><ele>355.4</ele><time>2026-05-03T14:33:03.505Z</time></trkpt><trkpt lat="44.619444" lon="9.9696517"><ele>354.0</ele><time>2026-05-03T14:33:04.505Z</time></trkpt><trkpt lat="44.6195338" lon="9.9696588"><ele>354.0</ele><time>2026-05-03T14:33:05.505Z</time></trkpt><trkpt lat="44.6196203" lon="9.9696193"><ele>354.0</ele><time>2026-05-03T14:33:06.504Z</time></trkpt><trkpt lat="44.6197014" lon="9.9695513"><ele>354.0</ele><time>2026-05-03T14:33:07.504Z</time></trkpt><trkpt lat="44.6197961" lon="9.9694668"><ele>354.0</ele><time>2026-05-03T14:33:08.504Z</time></trkpt><trkpt lat="44.6198901" lon="9.9693836"><ele>354.0</ele><time>2026-05-03T14:33:09.504Z</time></trkpt><trkpt lat="44.6199823" lon="9.9692936"><ele>354.0</ele><time>2026-05-03T14:33:10.504Z</time></trkpt><trkpt lat="44.6200788" lon="9.9692058"><ele>354.0</ele><time>2026-05-03T14:33:11.504Z</time></trkpt><trkpt lat="44.6201773" lon="9.9691099"><ele>354.0</ele><time>2026-05-03T14:33:12.504Z</time></trkpt><trkpt lat="44.6202739" lon="9.9690134"><ele>354.0</ele><time>2026-05-03T14:33:13.504Z</time></trkpt><trkpt lat="44.6203699" lon="9.9689167"><ele>356.0</ele><time>2026-05-03T14:33:14.505Z</time></trkpt><trkpt lat="44.6204683" lon="9.9688358"><ele>358.0</ele><time>2026-05-03T14:33:15.504Z</time></trkpt><trkpt lat="44.620569" lon="9.9687814"><ele>360.0</ele><time>2026-05-03T14:33:16.505Z</time></trkpt><trkpt lat="44.6206728" lon="9.9687523"><ele>362.0</ele><time>2026-05-03T14:33:17.504Z</time></trkpt><trkpt lat="44.6207674" lon="9.9687215"><ele>364.0</ele><time>2026-05-03T14:33:18.505Z</time></trkpt><trkpt lat="44.6208357" lon="9.9686517"><ele>364.0</ele><time>2026-05-03T14:33:19.504Z</time></trkpt><trkpt lat="44.6208797" lon="9.9685641"><ele>364.0</ele><time>2026-05-03T14:33:20.504Z</time></trkpt><trkpt lat="44.6208987" lon="9.9684532"><ele>364.0</ele><time>2026-05-03T14:33:21.504Z</time></trkpt><trkpt lat="44.6208856" lon="9.9683426"><ele>364.0</ele><time>2026-05-03T14:33:22.504Z</time></trkpt><trkpt lat="44.6208746" lon="9.9682237"><ele>364.0</ele><time>2026-05-03T14:33:23.504Z</time></trkpt><trkpt lat="44.6208926" lon="9.9681147"><ele>364.0</ele><time>2026-05-03T14:33:24.504Z</time></trkpt><trkpt lat="44.6209381" lon="9.9680146"><ele>365.66666666666663</ele><time>2026-05-03T14:33:25.504Z</time></trkpt><trkpt lat="44.6209993" lon="9.9679358"><ele>367.3333333333333</ele><time>2026-05-03T14:33:26.504Z</time></trkpt><trkpt lat="44.621072" lon="9.967868"><ele>369.0</ele><time>2026-05-03T14:33:27.504Z</time></trkpt><trkpt lat="44.6211552" lon="9.9678016"><ele>370.6666666666667</ele><time>2026-05-03T14:33:28.504Z</time></trkpt><trkpt lat="44.6212314" lon="9.9677344"><ele>372.33333333333337</ele><time>2026-05-03T14:33:29.504Z</time></trkpt><trkpt lat="44.6213143" lon="9.9676819"><ele>374.0</ele><time>2026-05-03T14:33:30.504Z</time></trkpt><trkpt lat="44.6214074" lon="9.9676408"><ele>374.0</ele><time>2026-05-03T14:33:31.504Z</time></trkpt><trkpt lat="44.6215003" lon="9.9676339"><ele>374.0</ele><time>2026-05-03T14:33:32.504Z</time></trkpt><trkpt lat="44.6216051" lon="9.9676324"><ele>374.0</ele><time>2026-05-03T14:33:33.504Z</time></trkpt><trkpt lat="44.6216808" lon="9.9677137"><ele>374.0</ele><time>2026-05-03T14:33:34.504Z</time></trkpt><trkpt lat="44.6217575" lon="9.9677867"><ele>374.0</ele><time>2026-05-03T14:33:35.505Z</time></trkpt><trkpt lat="44.6218197" lon="9.9678867"><ele>374.0</ele><time>2026-05-03T14:33:36.505Z</time></trkpt><trkpt lat="44.6218791" lon="9.9680037"><ele>374.0</ele><time>2026-05-03T14:33:37.504Z</time></trkpt><trkpt lat="44.6219178" lon="9.9681272"><ele>374.0</ele><time>2026-05-03T14:33:38.504Z</time></trkpt><trkpt lat="44.6219544" lon="9.9682506"><ele>374.0</ele><time>2026-05-03T14:33:39.504Z</time></trkpt><trkpt lat="44.6219946" lon="9.9683718"><ele>374.0</ele><time>2026-05-03T14:33:40.504Z</time></trkpt><trkpt lat="44.6220556" lon="9.9684773"><ele>373.5</ele><time>2026-05-03T14:33:41.503Z</time></trkpt><trkpt lat="44.6221094" lon="9.9685687"><ele>373.0</ele><time>2026-05-03T14:33:42.503Z</time></trkpt><trkpt lat="44.6221749" lon="9.9686361"><ele>372.5</ele><time>2026-05-03T14:33:43.503Z</time></trkpt><trkpt lat="44.6222492" lon="9.9686904"><ele>372.0</ele><time>2026-05-03T14:33:44.503Z</time></trkpt><trkpt lat="44.6223224" lon="9.9687278"><ele>371.5</ele><time>2026-05-03T14:33:45.503Z</time></trkpt><trkpt lat="44.6223948" lon="9.9687535"><ele>371.0</ele><time>2026-05-03T14:33:46.503Z</time></trkpt><trkpt lat="44.6224638" lon="9.9687838"><ele>371.0</ele><time>2026-05-03T14:33:47.504Z</time></trkpt><trkpt lat="44.6225252" lon="9.9688162"><ele>371.0</ele><time>2026-05-03T14:33:48.503Z</time></trkpt><trkpt lat="44.6226113" lon="9.9689303"><ele>371.0</ele><time>2026-05-03T14:33:50.503Z</time></trkpt><trkpt lat="44.6227195" lon="9.9690345"><ele>371.0</ele><time>2026-05-03T14:33:52.503Z</time></trkpt><trkpt lat="44.6227873" lon="9.9690857"><ele>371.0</ele><time>2026-05-03T14:33:53.504Z</time></trkpt><trkpt lat="44.6228569" lon="9.9691309"><ele>370.83333333333337</ele><time>2026-05-03T14:33:54.503Z</time></trkpt><trkpt lat="44.6229314" lon="9.969177"><ele>370.6666666666667</ele><time>2026-05-03T14:33:55.503Z</time></trkpt><trkpt lat="44.6230048" lon="9.9692268"><ele>370.5</ele><time>2026-05-03T14:33:56.503Z</time></trkpt><trkpt lat="44.6230833" lon="9.9692749"><ele>370.3333333333333</ele><time>2026-05-03T14:33:57.503Z</time></trkpt><trkpt lat="44.6231713" lon="9.9693204"><ele>370.16666666666663</ele><time>2026-05-03T14:33:58.503Z</time></trkpt><trkpt lat="44.6232549" lon="9.9693645"><ele>370.0</ele><time>2026-05-03T14:33:59.504Z</time></trkpt><trkpt lat="44.6233398" lon="9.9694121"><ele>367.4</ele><time>2026-05-03T14:34:00.503Z</time></trkpt><trkpt lat="44.623425" lon="9.9694618"><ele>364.8</ele><time>2026-05-03T14:34:01.503Z</time></trkpt><trkpt lat="44.6235322" lon="9.969536"><ele>362.20000000000005</ele><time>2026-05-03T14:34:03.503Z</time></trkpt><trkpt lat="44.6235892" lon="9.9696626"><ele>359.6</ele><time>2026-05-03T14:34:05.503Z</time></trkpt><trkpt lat="44.6236016" lon="9.9697633"><ele>357.0</ele><time>2026-05-03T14:34:06.503Z</time></trkpt><trkpt lat="44.6235764" lon="9.9698719"><ele>357.0</ele><time>2026-05-03T14:34:07.503Z</time></trkpt><trkpt lat="44.6235786" lon="9.9699887"><ele>357.0</ele><time>2026-05-03T14:34:08.503Z</time></trkpt><trkpt lat="44.6235477" lon="9.9701214"><ele>357.0</ele><time>2026-05-03T14:34:09.503Z</time></trkpt><trkpt lat="44.6235466" lon="9.9702414"><ele>357.0</ele><time>2026-05-03T14:34:10.503Z</time></trkpt><trkpt lat="44.6235495" lon="9.9703598"><ele>357.0</ele><time>2026-05-03T14:34:11.503Z</time></trkpt><trkpt lat="44.6235449" lon="9.9704832"><ele>357.0</ele><time>2026-05-03T14:34:12.503Z</time></trkpt><trkpt lat="44.6235376" lon="9.9706177"><ele>354.8</ele><time>2026-05-03T14:34:13.504Z</time></trkpt><trkpt lat="44.623522" lon="9.9707506"><ele>352.6</ele><time>2026-05-03T14:34:14.503Z</time></trkpt><trkpt lat="44.6235097" lon="9.9708846"><ele>350.40000000000003</ele><time>2026-05-03T14:34:15.503Z</time></trkpt><trkpt lat="44.6234481" lon="9.9710662"><ele>348.20000000000005</ele><time>2026-05-03T14:34:17.504Z</time></trkpt><trkpt lat="44.6234036" lon="9.9711615"><ele>346.0</ele><time>2026-05-03T14:34:18.504Z</time></trkpt><trkpt lat="44.6233562" lon="9.9712601"><ele>344.66666666666663</ele><time>2026-05-03T14:34:19.503Z</time></trkpt><trkpt lat="44.6233079" lon="9.9713777"><ele>343.3333333333333</ele><time>2026-05-03T14:34:20.503Z</time></trkpt><trkpt lat="44.6232646" lon="9.9714864"><ele>342.0</ele><time>2026-05-03T14:34:21.503Z</time></trkpt><trkpt lat="44.6232224" lon="9.9715722"><ele>340.6666666666667</ele><time>2026-05-03T14:34:22.503Z</time></trkpt><trkpt lat="44.6231876" lon="9.9716471"><ele>339.33333333333337</ele><time>2026-05-03T14:34:23.503Z</time></trkpt><trkpt lat="44.6231607" lon="9.9718153"><ele>338.0</ele><time>2026-05-03T14:34:25.503Z</time></trkpt><trkpt lat="44.6231092" lon="9.9719684"><ele>336.83333333333337</ele><time>2026-05-03T14:34:27.503Z</time></trkpt><trkpt lat="44.6230192" lon="9.9720617"><ele>335.6666666666667</ele><time>2026-05-03T14:34:29.504Z</time></trkpt><trkpt lat="44.6229415" lon="9.9721791"><ele>334.5</ele><time>2026-05-03T14:34:31.504Z</time></trkpt><trkpt lat="44.6228823" lon="9.9722448"><ele>333.3333333333333</ele><time>2026-05-03T14:34:32.503Z</time></trkpt><trkpt lat="44.6228159" lon="9.9722973"><ele>332.16666666666663</ele><time>2026-05-03T14:34:33.503Z</time></trkpt><trkpt lat="44.6227635" lon="9.9723607"><ele>331.0</ele><time>2026-05-03T14:34:34.503Z</time></trkpt><trkpt lat="44.6227077" lon="9.9724199"><ele>330.16666666666663</ele><time>2026-05-03T14:34:35.503Z</time></trkpt><trkpt lat="44.622638" lon="9.9724756"><ele>329.3333333333333</ele><time>2026-05-03T14:34:36.503Z</time></trkpt><trkpt lat="44.6225663" lon="9.9725084"><ele>328.5</ele><time>2026-05-03T14:34:37.504Z</time></trkpt><trkpt lat="44.6224868" lon="9.9725333"><ele>327.6666666666667</ele><time>2026-05-03T14:34:38.504Z</time></trkpt><trkpt lat="44.6224049" lon="9.9725495"><ele>326.83333333333337</ele><time>2026-05-03T14:34:39.503Z</time></trkpt><trkpt lat="44.6223185" lon="9.9725688"><ele>326.0</ele><time>2026-05-03T14:34:40.503Z</time></trkpt><trkpt lat="44.6222439" lon="9.9725832"><ele>324.6</ele><time>2026-05-03T14:34:41.503Z</time></trkpt><trkpt lat="44.6221756" lon="9.9725941"><ele>323.20000000000005</ele><time>2026-05-03T14:34:42.504Z</time></trkpt><trkpt lat="44.6221063" lon="9.9726054"><ele>321.79999999999995</ele><time>2026-05-03T14:34:43.504Z</time></trkpt><trkpt lat="44.6220413" lon="9.9726224"><ele>320.4</ele><time>2026-05-03T14:34:44.503Z</time></trkpt><trkpt lat="44.6219348" lon="9.9726939"><ele>319.0</ele><time>2026-05-03T14:34:46.503Z</time></trkpt><trkpt lat="44.6218765" lon="9.9728678"><ele>317.59999999999997</ele><time>2026-05-03T14:34:48.503Z</time></trkpt><trkpt lat="44.6218589" lon="9.9729944"><ele>316.2</ele><time>2026-05-03T14:34:49.503Z</time></trkpt><trkpt lat="44.6218549" lon="9.9731289"><ele>314.79999999999995</ele><time>2026-05-03T14:34:50.503Z</time></trkpt><trkpt lat="44.6218569" lon="9.9732805"><ele>313.4</ele><time>2026-05-03T14:34:51.503Z</time></trkpt><trkpt lat="44.621862" lon="9.9734031"><ele>312.0</ele><time>2026-05-03T14:34:52.503Z</time></trkpt><trkpt lat="44.6218562" lon="9.9735031"><ele>311.0</ele><time>2026-05-03T14:34:53.503Z</time></trkpt><trkpt lat="44.6218329" lon="9.9736012"><ele>310.0</ele><time>2026-05-03T14:34:54.505Z</time></trkpt><trkpt lat="44.6218095" lon="9.9737101"><ele>309.0</ele><time>2026-05-03T14:34:55.503Z</time></trkpt><trkpt lat="44.6217902" lon="9.9738516"><ele>308.0</ele><time>2026-05-03T14:34:56.504Z</time></trkpt><trkpt lat="44.6217644" lon="9.9739982"><ele>307.0</ele><time>2026-05-03T14:34:57.503Z</time></trkpt><trkpt lat="44.6217332" lon="9.9741361"><ele>305.8</ele><time>2026-05-03T14:34:58.503Z</time></trkpt><trkpt lat="44.6216856" lon="9.9742645"><ele>304.6</ele><time>2026-05-03T14:34:59.504Z</time></trkpt><trkpt lat="44.6216398" lon="9.9743912"><ele>303.40000000000003</ele><time>2026-05-03T14:35:00.503Z</time></trkpt><trkpt lat="44.6215927" lon="9.974513"><ele>302.2</ele><time>2026-05-03T14:35:01.504Z</time></trkpt><trkpt lat="44.6215497" lon="9.9746475"><ele>301.0</ele><time>2026-05-03T14:35:02.503Z</time></trkpt><trkpt lat="44.6214979" lon="9.974771"><ele>301.0</ele><time>2026-05-03T14:35:03.503Z</time></trkpt><trkpt lat="44.6214412" lon="9.9749027"><ele>301.0</ele><time>2026-05-03T14:35:04.503Z</time></trkpt><trkpt lat="44.6213854" lon="9.9750265"><ele>301.0</ele><time>2026-05-03T14:35:05.503Z</time></trkpt><trkpt lat="44.6213236" lon="9.9751451"><ele>301.0</ele><time>2026-05-03T14:35:06.504Z</time></trkpt><trkpt lat="44.6212683" lon="9.9752446"><ele>301.0</ele><time>2026-05-03T14:35:07.503Z</time></trkpt><trkpt lat="44.621218" lon="9.9753332"><ele>299.3333333333333</ele><time>2026-05-03T14:35:08.503Z</time></trkpt><trkpt lat="44.6211635" lon="9.9754028"><ele>297.66666666666663</ele><time>2026-05-03T14:35:09.503Z</time></trkpt><trkpt lat="44.6211117" lon="9.9754533"><ele>296.0</ele><time>2026-05-03T14:35:10.503Z</time></trkpt><trkpt lat="44.6209936" lon="9.9755012"><ele>294.3333333333333</ele><time>2026-05-03T14:35:12.503Z</time></trkpt><trkpt lat="44.6208931" lon="9.9755073"><ele>292.6666666666667</ele><time>2026-05-03T14:35:14.503Z</time></trkpt><trkpt lat="44.6208242" lon="9.9755709"><ele>291.0</ele><time>2026-05-03T14:35:16.504Z</time></trkpt><trkpt lat="44.6207882" lon="9.9756477"><ele>290.1666666666667</ele><time>2026-05-03T14:35:17.504Z</time></trkpt><trkpt lat="44.6207559" lon="9.9757491"><ele>289.3333333333333</ele><time>2026-05-03T14:35:18.504Z</time></trkpt><trkpt lat="44.6207056" lon="9.9758484"><ele>288.5</ele><time>2026-05-03T14:35:19.503Z</time></trkpt><trkpt lat="44.6206473" lon="9.9759443"><ele>287.66666666666663</ele><time>2026-05-03T14:35:20.503Z</time></trkpt><trkpt lat="44.6205969" lon="9.9760483"><ele>286.8333333333333</ele><time>2026-05-03T14:35:21.503Z</time></trkpt><trkpt lat="44.6205467" lon="9.9761321"><ele>286.0</ele><time>2026-05-03T14:35:22.503Z</time></trkpt><trkpt lat="44.620457" lon="9.9762386"><ele>285.0</ele><time>2026-05-03T14:35:24.503Z</time></trkpt><trkpt lat="44.6203602" lon="9.9762553"><ele>284.0</ele><time>2026-05-03T14:35:26.504Z</time></trkpt><trkpt lat="44.6202685" lon="9.9761689"><ele>283.0</ele><time>2026-05-03T14:35:28.503Z</time></trkpt><trkpt lat="44.6202145" lon="9.9761063"><ele>282.0</ele><time>2026-05-03T14:35:29.504Z</time></trkpt><trkpt lat="44.6201493" lon="9.9760493"><ele>281.0</ele><time>2026-05-03T14:35:30.503Z</time></trkpt><trkpt lat="44.6200669" lon="9.9760121"><ele>280.0</ele><time>2026-05-03T14:35:31.503Z</time></trkpt><trkpt lat="44.6199672" lon="9.9759895"><ele>279.2</ele><time>2026-05-03T14:35:32.503Z</time></trkpt><trkpt lat="44.6198686" lon="9.9759763"><ele>278.4</ele><time>2026-05-03T14:35:33.504Z</time></trkpt><trkpt lat="44.6197716" lon="9.97597"><ele>277.6</ele><time>2026-05-03T14:35:34.503Z</time></trkpt><trkpt lat="44.6196809" lon="9.9759706"><ele>276.8</ele><time>2026-05-03T14:35:35.503Z</time></trkpt><trkpt lat="44.6195948" lon="9.9759919"><ele>276.0</ele><time>2026-05-03T14:35:36.503Z</time></trkpt><trkpt lat="44.619512" lon="9.9760344"><ele>275.5</ele><time>2026-05-03T14:35:37.503Z</time></trkpt><trkpt lat="44.6194486" lon="9.9760758"><ele>275.0</ele><time>2026-05-03T14:35:38.503Z</time></trkpt><trkpt lat="44.6193848" lon="9.9761418"><ele>274.5</ele><time>2026-05-03T14:35:39.503Z</time></trkpt><trkpt lat="44.6193356" lon="9.9762186"><ele>274.0</ele><time>2026-05-03T14:35:40.503Z</time></trkpt><trkpt lat="44.6193069" lon="9.9763007"><ele>273.5</ele><time>2026-05-03T14:35:41.503Z</time></trkpt><trkpt lat="44.6192661" lon="9.9764636"><ele>273.0</ele><time>2026-05-03T14:35:43.503Z</time></trkpt><trkpt lat="44.61924" lon="9.9765477"><ele>273.0</ele><time>2026-05-03T14:35:44.503Z</time></trkpt><trkpt lat="44.6191784" lon="9.9766034"><ele>273.0</ele><time>2026-05-03T14:35:45.503Z</time></trkpt><trkpt lat="44.6191089" lon="9.9767184"><ele>273.0</ele><time>2026-05-03T14:35:47.503Z</time></trkpt><trkpt lat="44.6191134" lon="9.9768195"><ele>273.0</ele><time>2026-05-03T14:35:48.503Z</time></trkpt><trkpt lat="44.61914" lon="9.9769425"><ele>273.0</ele><time>2026-05-03T14:35:49.504Z</time></trkpt><trkpt lat="44.6191576" lon="9.9770665"><ele>273.0</ele><time>2026-05-03T14:35:50.504Z</time></trkpt><trkpt lat="44.6191825" lon="9.9772129"><ele>274.8333333333333</ele><time>2026-05-03T14:35:51.505Z</time></trkpt><trkpt lat="44.6191964" lon="9.9773312"><ele>276.6666666666667</ele><time>2026-05-03T14:35:52.503Z</time></trkpt><trkpt lat="44.619234" lon="9.9774357"><ele>278.5</ele><time>2026-05-03T14:35:53.503Z</time></trkpt><trkpt lat="44.6192437" lon="9.9775235"><ele>280.33333333333337</ele><time>2026-05-03T14:35:54.503Z</time></trkpt><trkpt lat="44.6191837" lon="9.9775879"><ele>282.1666666666667</ele><time>2026-05-03T14:35:55.503Z</time></trkpt><trkpt lat="44.619079" lon="9.977631"><ele>284.0</ele><time>2026-05-03T14:35:57.503Z</time></trkpt><trkpt lat="44.6189552" lon="9.9775597"><ele>284.0</ele><time>2026-05-03T14:35:59.504Z</time></trkpt><trkpt lat="44.6188811" lon="9.9775195"><ele>284.0</ele><time>2026-05-03T14:36:00.503Z</time></trkpt><trkpt lat="44.6188125" lon="9.9774819"><ele>284.0</ele><time>2026-05-03T14:36:01.504Z</time></trkpt><trkpt lat="44.6186956" lon="9.9774778"><ele>284.0</ele><time>2026-05-03T14:36:02.503Z</time></trkpt><trkpt lat="44.6185729" lon="9.9774665"><ele>284.0</ele><time>2026-05-03T14:36:03.503Z</time></trkpt><trkpt lat="44.6184524" lon="9.9774557"><ele>284.0</ele><time>2026-05-03T14:36:04.503Z</time></trkpt><trkpt lat="44.6183473" lon="9.977445"><ele>284.0</ele><time>2026-05-03T14:36:05.504Z</time></trkpt><trkpt lat="44.6182666" lon="9.9774263"><ele>284.0</ele><time>2026-05-03T14:36:06.503Z</time></trkpt><trkpt lat="44.6181976" lon="9.977402"><ele>284.0</ele><time>2026-05-03T14:36:07.503Z</time></trkpt><trkpt lat="44.6181318" lon="9.9773688"><ele>284.0</ele><time>2026-05-03T14:36:08.504Z</time></trkpt><trkpt lat="44.6180661" lon="9.9773105"><ele>284.0</ele><time>2026-05-03T14:36:09.505Z</time></trkpt><trkpt lat="44.6179848" lon="9.9772408"><ele>284.0</ele><time>2026-05-03T14:36:10.504Z</time></trkpt><trkpt lat="44.6178822" lon="9.9771788"><ele>284.0</ele><time>2026-05-03T14:36:11.503Z</time></trkpt><trkpt lat="44.6177717" lon="9.9771213"><ele>284.0</ele><time>2026-05-03T14:36:12.503Z</time></trkpt><trkpt lat="44.6176549" lon="9.977064"><ele>284.0</ele><time>2026-05-03T14:36:13.503Z</time></trkpt><trkpt lat="44.6175383" lon="9.9770179"><ele>282.75</ele><time>2026-05-03T14:36:14.503Z</time></trkpt><trkpt lat="44.6174226" lon="9.9770088"><ele>281.5</ele><time>2026-05-03T14:36:15.503Z</time></trkpt><trkpt lat="44.6173071" lon="9.9770395"><ele>280.25</ele><time>2026-05-03T14:36:16.503Z</time></trkpt><trkpt lat="44.6171937" lon="9.9771052"><ele>279.0</ele><time>2026-05-03T14:36:17.504Z</time></trkpt><trkpt lat="44.6170782" lon="9.9771983"><ele>277.5</ele><time>2026-05-03T14:36:18.503Z</time></trkpt><trkpt lat="44.6169703" lon="9.977287"><ele>276.0</ele><time>2026-05-03T14:36:19.503Z</time></trkpt><trkpt lat="44.6168598" lon="9.9773662"><ele>274.5</ele><time>2026-05-03T14:36:20.504Z</time></trkpt><trkpt lat="44.6167471" lon="9.9774344"><ele>273.0</ele><time>2026-05-03T14:36:21.503Z</time></trkpt><trkpt lat="44.6166443" lon="9.9774981"><ele>274.0</ele><time>2026-05-03T14:36:22.503Z</time></trkpt><trkpt lat="44.6165355" lon="9.9775805"><ele>275.0</ele><time>2026-05-03T14:36:23.503Z</time></trkpt><trkpt lat="44.616436" lon="9.9776939"><ele>276.0</ele><time>2026-05-03T14:36:24.503Z</time></trkpt><trkpt lat="44.6163498" lon="9.9778108"><ele>277.0</ele><time>2026-05-03T14:36:25.503Z</time></trkpt><trkpt lat="44.6162858" lon="9.9779425"><ele>277.0</ele><time>2026-05-03T14:36:26.503Z</time></trkpt><trkpt lat="44.6162535" lon="9.9780938"><ele>277.0</ele><time>2026-05-03T14:36:27.503Z</time></trkpt><trkpt lat="44.6162467" lon="9.9782616"><ele>277.0</ele><time>2026-05-03T14:36:28.503Z</time></trkpt><trkpt lat="44.6162547" lon="9.9784336"><ele>277.0</ele><time>2026-05-03T14:36:29.503Z</time></trkpt><trkpt lat="44.6162644" lon="9.9786158"><ele>276.5</ele><time>2026-05-03T14:36:30.503Z</time></trkpt><trkpt lat="44.6162786" lon="9.978796"><ele>276.0</ele><time>2026-05-03T14:36:31.503Z</time></trkpt><trkpt lat="44.6162904" lon="9.9789846"><ele>275.5</ele><time>2026-05-03T14:36:32.504Z</time></trkpt><trkpt lat="44.6163013" lon="9.9791694"><ele>275.0</ele><time>2026-05-03T14:36:33.504Z</time></trkpt><trkpt lat="44.6163132" lon="9.9793564"><ele>273.5</ele><time>2026-05-03T14:36:34.503Z</time></trkpt><trkpt lat="44.6163252" lon="9.9795361"><ele>272.0</ele><time>2026-05-03T14:36:35.503Z</time></trkpt><trkpt lat="44.6163412" lon="9.9797105"><ele>270.5</ele><time>2026-05-03T14:36:36.503Z</time></trkpt><trkpt lat="44.6163577" lon="9.9798772"><ele>269.0</ele><time>2026-05-03T14:36:37.503Z</time></trkpt><trkpt lat="44.6163704" lon="9.9800406"><ele>267.83333333333337</ele><time>2026-05-03T14:36:38.503Z</time></trkpt><trkpt lat="44.6163837" lon="9.9801753"><ele>266.6666666666667</ele><time>2026-05-03T14:36:39.504Z</time></trkpt><trkpt lat="44.6164082" lon="9.9802906"><ele>265.5</ele><time>2026-05-03T14:36:40.503Z</time></trkpt><trkpt lat="44.6164506" lon="9.9803943"><ele>264.3333333333333</ele><time>2026-05-03T14:36:41.503Z</time></trkpt><trkpt lat="44.6165047" lon="9.9804791"><ele>263.16666666666663</ele><time>2026-05-03T14:36:42.503Z</time></trkpt><trkpt lat="44.616569" lon="9.9805597"><ele>262.0</ele><time>2026-05-03T14:36:43.503Z</time></trkpt><trkpt lat="44.6166267" lon="9.9806344"><ele>262.0</ele><time>2026-05-03T14:36:44.503Z</time></trkpt><trkpt lat="44.6166797" lon="9.9807122"><ele>262.0</ele><time>2026-05-03T14:36:45.503Z</time></trkpt><trkpt lat="44.6167152" lon="9.9807859"><ele>262.0</ele><time>2026-05-03T14:36:46.504Z</time></trkpt><trkpt lat="44.6167338" lon="9.9809384"><ele>262.0</ele><time>2026-05-03T14:36:48.503Z</time></trkpt><trkpt lat="44.6166547" lon="9.9810161"><ele>262.0</ele><time>2026-05-03T14:36:49.503Z</time></trkpt><trkpt lat="44.6165902" lon="9.9810357"><ele>262.0</ele><time>2026-05-03T14:36:50.503Z</time></trkpt><trkpt lat="44.6165198" lon="9.9810027"><ele>262.0</ele><time>2026-05-03T14:36:51.504Z</time></trkpt><trkpt lat="44.616457" lon="9.9809367"><ele>262.0</ele><time>2026-05-03T14:36:52.503Z</time></trkpt><trkpt lat="44.6163829" lon="9.9808548"><ele>262.0</ele><time>2026-05-03T14:36:53.503Z</time></trkpt><trkpt lat="44.6163113" lon="9.9807622"><ele>262.0</ele><time>2026-05-03T14:36:54.503Z</time></trkpt><trkpt lat="44.6162434" lon="9.9806462"><ele>262.0</ele><time>2026-05-03T14:36:55.503Z</time></trkpt><trkpt lat="44.6161761" lon="9.980529"><ele>259.2</ele><time>2026-05-03T14:36:56.503Z</time></trkpt><trkpt lat="44.6161071" lon="9.9804148"><ele>256.4</ele><time>2026-05-03T14:36:57.503Z</time></trkpt><trkpt lat="44.6160468" lon="9.9802909"><ele>253.60000000000002</ele><time>2026-05-03T14:36:58.503Z</time></trkpt><trkpt lat="44.6159908" lon="9.9801727"><ele>250.8</ele><time>2026-05-03T14:36:59.503Z</time></trkpt><trkpt lat="44.6159333" lon="9.9800486"><ele>248.0</ele><time>2026-05-03T14:37:00.503Z</time></trkpt><trkpt lat="44.6158819" lon="9.9799261"><ele>248.0</ele><time>2026-05-03T14:37:01.503Z</time></trkpt><trkpt lat="44.6158283" lon="9.9798018"><ele>248.0</ele><time>2026-05-03T14:37:02.504Z</time></trkpt><trkpt lat="44.6157767" lon="9.9796948"><ele>248.0</ele><time>2026-05-03T14:37:03.503Z</time></trkpt><trkpt lat="44.6157262" lon="9.9795893"><ele>248.0</ele><time>2026-05-03T14:37:04.503Z</time></trkpt><trkpt lat="44.615676" lon="9.9794858"><ele>248.0</ele><time>2026-05-03T14:37:05.503Z</time></trkpt><trkpt lat="44.6156303" lon="9.9793947"><ele>248.00000000000003</ele><time>2026-05-03T14:37:06.503Z</time></trkpt><trkpt lat="44.6155941" lon="9.9793105"><ele>248.0</ele><time>2026-05-03T14:37:07.504Z</time></trkpt><trkpt lat="44.6155596" lon="9.9792321"><ele>248.0</ele><time>2026-05-03T14:37:08.503Z</time></trkpt><trkpt lat="44.6154933" lon="9.9791019"><ele>248.0</ele><time>2026-05-03T14:37:10.503Z</time></trkpt><trkpt lat="44.6154161" lon="9.9790227"><ele>248.00000000000003</ele><time>2026-05-03T14:37:12.504Z</time></trkpt><trkpt lat="44.6153417" lon="9.9790752"><ele>248.0</ele><time>2026-05-03T14:37:15.504Z</time></trkpt><trkpt lat="44.6153732" lon="9.9792221"><ele>248.0</ele><time>2026-05-03T14:37:17.503Z</time></trkpt><trkpt lat="44.6154233" lon="9.9793157"><ele>248.0</ele><time>2026-05-03T14:37:18.503Z</time></trkpt><trkpt lat="44.6154759" lon="9.9794228"><ele>248.0</ele><time>2026-05-03T14:37:19.503Z</time></trkpt><trkpt lat="44.6155381" lon="9.9795483"><ele>248.0</ele><time>2026-05-03T14:37:20.503Z</time></trkpt><trkpt lat="44.6156006" lon="9.9796869"><ele>248.0</ele><time>2026-05-03T14:37:21.503Z</time></trkpt><trkpt lat="44.6156655" lon="9.9798423"><ele>248.0</ele><time>2026-05-03T14:37:22.503Z</time></trkpt><trkpt lat="44.6157331" lon="9.9800024"><ele>248.0</ele><time>2026-05-03T14:37:23.503Z</time></trkpt><trkpt lat="44.6158067" lon="9.9801813"><ele>248.0</ele><time>2026-05-03T14:37:24.504Z</time></trkpt><trkpt lat="44.6158783" lon="9.9803657"><ele>248.0</ele><time>2026-05-03T14:37:25.504Z</time></trkpt><trkpt lat="44.6159512" lon="9.9805534"><ele>245.33333333333334</ele><time>2026-05-03T14:37:26.503Z</time></trkpt><trkpt lat="44.616025" lon="9.980742"><ele>242.66666666666669</ele><time>2026-05-03T14:37:27.503Z</time></trkpt><trkpt lat="44.6160949" lon="9.9809252"><ele>240.0</ele><time>2026-05-03T14:37:28.503Z</time></trkpt><trkpt lat="44.6161625" lon="9.9811129"><ele>243.0</ele><time>2026-05-03T14:37:29.503Z</time></trkpt><trkpt lat="44.6162231" lon="9.9813051"><ele>246.0</ele><time>2026-05-03T14:37:30.503Z</time></trkpt><trkpt lat="44.6162762" lon="9.9815044"><ele>249.0</ele><time>2026-05-03T14:37:31.503Z</time></trkpt><trkpt lat="44.6163239" lon="9.9816985"><ele>252.0</ele><time>2026-05-03T14:37:32.503Z</time></trkpt><trkpt lat="44.616369" lon="9.9818992"><ele>252.0</ele><time>2026-05-03T14:37:33.503Z</time></trkpt><trkpt lat="44.6164168" lon="9.9821008"><ele>252.0</ele><time>2026-05-03T14:37:34.503Z</time></trkpt><trkpt lat="44.616463" lon="9.9822973"><ele>252.0</ele><time>2026-05-03T14:37:35.503Z</time></trkpt><trkpt lat="44.6165052" lon="9.982502"><ele>251.33333333333331</ele><time>2026-05-03T14:37:36.503Z</time></trkpt><trkpt lat="44.6165301" lon="9.982705"><ele>250.66666666666666</ele><time>2026-05-03T14:37:37.503Z</time></trkpt><trkpt lat="44.6165373" lon="9.982917"><ele>250.0</ele><time>2026-05-03T14:37:38.503Z</time></trkpt><trkpt lat="44.616517" lon="9.9831285"><ele>250.0</ele><time>2026-05-03T14:37:39.503Z</time></trkpt><trkpt lat="44.6164717" lon="9.983331"><ele>250.0</ele><time>2026-05-03T14:37:40.503Z</time></trkpt><trkpt lat="44.6164391" lon="9.9835394"><ele>250.0</ele><time>2026-05-03T14:37:41.504Z</time></trkpt><trkpt lat="44.6164185" lon="9.9837507"><ele>252.66666666666666</ele><time>2026-05-03T14:37:42.504Z</time></trkpt><trkpt lat="44.6164046" lon="9.9839664"><ele>255.33333333333331</ele><time>2026-05-03T14:37:43.503Z</time></trkpt><trkpt lat="44.6164034" lon="9.9841818"><ele>258.0</ele><time>2026-05-03T14:37:44.504Z</time></trkpt><trkpt lat="44.6164039" lon="9.9843966"><ele>258.5</ele><time>2026-05-03T14:37:45.503Z</time></trkpt><trkpt lat="44.6164055" lon="9.9846047"><ele>259.0</ele><time>2026-05-03T14:37:46.503Z</time></trkpt><trkpt lat="44.6164145" lon="9.9848107"><ele>259.5</ele><time>2026-05-03T14:37:47.504Z</time></trkpt><trkpt lat="44.6163908" lon="9.9850071"><ele>260.0</ele><time>2026-05-03T14:37:48.504Z</time></trkpt><trkpt lat="44.6163478" lon="9.9851805"><ele>263.0</ele><time>2026-05-03T14:37:49.503Z</time></trkpt><trkpt lat="44.6162806" lon="9.9853304"><ele>266.0</ele><time>2026-05-03T14:37:50.503Z</time></trkpt><trkpt lat="44.6161859" lon="9.9854471"><ele>269.0</ele><time>2026-05-03T14:37:51.503Z</time></trkpt><trkpt lat="44.6160721" lon="9.9855411"><ele>272.0</ele><time>2026-05-03T14:37:52.504Z</time></trkpt><trkpt lat="44.615951" lon="9.9856275"><ele>260.25</ele><time>2026-05-03T14:37:53.503Z</time></trkpt><trkpt lat="44.6158222" lon="9.9857203"><ele>248.5</ele><time>2026-05-03T14:37:54.503Z</time></trkpt><trkpt lat="44.6156973" lon="9.9858122"><ele>236.75</ele><time>2026-05-03T14:37:55.504Z</time></trkpt><trkpt lat="44.6155706" lon="9.9859071"><ele>225.0</ele><time>2026-05-03T14:37:56.504Z</time></trkpt><trkpt lat="44.6154453" lon="9.986002"><ele>225.0</ele><time>2026-05-03T14:37:57.504Z</time></trkpt><trkpt lat="44.6153209" lon="9.9860988"><ele>225.0</ele><time>2026-05-03T14:37:58.504Z</time></trkpt><trkpt lat="44.6151927" lon="9.9861965"><ele>225.0</ele><time>2026-05-03T14:37:59.504Z</time></trkpt><trkpt lat="44.6150675" lon="9.986293"><ele>225.0</ele><time>2026-05-03T14:38:00.503Z</time></trkpt><trkpt lat="44.6149401" lon="9.9863891"><ele>225.25</ele><time>2026-05-03T14:38:01.503Z</time></trkpt><trkpt lat="44.614815" lon="9.9864874"><ele>225.5</ele><time>2026-05-03T14:38:02.502Z</time></trkpt><trkpt lat="44.6146867" lon="9.9865864"><ele>225.75</ele><time>2026-05-03T14:38:03.502Z</time></trkpt><trkpt lat="44.6145614" lon="9.9866883"><ele>226.0</ele><time>2026-05-03T14:38:04.502Z</time></trkpt><trkpt lat="44.6144342" lon="9.9867903"><ele>226.0</ele><time>2026-05-03T14:38:05.502Z</time></trkpt><trkpt lat="44.6143087" lon="9.986889"><ele>226.0</ele><time>2026-05-03T14:38:06.502Z</time></trkpt><trkpt lat="44.6141883" lon="9.9869883"><ele>226.0</ele><time>2026-05-03T14:38:07.502Z</time></trkpt><trkpt lat="44.614061" lon="9.9870849"><ele>226.0</ele><time>2026-05-03T14:38:08.503Z</time></trkpt><trkpt lat="44.6139348" lon="9.9871821"><ele>226.0</ele><time>2026-05-03T14:38:09.502Z</time></trkpt><trkpt lat="44.6138159" lon="9.9872778"><ele>226.0</ele><time>2026-05-03T14:38:10.502Z</time></trkpt><trkpt lat="44.6136972" lon="9.9873712"><ele>226.0</ele><time>2026-05-03T14:38:11.503Z</time></trkpt><trkpt lat="44.6135857" lon="9.9874694"><ele>226.0</ele><time>2026-05-03T14:38:12.502Z</time></trkpt><trkpt lat="44.6135107" lon="9.987582"><ele>232.0</ele><time>2026-05-03T14:38:13.502Z</time></trkpt><trkpt lat="44.6134648" lon="9.9877188"><ele>238.00000000000003</ele><time>2026-05-03T14:38:14.502Z</time></trkpt><trkpt lat="44.6134442" lon="9.9878606"><ele>244.00000000000003</ele><time>2026-05-03T14:38:15.502Z</time></trkpt><trkpt lat="44.6134753" lon="9.9880101"><ele>250.0</ele><time>2026-05-03T14:38:16.502Z</time></trkpt><trkpt lat="44.6135302" lon="9.9881481"><ele>256.0</ele><time>2026-05-03T14:38:17.502Z</time></trkpt><trkpt lat="44.6136096" lon="9.9882762"><ele>251.25</ele><time>2026-05-03T14:38:18.502Z</time></trkpt><trkpt lat="44.6136908" lon="9.9884132"><ele>246.5</ele><time>2026-05-03T14:38:19.502Z</time></trkpt><trkpt lat="44.6137622" lon="9.9885742"><ele>241.75</ele><time>2026-05-03T14:38:20.502Z</time></trkpt><trkpt lat="44.6138146" lon="9.9887542"><ele>237.0</ele><time>2026-05-03T14:38:21.502Z</time></trkpt><trkpt lat="44.6138538" lon="9.9889353"><ele>237.0</ele><time>2026-05-03T14:38:22.502Z</time></trkpt><trkpt lat="44.6138697" lon="9.9891337"><ele>237.0</ele><time>2026-05-03T14:38:23.502Z</time></trkpt><trkpt lat="44.6138921" lon="9.9893316"><ele>237.0</ele><time>2026-05-03T14:38:24.503Z</time></trkpt><trkpt lat="44.6139126" lon="9.989533"><ele>237.0</ele><time>2026-05-03T14:38:25.503Z</time></trkpt><trkpt lat="44.613939" lon="9.9897304"><ele>238.5</ele><time>2026-05-03T14:38:26.503Z</time></trkpt><trkpt lat="44.6139677" lon="9.9899254"><ele>240.0</ele><time>2026-05-03T14:38:27.502Z</time></trkpt><trkpt lat="44.6140002" lon="9.9901204"><ele>241.5</ele><time>2026-05-03T14:38:28.502Z</time></trkpt><trkpt lat="44.6140327" lon="9.9903126"><ele>243.0</ele><time>2026-05-03T14:38:29.502Z</time></trkpt><trkpt lat="44.6140585" lon="9.9905117"><ele>245.75</ele><time>2026-05-03T14:38:30.502Z</time></trkpt><trkpt lat="44.6140877" lon="9.9907108"><ele>248.5</ele><time>2026-05-03T14:38:31.502Z</time></trkpt><trkpt lat="44.6141245" lon="9.9909157"><ele>251.25</ele><time>2026-05-03T14:38:32.502Z</time></trkpt><trkpt lat="44.6141526" lon="9.9911094"><ele>254.0</ele><time>2026-05-03T14:38:33.502Z</time></trkpt><trkpt lat="44.6141751" lon="9.9913127"><ele>255.5</ele><time>2026-05-03T14:38:34.502Z</time></trkpt><trkpt lat="44.6142112" lon="9.9915162"><ele>257.0</ele><time>2026-05-03T14:38:35.502Z</time></trkpt><trkpt lat="44.6142378" lon="9.9917159"><ele>258.5</ele><time>2026-05-03T14:38:36.503Z</time></trkpt><trkpt lat="44.6142704" lon="9.9919208"><ele>260.0</ele><time>2026-05-03T14:38:37.503Z</time></trkpt><trkpt lat="44.6143087" lon="9.992122"><ele>261.0</ele><time>2026-05-03T14:38:38.502Z</time></trkpt><trkpt lat="44.6143431" lon="9.9923216"><ele>262.0</ele><time>2026-05-03T14:38:39.503Z</time></trkpt><trkpt lat="44.6143816" lon="9.9925248"><ele>263.0</ele><time>2026-05-03T14:38:40.502Z</time></trkpt><trkpt lat="44.6144231" lon="9.992724"><ele>264.0</ele><time>2026-05-03T14:38:41.502Z</time></trkpt><trkpt lat="44.6144564" lon="9.9929282"><ele>264.3333333333333</ele><time>2026-05-03T14:38:42.502Z</time></trkpt><trkpt lat="44.6144872" lon="9.9931348"><ele>264.66666666666663</ele><time>2026-05-03T14:38:43.503Z</time></trkpt><trkpt lat="44.6145233" lon="9.9933457"><ele>265.0</ele><time>2026-05-03T14:38:44.502Z</time></trkpt><trkpt lat="44.6145646" lon="9.9935577"><ele>265.0</ele><time>2026-05-03T14:38:45.502Z</time></trkpt><trkpt lat="44.6146214" lon="9.9937592"><ele>265.0</ele><time>2026-05-03T14:38:46.502Z</time></trkpt><trkpt lat="44.6146908" lon="9.9939587"><ele>265.0</ele><time>2026-05-03T14:38:47.502Z</time></trkpt><trkpt lat="44.6147648" lon="9.9941513"><ele>270.0</ele><time>2026-05-03T14:38:48.502Z</time></trkpt><trkpt lat="44.6148399" lon="9.9943455"><ele>275.0</ele><time>2026-05-03T14:38:49.503Z</time></trkpt><trkpt lat="44.6149158" lon="9.9945343"><ele>280.0</ele><time>2026-05-03T14:38:50.502Z</time></trkpt><trkpt lat="44.6149874" lon="9.9947228"><ele>280.0</ele><time>2026-05-03T14:38:51.502Z</time></trkpt><trkpt lat="44.6150561" lon="9.9949125"><ele>280.0</ele><time>2026-05-03T14:38:52.502Z</time></trkpt><trkpt lat="44.6151234" lon="9.9951054"><ele>280.0</ele><time>2026-05-03T14:38:53.502Z</time></trkpt><trkpt lat="44.6151866" lon="9.9953015"><ele>278.0</ele><time>2026-05-03T14:38:54.503Z</time></trkpt><trkpt lat="44.6152527" lon="9.9954963"><ele>276.0</ele><time>2026-05-03T14:38:55.502Z</time></trkpt><trkpt lat="44.6153046" lon="9.9956965"><ele>274.0</ele><time>2026-05-03T14:38:56.502Z</time></trkpt><trkpt lat="44.6153548" lon="9.9958945"><ele>274.0</ele><time>2026-05-03T14:38:57.502Z</time></trkpt><trkpt lat="44.6154165" lon="9.9960855"><ele>274.0</ele><time>2026-05-03T14:38:58.503Z</time></trkpt><trkpt lat="44.6154921" lon="9.9962676"><ele>274.0</ele><time>2026-05-03T14:38:59.502Z</time></trkpt><trkpt lat="44.6155706" lon="9.9964452"><ele>274.0</ele><time>2026-05-03T14:39:00.502Z</time></trkpt><trkpt lat="44.6156435" lon="9.9966311"><ele>277.0</ele><time>2026-05-03T14:39:01.502Z</time></trkpt><trkpt lat="44.615712" lon="9.9968255"><ele>280.0</ele><time>2026-05-03T14:39:02.502Z</time></trkpt><trkpt lat="44.6157697" lon="9.9970233"><ele>283.0</ele><time>2026-05-03T14:39:03.503Z</time></trkpt><trkpt lat="44.6158234" lon="9.9972231"><ele>283.0</ele><time>2026-05-03T14:39:04.502Z</time></trkpt><trkpt lat="44.6158826" lon="9.9974171"><ele>283.0</ele><time>2026-05-03T14:39:05.502Z</time></trkpt><trkpt lat="44.6159541" lon="9.9975952"><ele>283.0</ele><time>2026-05-03T14:39:06.503Z</time></trkpt><trkpt lat="44.6160465" lon="9.9977581"><ele>283.0</ele><time>2026-05-03T14:39:07.502Z</time></trkpt><trkpt lat="44.6161551" lon="9.9979039"><ele>283.3333333333333</ele><time>2026-05-03T14:39:08.502Z</time></trkpt><trkpt lat="44.6162764" lon="9.9980331"><ele>283.6666666666667</ele><time>2026-05-03T14:39:09.502Z</time></trkpt><trkpt lat="44.6164092" lon="9.9981422"><ele>284.0</ele><time>2026-05-03T14:39:10.502Z</time></trkpt><trkpt lat="44.6165503" lon="9.9982261"><ele>284.0</ele><time>2026-05-03T14:39:11.502Z</time></trkpt><trkpt lat="44.6166996" lon="9.998282"><ele>284.0</ele><time>2026-05-03T14:39:12.502Z</time></trkpt><trkpt lat="44.6168504" lon="9.9983244"><ele>284.0</ele><time>2026-05-03T14:39:13.502Z</time></trkpt><trkpt lat="44.617009" lon="9.9983854"><ele>288.33333333333337</ele><time>2026-05-03T14:39:14.504Z</time></trkpt><trkpt lat="44.6171534" lon="9.9984634"><ele>292.6666666666667</ele><time>2026-05-03T14:39:15.502Z</time></trkpt><trkpt lat="44.6172919" lon="9.9985531"><ele>297.0</ele><time>2026-05-03T14:39:16.502Z</time></trkpt><trkpt lat="44.6174316" lon="9.998655"><ele>297.0</ele><time>2026-05-03T14:39:17.502Z</time></trkpt><trkpt lat="44.6175677" lon="9.9987637"><ele>297.0</ele><time>2026-05-03T14:39:18.502Z</time></trkpt><trkpt lat="44.6177009" lon="9.9988845"><ele>297.0</ele><time>2026-05-03T14:39:19.502Z</time></trkpt><trkpt lat="44.6178232" lon="9.9990149"><ele>293.6666666666667</ele><time>2026-05-03T14:39:20.502Z</time></trkpt><trkpt lat="44.6179407" lon="9.9991624"><ele>290.33333333333337</ele><time>2026-05-03T14:39:21.502Z</time></trkpt><trkpt lat="44.6180469" lon="9.9993158"><ele>287.0</ele><time>2026-05-03T14:39:22.502Z</time></trkpt><trkpt lat="44.6181535" lon="9.9994578"><ele>287.0</ele><time>2026-05-03T14:39:23.502Z</time></trkpt><trkpt lat="44.6182702" lon="9.9995757"><ele>287.0</ele><time>2026-05-03T14:39:24.502Z</time></trkpt><trkpt lat="44.6183955" lon="9.9996637"><ele>287.0</ele><time>2026-05-03T14:39:25.502Z</time></trkpt><trkpt lat="44.6185204" lon="9.9997179"><ele>287.0</ele><time>2026-05-03T14:39:26.502Z</time></trkpt><trkpt lat="44.6186528" lon="9.9997656"><ele>281.5</ele><time>2026-05-03T14:39:27.502Z</time></trkpt><trkpt lat="44.6187838" lon="9.9998183"><ele>276.0</ele><time>2026-05-03T14:39:28.502Z</time></trkpt><trkpt lat="44.6189113" lon="9.9998931"><ele>270.5</ele><time>2026-05-03T14:39:29.502Z</time></trkpt><trkpt lat="44.6190316" lon="9.9999917"><ele>265.0</ele><time>2026-05-03T14:39:30.502Z</time></trkpt><trkpt lat="44.6191432" lon="10.0001082"><ele>265.0</ele><time>2026-05-03T14:39:31.502Z</time></trkpt><trkpt lat="44.6192471" lon="10.0002448"><ele>265.0</ele><time>2026-05-03T14:39:32.503Z</time></trkpt><trkpt lat="44.6193477" lon="10.000382"><ele>265.0</ele><time>2026-05-03T14:39:33.503Z</time></trkpt><trkpt lat="44.6194408" lon="10.0005246"><ele>265.0</ele><time>2026-05-03T14:39:34.502Z</time></trkpt><trkpt lat="44.619525" lon="10.0006762"><ele>261.25</ele><time>2026-05-03T14:39:35.502Z</time></trkpt><trkpt lat="44.6195922" lon="10.0008317"><ele>257.5</ele><time>2026-05-03T14:39:36.502Z</time></trkpt><trkpt lat="44.6196487" lon="10.0009923"><ele>253.75</ele><time>2026-05-03T14:39:37.502Z</time></trkpt><trkpt lat="44.6197138" lon="10.0011372"><ele>250.0</ele><time>2026-05-03T14:39:38.502Z</time></trkpt><trkpt lat="44.6197999" lon="10.0012557"><ele>250.0</ele><time>2026-05-03T14:39:39.502Z</time></trkpt><trkpt lat="44.6199023" lon="10.0013566"><ele>250.0</ele><time>2026-05-03T14:39:40.502Z</time></trkpt><trkpt lat="44.6200181" lon="10.0014345"><ele>250.0</ele><time>2026-05-03T14:39:41.503Z</time></trkpt><trkpt lat="44.6201342" lon="10.0015106"><ele>250.0</ele><time>2026-05-03T14:39:42.502Z</time></trkpt><trkpt lat="44.6202558" lon="10.0015892"><ele>251.25</ele><time>2026-05-03T14:39:43.502Z</time></trkpt><trkpt lat="44.6203749" lon="10.0016695"><ele>252.5</ele><time>2026-05-03T14:39:44.503Z</time></trkpt><trkpt lat="44.6204921" lon="10.001743"><ele>253.75</ele><time>2026-05-03T14:39:45.502Z</time></trkpt><trkpt lat="44.6206114" lon="10.0018059"><ele>255.0</ele><time>2026-05-03T14:39:46.502Z</time></trkpt><trkpt lat="44.6207336" lon="10.0018432"><ele>255.0</ele><time>2026-05-03T14:39:47.502Z</time></trkpt><trkpt lat="44.6208558" lon="10.0018724"><ele>255.0</ele><time>2026-05-03T14:39:48.502Z</time></trkpt><trkpt lat="44.620967" lon="10.0019081"><ele>255.0</ele><time>2026-05-03T14:39:49.502Z</time></trkpt><trkpt lat="44.6210694" lon="10.0019758"><ele>255.0</ele><time>2026-05-03T14:39:50.503Z</time></trkpt><trkpt lat="44.6211593" lon="10.0020716"><ele>254.75</ele><time>2026-05-03T14:39:51.502Z</time></trkpt><trkpt lat="44.6212146" lon="10.002224"><ele>254.5</ele><time>2026-05-03T14:39:52.502Z</time></trkpt><trkpt lat="44.621277" lon="10.0023749"><ele>254.25</ele><time>2026-05-03T14:39:53.503Z</time></trkpt><trkpt lat="44.6213675" lon="10.0025038"><ele>254.0</ele><time>2026-05-03T14:39:54.502Z</time></trkpt><trkpt lat="44.6214689" lon="10.0026215"><ele>254.0</ele><time>2026-05-03T14:39:55.502Z</time></trkpt><trkpt lat="44.6215772" lon="10.0027192"><ele>254.0</ele><time>2026-05-03T14:39:56.502Z</time></trkpt><trkpt lat="44.6216957" lon="10.0028089"><ele>254.0</ele><time>2026-05-03T14:39:57.502Z</time></trkpt><trkpt lat="44.6218089" lon="10.002894"><ele>254.0</ele><time>2026-05-03T14:39:58.503Z</time></trkpt><trkpt lat="44.6219211" lon="10.0029803"><ele>253.0</ele><time>2026-05-03T14:39:59.502Z</time></trkpt><trkpt lat="44.6220261" lon="10.0030623"><ele>252.0</ele><time>2026-05-03T14:40:00.502Z</time></trkpt><trkpt lat="44.6221194" lon="10.0031487"><ele>251.0</ele><time>2026-05-03T14:40:01.502Z</time></trkpt><trkpt lat="44.622197" lon="10.0032589"><ele>250.0</ele><time>2026-05-03T14:40:02.502Z</time></trkpt><trkpt lat="44.6222786" lon="10.0033677"><ele>250.0</ele><time>2026-05-03T14:40:03.502Z</time></trkpt><trkpt lat="44.6222746" lon="10.0035613"><ele>250.0</ele><time>2026-05-03T14:40:04.502Z</time></trkpt><trkpt lat="44.6223032" lon="10.0037364"><ele>250.0</ele><time>2026-05-03T14:40:05.502Z</time></trkpt><trkpt lat="44.6223516" lon="10.0039135"><ele>250.0</ele><time>2026-05-03T14:40:06.502Z</time></trkpt><trkpt lat="44.6224077" lon="10.0040884"><ele>250.25</ele><time>2026-05-03T14:40:07.502Z</time></trkpt><trkpt lat="44.6224734" lon="10.0042638"><ele>250.5</ele><time>2026-05-03T14:40:08.502Z</time></trkpt><trkpt lat="44.622543" lon="10.0044343"><ele>250.75</ele><time>2026-05-03T14:40:09.502Z</time></trkpt><trkpt lat="44.6226146" lon="10.004612"><ele>251.0</ele><time>2026-05-03T14:40:10.502Z</time></trkpt><trkpt lat="44.6226918" lon="10.0047867"><ele>251.0</ele><time>2026-05-03T14:40:11.502Z</time></trkpt><trkpt lat="44.6227706" lon="10.0049658"><ele>251.0</ele><time>2026-05-03T14:40:12.503Z</time></trkpt><trkpt lat="44.6228507" lon="10.0051459"><ele>251.0</ele><time>2026-05-03T14:40:13.503Z</time></trkpt><trkpt lat="44.6229318" lon="10.0053279"><ele>247.0</ele><time>2026-05-03T14:40:14.503Z</time></trkpt><trkpt lat="44.6230119" lon="10.0055115"><ele>243.0</ele><time>2026-05-03T14:40:15.502Z</time></trkpt><trkpt lat="44.6230912" lon="10.0056918"><ele>239.0</ele><time>2026-05-03T14:40:16.502Z</time></trkpt><trkpt lat="44.6231727" lon="10.0058698"><ele>239.0</ele><time>2026-05-03T14:40:17.503Z</time></trkpt><trkpt lat="44.6232507" lon="10.0060451"><ele>239.0</ele><time>2026-05-03T14:40:18.503Z</time></trkpt><trkpt lat="44.6233297" lon="10.0062226"><ele>239.0</ele><time>2026-05-03T14:40:19.502Z</time></trkpt><trkpt lat="44.6234103" lon="10.006392"><ele>239.0</ele><time>2026-05-03T14:40:20.502Z</time></trkpt><trkpt lat="44.6234948" lon="10.0065491"><ele>240.25</ele><time>2026-05-03T14:40:21.502Z</time></trkpt><trkpt lat="44.6235891" lon="10.0066976"><ele>241.5</ele><time>2026-05-03T14:40:22.503Z</time></trkpt><trkpt lat="44.6236935" lon="10.0068283"><ele>242.75</ele><time>2026-05-03T14:40:23.503Z</time></trkpt><trkpt lat="44.6238034" lon="10.0069478"><ele>244.0</ele><time>2026-05-03T14:40:24.502Z</time></trkpt><trkpt lat="44.6239171" lon="10.0070645"><ele>242.5</ele><time>2026-05-03T14:40:25.503Z</time></trkpt><trkpt lat="44.6240355" lon="10.0071815"><ele>241.0</ele><time>2026-05-03T14:40:26.502Z</time></trkpt><trkpt lat="44.6241559" lon="10.007302"><ele>239.5</ele><time>2026-05-03T14:40:27.502Z</time></trkpt><trkpt lat="44.6242764" lon="10.0074237"><ele>238.0</ele><time>2026-05-03T14:40:28.502Z</time></trkpt><trkpt lat="44.6244006" lon="10.0075453"><ele>235.33333333333331</ele><time>2026-05-03T14:40:29.502Z</time></trkpt><trkpt lat="44.6245258" lon="10.0076642"><ele>232.66666666666669</ele><time>2026-05-03T14:40:30.502Z</time></trkpt><trkpt lat="44.6246501" lon="10.0077838"><ele>230.0</ele><time>2026-05-03T14:40:31.502Z</time></trkpt><trkpt lat="44.6247754" lon="10.0079083"><ele>230.0</ele><time>2026-05-03T14:40:32.503Z</time></trkpt><trkpt lat="44.6248994" lon="10.0080297"><ele>230.0</ele><time>2026-05-03T14:40:33.502Z</time></trkpt><trkpt lat="44.6250228" lon="10.00815"><ele>230.0</ele><time>2026-05-03T14:40:34.502Z</time></trkpt><trkpt lat="44.6251477" lon="10.0082709"><ele>231.66666666666669</ele><time>2026-05-03T14:40:35.502Z</time></trkpt><trkpt lat="44.6252771" lon="10.0083965"><ele>233.33333333333331</ele><time>2026-05-03T14:40:36.502Z</time></trkpt><trkpt lat="44.6254017" lon="10.0085223"><ele>235.0</ele><time>2026-05-03T14:40:37.502Z</time></trkpt><trkpt lat="44.6255303" lon="10.0086473"><ele>231.0</ele><time>2026-05-03T14:40:38.503Z</time></trkpt><trkpt lat="44.6256564" lon="10.0087678"><ele>227.0</ele><time>2026-05-03T14:40:39.502Z</time></trkpt><trkpt lat="44.6257848" lon="10.0088929"><ele>223.0</ele><time>2026-05-03T14:40:40.503Z</time></trkpt><trkpt lat="44.6259058" lon="10.0090267"><ele>221.33333333333331</ele><time>2026-05-03T14:40:41.503Z</time></trkpt><trkpt lat="44.626021" lon="10.0091724"><ele>219.66666666666669</ele><time>2026-05-03T14:40:42.502Z</time></trkpt><trkpt lat="44.6261233" lon="10.0093315"><ele>218.0</ele><time>2026-05-03T14:40:43.503Z</time></trkpt><trkpt lat="44.6262186" lon="10.0094939"><ele>218.0</ele><time>2026-05-03T14:40:44.502Z</time></trkpt><trkpt lat="44.6263175" lon="10.0096559"><ele>218.0</ele><time>2026-05-03T14:40:45.502Z</time></trkpt><trkpt lat="44.6264122" lon="10.0098208"><ele>218.0</ele><time>2026-05-03T14:40:46.503Z</time></trkpt><trkpt lat="44.626504" lon="10.0099822"><ele>218.25</ele><time>2026-05-03T14:40:47.502Z</time></trkpt><trkpt lat="44.6265907" lon="10.0101503"><ele>218.5</ele><time>2026-05-03T14:40:48.502Z</time></trkpt><trkpt lat="44.6266743" lon="10.0103185"><ele>218.75</ele><time>2026-05-03T14:40:49.504Z</time></trkpt><trkpt lat="44.6267557" lon="10.0104885"><ele>219.0</ele><time>2026-05-03T14:40:50.502Z</time></trkpt><trkpt lat="44.6268403" lon="10.0106573"><ele>218.25</ele><time>2026-05-03T14:40:51.502Z</time></trkpt><trkpt lat="44.6269238" lon="10.0108253"><ele>217.5</ele><time>2026-05-03T14:40:52.502Z</time></trkpt><trkpt lat="44.6270122" lon="10.0109956"><ele>216.75</ele><time>2026-05-03T14:40:53.504Z</time></trkpt><trkpt lat="44.6271007" lon="10.0111608"><ele>216.0</ele><time>2026-05-03T14:40:54.502Z</time></trkpt><trkpt lat="44.6271962" lon="10.0113184"><ele>216.0</ele><time>2026-05-03T14:40:55.502Z</time></trkpt><trkpt lat="44.6272959" lon="10.0114739"><ele>216.0</ele><time>2026-05-03T14:40:56.503Z</time></trkpt><trkpt lat="44.6273951" lon="10.0116242"><ele>216.0</ele><time>2026-05-03T14:40:57.503Z</time></trkpt><trkpt lat="44.6274959" lon="10.011774"><ele>216.0</ele><time>2026-05-03T14:40:58.502Z</time></trkpt><trkpt lat="44.6276012" lon="10.011926"><ele>216.75</ele><time>2026-05-03T14:40:59.502Z</time></trkpt><trkpt lat="44.6277028" lon="10.0120752"><ele>217.5</ele><time>2026-05-03T14:41:00.502Z</time></trkpt><trkpt lat="44.6278045" lon="10.0122241"><ele>218.25</ele><time>2026-05-03T14:41:01.502Z</time></trkpt><trkpt lat="44.6279064" lon="10.0123774"><ele>219.0</ele><time>2026-05-03T14:41:02.502Z</time></trkpt><trkpt lat="44.6280075" lon="10.0125294"><ele>219.0</ele><time>2026-05-03T14:41:03.502Z</time></trkpt><trkpt lat="44.6281084" lon="10.0126846"><ele>219.0</ele><time>2026-05-03T14:41:04.502Z</time></trkpt><trkpt lat="44.6282094" lon="10.0128357"><ele>219.0</ele><time>2026-05-03T14:41:05.502Z</time></trkpt><trkpt lat="44.6283248" lon="10.0129852"><ele>219.0</ele><time>2026-05-03T14:41:06.502Z</time></trkpt><trkpt lat="44.6284628" lon="10.0130537"><ele>219.0</ele><time>2026-05-03T14:41:07.502Z</time></trkpt><trkpt lat="44.6285881" lon="10.0131104"><ele>219.0</ele><time>2026-05-03T14:41:08.502Z</time></trkpt><trkpt lat="44.6287132" lon="10.0131625"><ele>219.0</ele><time>2026-05-03T14:41:09.502Z</time></trkpt><trkpt lat="44.6288271" lon="10.0132252"><ele>218.39999999999998</ele><time>2026-05-03T14:41:10.502Z</time></trkpt><trkpt lat="44.6289319" lon="10.0133061"><ele>217.79999999999998</ele><time>2026-05-03T14:41:11.502Z</time></trkpt><trkpt lat="44.6290074" lon="10.0134113"><ele>217.20000000000002</ele><time>2026-05-03T14:41:12.502Z</time></trkpt><trkpt lat="44.6290563" lon="10.0135483"><ele>216.60000000000002</ele><time>2026-05-03T14:41:13.502Z</time></trkpt><trkpt lat="44.6290736" lon="10.0137049"><ele>216.0</ele><time>2026-05-03T14:41:14.502Z</time></trkpt><trkpt lat="44.6290638" lon="10.013881"><ele>216.0</ele><time>2026-05-03T14:41:15.502Z</time></trkpt><trkpt lat="44.6290471" lon="10.0140694"><ele>216.0</ele><time>2026-05-03T14:41:16.502Z</time></trkpt><trkpt lat="44.6290251" lon="10.014265"><ele>216.0</ele><time>2026-05-03T14:41:17.502Z</time></trkpt><trkpt lat="44.6290085" lon="10.0144651"><ele>216.0</ele><time>2026-05-03T14:41:18.503Z</time></trkpt><trkpt lat="44.6289894" lon="10.0146646"><ele>215.25</ele><time>2026-05-03T14:41:19.502Z</time></trkpt><trkpt lat="44.6289674" lon="10.014875"><ele>214.5</ele><time>2026-05-03T14:41:20.502Z</time></trkpt><trkpt lat="44.6289492" lon="10.0150745"><ele>213.75</ele><time>2026-05-03T14:41:21.502Z</time></trkpt><trkpt lat="44.628932" lon="10.0152759"><ele>213.0</ele><time>2026-05-03T14:41:22.502Z</time></trkpt><trkpt lat="44.6289124" lon="10.0154757"><ele>213.0</ele><time>2026-05-03T14:41:23.502Z</time></trkpt><trkpt lat="44.628891" lon="10.0156763"><ele>213.0</ele><time>2026-05-03T14:41:24.502Z</time></trkpt><trkpt lat="44.6288736" lon="10.0158739"><ele>213.0</ele><time>2026-05-03T14:41:25.502Z</time></trkpt><trkpt lat="44.628857" lon="10.0160746"><ele>213.0</ele><time>2026-05-03T14:41:26.502Z</time></trkpt><trkpt lat="44.6288373" lon="10.0162739"><ele>212.5</ele><time>2026-05-03T14:41:27.502Z</time></trkpt><trkpt lat="44.6288163" lon="10.016478"><ele>212.0</ele><time>2026-05-03T14:41:28.502Z</time></trkpt><trkpt lat="44.6287962" lon="10.0166689"><ele>211.5</ele><time>2026-05-03T14:41:29.502Z</time></trkpt><trkpt lat="44.6287817" lon="10.0168703"><ele>211.0</ele><time>2026-05-03T14:41:30.502Z</time></trkpt><trkpt lat="44.6287622" lon="10.0170727"><ele>210.5</ele><time>2026-05-03T14:41:31.502Z</time></trkpt><trkpt lat="44.6287395" lon="10.0172768"><ele>210.0</ele><time>2026-05-03T14:41:32.502Z</time></trkpt><trkpt lat="44.6287202" lon="10.0174844"><ele>209.5</ele><time>2026-05-03T14:41:33.503Z</time></trkpt><trkpt lat="44.6287" lon="10.0176917"><ele>209.0</ele><time>2026-05-03T14:41:34.502Z</time></trkpt><trkpt lat="44.6286821" lon="10.0178929"><ele>208.75</ele><time>2026-05-03T14:41:35.502Z</time></trkpt><trkpt lat="44.628662" lon="10.0180963"><ele>208.5</ele><time>2026-05-03T14:41:36.502Z</time></trkpt><trkpt lat="44.6286487" lon="10.0183021"><ele>208.25</ele><time>2026-05-03T14:41:37.502Z</time></trkpt><trkpt lat="44.6286416" lon="10.0185041"><ele>208.0</ele><time>2026-05-03T14:41:38.502Z</time></trkpt><trkpt lat="44.6286421" lon="10.0187058"><ele>207.75</ele><time>2026-05-03T14:41:39.503Z</time></trkpt><trkpt lat="44.6286524" lon="10.0189083"><ele>207.5</ele><time>2026-05-03T14:41:40.502Z</time></trkpt><trkpt lat="44.6286691" lon="10.0191124"><ele>207.25</ele><time>2026-05-03T14:41:41.502Z</time></trkpt><trkpt lat="44.6286951" lon="10.0193137"><ele>207.0</ele><time>2026-05-03T14:41:42.503Z</time></trkpt><trkpt lat="44.6287263" lon="10.0195119"><ele>206.0</ele><time>2026-05-03T14:41:43.502Z</time></trkpt><trkpt lat="44.6287659" lon="10.0197062"><ele>205.0</ele><time>2026-05-03T14:41:44.502Z</time></trkpt><trkpt lat="44.628803" lon="10.019909"><ele>204.0</ele><time>2026-05-03T14:41:45.502Z</time></trkpt><trkpt lat="44.6288394" lon="10.0201125"><ele>203.0</ele><time>2026-05-03T14:41:46.502Z</time></trkpt><trkpt lat="44.6288774" lon="10.0203142"><ele>202.75</ele><time>2026-05-03T14:41:47.502Z</time></trkpt><trkpt lat="44.628923" lon="10.0205143"><ele>202.5</ele><time>2026-05-03T14:41:48.502Z</time></trkpt><trkpt lat="44.6289799" lon="10.0207052"><ele>202.25</ele><time>2026-05-03T14:41:49.503Z</time></trkpt><trkpt lat="44.6290463" lon="10.0208832"><ele>202.0</ele><time>2026-05-03T14:41:50.502Z</time></trkpt><trkpt lat="44.6291195" lon="10.0210552"><ele>203.0</ele><time>2026-05-03T14:41:51.502Z</time></trkpt><trkpt lat="44.6291903" lon="10.02121"><ele>204.0</ele><time>2026-05-03T14:41:52.502Z</time></trkpt><trkpt lat="44.6292677" lon="10.0213807"><ele>205.0</ele><time>2026-05-03T14:41:53.502Z</time></trkpt><trkpt lat="44.6293391" lon="10.0215659"><ele>206.0</ele><time>2026-05-03T14:41:54.502Z</time></trkpt><trkpt lat="44.6294016" lon="10.0217532"><ele>203.5</ele><time>2026-05-03T14:41:55.502Z</time></trkpt><trkpt lat="44.6294638" lon="10.021944"><ele>201.0</ele><time>2026-05-03T14:41:56.502Z</time></trkpt><trkpt lat="44.6295277" lon="10.0221531"><ele>198.5</ele><time>2026-05-03T14:41:57.502Z</time></trkpt><trkpt lat="44.6295836" lon="10.0223133"><ele>196.0</ele><time>2026-05-03T14:41:58.502Z</time></trkpt><trkpt lat="44.6296523" lon="10.0224769"><ele>198.25</ele><time>2026-05-03T14:41:59.502Z</time></trkpt><trkpt lat="44.6297471" lon="10.0226392"><ele>200.5</ele><time>2026-05-03T14:42:00.503Z</time></trkpt><trkpt lat="44.6298357" lon="10.0228093"><ele>202.75</ele><time>2026-05-03T14:42:01.502Z</time></trkpt><trkpt lat="44.6298812" lon="10.0229816"><ele>205.0</ele><time>2026-05-03T14:42:02.502Z</time></trkpt><trkpt lat="44.6299452" lon="10.0231642"><ele>207.75</ele><time>2026-05-03T14:42:03.503Z</time></trkpt><trkpt lat="44.6300091" lon="10.023341"><ele>210.5</ele><time>2026-05-03T14:42:04.503Z</time></trkpt><trkpt lat="44.6300722" lon="10.0234964"><ele>213.25</ele><time>2026-05-03T14:42:05.502Z</time></trkpt><trkpt lat="44.630167" lon="10.0236495"><ele>216.0</ele><time>2026-05-03T14:42:06.502Z</time></trkpt><trkpt lat="44.6302725" lon="10.0237925"><ele>213.33333333333331</ele><time>2026-05-03T14:42:07.503Z</time></trkpt><trkpt lat="44.6303813" lon="10.0239364"><ele>210.66666666666666</ele><time>2026-05-03T14:42:08.502Z</time></trkpt><trkpt lat="44.6304978" lon="10.0240858"><ele>208.0</ele><time>2026-05-03T14:42:09.503Z</time></trkpt><trkpt lat="44.6306132" lon="10.0242457"><ele>208.0</ele><time>2026-05-03T14:42:10.503Z</time></trkpt><trkpt lat="44.6307279" lon="10.0243981"><ele>208.0</ele><time>2026-05-03T14:42:11.502Z</time></trkpt><trkpt lat="44.6308432" lon="10.0245494"><ele>208.0</ele><time>2026-05-03T14:42:12.503Z</time></trkpt><trkpt lat="44.6309538" lon="10.024699"><ele>208.0</ele><time>2026-05-03T14:42:13.502Z</time></trkpt><trkpt lat="44.6310597" lon="10.0248502"><ele>208.0</ele><time>2026-05-03T14:42:14.502Z</time></trkpt><trkpt lat="44.6311598" lon="10.0250091"><ele>208.0</ele><time>2026-05-03T14:42:15.502Z</time></trkpt><trkpt lat="44.6312521" lon="10.0251717"><ele>205.66666666666666</ele><time>2026-05-03T14:42:16.502Z</time></trkpt><trkpt lat="44.6313451" lon="10.0253374"><ele>203.33333333333331</ele><time>2026-05-03T14:42:17.503Z</time></trkpt><trkpt lat="44.6314337" lon="10.0255089"><ele>201.0</ele><time>2026-05-03T14:42:18.502Z</time></trkpt><trkpt lat="44.6315234" lon="10.0256803"><ele>203.66666666666669</ele><time>2026-05-03T14:42:19.501Z</time></trkpt><trkpt lat="44.6316145" lon="10.0258542"><ele>206.33333333333334</ele><time>2026-05-03T14:42:20.501Z</time></trkpt><trkpt lat="44.6317084" lon="10.0260255"><ele>209.0</ele><time>2026-05-03T14:42:21.501Z</time></trkpt><trkpt lat="44.631799" lon="10.0262003"><ele>209.0</ele><time>2026-05-03T14:42:22.501Z</time></trkpt><trkpt lat="44.631892" lon="10.0263731"><ele>209.0</ele><time>2026-05-03T14:42:23.501Z</time></trkpt><trkpt lat="44.6319868" lon="10.0265466"><ele>209.0</ele><time>2026-05-03T14:42:24.501Z</time></trkpt><trkpt lat="44.6320787" lon="10.0267178"><ele>206.75</ele><time>2026-05-03T14:42:25.501Z</time></trkpt><trkpt lat="44.6321702" lon="10.0268854"><ele>204.5</ele><time>2026-05-03T14:42:26.501Z</time></trkpt><trkpt lat="44.6322599" lon="10.0270494"><ele>202.25</ele><time>2026-05-03T14:42:27.502Z</time></trkpt><trkpt lat="44.6323473" lon="10.0272122"><ele>200.0</ele><time>2026-05-03T14:42:28.502Z</time></trkpt><trkpt lat="44.632435" lon="10.0273717"><ele>201.5</ele><time>2026-05-03T14:42:29.501Z</time></trkpt><trkpt lat="44.6325229" lon="10.0275336"><ele>203.0</ele><time>2026-05-03T14:42:30.501Z</time></trkpt><trkpt lat="44.6326113" lon="10.0276994"><ele>204.5</ele><time>2026-05-03T14:42:31.501Z</time></trkpt><trkpt lat="44.6327021" lon="10.0278684"><ele>206.0</ele><time>2026-05-03T14:42:32.501Z</time></trkpt><trkpt lat="44.6327913" lon="10.0280353"><ele>204.0</ele><time>2026-05-03T14:42:33.501Z</time></trkpt><trkpt lat="44.6328798" lon="10.0282012"><ele>202.0</ele><time>2026-05-03T14:42:34.501Z</time></trkpt><trkpt lat="44.6329734" lon="10.028369"><ele>200.0</ele><time>2026-05-03T14:42:35.501Z</time></trkpt><trkpt lat="44.6330629" lon="10.0285353"><ele>198.0</ele><time>2026-05-03T14:42:36.503Z</time></trkpt><trkpt lat="44.6331491" lon="10.0287047"><ele>198.0</ele><time>2026-05-03T14:42:37.502Z</time></trkpt><trkpt lat="44.6332286" lon="10.028876"><ele>198.0</ele><time>2026-05-03T14:42:38.501Z</time></trkpt><trkpt lat="44.6333039" lon="10.029049"><ele>198.0</ele><time>2026-05-03T14:42:39.502Z</time></trkpt><trkpt lat="44.6333794" lon="10.0292246"><ele>198.0</ele><time>2026-05-03T14:42:40.501Z</time></trkpt><trkpt lat="44.6334542" lon="10.0294001"><ele>197.75</ele><time>2026-05-03T14:42:41.501Z</time></trkpt><trkpt lat="44.6335289" lon="10.0295738"><ele>197.5</ele><time>2026-05-03T14:42:42.501Z</time></trkpt><trkpt lat="44.6336048" lon="10.0297513"><ele>197.25</ele><time>2026-05-03T14:42:43.501Z</time></trkpt><trkpt lat="44.6336792" lon="10.0299273"><ele>197.0</ele><time>2026-05-03T14:42:44.501Z</time></trkpt><trkpt lat="44.633752" lon="10.030103"><ele>197.0</ele><time>2026-05-03T14:42:45.502Z</time></trkpt><trkpt lat="44.6338258" lon="10.0302812"><ele>197.0</ele><time>2026-05-03T14:42:46.501Z</time></trkpt><trkpt lat="44.6338939" lon="10.0304685"><ele>197.0</ele><time>2026-05-03T14:42:47.501Z</time></trkpt><trkpt lat="44.633955" lon="10.0306508"><ele>197.0</ele><time>2026-05-03T14:42:48.501Z</time></trkpt><trkpt lat="44.6340179" lon="10.0308436"><ele>199.0</ele><time>2026-05-03T14:42:49.501Z</time></trkpt><trkpt lat="44.6340702" lon="10.031036"><ele>201.0</ele><time>2026-05-03T14:42:50.501Z</time></trkpt><trkpt lat="44.6341249" lon="10.0312347"><ele>203.0</ele><time>2026-05-03T14:42:51.501Z</time></trkpt><trkpt lat="44.6341804" lon="10.031434"><ele>203.0</ele><time>2026-05-03T14:42:52.501Z</time></trkpt><trkpt lat="44.6342339" lon="10.0316252"><ele>203.0</ele><time>2026-05-03T14:42:53.501Z</time></trkpt><trkpt lat="44.6342844" lon="10.0318154"><ele>203.0</ele><time>2026-05-03T14:42:54.501Z</time></trkpt><trkpt lat="44.6343318" lon="10.0320043"><ele>203.0</ele><time>2026-05-03T14:42:55.501Z</time></trkpt><trkpt lat="44.6343763" lon="10.0321892"><ele>204.0</ele><time>2026-05-03T14:42:56.501Z</time></trkpt><trkpt lat="44.6344263" lon="10.0323619"><ele>205.0</ele><time>2026-05-03T14:42:57.501Z</time></trkpt><trkpt lat="44.6344905" lon="10.032506"><ele>206.0</ele><time>2026-05-03T14:42:58.501Z</time></trkpt><trkpt lat="44.6345474" lon="10.0326301"><ele>207.0</ele><time>2026-05-03T14:42:59.501Z</time></trkpt><trkpt lat="44.6345969" lon="10.0327483"><ele>206.0</ele><time>2026-05-03T14:43:00.501Z</time></trkpt><trkpt lat="44.6346485" lon="10.032868"><ele>205.0</ele><time>2026-05-03T14:43:01.501Z</time></trkpt><trkpt lat="44.6346905" lon="10.0329697"><ele>204.0</ele><time>2026-05-03T14:43:02.501Z</time></trkpt><trkpt lat="44.634721" lon="10.0330486"><ele>203.0</ele><time>2026-05-03T14:43:03.501Z</time></trkpt><trkpt lat="44.6347793" lon="10.0331981"><ele>202.0</ele><time>2026-05-03T14:43:05.501Z</time></trkpt><trkpt lat="44.6348236" lon="10.0332728"><ele>201.0</ele><time>2026-05-03T14:43:06.502Z</time></trkpt><trkpt lat="44.6348681" lon="10.0333517"><ele>201.0</ele><time>2026-05-03T14:43:07.501Z</time></trkpt><trkpt lat="44.6349075" lon="10.0334268"><ele>201.0</ele><time>2026-05-03T14:43:08.501Z</time></trkpt><trkpt lat="44.6349887" lon="10.0334773"><ele>201.0</ele><time>2026-05-03T14:43:10.501Z</time></trkpt><trkpt lat="44.6350842" lon="10.0334001"><ele>201.0</ele><time>2026-05-03T14:43:12.501Z</time></trkpt><trkpt lat="44.6351397" lon="10.0333343"><ele>201.0</ele><time>2026-05-03T14:43:13.502Z</time></trkpt><trkpt lat="44.6351853" lon="10.0332697"><ele>201.0</ele><time>2026-05-03T14:43:14.501Z</time></trkpt><trkpt lat="44.6352302" lon="10.0331281"><ele>199.0</ele><time>2026-05-03T14:43:16.501Z</time></trkpt><trkpt lat="44.6352817" lon="10.0330534"><ele>199.0</ele><time>2026-05-03T14:43:18.501Z</time></trkpt></trkseg></trk></gpx>